<?xml version="1.0" encoding="UTF-8" standalone="no" ?>
<gpx xmlns="http://www.topografix.com/GPX/1/1" xmlns:xsi="http://www.w3.org/2001/XMLSchema-instance" xsi:schemaLocation="http://www.topografix.com/GPX/1/1 http://www.topografix.com/GPX/1/1/gpx.xsd" version="1.1" creator="VisuGPX - https://www.visugpx.com">
  <metadata>
    <name>la viste depart espinasses</name>
    <desc><![CDATA[balade avec  karo, delphine, alex, corinne, christian on est rentré crevé]]></desc>
  </metadata>
  <trk>
    <name><![CDATA[ONmove 200 - 23/06/2018]]></name>
    <trkseg>
      <trkpt lat="44.46746" lon="6.23014">
        <ele>689</ele>
        <time>2018-06-23T16:55:05Z</time>
      </trkpt>
      <trkpt lat="44.46745" lon="6.23007">
        <ele>689</ele>
        <time>2018-06-23T16:55:10Z</time>
      </trkpt>
      <trkpt lat="44.46747" lon="6.22999">
        <ele>690</ele>
        <time>2018-06-23T16:55:15Z</time>
      </trkpt>
      <trkpt lat="44.4675" lon="6.22991">
        <ele>690</ele>
        <time>2018-06-23T16:55:20Z</time>
      </trkpt>
      <trkpt lat="44.46751" lon="6.22983">
        <ele>690</ele>
        <time>2018-06-23T16:55:25Z</time>
      </trkpt>
      <trkpt lat="44.46754" lon="6.22974">
        <ele>690</ele>
        <time>2018-06-23T16:55:30Z</time>
      </trkpt>
      <trkpt lat="44.46755" lon="6.22963">
        <ele>690</ele>
        <time>2018-06-23T16:55:35Z</time>
      </trkpt>
      <trkpt lat="44.46758" lon="6.22954">
        <ele>691</ele>
        <time>2018-06-23T16:55:40Z</time>
      </trkpt>
      <trkpt lat="44.4676" lon="6.22945">
        <ele>691</ele>
        <time>2018-06-23T16:55:45Z</time>
      </trkpt>
      <trkpt lat="44.46761" lon="6.22936">
        <ele>691</ele>
        <time>2018-06-23T16:55:50Z</time>
      </trkpt>
      <trkpt lat="44.46762" lon="6.22927">
        <ele>691</ele>
        <time>2018-06-23T16:55:55Z</time>
      </trkpt>
      <trkpt lat="44.46762" lon="6.22917">
        <ele>691</ele>
        <time>2018-06-23T16:56:00Z</time>
      </trkpt>
      <trkpt lat="44.46763" lon="6.22908">
        <ele>691</ele>
        <time>2018-06-23T16:56:05Z</time>
      </trkpt>
      <trkpt lat="44.46764" lon="6.22898">
        <ele>690</ele>
        <time>2018-06-23T16:56:10Z</time>
      </trkpt>
      <trkpt lat="44.46764" lon="6.22889">
        <ele>690</ele>
        <time>2018-06-23T16:56:15Z</time>
      </trkpt>
      <trkpt lat="44.46766" lon="6.2288">
        <ele>690</ele>
        <time>2018-06-23T16:56:20Z</time>
      </trkpt>
      <trkpt lat="44.46768" lon="6.22873">
        <ele>690</ele>
        <time>2018-06-23T16:56:25Z</time>
      </trkpt>
      <trkpt lat="44.46772" lon="6.22868">
        <ele>690</ele>
        <time>2018-06-23T16:56:30Z</time>
      </trkpt>
      <trkpt lat="44.46776" lon="6.22863">
        <ele>690</ele>
        <time>2018-06-23T16:56:35Z</time>
      </trkpt>
      <trkpt lat="44.46781" lon="6.22858">
        <ele>691</ele>
        <time>2018-06-23T16:56:40Z</time>
      </trkpt>
      <trkpt lat="44.46786" lon="6.22856">
        <ele>691</ele>
        <time>2018-06-23T16:56:45Z</time>
      </trkpt>
      <trkpt lat="44.46789" lon="6.22852">
        <ele>691</ele>
        <time>2018-06-23T16:56:50Z</time>
      </trkpt>
      <trkpt lat="44.46793" lon="6.22846">
        <ele>692</ele>
        <time>2018-06-23T16:56:55Z</time>
      </trkpt>
      <trkpt lat="44.46796" lon="6.2284">
        <ele>692</ele>
        <time>2018-06-23T16:57:00Z</time>
      </trkpt>
      <trkpt lat="44.46799" lon="6.22833">
        <ele>692</ele>
        <time>2018-06-23T16:57:05Z</time>
      </trkpt>
      <trkpt lat="44.46804" lon="6.22828">
        <ele>693</ele>
        <time>2018-06-23T16:57:10Z</time>
      </trkpt>
      <trkpt lat="44.46808" lon="6.22821">
        <ele>693</ele>
        <time>2018-06-23T16:57:15Z</time>
      </trkpt>
      <trkpt lat="44.46812" lon="6.22814">
        <ele>694</ele>
        <time>2018-06-23T16:57:20Z</time>
      </trkpt>
      <trkpt lat="44.46816" lon="6.22807">
        <ele>694</ele>
        <time>2018-06-23T16:57:25Z</time>
      </trkpt>
      <trkpt lat="44.4682" lon="6.22799">
        <ele>695</ele>
        <time>2018-06-23T16:57:30Z</time>
      </trkpt>
      <trkpt lat="44.46823" lon="6.2279">
        <ele>695</ele>
        <time>2018-06-23T16:57:35Z</time>
      </trkpt>
      <trkpt lat="44.46827" lon="6.22782">
        <ele>696</ele>
        <time>2018-06-23T16:57:40Z</time>
      </trkpt>
      <trkpt lat="44.46832" lon="6.22777">
        <ele>697</ele>
        <time>2018-06-23T16:57:45Z</time>
      </trkpt>
      <trkpt lat="44.46838" lon="6.22773">
        <ele>698</ele>
        <time>2018-06-23T16:57:50Z</time>
      </trkpt>
      <trkpt lat="44.46842" lon="6.22778">
        <ele>698</ele>
        <time>2018-06-23T16:57:55Z</time>
      </trkpt>
      <trkpt lat="44.46845" lon="6.22784">
        <ele>699</ele>
        <time>2018-06-23T16:58:00Z</time>
      </trkpt>
      <trkpt lat="44.46848" lon="6.22792">
        <ele>699</ele>
        <time>2018-06-23T16:58:05Z</time>
      </trkpt>
      <trkpt lat="44.4685" lon="6.228">
        <ele>699</ele>
        <time>2018-06-23T16:58:10Z</time>
      </trkpt>
      <trkpt lat="44.46853" lon="6.22807">
        <ele>700</ele>
        <time>2018-06-23T16:58:15Z</time>
      </trkpt>
      <trkpt lat="44.46856" lon="6.22815">
        <ele>701</ele>
        <time>2018-06-23T16:58:20Z</time>
      </trkpt>
      <trkpt lat="44.46857" lon="6.22824">
        <ele>701</ele>
        <time>2018-06-23T16:58:25Z</time>
      </trkpt>
      <trkpt lat="44.4686" lon="6.22832">
        <ele>701</ele>
        <time>2018-06-23T16:58:30Z</time>
      </trkpt>
      <trkpt lat="44.46863" lon="6.22839">
        <ele>702</ele>
        <time>2018-06-23T16:58:35Z</time>
      </trkpt>
      <trkpt lat="44.46866" lon="6.22846">
        <ele>703</ele>
        <time>2018-06-23T16:58:40Z</time>
      </trkpt>
      <trkpt lat="44.46868" lon="6.22853">
        <ele>703</ele>
        <time>2018-06-23T16:58:45Z</time>
      </trkpt>
      <trkpt lat="44.46871" lon="6.2286">
        <ele>704</ele>
        <time>2018-06-23T16:58:50Z</time>
      </trkpt>
      <trkpt lat="44.46874" lon="6.22867">
        <ele>705</ele>
        <time>2018-06-23T16:58:55Z</time>
      </trkpt>
      <trkpt lat="44.46876" lon="6.2287">
        <ele>705</ele>
        <time>2018-06-23T16:59:00Z</time>
      </trkpt>
      <trkpt lat="44.46876" lon="6.2287">
        <ele>705</ele>
        <time>2018-06-23T16:59:05Z</time>
      </trkpt>
      <trkpt lat="44.4688" lon="6.22869">
        <ele>706</ele>
        <time>2018-06-23T16:59:10Z</time>
      </trkpt>
      <trkpt lat="44.46884" lon="6.22863">
        <ele>706</ele>
        <time>2018-06-23T16:59:15Z</time>
      </trkpt>
      <trkpt lat="44.46887" lon="6.22856">
        <ele>707</ele>
        <time>2018-06-23T16:59:20Z</time>
      </trkpt>
      <trkpt lat="44.46892" lon="6.22848">
        <ele>708</ele>
        <time>2018-06-23T16:59:25Z</time>
      </trkpt>
      <trkpt lat="44.46895" lon="6.22841">
        <ele>709</ele>
        <time>2018-06-23T16:59:30Z</time>
      </trkpt>
      <trkpt lat="44.46897" lon="6.22839">
        <ele>710</ele>
        <time>2018-06-23T16:59:35Z</time>
      </trkpt>
      <trkpt lat="44.46899" lon="6.22837">
        <ele>710</ele>
        <time>2018-06-23T16:59:40Z</time>
      </trkpt>
      <trkpt lat="44.46901" lon="6.22835">
        <ele>711</ele>
        <time>2018-06-23T16:59:45Z</time>
      </trkpt>
      <trkpt lat="44.46901" lon="6.22835">
        <ele>711</ele>
        <time>2018-06-23T16:59:50Z</time>
      </trkpt>
      <trkpt lat="44.46902" lon="6.22835">
        <ele>711</ele>
        <time>2018-06-23T16:59:55Z</time>
      </trkpt>
      <trkpt lat="44.46905" lon="6.22832">
        <ele>712</ele>
        <time>2018-06-23T17:00:00Z</time>
      </trkpt>
      <trkpt lat="44.4691" lon="6.22828">
        <ele>713</ele>
        <time>2018-06-23T17:00:05Z</time>
      </trkpt>
      <trkpt lat="44.46912" lon="6.22825">
        <ele>714</ele>
        <time>2018-06-23T17:00:10Z</time>
      </trkpt>
      <trkpt lat="44.46915" lon="6.22822">
        <ele>715</ele>
        <time>2018-06-23T17:00:15Z</time>
      </trkpt>
      <trkpt lat="44.46918" lon="6.22817">
        <ele>716</ele>
        <time>2018-06-23T17:00:20Z</time>
      </trkpt>
      <trkpt lat="44.46919" lon="6.22811">
        <ele>716</ele>
        <time>2018-06-23T17:00:25Z</time>
      </trkpt>
      <trkpt lat="44.46921" lon="6.22802">
        <ele>718</ele>
        <time>2018-06-23T17:00:30Z</time>
      </trkpt>
      <trkpt lat="44.46921" lon="6.2279">
        <ele>718</ele>
        <time>2018-06-23T17:00:35Z</time>
      </trkpt>
      <trkpt lat="44.46919" lon="6.22777">
        <ele>720</ele>
        <time>2018-06-23T17:00:41Z</time>
      </trkpt>
      <trkpt lat="44.46917" lon="6.22768">
        <ele>720</ele>
        <time>2018-06-23T17:00:46Z</time>
      </trkpt>
      <trkpt lat="44.46914" lon="6.22758">
        <ele>721</ele>
        <time>2018-06-23T17:00:52Z</time>
      </trkpt>
      <trkpt lat="44.46912" lon="6.2275">
        <ele>720</ele>
        <time>2018-06-23T17:00:57Z</time>
      </trkpt>
      <trkpt lat="44.46909" lon="6.22743">
        <ele>720</ele>
        <time>2018-06-23T17:01:02Z</time>
      </trkpt>
      <trkpt lat="44.46907" lon="6.22741">
        <ele>720</ele>
        <time>2018-06-23T17:01:07Z</time>
      </trkpt>
      <trkpt lat="44.46906" lon="6.22735">
        <ele>720</ele>
        <time>2018-06-23T17:01:12Z</time>
      </trkpt>
      <trkpt lat="44.46908" lon="6.22729">
        <ele>721</ele>
        <time>2018-06-23T17:01:17Z</time>
      </trkpt>
      <trkpt lat="44.46912" lon="6.22725">
        <ele>723</ele>
        <time>2018-06-23T17:01:22Z</time>
      </trkpt>
      <trkpt lat="44.46915" lon="6.2272">
        <ele>725</ele>
        <time>2018-06-23T17:01:27Z</time>
      </trkpt>
      <trkpt lat="44.46914" lon="6.22712">
        <ele>726</ele>
        <time>2018-06-23T17:01:33Z</time>
      </trkpt>
      <trkpt lat="44.46913" lon="6.22703">
        <ele>727</ele>
        <time>2018-06-23T17:01:38Z</time>
      </trkpt>
      <trkpt lat="44.46914" lon="6.22701">
        <ele>728</ele>
        <time>2018-06-23T17:01:44Z</time>
      </trkpt>
      <trkpt lat="44.46916" lon="6.22704">
        <ele>728</ele>
        <time>2018-06-23T17:01:50Z</time>
      </trkpt>
      <trkpt lat="44.46919" lon="6.22709">
        <ele>728</ele>
        <time>2018-06-23T17:01:55Z</time>
      </trkpt>
      <trkpt lat="44.46922" lon="6.22713">
        <ele>729</ele>
        <time>2018-06-23T17:02:01Z</time>
      </trkpt>
      <trkpt lat="44.46924" lon="6.22717">
        <ele>730</ele>
        <time>2018-06-23T17:02:06Z</time>
      </trkpt>
      <trkpt lat="44.46926" lon="6.22722">
        <ele>731</ele>
        <time>2018-06-23T17:02:11Z</time>
      </trkpt>
      <trkpt lat="44.46928" lon="6.22726">
        <ele>732</ele>
        <time>2018-06-23T17:02:16Z</time>
      </trkpt>
      <trkpt lat="44.46929" lon="6.22728">
        <ele>732</ele>
        <time>2018-06-23T17:02:21Z</time>
      </trkpt>
      <trkpt lat="44.4693" lon="6.22731">
        <ele>733</ele>
        <time>2018-06-23T17:02:26Z</time>
      </trkpt>
      <trkpt lat="44.46931" lon="6.22734">
        <ele>733</ele>
        <time>2018-06-23T17:02:31Z</time>
      </trkpt>
      <trkpt lat="44.46933" lon="6.2274">
        <ele>734</ele>
        <time>2018-06-23T17:02:36Z</time>
      </trkpt>
      <trkpt lat="44.46934" lon="6.22745">
        <ele>734</ele>
        <time>2018-06-23T17:02:41Z</time>
      </trkpt>
      <trkpt lat="44.46937" lon="6.22749">
        <ele>735</ele>
        <time>2018-06-23T17:02:46Z</time>
      </trkpt>
      <trkpt lat="44.46941" lon="6.22752">
        <ele>738</ele>
        <time>2018-06-23T17:02:51Z</time>
      </trkpt>
      <trkpt lat="44.46944" lon="6.22755">
        <ele>740</ele>
        <time>2018-06-23T17:02:56Z</time>
      </trkpt>
      <trkpt lat="44.46944" lon="6.22758">
        <ele>739</ele>
        <time>2018-06-23T17:03:01Z</time>
      </trkpt>
      <trkpt lat="44.46945" lon="6.22761">
        <ele>740</ele>
        <time>2018-06-23T17:03:06Z</time>
      </trkpt>
      <trkpt lat="44.46946" lon="6.22764">
        <ele>741</ele>
        <time>2018-06-23T17:03:12Z</time>
      </trkpt>
      <trkpt lat="44.4695" lon="6.22771">
        <ele>742</ele>
        <time>2018-06-23T17:03:18Z</time>
      </trkpt>
      <trkpt lat="44.46954" lon="6.22775">
        <ele>744</ele>
        <time>2018-06-23T17:03:23Z</time>
      </trkpt>
      <trkpt lat="44.46958" lon="6.2278">
        <ele>746</ele>
        <time>2018-06-23T17:03:28Z</time>
      </trkpt>
      <trkpt lat="44.46959" lon="6.22783">
        <ele>747</ele>
        <time>2018-06-23T17:03:31Z</time>
      </trkpt>
      <trkpt lat="44.46961" lon="6.22786">
        <ele>747</ele>
        <time>2018-06-23T17:03:33Z</time>
      </trkpt>
      <trkpt lat="44.46962" lon="6.2279">
        <ele>747</ele>
        <time>2018-06-23T17:03:38Z</time>
      </trkpt>
      <trkpt lat="44.46964" lon="6.22795">
        <ele>748</ele>
        <time>2018-06-23T17:03:43Z</time>
      </trkpt>
      <trkpt lat="44.46965" lon="6.22801">
        <ele>748</ele>
        <time>2018-06-23T17:03:48Z</time>
      </trkpt>
      <trkpt lat="44.46965" lon="6.22807">
        <ele>746</ele>
        <time>2018-06-23T17:03:53Z</time>
      </trkpt>
      <trkpt lat="44.46966" lon="6.2281">
        <ele>746</ele>
        <time>2018-06-23T17:03:58Z</time>
      </trkpt>
      <trkpt lat="44.46968" lon="6.22814">
        <ele>747</ele>
        <time>2018-06-23T17:04:03Z</time>
      </trkpt>
      <trkpt lat="44.46968" lon="6.22818">
        <ele>746</ele>
        <time>2018-06-23T17:04:08Z</time>
      </trkpt>
      <trkpt lat="44.46974" lon="6.22811">
        <ele>752</ele>
        <time>2018-06-23T17:04:13Z</time>
      </trkpt>
      <trkpt lat="44.46974" lon="6.22807">
        <ele>752</ele>
        <time>2018-06-23T17:04:18Z</time>
      </trkpt>
      <trkpt lat="44.46973" lon="6.228">
        <ele>753</ele>
        <time>2018-06-23T17:04:23Z</time>
      </trkpt>
      <trkpt lat="44.46973" lon="6.22795">
        <ele>754</ele>
        <time>2018-06-23T17:04:28Z</time>
      </trkpt>
      <trkpt lat="44.46972" lon="6.22789">
        <ele>755</ele>
        <time>2018-06-23T17:04:33Z</time>
      </trkpt>
      <trkpt lat="44.4697" lon="6.22783">
        <ele>755</ele>
        <time>2018-06-23T17:04:38Z</time>
      </trkpt>
      <trkpt lat="44.46968" lon="6.22778">
        <ele>754</ele>
        <time>2018-06-23T17:04:43Z</time>
      </trkpt>
      <trkpt lat="44.46967" lon="6.22773">
        <ele>754</ele>
        <time>2018-06-23T17:04:48Z</time>
      </trkpt>
      <trkpt lat="44.46966" lon="6.22768">
        <ele>754</ele>
        <time>2018-06-23T17:04:53Z</time>
      </trkpt>
      <trkpt lat="44.46965" lon="6.22762">
        <ele>755</ele>
        <time>2018-06-23T17:04:58Z</time>
      </trkpt>
      <trkpt lat="44.46965" lon="6.22757">
        <ele>756</ele>
        <time>2018-06-23T17:05:03Z</time>
      </trkpt>
      <trkpt lat="44.46965" lon="6.22754">
        <ele>756</ele>
        <time>2018-06-23T17:05:08Z</time>
      </trkpt>
      <trkpt lat="44.46964" lon="6.22749">
        <ele>756</ele>
        <time>2018-06-23T17:05:13Z</time>
      </trkpt>
      <trkpt lat="44.46963" lon="6.22745">
        <ele>756</ele>
        <time>2018-06-23T17:05:18Z</time>
      </trkpt>
      <trkpt lat="44.46964" lon="6.22741">
        <ele>758</ele>
        <time>2018-06-23T17:05:23Z</time>
      </trkpt>
      <trkpt lat="44.46966" lon="6.22741">
        <ele>759</ele>
        <time>2018-06-23T17:05:28Z</time>
      </trkpt>
      <trkpt lat="44.46966" lon="6.22743">
        <ele>760</ele>
        <time>2018-06-23T17:05:33Z</time>
      </trkpt>
      <trkpt lat="44.46967" lon="6.22746">
        <ele>759</ele>
        <time>2018-06-23T17:05:38Z</time>
      </trkpt>
      <trkpt lat="44.46968" lon="6.2275">
        <ele>759</ele>
        <time>2018-06-23T17:05:43Z</time>
      </trkpt>
      <trkpt lat="44.4697" lon="6.22754">
        <ele>760</ele>
        <time>2018-06-23T17:05:48Z</time>
      </trkpt>
      <trkpt lat="44.46971" lon="6.22758">
        <ele>760</ele>
        <time>2018-06-23T17:05:53Z</time>
      </trkpt>
      <trkpt lat="44.46974" lon="6.22762">
        <ele>762</ele>
        <time>2018-06-23T17:05:58Z</time>
      </trkpt>
      <trkpt lat="44.46976" lon="6.22766">
        <ele>762</ele>
        <time>2018-06-23T17:06:03Z</time>
      </trkpt>
      <trkpt lat="44.46978" lon="6.2277">
        <ele>763</ele>
        <time>2018-06-23T17:06:08Z</time>
      </trkpt>
      <trkpt lat="44.4698" lon="6.22774">
        <ele>764</ele>
        <time>2018-06-23T17:06:13Z</time>
      </trkpt>
      <trkpt lat="44.46981" lon="6.22778">
        <ele>764</ele>
        <time>2018-06-23T17:06:18Z</time>
      </trkpt>
      <trkpt lat="44.46984" lon="6.2278">
        <ele>765</ele>
        <time>2018-06-23T17:06:23Z</time>
      </trkpt>
      <trkpt lat="44.46986" lon="6.22782">
        <ele>767</ele>
        <time>2018-06-23T17:06:28Z</time>
      </trkpt>
      <trkpt lat="44.46988" lon="6.22783">
        <ele>768</ele>
        <time>2018-06-23T17:06:33Z</time>
      </trkpt>
      <trkpt lat="44.46989" lon="6.22783">
        <ele>769</ele>
        <time>2018-06-23T17:06:38Z</time>
      </trkpt>
      <trkpt lat="44.46989" lon="6.22783">
        <ele>769</ele>
        <time>2018-06-23T17:06:43Z</time>
      </trkpt>
      <trkpt lat="44.46989" lon="6.22784">
        <ele>768</ele>
        <time>2018-06-23T17:06:48Z</time>
      </trkpt>
      <trkpt lat="44.4699" lon="6.22786">
        <ele>769</ele>
        <time>2018-06-23T17:06:53Z</time>
      </trkpt>
      <trkpt lat="44.46991" lon="6.22791">
        <ele>768</ele>
        <time>2018-06-23T17:06:58Z</time>
      </trkpt>
      <trkpt lat="44.46992" lon="6.22797">
        <ele>767</ele>
        <time>2018-06-23T17:07:03Z</time>
      </trkpt>
      <trkpt lat="44.46992" lon="6.22802">
        <ele>766</ele>
        <time>2018-06-23T17:07:08Z</time>
      </trkpt>
      <trkpt lat="44.46993" lon="6.22807">
        <ele>765</ele>
        <time>2018-06-23T17:07:13Z</time>
      </trkpt>
      <trkpt lat="44.46996" lon="6.22812">
        <ele>765</ele>
        <time>2018-06-23T17:07:18Z</time>
      </trkpt>
      <trkpt lat="44.46999" lon="6.22814">
        <ele>765</ele>
        <time>2018-06-23T17:07:23Z</time>
      </trkpt>
      <trkpt lat="44.47" lon="6.22814">
        <ele>766</ele>
        <time>2018-06-23T17:07:28Z</time>
      </trkpt>
      <trkpt lat="44.47001" lon="6.22817">
        <ele>765</ele>
        <time>2018-06-23T17:07:33Z</time>
      </trkpt>
      <trkpt lat="44.47003" lon="6.2282">
        <ele>765</ele>
        <time>2018-06-23T17:07:38Z</time>
      </trkpt>
      <trkpt lat="44.47005" lon="6.22824">
        <ele>765</ele>
        <time>2018-06-23T17:07:43Z</time>
      </trkpt>
      <trkpt lat="44.47008" lon="6.22826">
        <ele>766</ele>
        <time>2018-06-23T17:07:48Z</time>
      </trkpt>
      <trkpt lat="44.47011" lon="6.22829">
        <ele>766</ele>
        <time>2018-06-23T17:07:53Z</time>
      </trkpt>
      <trkpt lat="44.47014" lon="6.22832">
        <ele>766</ele>
        <time>2018-06-23T17:07:58Z</time>
      </trkpt>
      <trkpt lat="44.47016" lon="6.22835">
        <ele>765</ele>
        <time>2018-06-23T17:08:03Z</time>
      </trkpt>
      <trkpt lat="44.47017" lon="6.22839">
        <ele>765</ele>
        <time>2018-06-23T17:08:08Z</time>
      </trkpt>
      <trkpt lat="44.47021" lon="6.22842">
        <ele>765</ele>
        <time>2018-06-23T17:08:13Z</time>
      </trkpt>
      <trkpt lat="44.47025" lon="6.22846">
        <ele>765</ele>
        <time>2018-06-23T17:08:18Z</time>
      </trkpt>
      <trkpt lat="44.47028" lon="6.22849">
        <ele>765</ele>
        <time>2018-06-23T17:08:23Z</time>
      </trkpt>
      <trkpt lat="44.47031" lon="6.22851">
        <ele>766</ele>
        <time>2018-06-23T17:08:28Z</time>
      </trkpt>
      <trkpt lat="44.47035" lon="6.22852">
        <ele>767</ele>
        <time>2018-06-23T17:08:33Z</time>
      </trkpt>
      <trkpt lat="44.47039" lon="6.22852">
        <ele>768</ele>
        <time>2018-06-23T17:08:38Z</time>
      </trkpt>
      <trkpt lat="44.47044" lon="6.22851">
        <ele>770</ele>
        <time>2018-06-23T17:08:43Z</time>
      </trkpt>
      <trkpt lat="44.47047" lon="6.22851">
        <ele>771</ele>
        <time>2018-06-23T17:08:48Z</time>
      </trkpt>
      <trkpt lat="44.47049" lon="6.22851">
        <ele>772</ele>
        <time>2018-06-23T17:08:53Z</time>
      </trkpt>
      <trkpt lat="44.47052" lon="6.22851">
        <ele>773</ele>
        <time>2018-06-23T17:08:58Z</time>
      </trkpt>
      <trkpt lat="44.47054" lon="6.22851">
        <ele>773</ele>
        <time>2018-06-23T17:09:03Z</time>
      </trkpt>
      <trkpt lat="44.47056" lon="6.2285">
        <ele>774</ele>
        <time>2018-06-23T17:09:08Z</time>
      </trkpt>
      <trkpt lat="44.47058" lon="6.22852">
        <ele>774</ele>
        <time>2018-06-23T17:09:13Z</time>
      </trkpt>
      <trkpt lat="44.47062" lon="6.22854">
        <ele>774</ele>
        <time>2018-06-23T17:09:18Z</time>
      </trkpt>
      <trkpt lat="44.47065" lon="6.22856">
        <ele>774</ele>
        <time>2018-06-23T17:09:23Z</time>
      </trkpt>
      <trkpt lat="44.47069" lon="6.22856">
        <ele>775</ele>
        <time>2018-06-23T17:09:28Z</time>
      </trkpt>
      <trkpt lat="44.4707" lon="6.22857">
        <ele>775</ele>
        <time>2018-06-23T17:09:33Z</time>
      </trkpt>
      <trkpt lat="44.47071" lon="6.22857">
        <ele>775</ele>
        <time>2018-06-23T17:09:38Z</time>
      </trkpt>
      <trkpt lat="44.47071" lon="6.22856">
        <ele>775</ele>
        <time>2018-06-23T17:09:43Z</time>
      </trkpt>
      <trkpt lat="44.47071" lon="6.22856">
        <ele>775</ele>
        <time>2018-06-23T17:09:48Z</time>
      </trkpt>
      <trkpt lat="44.4707" lon="6.22855">
        <ele>775</ele>
        <time>2018-06-23T17:09:53Z</time>
      </trkpt>
      <trkpt lat="44.47072" lon="6.22855">
        <ele>776</ele>
        <time>2018-06-23T17:09:58Z</time>
      </trkpt>
      <trkpt lat="44.47075" lon="6.22854">
        <ele>777</ele>
        <time>2018-06-23T17:10:03Z</time>
      </trkpt>
      <trkpt lat="44.47078" lon="6.22852">
        <ele>779</ele>
        <time>2018-06-23T17:10:08Z</time>
      </trkpt>
      <trkpt lat="44.47081" lon="6.22851">
        <ele>779</ele>
        <time>2018-06-23T17:10:13Z</time>
      </trkpt>
      <trkpt lat="44.47085" lon="6.22851">
        <ele>780</ele>
        <time>2018-06-23T17:10:18Z</time>
      </trkpt>
      <trkpt lat="44.47088" lon="6.22851">
        <ele>781</ele>
        <time>2018-06-23T17:10:23Z</time>
      </trkpt>
      <trkpt lat="44.47091" lon="6.22849">
        <ele>782</ele>
        <time>2018-06-23T17:10:28Z</time>
      </trkpt>
      <trkpt lat="44.47094" lon="6.22848">
        <ele>783</ele>
        <time>2018-06-23T17:10:33Z</time>
      </trkpt>
      <trkpt lat="44.47096" lon="6.22849">
        <ele>783</ele>
        <time>2018-06-23T17:10:38Z</time>
      </trkpt>
      <trkpt lat="44.47098" lon="6.2285">
        <ele>783</ele>
        <time>2018-06-23T17:10:43Z</time>
      </trkpt>
      <trkpt lat="44.47099" lon="6.22852">
        <ele>782</ele>
        <time>2018-06-23T17:10:48Z</time>
      </trkpt>
      <trkpt lat="44.47102" lon="6.22851">
        <ele>783</ele>
        <time>2018-06-23T17:10:53Z</time>
      </trkpt>
      <trkpt lat="44.47104" lon="6.22849">
        <ele>784</ele>
        <time>2018-06-23T17:10:58Z</time>
      </trkpt>
      <trkpt lat="44.47108" lon="6.22848">
        <ele>786</ele>
        <time>2018-06-23T17:11:03Z</time>
      </trkpt>
      <trkpt lat="44.47114" lon="6.22847">
        <ele>788</ele>
        <time>2018-06-23T17:11:08Z</time>
      </trkpt>
      <trkpt lat="44.47118" lon="6.22846">
        <ele>789</ele>
        <time>2018-06-23T17:11:13Z</time>
      </trkpt>
      <trkpt lat="44.47122" lon="6.22844">
        <ele>791</ele>
        <time>2018-06-23T17:11:18Z</time>
      </trkpt>
      <trkpt lat="44.47126" lon="6.22844">
        <ele>792</ele>
        <time>2018-06-23T17:11:23Z</time>
      </trkpt>
      <trkpt lat="44.47131" lon="6.22842">
        <ele>794</ele>
        <time>2018-06-23T17:11:28Z</time>
      </trkpt>
      <trkpt lat="44.47134" lon="6.22837">
        <ele>797</ele>
        <time>2018-06-23T17:11:33Z</time>
      </trkpt>
      <trkpt lat="44.47132" lon="6.22836">
        <ele>797</ele>
        <time>2018-06-23T17:11:38Z</time>
      </trkpt>
      <trkpt lat="44.47129" lon="6.22834">
        <ele>797</ele>
        <time>2018-06-23T17:11:43Z</time>
      </trkpt>
      <trkpt lat="44.47125" lon="6.22833">
        <ele>797</ele>
        <time>2018-06-23T17:11:48Z</time>
      </trkpt>
      <trkpt lat="44.47121" lon="6.22831">
        <ele>797</ele>
        <time>2018-06-23T17:11:53Z</time>
      </trkpt>
      <trkpt lat="44.47118" lon="6.2283">
        <ele>797</ele>
        <time>2018-06-23T17:11:58Z</time>
      </trkpt>
      <trkpt lat="44.47115" lon="6.22827">
        <ele>798</ele>
        <time>2018-06-23T17:12:03Z</time>
      </trkpt>
      <trkpt lat="44.47114" lon="6.22826">
        <ele>798</ele>
        <time>2018-06-23T17:12:08Z</time>
      </trkpt>
      <trkpt lat="44.47111" lon="6.22823">
        <ele>799</ele>
        <time>2018-06-23T17:12:13Z</time>
      </trkpt>
      <trkpt lat="44.4711" lon="6.22818">
        <ele>801</ele>
        <time>2018-06-23T17:12:18Z</time>
      </trkpt>
      <trkpt lat="44.47109" lon="6.22813">
        <ele>803</ele>
        <time>2018-06-23T17:12:23Z</time>
      </trkpt>
      <trkpt lat="44.47105" lon="6.22809">
        <ele>804</ele>
        <time>2018-06-23T17:12:28Z</time>
      </trkpt>
      <trkpt lat="44.47101" lon="6.22807">
        <ele>804</ele>
        <time>2018-06-23T17:12:33Z</time>
      </trkpt>
      <trkpt lat="44.47096" lon="6.22807">
        <ele>803</ele>
        <time>2018-06-23T17:12:38Z</time>
      </trkpt>
      <trkpt lat="44.47091" lon="6.22808">
        <ele>801</ele>
        <time>2018-06-23T17:12:43Z</time>
      </trkpt>
      <trkpt lat="44.47087" lon="6.22806">
        <ele>801</ele>
        <time>2018-06-23T17:12:48Z</time>
      </trkpt>
      <trkpt lat="44.47083" lon="6.22802">
        <ele>802</ele>
        <time>2018-06-23T17:12:53Z</time>
      </trkpt>
      <trkpt lat="44.4708" lon="6.22797">
        <ele>803</ele>
        <time>2018-06-23T17:12:58Z</time>
      </trkpt>
      <trkpt lat="44.47077" lon="6.22792">
        <ele>805</ele>
        <time>2018-06-23T17:13:03Z</time>
      </trkpt>
      <trkpt lat="44.47073" lon="6.22789">
        <ele>805</ele>
        <time>2018-06-23T17:13:08Z</time>
      </trkpt>
      <trkpt lat="44.4707" lon="6.22786">
        <ele>805</ele>
        <time>2018-06-23T17:13:13Z</time>
      </trkpt>
      <trkpt lat="44.47067" lon="6.22784">
        <ele>805</ele>
        <time>2018-06-23T17:13:18Z</time>
      </trkpt>
      <trkpt lat="44.47064" lon="6.22781">
        <ele>806</ele>
        <time>2018-06-23T17:13:23Z</time>
      </trkpt>
      <trkpt lat="44.47062" lon="6.22776">
        <ele>807</ele>
        <time>2018-06-23T17:13:28Z</time>
      </trkpt>
      <trkpt lat="44.47057" lon="6.2277">
        <ele>807</ele>
        <time>2018-06-23T17:13:33Z</time>
      </trkpt>
      <trkpt lat="44.47054" lon="6.22766">
        <ele>807</ele>
        <time>2018-06-23T17:13:38Z</time>
      </trkpt>
      <trkpt lat="44.47051" lon="6.22762">
        <ele>806</ele>
        <time>2018-06-23T17:13:43Z</time>
      </trkpt>
      <trkpt lat="44.47048" lon="6.22757">
        <ele>806</ele>
        <time>2018-06-23T17:13:48Z</time>
      </trkpt>
      <trkpt lat="44.47045" lon="6.22752">
        <ele>806</ele>
        <time>2018-06-23T17:13:53Z</time>
      </trkpt>
      <trkpt lat="44.47042" lon="6.22748">
        <ele>806</ele>
        <time>2018-06-23T17:13:58Z</time>
      </trkpt>
      <trkpt lat="44.4704" lon="6.22743">
        <ele>806</ele>
        <time>2018-06-23T17:14:03Z</time>
      </trkpt>
      <trkpt lat="44.4704" lon="6.2274">
        <ele>807</ele>
        <time>2018-06-23T17:14:08Z</time>
      </trkpt>
      <trkpt lat="44.47041" lon="6.22742">
        <ele>807</ele>
        <time>2018-06-23T17:14:13Z</time>
      </trkpt>
      <trkpt lat="44.47044" lon="6.22744">
        <ele>808</ele>
        <time>2018-06-23T17:14:18Z</time>
      </trkpt>
      <trkpt lat="44.47047" lon="6.22745">
        <ele>810</ele>
        <time>2018-06-23T17:14:23Z</time>
      </trkpt>
      <trkpt lat="44.47047" lon="6.22745">
        <ele>810</ele>
        <time>2018-06-23T17:14:28Z</time>
      </trkpt>
      <trkpt lat="44.47047" lon="6.22746">
        <ele>809</ele>
        <time>2018-06-23T17:14:33Z</time>
      </trkpt>
      <trkpt lat="44.47051" lon="6.22748">
        <ele>811</ele>
        <time>2018-06-23T17:14:38Z</time>
      </trkpt>
      <trkpt lat="44.47056" lon="6.22749">
        <ele>813</ele>
        <time>2018-06-23T17:14:43Z</time>
      </trkpt>
      <trkpt lat="44.47061" lon="6.2275">
        <ele>816</ele>
        <time>2018-06-23T17:14:48Z</time>
      </trkpt>
      <trkpt lat="44.47065" lon="6.22751">
        <ele>817</ele>
        <time>2018-06-23T17:14:53Z</time>
      </trkpt>
      <trkpt lat="44.47067" lon="6.22754">
        <ele>816</ele>
        <time>2018-06-23T17:14:58Z</time>
      </trkpt>
      <trkpt lat="44.47072" lon="6.22756">
        <ele>817</ele>
        <time>2018-06-23T17:15:03Z</time>
      </trkpt>
      <trkpt lat="44.47077" lon="6.22757">
        <ele>818</ele>
        <time>2018-06-23T17:15:08Z</time>
      </trkpt>
      <trkpt lat="44.47081" lon="6.22757">
        <ele>819</ele>
        <time>2018-06-23T17:15:13Z</time>
      </trkpt>
      <trkpt lat="44.47087" lon="6.22761">
        <ele>820</ele>
        <time>2018-06-23T17:15:18Z</time>
      </trkpt>
      <trkpt lat="44.47092" lon="6.22764">
        <ele>820</ele>
        <time>2018-06-23T17:15:23Z</time>
      </trkpt>
      <trkpt lat="44.47096" lon="6.22765">
        <ele>822</ele>
        <time>2018-06-23T17:15:28Z</time>
      </trkpt>
      <trkpt lat="44.47102" lon="6.22764">
        <ele>824</ele>
        <time>2018-06-23T17:15:33Z</time>
      </trkpt>
      <trkpt lat="44.47108" lon="6.22762">
        <ele>826</ele>
        <time>2018-06-23T17:15:38Z</time>
      </trkpt>
      <trkpt lat="44.4711" lon="6.22758">
        <ele>829</ele>
        <time>2018-06-23T17:15:43Z</time>
      </trkpt>
      <trkpt lat="44.47114" lon="6.22758">
        <ele>830</ele>
        <time>2018-06-23T17:15:48Z</time>
      </trkpt>
      <trkpt lat="44.47118" lon="6.22759">
        <ele>831</ele>
        <time>2018-06-23T17:15:53Z</time>
      </trkpt>
      <trkpt lat="44.47121" lon="6.2276">
        <ele>831</ele>
        <time>2018-06-23T17:15:58Z</time>
      </trkpt>
      <trkpt lat="44.47125" lon="6.22761">
        <ele>832</ele>
        <time>2018-06-23T17:16:03Z</time>
      </trkpt>
      <trkpt lat="44.47129" lon="6.2276">
        <ele>834</ele>
        <time>2018-06-23T17:16:08Z</time>
      </trkpt>
      <trkpt lat="44.47132" lon="6.22759">
        <ele>835</ele>
        <time>2018-06-23T17:16:13Z</time>
      </trkpt>
      <trkpt lat="44.47137" lon="6.22761">
        <ele>836</ele>
        <time>2018-06-23T17:16:18Z</time>
      </trkpt>
      <trkpt lat="44.4714" lon="6.22761">
        <ele>837</ele>
        <time>2018-06-23T17:16:23Z</time>
      </trkpt>
      <trkpt lat="44.47143" lon="6.22759">
        <ele>838</ele>
        <time>2018-06-23T17:16:28Z</time>
      </trkpt>
      <trkpt lat="44.47145" lon="6.22758">
        <ele>839</ele>
        <time>2018-06-23T17:16:33Z</time>
      </trkpt>
      <trkpt lat="44.4715" lon="6.22757">
        <ele>840</ele>
        <time>2018-06-23T17:16:38Z</time>
      </trkpt>
      <trkpt lat="44.47154" lon="6.22759">
        <ele>841</ele>
        <time>2018-06-23T17:16:43Z</time>
      </trkpt>
      <trkpt lat="44.47159" lon="6.2276">
        <ele>841</ele>
        <time>2018-06-23T17:16:48Z</time>
      </trkpt>
      <trkpt lat="44.47166" lon="6.22765">
        <ele>841</ele>
        <time>2018-06-23T17:16:53Z</time>
      </trkpt>
      <trkpt lat="44.47173" lon="6.22769">
        <ele>841</ele>
        <time>2018-06-23T17:16:58Z</time>
      </trkpt>
      <trkpt lat="44.4718" lon="6.22773">
        <ele>841</ele>
        <time>2018-06-23T17:17:03Z</time>
      </trkpt>
      <trkpt lat="44.47185" lon="6.22776">
        <ele>841</ele>
        <time>2018-06-23T17:17:08Z</time>
      </trkpt>
      <trkpt lat="44.47188" lon="6.22776">
        <ele>841</ele>
        <time>2018-06-23T17:17:13Z</time>
      </trkpt>
      <trkpt lat="44.47191" lon="6.22776">
        <ele>842</ele>
        <time>2018-06-23T17:17:18Z</time>
      </trkpt>
      <trkpt lat="44.47195" lon="6.22777">
        <ele>843</ele>
        <time>2018-06-23T17:17:23Z</time>
      </trkpt>
      <trkpt lat="44.47199" lon="6.22777">
        <ele>844</ele>
        <time>2018-06-23T17:17:28Z</time>
      </trkpt>
      <trkpt lat="44.47204" lon="6.22777">
        <ele>846</ele>
        <time>2018-06-23T17:17:33Z</time>
      </trkpt>
      <trkpt lat="44.47207" lon="6.22778">
        <ele>846</ele>
        <time>2018-06-23T17:17:38Z</time>
      </trkpt>
      <trkpt lat="44.47212" lon="6.22778">
        <ele>848</ele>
        <time>2018-06-23T17:17:43Z</time>
      </trkpt>
      <trkpt lat="44.47217" lon="6.22776">
        <ele>850</ele>
        <time>2018-06-23T17:17:48Z</time>
      </trkpt>
      <trkpt lat="44.47221" lon="6.22773">
        <ele>853</ele>
        <time>2018-06-23T17:17:53Z</time>
      </trkpt>
      <trkpt lat="44.47225" lon="6.22773">
        <ele>855</ele>
        <time>2018-06-23T17:17:58Z</time>
      </trkpt>
      <trkpt lat="44.4723" lon="6.22776">
        <ele>855</ele>
        <time>2018-06-23T17:18:03Z</time>
      </trkpt>
      <trkpt lat="44.47234" lon="6.22781">
        <ele>853</ele>
        <time>2018-06-23T17:18:08Z</time>
      </trkpt>
      <trkpt lat="44.47238" lon="6.22787">
        <ele>853</ele>
        <time>2018-06-23T17:18:13Z</time>
      </trkpt>
      <trkpt lat="44.47243" lon="6.22791">
        <ele>852</ele>
        <time>2018-06-23T17:18:18Z</time>
      </trkpt>
      <trkpt lat="44.47248" lon="6.22797">
        <ele>852</ele>
        <time>2018-06-23T17:18:23Z</time>
      </trkpt>
      <trkpt lat="44.47253" lon="6.22802">
        <ele>851</ele>
        <time>2018-06-23T17:18:28Z</time>
      </trkpt>
      <trkpt lat="44.47257" lon="6.22807">
        <ele>850</ele>
        <time>2018-06-23T17:18:33Z</time>
      </trkpt>
      <trkpt lat="44.4726" lon="6.2281">
        <ele>849</ele>
        <time>2018-06-23T17:18:38Z</time>
      </trkpt>
      <trkpt lat="44.47262" lon="6.22811">
        <ele>850</ele>
        <time>2018-06-23T17:18:43Z</time>
      </trkpt>
      <trkpt lat="44.47265" lon="6.22813">
        <ele>850</ele>
        <time>2018-06-23T17:18:48Z</time>
      </trkpt>
      <trkpt lat="44.4727" lon="6.22814">
        <ele>851</ele>
        <time>2018-06-23T17:18:53Z</time>
      </trkpt>
      <trkpt lat="44.47274" lon="6.22815">
        <ele>853</ele>
        <time>2018-06-23T17:18:58Z</time>
      </trkpt>
      <trkpt lat="44.47278" lon="6.22818">
        <ele>853</ele>
        <time>2018-06-23T17:19:03Z</time>
      </trkpt>
      <trkpt lat="44.47283" lon="6.22821">
        <ele>853</ele>
        <time>2018-06-23T17:19:08Z</time>
      </trkpt>
      <trkpt lat="44.47288" lon="6.22826">
        <ele>853</ele>
        <time>2018-06-23T17:19:13Z</time>
      </trkpt>
      <trkpt lat="44.47292" lon="6.2283">
        <ele>853</ele>
        <time>2018-06-23T17:19:18Z</time>
      </trkpt>
      <trkpt lat="44.47297" lon="6.22834">
        <ele>853</ele>
        <time>2018-06-23T17:19:23Z</time>
      </trkpt>
      <trkpt lat="44.47301" lon="6.22839">
        <ele>852</ele>
        <time>2018-06-23T17:19:28Z</time>
      </trkpt>
      <trkpt lat="44.47303" lon="6.22844">
        <ele>850</ele>
        <time>2018-06-23T17:19:33Z</time>
      </trkpt>
      <trkpt lat="44.47307" lon="6.22849">
        <ele>850</ele>
        <time>2018-06-23T17:19:38Z</time>
      </trkpt>
      <trkpt lat="44.47311" lon="6.22853">
        <ele>849</ele>
        <time>2018-06-23T17:19:43Z</time>
      </trkpt>
      <trkpt lat="44.47313" lon="6.22856">
        <ele>849</ele>
        <time>2018-06-23T17:19:48Z</time>
      </trkpt>
      <trkpt lat="44.47316" lon="6.22861">
        <ele>847</ele>
        <time>2018-06-23T17:19:53Z</time>
      </trkpt>
      <trkpt lat="44.47319" lon="6.22866">
        <ele>845</ele>
        <time>2018-06-23T17:19:58Z</time>
      </trkpt>
      <trkpt lat="44.47321" lon="6.2287">
        <ele>843</ele>
        <time>2018-06-23T17:20:03Z</time>
      </trkpt>
      <trkpt lat="44.47325" lon="6.22873">
        <ele>843</ele>
        <time>2018-06-23T17:20:08Z</time>
      </trkpt>
      <trkpt lat="44.4733" lon="6.22877">
        <ele>842</ele>
        <time>2018-06-23T17:20:13Z</time>
      </trkpt>
      <trkpt lat="44.47335" lon="6.22879">
        <ele>843</ele>
        <time>2018-06-23T17:20:18Z</time>
      </trkpt>
      <trkpt lat="44.4734" lon="6.22881">
        <ele>842</ele>
        <time>2018-06-23T17:20:23Z</time>
      </trkpt>
      <trkpt lat="44.47343" lon="6.22882">
        <ele>842</ele>
        <time>2018-06-23T17:20:28Z</time>
      </trkpt>
      <trkpt lat="44.47348" lon="6.22882">
        <ele>843</ele>
        <time>2018-06-23T17:20:33Z</time>
      </trkpt>
      <trkpt lat="44.47352" lon="6.22882">
        <ele>844</ele>
        <time>2018-06-23T17:20:38Z</time>
      </trkpt>
      <trkpt lat="44.47357" lon="6.22882">
        <ele>845</ele>
        <time>2018-06-23T17:20:43Z</time>
      </trkpt>
      <trkpt lat="44.47362" lon="6.22882">
        <ele>845</ele>
        <time>2018-06-23T17:20:48Z</time>
      </trkpt>
      <trkpt lat="44.47364" lon="6.22882">
        <ele>846</ele>
        <time>2018-06-23T17:20:53Z</time>
      </trkpt>
      <trkpt lat="44.47367" lon="6.22882">
        <ele>846</ele>
        <time>2018-06-23T17:20:58Z</time>
      </trkpt>
      <trkpt lat="44.47371" lon="6.22881">
        <ele>847</ele>
        <time>2018-06-23T17:21:03Z</time>
      </trkpt>
      <trkpt lat="44.47378" lon="6.22879">
        <ele>850</ele>
        <time>2018-06-23T17:21:08Z</time>
      </trkpt>
      <trkpt lat="44.47383" lon="6.22877">
        <ele>852</ele>
        <time>2018-06-23T17:21:13Z</time>
      </trkpt>
      <trkpt lat="44.47387" lon="6.22875">
        <ele>853</ele>
        <time>2018-06-23T17:21:18Z</time>
      </trkpt>
      <trkpt lat="44.47391" lon="6.22874">
        <ele>855</ele>
        <time>2018-06-23T17:21:23Z</time>
      </trkpt>
      <trkpt lat="44.47396" lon="6.22873">
        <ele>856</ele>
        <time>2018-06-23T17:21:28Z</time>
      </trkpt>
      <trkpt lat="44.47402" lon="6.22872">
        <ele>857</ele>
        <time>2018-06-23T17:21:33Z</time>
      </trkpt>
      <trkpt lat="44.47407" lon="6.22871">
        <ele>859</ele>
        <time>2018-06-23T17:21:38Z</time>
      </trkpt>
      <trkpt lat="44.47413" lon="6.2287">
        <ele>861</ele>
        <time>2018-06-23T17:21:43Z</time>
      </trkpt>
      <trkpt lat="44.47418" lon="6.2287">
        <ele>863</ele>
        <time>2018-06-23T17:21:48Z</time>
      </trkpt>
      <trkpt lat="44.47424" lon="6.22868">
        <ele>865</ele>
        <time>2018-06-23T17:21:53Z</time>
      </trkpt>
      <trkpt lat="44.4743" lon="6.22868">
        <ele>867</ele>
        <time>2018-06-23T17:21:58Z</time>
      </trkpt>
      <trkpt lat="44.47435" lon="6.22869">
        <ele>868</ele>
        <time>2018-06-23T17:22:03Z</time>
      </trkpt>
      <trkpt lat="44.47442" lon="6.22874">
        <ele>867</ele>
        <time>2018-06-23T17:22:08Z</time>
      </trkpt>
      <trkpt lat="44.47445" lon="6.22879">
        <ele>865</ele>
        <time>2018-06-23T17:22:13Z</time>
      </trkpt>
      <trkpt lat="44.47449" lon="6.22884">
        <ele>863</ele>
        <time>2018-06-23T17:22:18Z</time>
      </trkpt>
      <trkpt lat="44.47453" lon="6.22889">
        <ele>863</ele>
        <time>2018-06-23T17:22:23Z</time>
      </trkpt>
      <trkpt lat="44.47458" lon="6.22893">
        <ele>862</ele>
        <time>2018-06-23T17:22:28Z</time>
      </trkpt>
      <trkpt lat="44.47465" lon="6.22897">
        <ele>862</ele>
        <time>2018-06-23T17:22:33Z</time>
      </trkpt>
      <trkpt lat="44.47467" lon="6.22902">
        <ele>861</ele>
        <time>2018-06-23T17:22:38Z</time>
      </trkpt>
      <trkpt lat="44.47471" lon="6.22906">
        <ele>860</ele>
        <time>2018-06-23T17:22:43Z</time>
      </trkpt>
      <trkpt lat="44.47475" lon="6.22911">
        <ele>859</ele>
        <time>2018-06-23T17:22:48Z</time>
      </trkpt>
      <trkpt lat="44.47478" lon="6.22915">
        <ele>858</ele>
        <time>2018-06-23T17:22:53Z</time>
      </trkpt>
      <trkpt lat="44.47481" lon="6.22919">
        <ele>856</ele>
        <time>2018-06-23T17:22:58Z</time>
      </trkpt>
      <trkpt lat="44.47487" lon="6.22924">
        <ele>855</ele>
        <time>2018-06-23T17:23:03Z</time>
      </trkpt>
      <trkpt lat="44.47492" lon="6.22927">
        <ele>855</ele>
        <time>2018-06-23T17:23:08Z</time>
      </trkpt>
      <trkpt lat="44.47496" lon="6.22931">
        <ele>855</ele>
        <time>2018-06-23T17:23:13Z</time>
      </trkpt>
      <trkpt lat="44.47499" lon="6.22933">
        <ele>854</ele>
        <time>2018-06-23T17:23:18Z</time>
      </trkpt>
      <trkpt lat="44.47504" lon="6.22936">
        <ele>854</ele>
        <time>2018-06-23T17:23:23Z</time>
      </trkpt>
      <trkpt lat="44.4751" lon="6.22938">
        <ele>855</ele>
        <time>2018-06-23T17:23:28Z</time>
      </trkpt>
      <trkpt lat="44.47516" lon="6.22937">
        <ele>857</ele>
        <time>2018-06-23T17:23:33Z</time>
      </trkpt>
      <trkpt lat="44.4752" lon="6.22934">
        <ele>859</ele>
        <time>2018-06-23T17:23:38Z</time>
      </trkpt>
      <trkpt lat="44.47525" lon="6.22931">
        <ele>861</ele>
        <time>2018-06-23T17:23:43Z</time>
      </trkpt>
      <trkpt lat="44.47531" lon="6.22928">
        <ele>863</ele>
        <time>2018-06-23T17:23:48Z</time>
      </trkpt>
      <trkpt lat="44.47536" lon="6.22927">
        <ele>864</ele>
        <time>2018-06-23T17:23:53Z</time>
      </trkpt>
      <trkpt lat="44.47541" lon="6.22924">
        <ele>866</ele>
        <time>2018-06-23T17:23:58Z</time>
      </trkpt>
      <trkpt lat="44.47546" lon="6.22922">
        <ele>867</ele>
        <time>2018-06-23T17:24:03Z</time>
      </trkpt>
      <trkpt lat="44.47552" lon="6.22919">
        <ele>870</ele>
        <time>2018-06-23T17:24:08Z</time>
      </trkpt>
      <trkpt lat="44.47557" lon="6.22917">
        <ele>871</ele>
        <time>2018-06-23T17:24:13Z</time>
      </trkpt>
      <trkpt lat="44.47563" lon="6.22915">
        <ele>873</ele>
        <time>2018-06-23T17:24:18Z</time>
      </trkpt>
      <trkpt lat="44.47568" lon="6.22913">
        <ele>874</ele>
        <time>2018-06-23T17:24:23Z</time>
      </trkpt>
      <trkpt lat="44.47573" lon="6.2291">
        <ele>876</ele>
        <time>2018-06-23T17:24:28Z</time>
      </trkpt>
      <trkpt lat="44.47578" lon="6.22908">
        <ele>877</ele>
        <time>2018-06-23T17:24:33Z</time>
      </trkpt>
      <trkpt lat="44.47584" lon="6.22905">
        <ele>879</ele>
        <time>2018-06-23T17:24:38Z</time>
      </trkpt>
      <trkpt lat="44.47591" lon="6.22902">
        <ele>881</ele>
        <time>2018-06-23T17:24:43Z</time>
      </trkpt>
      <trkpt lat="44.47596" lon="6.22898">
        <ele>884</ele>
        <time>2018-06-23T17:24:48Z</time>
      </trkpt>
      <trkpt lat="44.47599" lon="6.22895">
        <ele>885</ele>
        <time>2018-06-23T17:24:53Z</time>
      </trkpt>
      <trkpt lat="44.47602" lon="6.22894">
        <ele>886</ele>
        <time>2018-06-23T17:24:58Z</time>
      </trkpt>
      <trkpt lat="44.47607" lon="6.22897">
        <ele>886</ele>
        <time>2018-06-23T17:25:03Z</time>
      </trkpt>
      <trkpt lat="44.47612" lon="6.22899">
        <ele>886</ele>
        <time>2018-06-23T17:25:08Z</time>
      </trkpt>
      <trkpt lat="44.47616" lon="6.22901">
        <ele>886</ele>
        <time>2018-06-23T17:25:13Z</time>
      </trkpt>
      <trkpt lat="44.4762" lon="6.22907">
        <ele>884</ele>
        <time>2018-06-23T17:25:18Z</time>
      </trkpt>
      <trkpt lat="44.47622" lon="6.22912">
        <ele>882</ele>
        <time>2018-06-23T17:25:23Z</time>
      </trkpt>
      <trkpt lat="44.47624" lon="6.22921">
        <ele>879</ele>
        <time>2018-06-23T17:25:28Z</time>
      </trkpt>
      <trkpt lat="44.47623" lon="6.22929">
        <ele>877</ele>
        <time>2018-06-23T17:25:33Z</time>
      </trkpt>
      <trkpt lat="44.47624" lon="6.22941">
        <ele>874</ele>
        <time>2018-06-23T17:25:38Z</time>
      </trkpt>
      <trkpt lat="44.47619" lon="6.22948">
        <ele>871</ele>
        <time>2018-06-23T17:25:43Z</time>
      </trkpt>
      <trkpt lat="44.47616" lon="6.22953">
        <ele>869</ele>
        <time>2018-06-23T17:25:48Z</time>
      </trkpt>
      <trkpt lat="44.47615" lon="6.22961">
        <ele>867</ele>
        <time>2018-06-23T17:25:53Z</time>
      </trkpt>
      <trkpt lat="44.47615" lon="6.22968">
        <ele>865</ele>
        <time>2018-06-23T17:25:58Z</time>
      </trkpt>
      <trkpt lat="44.47616" lon="6.22976">
        <ele>864</ele>
        <time>2018-06-23T17:26:03Z</time>
      </trkpt>
      <trkpt lat="44.47619" lon="6.22981">
        <ele>864</ele>
        <time>2018-06-23T17:26:08Z</time>
      </trkpt>
      <trkpt lat="44.47622" lon="6.22983">
        <ele>864</ele>
        <time>2018-06-23T17:26:13Z</time>
      </trkpt>
      <trkpt lat="44.47624" lon="6.22983">
        <ele>864</ele>
        <time>2018-06-23T17:26:18Z</time>
      </trkpt>
      <trkpt lat="44.47626" lon="6.22982">
        <ele>865</ele>
        <time>2018-06-23T17:26:23Z</time>
      </trkpt>
      <trkpt lat="44.4763" lon="6.2298">
        <ele>867</ele>
        <time>2018-06-23T17:26:28Z</time>
      </trkpt>
      <trkpt lat="44.47634" lon="6.2298">
        <ele>868</ele>
        <time>2018-06-23T17:26:33Z</time>
      </trkpt>
      <trkpt lat="44.47636" lon="6.22975">
        <ele>869</ele>
        <time>2018-06-23T17:26:38Z</time>
      </trkpt>
      <trkpt lat="44.47641" lon="6.22968">
        <ele>872</ele>
        <time>2018-06-23T17:26:43Z</time>
      </trkpt>
      <trkpt lat="44.47646" lon="6.22964">
        <ele>874</ele>
        <time>2018-06-23T17:26:48Z</time>
      </trkpt>
      <trkpt lat="44.47648" lon="6.22962">
        <ele>875</ele>
        <time>2018-06-23T17:26:53Z</time>
      </trkpt>
      <trkpt lat="44.47653" lon="6.2296">
        <ele>877</ele>
        <time>2018-06-23T17:26:58Z</time>
      </trkpt>
      <trkpt lat="44.47656" lon="6.22957">
        <ele>878</ele>
        <time>2018-06-23T17:27:03Z</time>
      </trkpt>
      <trkpt lat="44.47659" lon="6.22953">
        <ele>880</ele>
        <time>2018-06-23T17:27:08Z</time>
      </trkpt>
      <trkpt lat="44.47663" lon="6.22952">
        <ele>881</ele>
        <time>2018-06-23T17:27:13Z</time>
      </trkpt>
      <trkpt lat="44.47669" lon="6.22951">
        <ele>883</ele>
        <time>2018-06-23T17:27:18Z</time>
      </trkpt>
      <trkpt lat="44.47674" lon="6.22949">
        <ele>885</ele>
        <time>2018-06-23T17:27:23Z</time>
      </trkpt>
      <trkpt lat="44.47679" lon="6.22951">
        <ele>886</ele>
        <time>2018-06-23T17:27:28Z</time>
      </trkpt>
      <trkpt lat="44.47683" lon="6.22953">
        <ele>887</ele>
        <time>2018-06-23T17:27:33Z</time>
      </trkpt>
      <trkpt lat="44.47689" lon="6.22955">
        <ele>888</ele>
        <time>2018-06-23T17:27:38Z</time>
      </trkpt>
      <trkpt lat="44.47693" lon="6.22957">
        <ele>889</ele>
        <time>2018-06-23T17:27:43Z</time>
      </trkpt>
      <trkpt lat="44.47695" lon="6.22962">
        <ele>889</ele>
        <time>2018-06-23T17:27:48Z</time>
      </trkpt>
      <trkpt lat="44.47701" lon="6.22966">
        <ele>890</ele>
        <time>2018-06-23T17:27:53Z</time>
      </trkpt>
      <trkpt lat="44.47705" lon="6.22971">
        <ele>891</ele>
        <time>2018-06-23T17:27:58Z</time>
      </trkpt>
      <trkpt lat="44.47707" lon="6.2298">
        <ele>890</ele>
        <time>2018-06-23T17:28:03Z</time>
      </trkpt>
      <trkpt lat="44.47706" lon="6.22989">
        <ele>888</ele>
        <time>2018-06-23T17:28:08Z</time>
      </trkpt>
      <trkpt lat="44.47704" lon="6.22997">
        <ele>886</ele>
        <time>2018-06-23T17:28:13Z</time>
      </trkpt>
      <trkpt lat="44.47701" lon="6.23005">
        <ele>884</ele>
        <time>2018-06-23T17:28:18Z</time>
      </trkpt>
      <trkpt lat="44.47699" lon="6.23011">
        <ele>883</ele>
        <time>2018-06-23T17:28:23Z</time>
      </trkpt>
      <trkpt lat="44.47699" lon="6.23017">
        <ele>882</ele>
        <time>2018-06-23T17:28:28Z</time>
      </trkpt>
      <trkpt lat="44.47697" lon="6.23024">
        <ele>881</ele>
        <time>2018-06-23T17:28:33Z</time>
      </trkpt>
      <trkpt lat="44.47695" lon="6.23032">
        <ele>879</ele>
        <time>2018-06-23T17:28:38Z</time>
      </trkpt>
      <trkpt lat="44.47692" lon="6.2304">
        <ele>878</ele>
        <time>2018-06-23T17:28:43Z</time>
      </trkpt>
      <trkpt lat="44.4769" lon="6.23048">
        <ele>877</ele>
        <time>2018-06-23T17:28:48Z</time>
      </trkpt>
      <trkpt lat="44.47689" lon="6.23055">
        <ele>876</ele>
        <time>2018-06-23T17:28:53Z</time>
      </trkpt>
      <trkpt lat="44.47686" lon="6.23063">
        <ele>875</ele>
        <time>2018-06-23T17:28:58Z</time>
      </trkpt>
      <trkpt lat="44.47684" lon="6.2307">
        <ele>873</ele>
        <time>2018-06-23T17:29:03Z</time>
      </trkpt>
      <trkpt lat="44.47682" lon="6.23079">
        <ele>871</ele>
        <time>2018-06-23T17:29:08Z</time>
      </trkpt>
      <trkpt lat="44.47679" lon="6.23086">
        <ele>869</ele>
        <time>2018-06-23T17:29:13Z</time>
      </trkpt>
      <trkpt lat="44.47678" lon="6.23093">
        <ele>867</ele>
        <time>2018-06-23T17:29:18Z</time>
      </trkpt>
      <trkpt lat="44.4768" lon="6.23098">
        <ele>866</ele>
        <time>2018-06-23T17:29:23Z</time>
      </trkpt>
      <trkpt lat="44.47682" lon="6.23099">
        <ele>867</ele>
        <time>2018-06-23T17:29:28Z</time>
      </trkpt>
      <trkpt lat="44.47685" lon="6.23099">
        <ele>867</ele>
        <time>2018-06-23T17:29:33Z</time>
      </trkpt>
      <trkpt lat="44.47689" lon="6.23096">
        <ele>868</ele>
        <time>2018-06-23T17:29:38Z</time>
      </trkpt>
      <trkpt lat="44.47693" lon="6.23092">
        <ele>869</ele>
        <time>2018-06-23T17:29:43Z</time>
      </trkpt>
      <trkpt lat="44.47697" lon="6.23086">
        <ele>871</ele>
        <time>2018-06-23T17:29:48Z</time>
      </trkpt>
      <trkpt lat="44.477" lon="6.23082">
        <ele>873</ele>
        <time>2018-06-23T17:29:53Z</time>
      </trkpt>
      <trkpt lat="44.47705" lon="6.23079">
        <ele>875</ele>
        <time>2018-06-23T17:29:58Z</time>
      </trkpt>
      <trkpt lat="44.47709" lon="6.23074">
        <ele>877</ele>
        <time>2018-06-23T17:30:03Z</time>
      </trkpt>
      <trkpt lat="44.47715" lon="6.23069">
        <ele>879</ele>
        <time>2018-06-23T17:30:08Z</time>
      </trkpt>
      <trkpt lat="44.4772" lon="6.23065">
        <ele>881</ele>
        <time>2018-06-23T17:30:13Z</time>
      </trkpt>
      <trkpt lat="44.47725" lon="6.23063">
        <ele>883</ele>
        <time>2018-06-23T17:30:18Z</time>
      </trkpt>
      <trkpt lat="44.47727" lon="6.23055">
        <ele>885</ele>
        <time>2018-06-23T17:30:23Z</time>
      </trkpt>
      <trkpt lat="44.47729" lon="6.23048">
        <ele>887</ele>
        <time>2018-06-23T17:30:28Z</time>
      </trkpt>
      <trkpt lat="44.47731" lon="6.23044">
        <ele>888</ele>
        <time>2018-06-23T17:30:33Z</time>
      </trkpt>
      <trkpt lat="44.47733" lon="6.23039">
        <ele>889</ele>
        <time>2018-06-23T17:30:38Z</time>
      </trkpt>
      <trkpt lat="44.47737" lon="6.23039">
        <ele>891</ele>
        <time>2018-06-23T17:30:43Z</time>
      </trkpt>
      <trkpt lat="44.47742" lon="6.23036">
        <ele>893</ele>
        <time>2018-06-23T17:30:48Z</time>
      </trkpt>
      <trkpt lat="44.47745" lon="6.23033">
        <ele>895</ele>
        <time>2018-06-23T17:30:53Z</time>
      </trkpt>
      <trkpt lat="44.47752" lon="6.23034">
        <ele>896</ele>
        <time>2018-06-23T17:30:58Z</time>
      </trkpt>
      <trkpt lat="44.47756" lon="6.23036">
        <ele>896</ele>
        <time>2018-06-23T17:31:03Z</time>
      </trkpt>
      <trkpt lat="44.47759" lon="6.23037">
        <ele>897</ele>
        <time>2018-06-23T17:31:08Z</time>
      </trkpt>
      <trkpt lat="44.47763" lon="6.23041">
        <ele>897</ele>
        <time>2018-06-23T17:31:13Z</time>
      </trkpt>
      <trkpt lat="44.4777" lon="6.23045">
        <ele>897</ele>
        <time>2018-06-23T17:31:18Z</time>
      </trkpt>
      <trkpt lat="44.47772" lon="6.23046">
        <ele>898</ele>
        <time>2018-06-23T17:31:23Z</time>
      </trkpt>
      <trkpt lat="44.47772" lon="6.23046">
        <ele>898</ele>
        <time>2018-06-23T17:31:28Z</time>
      </trkpt>
      <trkpt lat="44.47775" lon="6.23048">
        <ele>898</ele>
        <time>2018-06-23T17:31:33Z</time>
      </trkpt>
      <trkpt lat="44.47777" lon="6.23045">
        <ele>899</ele>
        <time>2018-06-23T17:31:38Z</time>
      </trkpt>
      <trkpt lat="44.4778" lon="6.23043">
        <ele>900</ele>
        <time>2018-06-23T17:31:43Z</time>
      </trkpt>
      <trkpt lat="44.4778" lon="6.23044">
        <ele>900</ele>
        <time>2018-06-23T17:31:48Z</time>
      </trkpt>
      <trkpt lat="44.4778" lon="6.23044">
        <ele>900</ele>
        <time>2018-06-23T17:31:53Z</time>
      </trkpt>
      <trkpt lat="44.4778" lon="6.23044">
        <ele>900</ele>
        <time>2018-06-23T17:31:58Z</time>
      </trkpt>
      <trkpt lat="44.4778" lon="6.23044">
        <ele>900</ele>
        <time>2018-06-23T17:32:03Z</time>
      </trkpt>
      <trkpt lat="44.4778" lon="6.23044">
        <ele>900</ele>
        <time>2018-06-23T17:32:08Z</time>
      </trkpt>
      <trkpt lat="44.4778" lon="6.23045">
        <ele>900</ele>
        <time>2018-06-23T17:32:13Z</time>
      </trkpt>
      <trkpt lat="44.47779" lon="6.23045">
        <ele>899</ele>
        <time>2018-06-23T17:32:18Z</time>
      </trkpt>
      <trkpt lat="44.4778" lon="6.23044">
        <ele>900</ele>
        <time>2018-06-23T17:32:23Z</time>
      </trkpt>
      <trkpt lat="44.4778" lon="6.23043">
        <ele>900</ele>
        <time>2018-06-23T17:32:28Z</time>
      </trkpt>
      <trkpt lat="44.4778" lon="6.23043">
        <ele>900</ele>
        <time>2018-06-23T17:32:33Z</time>
      </trkpt>
      <trkpt lat="44.47779" lon="6.23044">
        <ele>900</ele>
        <time>2018-06-23T17:32:38Z</time>
      </trkpt>
      <trkpt lat="44.47778" lon="6.23045">
        <ele>899</ele>
        <time>2018-06-23T17:32:43Z</time>
      </trkpt>
      <trkpt lat="44.47778" lon="6.23046">
        <ele>899</ele>
        <time>2018-06-23T17:32:48Z</time>
      </trkpt>
      <trkpt lat="44.47778" lon="6.23045">
        <ele>899</ele>
        <time>2018-06-23T17:32:53Z</time>
      </trkpt>
      <trkpt lat="44.4778" lon="6.23043">
        <ele>900</ele>
        <time>2018-06-23T17:32:58Z</time>
      </trkpt>
      <trkpt lat="44.47784" lon="6.23039">
        <ele>902</ele>
        <time>2018-06-23T17:33:03Z</time>
      </trkpt>
      <trkpt lat="44.47788" lon="6.23033">
        <ele>905</ele>
        <time>2018-06-23T17:33:08Z</time>
      </trkpt>
      <trkpt lat="44.47792" lon="6.23029">
        <ele>907</ele>
        <time>2018-06-23T17:33:13Z</time>
      </trkpt>
      <trkpt lat="44.47796" lon="6.23026">
        <ele>908</ele>
        <time>2018-06-23T17:33:18Z</time>
      </trkpt>
      <trkpt lat="44.47801" lon="6.23023">
        <ele>910</ele>
        <time>2018-06-23T17:33:23Z</time>
      </trkpt>
      <trkpt lat="44.47806" lon="6.2302">
        <ele>912</ele>
        <time>2018-06-23T17:33:28Z</time>
      </trkpt>
      <trkpt lat="44.47811" lon="6.23019">
        <ele>914</ele>
        <time>2018-06-23T17:33:33Z</time>
      </trkpt>
      <trkpt lat="44.47816" lon="6.23018">
        <ele>916</ele>
        <time>2018-06-23T17:33:38Z</time>
      </trkpt>
      <trkpt lat="44.47821" lon="6.23018">
        <ele>917</ele>
        <time>2018-06-23T17:33:43Z</time>
      </trkpt>
      <trkpt lat="44.47826" lon="6.2302">
        <ele>919</ele>
        <time>2018-06-23T17:33:48Z</time>
      </trkpt>
      <trkpt lat="44.47829" lon="6.23023">
        <ele>919</ele>
        <time>2018-06-23T17:33:53Z</time>
      </trkpt>
      <trkpt lat="44.47831" lon="6.23027">
        <ele>918</ele>
        <time>2018-06-23T17:33:58Z</time>
      </trkpt>
      <trkpt lat="44.4783" lon="6.23032">
        <ele>917</ele>
        <time>2018-06-23T17:34:03Z</time>
      </trkpt>
      <trkpt lat="44.4783" lon="6.23033">
        <ele>916</ele>
        <time>2018-06-23T17:34:08Z</time>
      </trkpt>
      <trkpt lat="44.4783" lon="6.23032">
        <ele>917</ele>
        <time>2018-06-23T17:34:13Z</time>
      </trkpt>
      <trkpt lat="44.4783" lon="6.23039">
        <ele>915</ele>
        <time>2018-06-23T17:34:18Z</time>
      </trkpt>
      <trkpt lat="44.47831" lon="6.23046">
        <ele>913</ele>
        <time>2018-06-23T17:34:23Z</time>
      </trkpt>
      <trkpt lat="44.47832" lon="6.23052">
        <ele>911</ele>
        <time>2018-06-23T17:34:28Z</time>
      </trkpt>
      <trkpt lat="44.47834" lon="6.23058">
        <ele>910</ele>
        <time>2018-06-23T17:34:33Z</time>
      </trkpt>
      <trkpt lat="44.47837" lon="6.23063">
        <ele>910</ele>
        <time>2018-06-23T17:34:38Z</time>
      </trkpt>
      <trkpt lat="44.47841" lon="6.23067">
        <ele>910</ele>
        <time>2018-06-23T17:34:43Z</time>
      </trkpt>
      <trkpt lat="44.47846" lon="6.23073">
        <ele>910</ele>
        <time>2018-06-23T17:34:48Z</time>
      </trkpt>
      <trkpt lat="44.47851" lon="6.23077">
        <ele>911</ele>
        <time>2018-06-23T17:34:53Z</time>
      </trkpt>
      <trkpt lat="44.47853" lon="6.23081">
        <ele>911</ele>
        <time>2018-06-23T17:34:58Z</time>
      </trkpt>
      <trkpt lat="44.47855" lon="6.23085">
        <ele>910</ele>
        <time>2018-06-23T17:35:03Z</time>
      </trkpt>
      <trkpt lat="44.47857" lon="6.2309">
        <ele>910</ele>
        <time>2018-06-23T17:35:08Z</time>
      </trkpt>
      <trkpt lat="44.4786" lon="6.23094">
        <ele>910</ele>
        <time>2018-06-23T17:35:13Z</time>
      </trkpt>
      <trkpt lat="44.4786" lon="6.23099">
        <ele>909</ele>
        <time>2018-06-23T17:35:18Z</time>
      </trkpt>
      <trkpt lat="44.4786" lon="6.23104">
        <ele>907</ele>
        <time>2018-06-23T17:35:23Z</time>
      </trkpt>
      <trkpt lat="44.47859" lon="6.2311">
        <ele>906</ele>
        <time>2018-06-23T17:35:28Z</time>
      </trkpt>
      <trkpt lat="44.47859" lon="6.23116">
        <ele>904</ele>
        <time>2018-06-23T17:35:33Z</time>
      </trkpt>
      <trkpt lat="44.47858" lon="6.23123">
        <ele>902</ele>
        <time>2018-06-23T17:35:38Z</time>
      </trkpt>
      <trkpt lat="44.47857" lon="6.2313">
        <ele>900</ele>
        <time>2018-06-23T17:35:43Z</time>
      </trkpt>
      <trkpt lat="44.47856" lon="6.23136">
        <ele>899</ele>
        <time>2018-06-23T17:35:48Z</time>
      </trkpt>
      <trkpt lat="44.47855" lon="6.23143">
        <ele>897</ele>
        <time>2018-06-23T17:35:53Z</time>
      </trkpt>
      <trkpt lat="44.47854" lon="6.23148">
        <ele>895</ele>
        <time>2018-06-23T17:35:58Z</time>
      </trkpt>
      <trkpt lat="44.47853" lon="6.23155">
        <ele>894</ele>
        <time>2018-06-23T17:36:03Z</time>
      </trkpt>
      <trkpt lat="44.47852" lon="6.23165">
        <ele>891</ele>
        <time>2018-06-23T17:36:08Z</time>
      </trkpt>
      <trkpt lat="44.47849" lon="6.23173">
        <ele>889</ele>
        <time>2018-06-23T17:36:13Z</time>
      </trkpt>
      <trkpt lat="44.47847" lon="6.23178">
        <ele>887</ele>
        <time>2018-06-23T17:36:18Z</time>
      </trkpt>
      <trkpt lat="44.47847" lon="6.23177">
        <ele>887</ele>
        <time>2018-06-23T17:36:23Z</time>
      </trkpt>
      <trkpt lat="44.47847" lon="6.23177">
        <ele>887</ele>
        <time>2018-06-23T17:36:28Z</time>
      </trkpt>
      <trkpt lat="44.47847" lon="6.23178">
        <ele>887</ele>
        <time>2018-06-23T17:36:33Z</time>
      </trkpt>
      <trkpt lat="44.47847" lon="6.23177">
        <ele>887</ele>
        <time>2018-06-23T17:36:38Z</time>
      </trkpt>
      <trkpt lat="44.47847" lon="6.23177">
        <ele>887</ele>
        <time>2018-06-23T17:36:43Z</time>
      </trkpt>
      <trkpt lat="44.47846" lon="6.2318">
        <ele>886</ele>
        <time>2018-06-23T17:36:48Z</time>
      </trkpt>
      <trkpt lat="44.47844" lon="6.23186">
        <ele>885</ele>
        <time>2018-06-23T17:36:53Z</time>
      </trkpt>
      <trkpt lat="44.47843" lon="6.23194">
        <ele>883</ele>
        <time>2018-06-23T17:36:58Z</time>
      </trkpt>
      <trkpt lat="44.47844" lon="6.23201">
        <ele>882</ele>
        <time>2018-06-23T17:37:03Z</time>
      </trkpt>
      <trkpt lat="44.47844" lon="6.23204">
        <ele>881</ele>
        <time>2018-06-23T17:37:08Z</time>
      </trkpt>
      <trkpt lat="44.47843" lon="6.23204">
        <ele>881</ele>
        <time>2018-06-23T17:37:13Z</time>
      </trkpt>
      <trkpt lat="44.47843" lon="6.23204">
        <ele>881</ele>
        <time>2018-06-23T17:37:18Z</time>
      </trkpt>
      <trkpt lat="44.47843" lon="6.23204">
        <ele>881</ele>
        <time>2018-06-23T17:37:23Z</time>
      </trkpt>
      <trkpt lat="44.47843" lon="6.23204">
        <ele>881</ele>
        <time>2018-06-23T17:37:28Z</time>
      </trkpt>
      <trkpt lat="44.47843" lon="6.23204">
        <ele>881</ele>
        <time>2018-06-23T17:37:33Z</time>
      </trkpt>
      <trkpt lat="44.47843" lon="6.23204">
        <ele>881</ele>
        <time>2018-06-23T17:37:38Z</time>
      </trkpt>
      <trkpt lat="44.47843" lon="6.23204">
        <ele>881</ele>
        <time>2018-06-23T17:37:43Z</time>
      </trkpt>
      <trkpt lat="44.47843" lon="6.23204">
        <ele>881</ele>
        <time>2018-06-23T17:37:48Z</time>
      </trkpt>
      <trkpt lat="44.47843" lon="6.23204">
        <ele>881</ele>
        <time>2018-06-23T17:37:53Z</time>
      </trkpt>
      <trkpt lat="44.47843" lon="6.23204">
        <ele>881</ele>
        <time>2018-06-23T17:37:58Z</time>
      </trkpt>
      <trkpt lat="44.47843" lon="6.23204">
        <ele>881</ele>
        <time>2018-06-23T17:38:03Z</time>
      </trkpt>
      <trkpt lat="44.47843" lon="6.23204">
        <ele>881</ele>
        <time>2018-06-23T17:38:08Z</time>
      </trkpt>
      <trkpt lat="44.47843" lon="6.23204">
        <ele>881</ele>
        <time>2018-06-23T17:38:13Z</time>
      </trkpt>
      <trkpt lat="44.47843" lon="6.23204">
        <ele>881</ele>
        <time>2018-06-23T17:38:18Z</time>
      </trkpt>
      <trkpt lat="44.47842" lon="6.23204">
        <ele>881</ele>
        <time>2018-06-23T17:38:23Z</time>
      </trkpt>
      <trkpt lat="44.47842" lon="6.23204">
        <ele>881</ele>
        <time>2018-06-23T17:38:28Z</time>
      </trkpt>
      <trkpt lat="44.47842" lon="6.23204">
        <ele>881</ele>
        <time>2018-06-23T17:38:33Z</time>
      </trkpt>
      <trkpt lat="44.47842" lon="6.23204">
        <ele>881</ele>
        <time>2018-06-23T17:38:38Z</time>
      </trkpt>
      <trkpt lat="44.47842" lon="6.23204">
        <ele>881</ele>
        <time>2018-06-23T17:38:43Z</time>
      </trkpt>
      <trkpt lat="44.47842" lon="6.23204">
        <ele>881</ele>
        <time>2018-06-23T17:38:48Z</time>
      </trkpt>
      <trkpt lat="44.47842" lon="6.23204">
        <ele>881</ele>
        <time>2018-06-23T17:38:53Z</time>
      </trkpt>
      <trkpt lat="44.47842" lon="6.23204">
        <ele>881</ele>
        <time>2018-06-23T17:38:58Z</time>
      </trkpt>
      <trkpt lat="44.47842" lon="6.23204">
        <ele>881</ele>
        <time>2018-06-23T17:39:03Z</time>
      </trkpt>
      <trkpt lat="44.47842" lon="6.23204">
        <ele>881</ele>
        <time>2018-06-23T17:39:08Z</time>
      </trkpt>
      <trkpt lat="44.47842" lon="6.23204">
        <ele>881</ele>
        <time>2018-06-23T17:39:13Z</time>
      </trkpt>
      <trkpt lat="44.47842" lon="6.23204">
        <ele>881</ele>
        <time>2018-06-23T17:39:18Z</time>
      </trkpt>
      <trkpt lat="44.47842" lon="6.23204">
        <ele>881</ele>
        <time>2018-06-23T17:39:23Z</time>
      </trkpt>
      <trkpt lat="44.47842" lon="6.23204">
        <ele>881</ele>
        <time>2018-06-23T17:39:28Z</time>
      </trkpt>
      <trkpt lat="44.47842" lon="6.23204">
        <ele>881</ele>
        <time>2018-06-23T17:39:33Z</time>
      </trkpt>
      <trkpt lat="44.47842" lon="6.23204">
        <ele>881</ele>
        <time>2018-06-23T17:39:38Z</time>
      </trkpt>
      <trkpt lat="44.47842" lon="6.23204">
        <ele>881</ele>
        <time>2018-06-23T17:39:43Z</time>
      </trkpt>
      <trkpt lat="44.47842" lon="6.23204">
        <ele>881</ele>
        <time>2018-06-23T17:39:48Z</time>
      </trkpt>
      <trkpt lat="44.47842" lon="6.23204">
        <ele>881</ele>
        <time>2018-06-23T17:39:53Z</time>
      </trkpt>
      <trkpt lat="44.47842" lon="6.23205">
        <ele>881</ele>
        <time>2018-06-23T17:39:58Z</time>
      </trkpt>
      <trkpt lat="44.47842" lon="6.23204">
        <ele>881</ele>
        <time>2018-06-23T17:40:03Z</time>
      </trkpt>
      <trkpt lat="44.47842" lon="6.23203">
        <ele>881</ele>
        <time>2018-06-23T17:40:08Z</time>
      </trkpt>
      <trkpt lat="44.47842" lon="6.23202">
        <ele>881</ele>
        <time>2018-06-23T17:40:13Z</time>
      </trkpt>
      <trkpt lat="44.47842" lon="6.23202">
        <ele>881</ele>
        <time>2018-06-23T17:40:18Z</time>
      </trkpt>
      <trkpt lat="44.47842" lon="6.23202">
        <ele>881</ele>
        <time>2018-06-23T17:40:23Z</time>
      </trkpt>
      <trkpt lat="44.47843" lon="6.23202">
        <ele>881</ele>
        <time>2018-06-23T17:40:28Z</time>
      </trkpt>
      <trkpt lat="44.47843" lon="6.23202">
        <ele>881</ele>
        <time>2018-06-23T17:40:33Z</time>
      </trkpt>
      <trkpt lat="44.47843" lon="6.23202">
        <ele>881</ele>
        <time>2018-06-23T17:40:38Z</time>
      </trkpt>
      <trkpt lat="44.47843" lon="6.23202">
        <ele>881</ele>
        <time>2018-06-23T17:40:43Z</time>
      </trkpt>
      <trkpt lat="44.47843" lon="6.23202">
        <ele>881</ele>
        <time>2018-06-23T17:40:48Z</time>
      </trkpt>
      <trkpt lat="44.47843" lon="6.23202">
        <ele>881</ele>
        <time>2018-06-23T17:40:53Z</time>
      </trkpt>
      <trkpt lat="44.47849" lon="6.232">
        <ele>883</ele>
        <time>2018-06-23T17:40:58Z</time>
      </trkpt>
      <trkpt lat="44.47856" lon="6.23198">
        <ele>885</ele>
        <time>2018-06-23T17:41:03Z</time>
      </trkpt>
      <trkpt lat="44.47862" lon="6.23198">
        <ele>886</ele>
        <time>2018-06-23T17:41:08Z</time>
      </trkpt>
      <trkpt lat="44.47868" lon="6.23198">
        <ele>888</ele>
        <time>2018-06-23T17:41:13Z</time>
      </trkpt>
      <trkpt lat="44.47875" lon="6.23197">
        <ele>890</ele>
        <time>2018-06-23T17:41:18Z</time>
      </trkpt>
      <trkpt lat="44.47883" lon="6.23196">
        <ele>892</ele>
        <time>2018-06-23T17:41:23Z</time>
      </trkpt>
      <trkpt lat="44.47889" lon="6.23197">
        <ele>892</ele>
        <time>2018-06-23T17:41:28Z</time>
      </trkpt>
      <trkpt lat="44.47896" lon="6.23196">
        <ele>893</ele>
        <time>2018-06-23T17:41:33Z</time>
      </trkpt>
      <trkpt lat="44.47903" lon="6.23193">
        <ele>894</ele>
        <time>2018-06-23T17:41:38Z</time>
      </trkpt>
      <trkpt lat="44.47907" lon="6.23187">
        <ele>896</ele>
        <time>2018-06-23T17:41:43Z</time>
      </trkpt>
      <trkpt lat="44.47909" lon="6.2318">
        <ele>898</ele>
        <time>2018-06-23T17:41:48Z</time>
      </trkpt>
      <trkpt lat="44.47913" lon="6.23174">
        <ele>899</ele>
        <time>2018-06-23T17:41:53Z</time>
      </trkpt>
      <trkpt lat="44.47917" lon="6.23168">
        <ele>901</ele>
        <time>2018-06-23T17:41:58Z</time>
      </trkpt>
      <trkpt lat="44.4792" lon="6.23162">
        <ele>902</ele>
        <time>2018-06-23T17:42:03Z</time>
      </trkpt>
      <trkpt lat="44.47924" lon="6.23156">
        <ele>904</ele>
        <time>2018-06-23T17:42:08Z</time>
      </trkpt>
      <trkpt lat="44.4793" lon="6.23152">
        <ele>905</ele>
        <time>2018-06-23T17:42:13Z</time>
      </trkpt>
      <trkpt lat="44.47933" lon="6.23147">
        <ele>906</ele>
        <time>2018-06-23T17:42:18Z</time>
      </trkpt>
      <trkpt lat="44.47936" lon="6.2314">
        <ele>907</ele>
        <time>2018-06-23T17:42:23Z</time>
      </trkpt>
      <trkpt lat="44.47942" lon="6.23141">
        <ele>908</ele>
        <time>2018-06-23T17:42:28Z</time>
      </trkpt>
      <trkpt lat="44.47947" lon="6.23141">
        <ele>908</ele>
        <time>2018-06-23T17:42:33Z</time>
      </trkpt>
      <trkpt lat="44.47953" lon="6.23141">
        <ele>908</ele>
        <time>2018-06-23T17:42:38Z</time>
      </trkpt>
      <trkpt lat="44.47958" lon="6.2314">
        <ele>908</ele>
        <time>2018-06-23T17:42:43Z</time>
      </trkpt>
      <trkpt lat="44.47962" lon="6.23136">
        <ele>909</ele>
        <time>2018-06-23T17:42:48Z</time>
      </trkpt>
      <trkpt lat="44.47968" lon="6.23137">
        <ele>908</ele>
        <time>2018-06-23T17:42:53Z</time>
      </trkpt>
      <trkpt lat="44.47974" lon="6.23137">
        <ele>908</ele>
        <time>2018-06-23T17:42:58Z</time>
      </trkpt>
      <trkpt lat="44.47979" lon="6.23138">
        <ele>908</ele>
        <time>2018-06-23T17:43:03Z</time>
      </trkpt>
      <trkpt lat="44.47985" lon="6.23137">
        <ele>907</ele>
        <time>2018-06-23T17:43:08Z</time>
      </trkpt>
      <trkpt lat="44.47992" lon="6.23135">
        <ele>907</ele>
        <time>2018-06-23T17:43:13Z</time>
      </trkpt>
      <trkpt lat="44.47999" lon="6.23135">
        <ele>907</ele>
        <time>2018-06-23T17:43:18Z</time>
      </trkpt>
      <trkpt lat="44.48005" lon="6.23135">
        <ele>907</ele>
        <time>2018-06-23T17:43:23Z</time>
      </trkpt>
      <trkpt lat="44.48011" lon="6.23136">
        <ele>906</ele>
        <time>2018-06-23T17:43:28Z</time>
      </trkpt>
      <trkpt lat="44.48015" lon="6.23136">
        <ele>906</ele>
        <time>2018-06-23T17:43:33Z</time>
      </trkpt>
      <trkpt lat="44.48021" lon="6.23135">
        <ele>906</ele>
        <time>2018-06-23T17:43:38Z</time>
      </trkpt>
      <trkpt lat="44.48027" lon="6.23135">
        <ele>906</ele>
        <time>2018-06-23T17:43:43Z</time>
      </trkpt>
      <trkpt lat="44.48033" lon="6.23135">
        <ele>906</ele>
        <time>2018-06-23T17:43:48Z</time>
      </trkpt>
      <trkpt lat="44.4804" lon="6.23135">
        <ele>906</ele>
        <time>2018-06-23T17:43:53Z</time>
      </trkpt>
      <trkpt lat="44.48046" lon="6.23134">
        <ele>907</ele>
        <time>2018-06-23T17:43:58Z</time>
      </trkpt>
      <trkpt lat="44.48052" lon="6.23134">
        <ele>907</ele>
        <time>2018-06-23T17:44:03Z</time>
      </trkpt>
      <trkpt lat="44.48058" lon="6.23135">
        <ele>907</ele>
        <time>2018-06-23T17:44:08Z</time>
      </trkpt>
      <trkpt lat="44.48062" lon="6.23137">
        <ele>907</ele>
        <time>2018-06-23T17:44:13Z</time>
      </trkpt>
      <trkpt lat="44.48067" lon="6.23138">
        <ele>907</ele>
        <time>2018-06-23T17:44:18Z</time>
      </trkpt>
      <trkpt lat="44.48074" lon="6.23142">
        <ele>907</ele>
        <time>2018-06-23T17:44:23Z</time>
      </trkpt>
      <trkpt lat="44.4808" lon="6.23147">
        <ele>907</ele>
        <time>2018-06-23T17:44:28Z</time>
      </trkpt>
      <trkpt lat="44.48086" lon="6.23149">
        <ele>907</ele>
        <time>2018-06-23T17:44:33Z</time>
      </trkpt>
      <trkpt lat="44.48092" lon="6.2315">
        <ele>907</ele>
        <time>2018-06-23T17:44:38Z</time>
      </trkpt>
      <trkpt lat="44.48098" lon="6.23151">
        <ele>908</ele>
        <time>2018-06-23T17:44:43Z</time>
      </trkpt>
      <trkpt lat="44.48103" lon="6.23151">
        <ele>909</ele>
        <time>2018-06-23T17:44:48Z</time>
      </trkpt>
      <trkpt lat="44.48109" lon="6.23153">
        <ele>909</ele>
        <time>2018-06-23T17:44:53Z</time>
      </trkpt>
      <trkpt lat="44.48114" lon="6.23157">
        <ele>909</ele>
        <time>2018-06-23T17:44:58Z</time>
      </trkpt>
      <trkpt lat="44.48119" lon="6.23161">
        <ele>909</ele>
        <time>2018-06-23T17:45:03Z</time>
      </trkpt>
      <trkpt lat="44.48124" lon="6.23166">
        <ele>909</ele>
        <time>2018-06-23T17:45:08Z</time>
      </trkpt>
      <trkpt lat="44.4813" lon="6.2317">
        <ele>909</ele>
        <time>2018-06-23T17:45:13Z</time>
      </trkpt>
      <trkpt lat="44.48134" lon="6.23174">
        <ele>909</ele>
        <time>2018-06-23T17:45:18Z</time>
      </trkpt>
      <trkpt lat="44.48141" lon="6.23179">
        <ele>908</ele>
        <time>2018-06-23T17:45:23Z</time>
      </trkpt>
      <trkpt lat="44.48146" lon="6.23182">
        <ele>908</ele>
        <time>2018-06-23T17:45:28Z</time>
      </trkpt>
      <trkpt lat="44.4815" lon="6.23184">
        <ele>908</ele>
        <time>2018-06-23T17:45:33Z</time>
      </trkpt>
      <trkpt lat="44.48156" lon="6.23189">
        <ele>907</ele>
        <time>2018-06-23T17:45:38Z</time>
      </trkpt>
      <trkpt lat="44.48162" lon="6.23193">
        <ele>907</ele>
        <time>2018-06-23T17:45:43Z</time>
      </trkpt>
      <trkpt lat="44.48167" lon="6.23197">
        <ele>908</ele>
        <time>2018-06-23T17:45:48Z</time>
      </trkpt>
      <trkpt lat="44.48171" lon="6.23201">
        <ele>908</ele>
        <time>2018-06-23T17:45:53Z</time>
      </trkpt>
      <trkpt lat="44.48174" lon="6.23207">
        <ele>909</ele>
        <time>2018-06-23T17:45:58Z</time>
      </trkpt>
      <trkpt lat="44.48179" lon="6.23213">
        <ele>910</ele>
        <time>2018-06-23T17:46:03Z</time>
      </trkpt>
      <trkpt lat="44.48181" lon="6.2322">
        <ele>911</ele>
        <time>2018-06-23T17:46:08Z</time>
      </trkpt>
      <trkpt lat="44.48183" lon="6.23226">
        <ele>911</ele>
        <time>2018-06-23T17:46:13Z</time>
      </trkpt>
      <trkpt lat="44.48186" lon="6.23231">
        <ele>911</ele>
        <time>2018-06-23T17:46:18Z</time>
      </trkpt>
      <trkpt lat="44.48188" lon="6.23237">
        <ele>911</ele>
        <time>2018-06-23T17:46:23Z</time>
      </trkpt>
      <trkpt lat="44.48191" lon="6.23242">
        <ele>911</ele>
        <time>2018-06-23T17:46:28Z</time>
      </trkpt>
      <trkpt lat="44.48196" lon="6.23247">
        <ele>912</ele>
        <time>2018-06-23T17:46:33Z</time>
      </trkpt>
      <trkpt lat="44.482" lon="6.23253">
        <ele>912</ele>
        <time>2018-06-23T17:46:38Z</time>
      </trkpt>
      <trkpt lat="44.48205" lon="6.23258">
        <ele>912</ele>
        <time>2018-06-23T17:46:43Z</time>
      </trkpt>
      <trkpt lat="44.4821" lon="6.23262">
        <ele>912</ele>
        <time>2018-06-23T17:46:48Z</time>
      </trkpt>
      <trkpt lat="44.48215" lon="6.23266">
        <ele>912</ele>
        <time>2018-06-23T17:46:53Z</time>
      </trkpt>
      <trkpt lat="44.48221" lon="6.23269">
        <ele>912</ele>
        <time>2018-06-23T17:46:58Z</time>
      </trkpt>
      <trkpt lat="44.48226" lon="6.23272">
        <ele>913</ele>
        <time>2018-06-23T17:47:03Z</time>
      </trkpt>
      <trkpt lat="44.48231" lon="6.23275">
        <ele>914</ele>
        <time>2018-06-23T17:47:08Z</time>
      </trkpt>
      <trkpt lat="44.48235" lon="6.23276">
        <ele>914</ele>
        <time>2018-06-23T17:47:13Z</time>
      </trkpt>
      <trkpt lat="44.4824" lon="6.23278">
        <ele>915</ele>
        <time>2018-06-23T17:47:18Z</time>
      </trkpt>
      <trkpt lat="44.48244" lon="6.23279">
        <ele>916</ele>
        <time>2018-06-23T17:47:23Z</time>
      </trkpt>
      <trkpt lat="44.48248" lon="6.2328">
        <ele>917</ele>
        <time>2018-06-23T17:47:28Z</time>
      </trkpt>
      <trkpt lat="44.48253" lon="6.23282">
        <ele>918</ele>
        <time>2018-06-23T17:47:33Z</time>
      </trkpt>
      <trkpt lat="44.48256" lon="6.23287">
        <ele>918</ele>
        <time>2018-06-23T17:47:38Z</time>
      </trkpt>
      <trkpt lat="44.48259" lon="6.23292">
        <ele>918</ele>
        <time>2018-06-23T17:47:43Z</time>
      </trkpt>
      <trkpt lat="44.48263" lon="6.23299">
        <ele>918</ele>
        <time>2018-06-23T17:47:48Z</time>
      </trkpt>
      <trkpt lat="44.48268" lon="6.23304">
        <ele>918</ele>
        <time>2018-06-23T17:47:53Z</time>
      </trkpt>
      <trkpt lat="44.48271" lon="6.23309">
        <ele>918</ele>
        <time>2018-06-23T17:47:58Z</time>
      </trkpt>
      <trkpt lat="44.48275" lon="6.23315">
        <ele>917</ele>
        <time>2018-06-23T17:48:03Z</time>
      </trkpt>
      <trkpt lat="44.4828" lon="6.23321">
        <ele>917</ele>
        <time>2018-06-23T17:48:08Z</time>
      </trkpt>
      <trkpt lat="44.48285" lon="6.23324">
        <ele>917</ele>
        <time>2018-06-23T17:48:13Z</time>
      </trkpt>
      <trkpt lat="44.48289" lon="6.23327">
        <ele>917</ele>
        <time>2018-06-23T17:48:18Z</time>
      </trkpt>
      <trkpt lat="44.48295" lon="6.2333">
        <ele>917</ele>
        <time>2018-06-23T17:48:23Z</time>
      </trkpt>
      <trkpt lat="44.48298" lon="6.23332">
        <ele>916</ele>
        <time>2018-06-23T17:48:28Z</time>
      </trkpt>
      <trkpt lat="44.483" lon="6.23331">
        <ele>917</ele>
        <time>2018-06-23T17:48:33Z</time>
      </trkpt>
      <trkpt lat="44.48302" lon="6.23333">
        <ele>917</ele>
        <time>2018-06-23T17:48:38Z</time>
      </trkpt>
      <trkpt lat="44.48303" lon="6.23335">
        <ele>917</ele>
        <time>2018-06-23T17:48:43Z</time>
      </trkpt>
      <trkpt lat="44.48306" lon="6.23335">
        <ele>917</ele>
        <time>2018-06-23T17:48:48Z</time>
      </trkpt>
      <trkpt lat="44.4831" lon="6.23334">
        <ele>918</ele>
        <time>2018-06-23T17:48:53Z</time>
      </trkpt>
      <trkpt lat="44.48314" lon="6.23334">
        <ele>919</ele>
        <time>2018-06-23T17:48:58Z</time>
      </trkpt>
      <trkpt lat="44.48318" lon="6.23332">
        <ele>920</ele>
        <time>2018-06-23T17:49:03Z</time>
      </trkpt>
      <trkpt lat="44.48323" lon="6.23331">
        <ele>921</ele>
        <time>2018-06-23T17:49:08Z</time>
      </trkpt>
      <trkpt lat="44.48325" lon="6.2333">
        <ele>922</ele>
        <time>2018-06-23T17:49:13Z</time>
      </trkpt>
      <trkpt lat="44.48328" lon="6.23329">
        <ele>923</ele>
        <time>2018-06-23T17:49:18Z</time>
      </trkpt>
      <trkpt lat="44.48329" lon="6.23329">
        <ele>923</ele>
        <time>2018-06-23T17:49:23Z</time>
      </trkpt>
      <trkpt lat="44.48328" lon="6.23329">
        <ele>923</ele>
        <time>2018-06-23T17:49:28Z</time>
      </trkpt>
      <trkpt lat="44.48328" lon="6.23329">
        <ele>923</ele>
        <time>2018-06-23T17:49:33Z</time>
      </trkpt>
      <trkpt lat="44.48328" lon="6.23329">
        <ele>923</ele>
        <time>2018-06-23T17:49:38Z</time>
      </trkpt>
      <trkpt lat="44.48329" lon="6.23329">
        <ele>923</ele>
        <time>2018-06-23T17:49:43Z</time>
      </trkpt>
      <trkpt lat="44.48329" lon="6.23327">
        <ele>923</ele>
        <time>2018-06-23T17:49:48Z</time>
      </trkpt>
      <trkpt lat="44.48329" lon="6.23326">
        <ele>924</ele>
        <time>2018-06-23T17:49:53Z</time>
      </trkpt>
      <trkpt lat="44.48332" lon="6.23326">
        <ele>924</ele>
        <time>2018-06-23T17:49:58Z</time>
      </trkpt>
      <trkpt lat="44.48335" lon="6.23326">
        <ele>925</ele>
        <time>2018-06-23T17:50:03Z</time>
      </trkpt>
      <trkpt lat="44.48336" lon="6.23328">
        <ele>924</ele>
        <time>2018-06-23T17:50:08Z</time>
      </trkpt>
      <trkpt lat="44.48336" lon="6.23329">
        <ele>924</ele>
        <time>2018-06-23T17:50:13Z</time>
      </trkpt>
      <trkpt lat="44.48336" lon="6.2333">
        <ele>924</ele>
        <time>2018-06-23T17:50:18Z</time>
      </trkpt>
      <trkpt lat="44.48337" lon="6.23329">
        <ele>924</ele>
        <time>2018-06-23T17:50:23Z</time>
      </trkpt>
      <trkpt lat="44.48337" lon="6.23329">
        <ele>924</ele>
        <time>2018-06-23T17:50:28Z</time>
      </trkpt>
      <trkpt lat="44.48336" lon="6.2333">
        <ele>924</ele>
        <time>2018-06-23T17:50:33Z</time>
      </trkpt>
      <trkpt lat="44.48337" lon="6.23329">
        <ele>924</ele>
        <time>2018-06-23T17:50:38Z</time>
      </trkpt>
      <trkpt lat="44.48338" lon="6.23329">
        <ele>924</ele>
        <time>2018-06-23T17:50:43Z</time>
      </trkpt>
      <trkpt lat="44.48341" lon="6.23332">
        <ele>924</ele>
        <time>2018-06-23T17:50:48Z</time>
      </trkpt>
      <trkpt lat="44.48345" lon="6.23335">
        <ele>924</ele>
        <time>2018-06-23T17:50:53Z</time>
      </trkpt>
      <trkpt lat="44.4835" lon="6.23338">
        <ele>925</ele>
        <time>2018-06-23T17:50:58Z</time>
      </trkpt>
      <trkpt lat="44.48353" lon="6.23342">
        <ele>925</ele>
        <time>2018-06-23T17:51:03Z</time>
      </trkpt>
      <trkpt lat="44.48359" lon="6.23345">
        <ele>926</ele>
        <time>2018-06-23T17:51:08Z</time>
      </trkpt>
      <trkpt lat="44.48364" lon="6.23347">
        <ele>927</ele>
        <time>2018-06-23T17:51:13Z</time>
      </trkpt>
      <trkpt lat="44.48368" lon="6.23348">
        <ele>927</ele>
        <time>2018-06-23T17:51:18Z</time>
      </trkpt>
      <trkpt lat="44.48372" lon="6.23348">
        <ele>928</ele>
        <time>2018-06-23T17:51:23Z</time>
      </trkpt>
      <trkpt lat="44.48377" lon="6.23348">
        <ele>928</ele>
        <time>2018-06-23T17:51:28Z</time>
      </trkpt>
      <trkpt lat="44.48383" lon="6.23352">
        <ele>929</ele>
        <time>2018-06-23T17:51:33Z</time>
      </trkpt>
      <trkpt lat="44.48387" lon="6.23358">
        <ele>929</ele>
        <time>2018-06-23T17:51:38Z</time>
      </trkpt>
      <trkpt lat="44.48392" lon="6.2336">
        <ele>929</ele>
        <time>2018-06-23T17:51:43Z</time>
      </trkpt>
      <trkpt lat="44.48397" lon="6.23363">
        <ele>930</ele>
        <time>2018-06-23T17:51:48Z</time>
      </trkpt>
      <trkpt lat="44.48403" lon="6.23366">
        <ele>930</ele>
        <time>2018-06-23T17:51:53Z</time>
      </trkpt>
      <trkpt lat="44.48408" lon="6.23368">
        <ele>930</ele>
        <time>2018-06-23T17:51:58Z</time>
      </trkpt>
      <trkpt lat="44.48413" lon="6.23369">
        <ele>930</ele>
        <time>2018-06-23T17:52:03Z</time>
      </trkpt>
      <trkpt lat="44.48418" lon="6.2337">
        <ele>931</ele>
        <time>2018-06-23T17:52:08Z</time>
      </trkpt>
      <trkpt lat="44.48422" lon="6.23373">
        <ele>931</ele>
        <time>2018-06-23T17:52:13Z</time>
      </trkpt>
      <trkpt lat="44.48426" lon="6.23375">
        <ele>931</ele>
        <time>2018-06-23T17:52:18Z</time>
      </trkpt>
      <trkpt lat="44.48431" lon="6.23377">
        <ele>931</ele>
        <time>2018-06-23T17:52:23Z</time>
      </trkpt>
      <trkpt lat="44.48435" lon="6.2338">
        <ele>931</ele>
        <time>2018-06-23T17:52:28Z</time>
      </trkpt>
      <trkpt lat="44.48439" lon="6.23384">
        <ele>930</ele>
        <time>2018-06-23T17:52:33Z</time>
      </trkpt>
      <trkpt lat="44.48444" lon="6.2339">
        <ele>930</ele>
        <time>2018-06-23T17:52:38Z</time>
      </trkpt>
      <trkpt lat="44.48447" lon="6.23393">
        <ele>930</ele>
        <time>2018-06-23T17:52:43Z</time>
      </trkpt>
      <trkpt lat="44.48451" lon="6.23398">
        <ele>929</ele>
        <time>2018-06-23T17:52:48Z</time>
      </trkpt>
      <trkpt lat="44.48456" lon="6.23402">
        <ele>929</ele>
        <time>2018-06-23T17:52:53Z</time>
      </trkpt>
      <trkpt lat="44.48461" lon="6.23406">
        <ele>929</ele>
        <time>2018-06-23T17:52:58Z</time>
      </trkpt>
      <trkpt lat="44.48466" lon="6.2341">
        <ele>930</ele>
        <time>2018-06-23T17:53:03Z</time>
      </trkpt>
      <trkpt lat="44.48471" lon="6.23414">
        <ele>930</ele>
        <time>2018-06-23T17:53:08Z</time>
      </trkpt>
      <trkpt lat="44.48477" lon="6.23417">
        <ele>931</ele>
        <time>2018-06-23T17:53:13Z</time>
      </trkpt>
      <trkpt lat="44.48482" lon="6.2342">
        <ele>931</ele>
        <time>2018-06-23T17:53:18Z</time>
      </trkpt>
      <trkpt lat="44.48486" lon="6.23424">
        <ele>931</ele>
        <time>2018-06-23T17:53:23Z</time>
      </trkpt>
      <trkpt lat="44.4849" lon="6.23427">
        <ele>931</ele>
        <time>2018-06-23T17:53:28Z</time>
      </trkpt>
      <trkpt lat="44.48495" lon="6.2343">
        <ele>931</ele>
        <time>2018-06-23T17:53:33Z</time>
      </trkpt>
      <trkpt lat="44.48501" lon="6.23434">
        <ele>931</ele>
        <time>2018-06-23T17:53:38Z</time>
      </trkpt>
      <trkpt lat="44.48505" lon="6.23435">
        <ele>932</ele>
        <time>2018-06-23T17:53:43Z</time>
      </trkpt>
      <trkpt lat="44.48509" lon="6.23439">
        <ele>933</ele>
        <time>2018-06-23T17:53:48Z</time>
      </trkpt>
      <trkpt lat="44.48513" lon="6.23444">
        <ele>933</ele>
        <time>2018-06-23T17:53:53Z</time>
      </trkpt>
      <trkpt lat="44.48517" lon="6.23449">
        <ele>933</ele>
        <time>2018-06-23T17:53:58Z</time>
      </trkpt>
      <trkpt lat="44.48521" lon="6.23454">
        <ele>933</ele>
        <time>2018-06-23T17:54:03Z</time>
      </trkpt>
      <trkpt lat="44.48525" lon="6.23458">
        <ele>934</ele>
        <time>2018-06-23T17:54:08Z</time>
      </trkpt>
      <trkpt lat="44.48529" lon="6.23463">
        <ele>934</ele>
        <time>2018-06-23T17:54:13Z</time>
      </trkpt>
      <trkpt lat="44.48533" lon="6.23466">
        <ele>934</ele>
        <time>2018-06-23T17:54:18Z</time>
      </trkpt>
      <trkpt lat="44.48537" lon="6.2347">
        <ele>934</ele>
        <time>2018-06-23T17:54:23Z</time>
      </trkpt>
      <trkpt lat="44.48542" lon="6.23474">
        <ele>935</ele>
        <time>2018-06-23T17:54:28Z</time>
      </trkpt>
      <trkpt lat="44.48546" lon="6.23479">
        <ele>936</ele>
        <time>2018-06-23T17:54:33Z</time>
      </trkpt>
      <trkpt lat="44.4855" lon="6.23484">
        <ele>937</ele>
        <time>2018-06-23T17:54:38Z</time>
      </trkpt>
      <trkpt lat="44.48554" lon="6.2349">
        <ele>937</ele>
        <time>2018-06-23T17:54:43Z</time>
      </trkpt>
      <trkpt lat="44.48558" lon="6.23495">
        <ele>938</ele>
        <time>2018-06-23T17:54:48Z</time>
      </trkpt>
      <trkpt lat="44.48562" lon="6.23501">
        <ele>938</ele>
        <time>2018-06-23T17:54:53Z</time>
      </trkpt>
      <trkpt lat="44.48566" lon="6.23507">
        <ele>939</ele>
        <time>2018-06-23T17:54:58Z</time>
      </trkpt>
      <trkpt lat="44.4857" lon="6.23511">
        <ele>939</ele>
        <time>2018-06-23T17:55:03Z</time>
      </trkpt>
      <trkpt lat="44.48573" lon="6.23515">
        <ele>939</ele>
        <time>2018-06-23T17:55:08Z</time>
      </trkpt>
      <trkpt lat="44.48577" lon="6.2352">
        <ele>940</ele>
        <time>2018-06-23T17:55:13Z</time>
      </trkpt>
      <trkpt lat="44.4858" lon="6.23524">
        <ele>940</ele>
        <time>2018-06-23T17:55:18Z</time>
      </trkpt>
      <trkpt lat="44.48583" lon="6.23529">
        <ele>940</ele>
        <time>2018-06-23T17:55:23Z</time>
      </trkpt>
      <trkpt lat="44.48585" lon="6.23532">
        <ele>941</ele>
        <time>2018-06-23T17:55:28Z</time>
      </trkpt>
      <trkpt lat="44.48587" lon="6.23536">
        <ele>941</ele>
        <time>2018-06-23T17:55:33Z</time>
      </trkpt>
      <trkpt lat="44.48592" lon="6.2354">
        <ele>941</ele>
        <time>2018-06-23T17:55:38Z</time>
      </trkpt>
      <trkpt lat="44.48595" lon="6.23543">
        <ele>942</ele>
        <time>2018-06-23T17:55:43Z</time>
      </trkpt>
      <trkpt lat="44.48599" lon="6.23546">
        <ele>943</ele>
        <time>2018-06-23T17:55:48Z</time>
      </trkpt>
      <trkpt lat="44.48604" lon="6.23549">
        <ele>944</ele>
        <time>2018-06-23T17:55:53Z</time>
      </trkpt>
      <trkpt lat="44.48608" lon="6.23552">
        <ele>944</ele>
        <time>2018-06-23T17:55:58Z</time>
      </trkpt>
      <trkpt lat="44.48612" lon="6.23556">
        <ele>945</ele>
        <time>2018-06-23T17:56:03Z</time>
      </trkpt>
      <trkpt lat="44.48618" lon="6.2356">
        <ele>946</ele>
        <time>2018-06-23T17:56:08Z</time>
      </trkpt>
      <trkpt lat="44.48621" lon="6.23563">
        <ele>946</ele>
        <time>2018-06-23T17:56:13Z</time>
      </trkpt>
      <trkpt lat="44.48626" lon="6.23567">
        <ele>947</ele>
        <time>2018-06-23T17:56:18Z</time>
      </trkpt>
      <trkpt lat="44.48631" lon="6.23572">
        <ele>947</ele>
        <time>2018-06-23T17:56:23Z</time>
      </trkpt>
      <trkpt lat="44.48636" lon="6.23576">
        <ele>948</ele>
        <time>2018-06-23T17:56:28Z</time>
      </trkpt>
      <trkpt lat="44.48639" lon="6.23583">
        <ele>948</ele>
        <time>2018-06-23T17:56:33Z</time>
      </trkpt>
      <trkpt lat="44.48643" lon="6.23589">
        <ele>948</ele>
        <time>2018-06-23T17:56:38Z</time>
      </trkpt>
      <trkpt lat="44.48648" lon="6.23593">
        <ele>949</ele>
        <time>2018-06-23T17:56:43Z</time>
      </trkpt>
      <trkpt lat="44.48652" lon="6.23599">
        <ele>950</ele>
        <time>2018-06-23T17:56:48Z</time>
      </trkpt>
      <trkpt lat="44.48657" lon="6.23603">
        <ele>951</ele>
        <time>2018-06-23T17:56:53Z</time>
      </trkpt>
      <trkpt lat="44.48662" lon="6.23607">
        <ele>952</ele>
        <time>2018-06-23T17:56:58Z</time>
      </trkpt>
      <trkpt lat="44.48667" lon="6.23613">
        <ele>952</ele>
        <time>2018-06-23T17:57:03Z</time>
      </trkpt>
      <trkpt lat="44.48672" lon="6.23616">
        <ele>953</ele>
        <time>2018-06-23T17:57:08Z</time>
      </trkpt>
      <trkpt lat="44.48677" lon="6.23621">
        <ele>954</ele>
        <time>2018-06-23T17:57:13Z</time>
      </trkpt>
      <trkpt lat="44.48681" lon="6.23626">
        <ele>954</ele>
        <time>2018-06-23T17:57:18Z</time>
      </trkpt>
      <trkpt lat="44.48685" lon="6.2363">
        <ele>955</ele>
        <time>2018-06-23T17:57:23Z</time>
      </trkpt>
      <trkpt lat="44.48689" lon="6.23635">
        <ele>955</ele>
        <time>2018-06-23T17:57:28Z</time>
      </trkpt>
      <trkpt lat="44.4869" lon="6.23638">
        <ele>955</ele>
        <time>2018-06-23T17:57:33Z</time>
      </trkpt>
      <trkpt lat="44.48688" lon="6.23642">
        <ele>954</ele>
        <time>2018-06-23T17:57:38Z</time>
      </trkpt>
      <trkpt lat="44.48688" lon="6.23649">
        <ele>954</ele>
        <time>2018-06-23T17:57:43Z</time>
      </trkpt>
      <trkpt lat="44.48691" lon="6.23654">
        <ele>954</ele>
        <time>2018-06-23T17:57:48Z</time>
      </trkpt>
      <trkpt lat="44.48696" lon="6.23655">
        <ele>954</ele>
        <time>2018-06-23T17:57:53Z</time>
      </trkpt>
      <trkpt lat="44.48701" lon="6.23658">
        <ele>954</ele>
        <time>2018-06-23T17:57:58Z</time>
      </trkpt>
      <trkpt lat="44.48705" lon="6.23661">
        <ele>954</ele>
        <time>2018-06-23T17:58:03Z</time>
      </trkpt>
      <trkpt lat="44.48708" lon="6.23665">
        <ele>954</ele>
        <time>2018-06-23T17:58:08Z</time>
      </trkpt>
      <trkpt lat="44.48714" lon="6.23668">
        <ele>955</ele>
        <time>2018-06-23T17:58:13Z</time>
      </trkpt>
      <trkpt lat="44.48717" lon="6.23672">
        <ele>955</ele>
        <time>2018-06-23T17:58:18Z</time>
      </trkpt>
      <trkpt lat="44.48721" lon="6.23676">
        <ele>956</ele>
        <time>2018-06-23T17:58:23Z</time>
      </trkpt>
      <trkpt lat="44.48724" lon="6.23679">
        <ele>956</ele>
        <time>2018-06-23T17:58:28Z</time>
      </trkpt>
      <trkpt lat="44.48728" lon="6.23681">
        <ele>957</ele>
        <time>2018-06-23T17:58:33Z</time>
      </trkpt>
      <trkpt lat="44.48731" lon="6.23685">
        <ele>958</ele>
        <time>2018-06-23T17:58:38Z</time>
      </trkpt>
      <trkpt lat="44.48735" lon="6.2369">
        <ele>959</ele>
        <time>2018-06-23T17:58:43Z</time>
      </trkpt>
      <trkpt lat="44.4874" lon="6.23693">
        <ele>960</ele>
        <time>2018-06-23T17:58:48Z</time>
      </trkpt>
      <trkpt lat="44.48746" lon="6.23698">
        <ele>961</ele>
        <time>2018-06-23T17:58:53Z</time>
      </trkpt>
      <trkpt lat="44.48748" lon="6.23706">
        <ele>962</ele>
        <time>2018-06-23T17:58:58Z</time>
      </trkpt>
      <trkpt lat="44.4875" lon="6.23712">
        <ele>962</ele>
        <time>2018-06-23T17:59:03Z</time>
      </trkpt>
      <trkpt lat="44.48753" lon="6.23721">
        <ele>962</ele>
        <time>2018-06-23T17:59:08Z</time>
      </trkpt>
      <trkpt lat="44.48754" lon="6.23728">
        <ele>963</ele>
        <time>2018-06-23T17:59:13Z</time>
      </trkpt>
      <trkpt lat="44.48755" lon="6.23734">
        <ele>963</ele>
        <time>2018-06-23T17:59:18Z</time>
      </trkpt>
      <trkpt lat="44.48759" lon="6.2374">
        <ele>963</ele>
        <time>2018-06-23T17:59:23Z</time>
      </trkpt>
      <trkpt lat="44.48763" lon="6.23745">
        <ele>963</ele>
        <time>2018-06-23T17:59:28Z</time>
      </trkpt>
      <trkpt lat="44.48765" lon="6.23752">
        <ele>964</ele>
        <time>2018-06-23T17:59:33Z</time>
      </trkpt>
      <trkpt lat="44.48769" lon="6.23757">
        <ele>964</ele>
        <time>2018-06-23T17:59:38Z</time>
      </trkpt>
      <trkpt lat="44.48771" lon="6.23764">
        <ele>965</ele>
        <time>2018-06-23T17:59:43Z</time>
      </trkpt>
      <trkpt lat="44.48773" lon="6.23772">
        <ele>966</ele>
        <time>2018-06-23T17:59:48Z</time>
      </trkpt>
      <trkpt lat="44.48774" lon="6.23778">
        <ele>967</ele>
        <time>2018-06-23T17:59:53Z</time>
      </trkpt>
      <trkpt lat="44.48777" lon="6.23784">
        <ele>967</ele>
        <time>2018-06-23T17:59:58Z</time>
      </trkpt>
      <trkpt lat="44.4878" lon="6.23789">
        <ele>968</ele>
        <time>2018-06-23T18:00:03Z</time>
      </trkpt>
      <trkpt lat="44.48783" lon="6.23793">
        <ele>969</ele>
        <time>2018-06-23T18:00:08Z</time>
      </trkpt>
      <trkpt lat="44.48788" lon="6.23801">
        <ele>970</ele>
        <time>2018-06-23T18:00:13Z</time>
      </trkpt>
      <trkpt lat="44.4879" lon="6.23808">
        <ele>970</ele>
        <time>2018-06-23T18:00:18Z</time>
      </trkpt>
      <trkpt lat="44.48794" lon="6.23813">
        <ele>970</ele>
        <time>2018-06-23T18:00:23Z</time>
      </trkpt>
      <trkpt lat="44.48797" lon="6.23818">
        <ele>971</ele>
        <time>2018-06-23T18:00:28Z</time>
      </trkpt>
      <trkpt lat="44.48797" lon="6.23825">
        <ele>971</ele>
        <time>2018-06-23T18:00:33Z</time>
      </trkpt>
      <trkpt lat="44.48801" lon="6.2383">
        <ele>972</ele>
        <time>2018-06-23T18:00:38Z</time>
      </trkpt>
      <trkpt lat="44.48804" lon="6.23836">
        <ele>972</ele>
        <time>2018-06-23T18:00:43Z</time>
      </trkpt>
      <trkpt lat="44.48807" lon="6.23841">
        <ele>973</ele>
        <time>2018-06-23T18:00:48Z</time>
      </trkpt>
      <trkpt lat="44.48811" lon="6.23846">
        <ele>973</ele>
        <time>2018-06-23T18:00:53Z</time>
      </trkpt>
      <trkpt lat="44.48815" lon="6.2385">
        <ele>973</ele>
        <time>2018-06-23T18:00:58Z</time>
      </trkpt>
      <trkpt lat="44.48817" lon="6.23853">
        <ele>973</ele>
        <time>2018-06-23T18:01:03Z</time>
      </trkpt>
      <trkpt lat="44.48821" lon="6.23857">
        <ele>973</ele>
        <time>2018-06-23T18:01:08Z</time>
      </trkpt>
      <trkpt lat="44.48825" lon="6.23861">
        <ele>972</ele>
        <time>2018-06-23T18:01:13Z</time>
      </trkpt>
      <trkpt lat="44.4883" lon="6.23865">
        <ele>972</ele>
        <time>2018-06-23T18:01:18Z</time>
      </trkpt>
      <trkpt lat="44.48833" lon="6.2387">
        <ele>971</ele>
        <time>2018-06-23T18:01:23Z</time>
      </trkpt>
      <trkpt lat="44.48838" lon="6.23874">
        <ele>971</ele>
        <time>2018-06-23T18:01:28Z</time>
      </trkpt>
      <trkpt lat="44.48842" lon="6.23879">
        <ele>970</ele>
        <time>2018-06-23T18:01:33Z</time>
      </trkpt>
      <trkpt lat="44.48847" lon="6.23882">
        <ele>969</ele>
        <time>2018-06-23T18:01:38Z</time>
      </trkpt>
      <trkpt lat="44.48851" lon="6.23886">
        <ele>970</ele>
        <time>2018-06-23T18:01:43Z</time>
      </trkpt>
      <trkpt lat="44.48855" lon="6.23889">
        <ele>971</ele>
        <time>2018-06-23T18:01:48Z</time>
      </trkpt>
      <trkpt lat="44.48859" lon="6.23892">
        <ele>971</ele>
        <time>2018-06-23T18:01:53Z</time>
      </trkpt>
      <trkpt lat="44.48864" lon="6.23896">
        <ele>972</ele>
        <time>2018-06-23T18:01:58Z</time>
      </trkpt>
      <trkpt lat="44.48869" lon="6.239">
        <ele>973</ele>
        <time>2018-06-23T18:02:03Z</time>
      </trkpt>
      <trkpt lat="44.48875" lon="6.23904">
        <ele>974</ele>
        <time>2018-06-23T18:02:08Z</time>
      </trkpt>
      <trkpt lat="44.48879" lon="6.23908">
        <ele>974</ele>
        <time>2018-06-23T18:02:13Z</time>
      </trkpt>
      <trkpt lat="44.48884" lon="6.23912">
        <ele>975</ele>
        <time>2018-06-23T18:02:18Z</time>
      </trkpt>
      <trkpt lat="44.48889" lon="6.23917">
        <ele>975</ele>
        <time>2018-06-23T18:02:23Z</time>
      </trkpt>
      <trkpt lat="44.48895" lon="6.23921">
        <ele>975</ele>
        <time>2018-06-23T18:02:28Z</time>
      </trkpt>
      <trkpt lat="44.48899" lon="6.23926">
        <ele>975</ele>
        <time>2018-06-23T18:02:33Z</time>
      </trkpt>
      <trkpt lat="44.48904" lon="6.23932">
        <ele>975</ele>
        <time>2018-06-23T18:02:38Z</time>
      </trkpt>
      <trkpt lat="44.48908" lon="6.23937">
        <ele>975</ele>
        <time>2018-06-23T18:02:43Z</time>
      </trkpt>
      <trkpt lat="44.48913" lon="6.23942">
        <ele>975</ele>
        <time>2018-06-23T18:02:48Z</time>
      </trkpt>
      <trkpt lat="44.48917" lon="6.23947">
        <ele>975</ele>
        <time>2018-06-23T18:02:53Z</time>
      </trkpt>
      <trkpt lat="44.48922" lon="6.2395">
        <ele>976</ele>
        <time>2018-06-23T18:02:58Z</time>
      </trkpt>
      <trkpt lat="44.48926" lon="6.23952">
        <ele>976</ele>
        <time>2018-06-23T18:03:03Z</time>
      </trkpt>
      <trkpt lat="44.48931" lon="6.23955">
        <ele>977</ele>
        <time>2018-06-23T18:03:08Z</time>
      </trkpt>
      <trkpt lat="44.48937" lon="6.23958">
        <ele>978</ele>
        <time>2018-06-23T18:03:13Z</time>
      </trkpt>
      <trkpt lat="44.48942" lon="6.23961">
        <ele>979</ele>
        <time>2018-06-23T18:03:18Z</time>
      </trkpt>
      <trkpt lat="44.48947" lon="6.23965">
        <ele>980</ele>
        <time>2018-06-23T18:03:23Z</time>
      </trkpt>
      <trkpt lat="44.48951" lon="6.23968">
        <ele>981</ele>
        <time>2018-06-23T18:03:28Z</time>
      </trkpt>
      <trkpt lat="44.48954" lon="6.2397">
        <ele>981</ele>
        <time>2018-06-23T18:03:33Z</time>
      </trkpt>
      <trkpt lat="44.48959" lon="6.23974">
        <ele>982</ele>
        <time>2018-06-23T18:03:38Z</time>
      </trkpt>
      <trkpt lat="44.48962" lon="6.23977">
        <ele>983</ele>
        <time>2018-06-23T18:03:43Z</time>
      </trkpt>
      <trkpt lat="44.48958" lon="6.2398">
        <ele>982</ele>
        <time>2018-06-23T18:03:48Z</time>
      </trkpt>
      <trkpt lat="44.48954" lon="6.2398">
        <ele>982</ele>
        <time>2018-06-23T18:03:53Z</time>
      </trkpt>
      <trkpt lat="44.4895" lon="6.2398">
        <ele>981</ele>
        <time>2018-06-23T18:03:58Z</time>
      </trkpt>
      <trkpt lat="44.4895" lon="6.23987">
        <ele>982</ele>
        <time>2018-06-23T18:04:03Z</time>
      </trkpt>
      <trkpt lat="44.48953" lon="6.23991">
        <ele>982</ele>
        <time>2018-06-23T18:04:08Z</time>
      </trkpt>
      <trkpt lat="44.48958" lon="6.23993">
        <ele>983</ele>
        <time>2018-06-23T18:04:13Z</time>
      </trkpt>
      <trkpt lat="44.48959" lon="6.23995">
        <ele>983</ele>
        <time>2018-06-23T18:04:18Z</time>
      </trkpt>
      <trkpt lat="44.48958" lon="6.23995">
        <ele>983</ele>
        <time>2018-06-23T18:04:23Z</time>
      </trkpt>
      <trkpt lat="44.48959" lon="6.23994">
        <ele>983</ele>
        <time>2018-06-23T18:04:28Z</time>
      </trkpt>
      <trkpt lat="44.48959" lon="6.23995">
        <ele>983</ele>
        <time>2018-06-23T18:04:33Z</time>
      </trkpt>
      <trkpt lat="44.48958" lon="6.23996">
        <ele>983</ele>
        <time>2018-06-23T18:04:38Z</time>
      </trkpt>
      <trkpt lat="44.48959" lon="6.23996">
        <ele>983</ele>
        <time>2018-06-23T18:04:43Z</time>
      </trkpt>
      <trkpt lat="44.48958" lon="6.23995">
        <ele>983</ele>
        <time>2018-06-23T18:04:48Z</time>
      </trkpt>
      <trkpt lat="44.48958" lon="6.23995">
        <ele>983</ele>
        <time>2018-06-23T18:04:53Z</time>
      </trkpt>
      <trkpt lat="44.48958" lon="6.23995">
        <ele>983</ele>
        <time>2018-06-23T18:04:58Z</time>
      </trkpt>
      <trkpt lat="44.48958" lon="6.23994">
        <ele>983</ele>
        <time>2018-06-23T18:05:03Z</time>
      </trkpt>
      <trkpt lat="44.48957" lon="6.23994">
        <ele>983</ele>
        <time>2018-06-23T18:05:08Z</time>
      </trkpt>
      <trkpt lat="44.48957" lon="6.23993">
        <ele>983</ele>
        <time>2018-06-23T18:05:13Z</time>
      </trkpt>
      <trkpt lat="44.48957" lon="6.23993">
        <ele>983</ele>
        <time>2018-06-23T18:05:18Z</time>
      </trkpt>
      <trkpt lat="44.48957" lon="6.23993">
        <ele>983</ele>
        <time>2018-06-23T18:05:23Z</time>
      </trkpt>
      <trkpt lat="44.4896" lon="6.23995">
        <ele>983</ele>
        <time>2018-06-23T18:05:28Z</time>
      </trkpt>
      <trkpt lat="44.48962" lon="6.23997">
        <ele>983</ele>
        <time>2018-06-23T18:05:33Z</time>
      </trkpt>
      <trkpt lat="44.48965" lon="6.23998">
        <ele>984</ele>
        <time>2018-06-23T18:05:38Z</time>
      </trkpt>
      <trkpt lat="44.48971" lon="6.24001">
        <ele>984</ele>
        <time>2018-06-23T18:05:43Z</time>
      </trkpt>
      <trkpt lat="44.48976" lon="6.24003">
        <ele>985</ele>
        <time>2018-06-23T18:05:48Z</time>
      </trkpt>
      <trkpt lat="44.48981" lon="6.24007">
        <ele>985</ele>
        <time>2018-06-23T18:05:53Z</time>
      </trkpt>
      <trkpt lat="44.48985" lon="6.24008">
        <ele>985</ele>
        <time>2018-06-23T18:05:58Z</time>
      </trkpt>
      <trkpt lat="44.48986" lon="6.24008">
        <ele>985</ele>
        <time>2018-06-23T18:06:03Z</time>
      </trkpt>
      <trkpt lat="44.48986" lon="6.2401">
        <ele>985</ele>
        <time>2018-06-23T18:06:08Z</time>
      </trkpt>
      <trkpt lat="44.48987" lon="6.2401">
        <ele>986</ele>
        <time>2018-06-23T18:06:13Z</time>
      </trkpt>
      <trkpt lat="44.48991" lon="6.24009">
        <ele>986</ele>
        <time>2018-06-23T18:06:18Z</time>
      </trkpt>
      <trkpt lat="44.48994" lon="6.24008">
        <ele>987</ele>
        <time>2018-06-23T18:06:23Z</time>
      </trkpt>
      <trkpt lat="44.48996" lon="6.24006">
        <ele>987</ele>
        <time>2018-06-23T18:06:28Z</time>
      </trkpt>
      <trkpt lat="44.48999" lon="6.24004">
        <ele>987</ele>
        <time>2018-06-23T18:06:33Z</time>
      </trkpt>
      <trkpt lat="44.49" lon="6.24004">
        <ele>987</ele>
        <time>2018-06-23T18:06:38Z</time>
      </trkpt>
      <trkpt lat="44.49004" lon="6.24003">
        <ele>988</ele>
        <time>2018-06-23T18:06:43Z</time>
      </trkpt>
      <trkpt lat="44.49002" lon="6.24003">
        <ele>988</ele>
        <time>2018-06-23T18:06:48Z</time>
      </trkpt>
      <trkpt lat="44.49002" lon="6.24005">
        <ele>988</ele>
        <time>2018-06-23T18:06:53Z</time>
      </trkpt>
      <trkpt lat="44.49002" lon="6.24006">
        <ele>988</ele>
        <time>2018-06-23T18:06:58Z</time>
      </trkpt>
      <trkpt lat="44.49002" lon="6.24005">
        <ele>988</ele>
        <time>2018-06-23T18:07:03Z</time>
      </trkpt>
      <trkpt lat="44.49002" lon="6.24005">
        <ele>988</ele>
        <time>2018-06-23T18:07:08Z</time>
      </trkpt>
      <trkpt lat="44.49003" lon="6.24008">
        <ele>988</ele>
        <time>2018-06-23T18:07:13Z</time>
      </trkpt>
      <trkpt lat="44.49003" lon="6.2401">
        <ele>988</ele>
        <time>2018-06-23T18:07:18Z</time>
      </trkpt>
      <trkpt lat="44.49003" lon="6.2401">
        <ele>988</ele>
        <time>2018-06-23T18:07:23Z</time>
      </trkpt>
      <trkpt lat="44.49003" lon="6.24005">
        <ele>988</ele>
        <time>2018-06-23T18:07:28Z</time>
      </trkpt>
      <trkpt lat="44.49004" lon="6.24005">
        <ele>988</ele>
        <time>2018-06-23T18:07:33Z</time>
      </trkpt>
      <trkpt lat="44.49005" lon="6.24005">
        <ele>988</ele>
        <time>2018-06-23T18:07:38Z</time>
      </trkpt>
      <trkpt lat="44.49004" lon="6.24004">
        <ele>988</ele>
        <time>2018-06-23T18:07:43Z</time>
      </trkpt>
      <trkpt lat="44.49005" lon="6.24002">
        <ele>988</ele>
        <time>2018-06-23T18:07:48Z</time>
      </trkpt>
      <trkpt lat="44.49005" lon="6.23997">
        <ele>988</ele>
        <time>2018-06-23T18:07:53Z</time>
      </trkpt>
      <trkpt lat="44.49007" lon="6.2399">
        <ele>989</ele>
        <time>2018-06-23T18:07:58Z</time>
      </trkpt>
      <trkpt lat="44.49005" lon="6.23981">
        <ele>989</ele>
        <time>2018-06-23T18:08:03Z</time>
      </trkpt>
      <trkpt lat="44.49003" lon="6.23972">
        <ele>989</ele>
        <time>2018-06-23T18:08:08Z</time>
      </trkpt>
      <trkpt lat="44.49" lon="6.23964">
        <ele>989</ele>
        <time>2018-06-23T18:08:13Z</time>
      </trkpt>
      <trkpt lat="44.48998" lon="6.23958">
        <ele>989</ele>
        <time>2018-06-23T18:08:18Z</time>
      </trkpt>
      <trkpt lat="44.48995" lon="6.23951">
        <ele>988</ele>
        <time>2018-06-23T18:08:23Z</time>
      </trkpt>
      <trkpt lat="44.48992" lon="6.23944">
        <ele>988</ele>
        <time>2018-06-23T18:08:28Z</time>
      </trkpt>
      <trkpt lat="44.48992" lon="6.23936">
        <ele>989</ele>
        <time>2018-06-23T18:08:33Z</time>
      </trkpt>
      <trkpt lat="44.48995" lon="6.2393">
        <ele>990</ele>
        <time>2018-06-23T18:08:38Z</time>
      </trkpt>
      <trkpt lat="44.48998" lon="6.23928">
        <ele>991</ele>
        <time>2018-06-23T18:08:43Z</time>
      </trkpt>
      <trkpt lat="44.49001" lon="6.23928">
        <ele>992</ele>
        <time>2018-06-23T18:08:48Z</time>
      </trkpt>
      <trkpt lat="44.49004" lon="6.2393">
        <ele>992</ele>
        <time>2018-06-23T18:08:53Z</time>
      </trkpt>
      <trkpt lat="44.49006" lon="6.23937">
        <ele>992</ele>
        <time>2018-06-23T18:08:58Z</time>
      </trkpt>
      <trkpt lat="44.4901" lon="6.23941">
        <ele>993</ele>
        <time>2018-06-23T18:09:03Z</time>
      </trkpt>
      <trkpt lat="44.49017" lon="6.23944">
        <ele>994</ele>
        <time>2018-06-23T18:09:08Z</time>
      </trkpt>
      <trkpt lat="44.49021" lon="6.23948">
        <ele>995</ele>
        <time>2018-06-23T18:09:13Z</time>
      </trkpt>
      <trkpt lat="44.49025" lon="6.23951">
        <ele>995</ele>
        <time>2018-06-23T18:09:18Z</time>
      </trkpt>
      <trkpt lat="44.49028" lon="6.23955">
        <ele>996</ele>
        <time>2018-06-23T18:09:23Z</time>
      </trkpt>
      <trkpt lat="44.49031" lon="6.23958">
        <ele>996</ele>
        <time>2018-06-23T18:09:28Z</time>
      </trkpt>
      <trkpt lat="44.49036" lon="6.23962">
        <ele>997</ele>
        <time>2018-06-23T18:09:33Z</time>
      </trkpt>
      <trkpt lat="44.4904" lon="6.23964">
        <ele>997</ele>
        <time>2018-06-23T18:09:38Z</time>
      </trkpt>
      <trkpt lat="44.49045" lon="6.23966">
        <ele>998</ele>
        <time>2018-06-23T18:09:43Z</time>
      </trkpt>
      <trkpt lat="44.49051" lon="6.23967">
        <ele>999</ele>
        <time>2018-06-23T18:09:48Z</time>
      </trkpt>
      <trkpt lat="44.49055" lon="6.2397">
        <ele>1000</ele>
        <time>2018-06-23T18:09:53Z</time>
      </trkpt>
      <trkpt lat="44.4906" lon="6.23973">
        <ele>1002</ele>
        <time>2018-06-23T18:09:58Z</time>
      </trkpt>
      <trkpt lat="44.49064" lon="6.23977">
        <ele>1002</ele>
        <time>2018-06-23T18:10:03Z</time>
      </trkpt>
      <trkpt lat="44.49069" lon="6.23979">
        <ele>1003</ele>
        <time>2018-06-23T18:10:08Z</time>
      </trkpt>
      <trkpt lat="44.49076" lon="6.23979">
        <ele>1006</ele>
        <time>2018-06-23T18:10:13Z</time>
      </trkpt>
      <trkpt lat="44.49082" lon="6.23978">
        <ele>1008</ele>
        <time>2018-06-23T18:10:18Z</time>
      </trkpt>
      <trkpt lat="44.49087" lon="6.23976">
        <ele>1010</ele>
        <time>2018-06-23T18:10:23Z</time>
      </trkpt>
      <trkpt lat="44.4909" lon="6.23973">
        <ele>1011</ele>
        <time>2018-06-23T18:10:28Z</time>
      </trkpt>
      <trkpt lat="44.49094" lon="6.23972">
        <ele>1013</ele>
        <time>2018-06-23T18:10:33Z</time>
      </trkpt>
      <trkpt lat="44.49097" lon="6.2397">
        <ele>1014</ele>
        <time>2018-06-23T18:10:38Z</time>
      </trkpt>
      <trkpt lat="44.49101" lon="6.2397">
        <ele>1015</ele>
        <time>2018-06-23T18:10:43Z</time>
      </trkpt>
      <trkpt lat="44.49105" lon="6.23973">
        <ele>1016</ele>
        <time>2018-06-23T18:10:48Z</time>
      </trkpt>
      <trkpt lat="44.49109" lon="6.23977">
        <ele>1016</ele>
        <time>2018-06-23T18:10:53Z</time>
      </trkpt>
      <trkpt lat="44.49112" lon="6.2398">
        <ele>1017</ele>
        <time>2018-06-23T18:10:58Z</time>
      </trkpt>
      <trkpt lat="44.49116" lon="6.23985">
        <ele>1017</ele>
        <time>2018-06-23T18:11:03Z</time>
      </trkpt>
      <trkpt lat="44.4912" lon="6.23989">
        <ele>1017</ele>
        <time>2018-06-23T18:11:08Z</time>
      </trkpt>
      <trkpt lat="44.49125" lon="6.23991">
        <ele>1018</ele>
        <time>2018-06-23T18:11:13Z</time>
      </trkpt>
      <trkpt lat="44.4913" lon="6.23995">
        <ele>1019</ele>
        <time>2018-06-23T18:11:18Z</time>
      </trkpt>
      <trkpt lat="44.49134" lon="6.23999">
        <ele>1020</ele>
        <time>2018-06-23T18:11:23Z</time>
      </trkpt>
      <trkpt lat="44.49137" lon="6.24001">
        <ele>1020</ele>
        <time>2018-06-23T18:11:28Z</time>
      </trkpt>
      <trkpt lat="44.49141" lon="6.24004">
        <ele>1021</ele>
        <time>2018-06-23T18:11:33Z</time>
      </trkpt>
      <trkpt lat="44.49145" lon="6.24007">
        <ele>1022</ele>
        <time>2018-06-23T18:11:38Z</time>
      </trkpt>
      <trkpt lat="44.49149" lon="6.24009">
        <ele>1023</ele>
        <time>2018-06-23T18:11:43Z</time>
      </trkpt>
      <trkpt lat="44.49152" lon="6.24014">
        <ele>1022</ele>
        <time>2018-06-23T18:11:48Z</time>
      </trkpt>
      <trkpt lat="44.49155" lon="6.24015">
        <ele>1023</ele>
        <time>2018-06-23T18:11:53Z</time>
      </trkpt>
      <trkpt lat="44.49157" lon="6.24017">
        <ele>1023</ele>
        <time>2018-06-23T18:11:58Z</time>
      </trkpt>
      <trkpt lat="44.49158" lon="6.24019">
        <ele>1023</ele>
        <time>2018-06-23T18:12:03Z</time>
      </trkpt>
      <trkpt lat="44.49161" lon="6.24026">
        <ele>1022</ele>
        <time>2018-06-23T18:12:08Z</time>
      </trkpt>
      <trkpt lat="44.49165" lon="6.24031">
        <ele>1023</ele>
        <time>2018-06-23T18:12:13Z</time>
      </trkpt>
      <trkpt lat="44.4917" lon="6.24034">
        <ele>1024</ele>
        <time>2018-06-23T18:12:18Z</time>
      </trkpt>
      <trkpt lat="44.49175" lon="6.24036">
        <ele>1025</ele>
        <time>2018-06-23T18:12:23Z</time>
      </trkpt>
      <trkpt lat="44.4918" lon="6.24038">
        <ele>1025</ele>
        <time>2018-06-23T18:12:28Z</time>
      </trkpt>
      <trkpt lat="44.49184" lon="6.2404">
        <ele>1026</ele>
        <time>2018-06-23T18:12:33Z</time>
      </trkpt>
      <trkpt lat="44.49188" lon="6.24041">
        <ele>1027</ele>
        <time>2018-06-23T18:12:38Z</time>
      </trkpt>
      <trkpt lat="44.49191" lon="6.24043">
        <ele>1028</ele>
        <time>2018-06-23T18:12:43Z</time>
      </trkpt>
      <trkpt lat="44.49195" lon="6.24045">
        <ele>1028</ele>
        <time>2018-06-23T18:12:48Z</time>
      </trkpt>
      <trkpt lat="44.49199" lon="6.2405">
        <ele>1028</ele>
        <time>2018-06-23T18:12:53Z</time>
      </trkpt>
      <trkpt lat="44.49203" lon="6.24055">
        <ele>1028</ele>
        <time>2018-06-23T18:12:58Z</time>
      </trkpt>
      <trkpt lat="44.49207" lon="6.24061">
        <ele>1028</ele>
        <time>2018-06-23T18:13:03Z</time>
      </trkpt>
      <trkpt lat="44.49213" lon="6.24066">
        <ele>1028</ele>
        <time>2018-06-23T18:13:08Z</time>
      </trkpt>
      <trkpt lat="44.49216" lon="6.24071">
        <ele>1028</ele>
        <time>2018-06-23T18:13:13Z</time>
      </trkpt>
      <trkpt lat="44.49219" lon="6.24077">
        <ele>1027</ele>
        <time>2018-06-23T18:13:18Z</time>
      </trkpt>
      <trkpt lat="44.49222" lon="6.24082">
        <ele>1026</ele>
        <time>2018-06-23T18:13:23Z</time>
      </trkpt>
      <trkpt lat="44.49224" lon="6.24087">
        <ele>1026</ele>
        <time>2018-06-23T18:13:28Z</time>
      </trkpt>
      <trkpt lat="44.49229" lon="6.24092">
        <ele>1025</ele>
        <time>2018-06-23T18:13:33Z</time>
      </trkpt>
      <trkpt lat="44.49235" lon="6.24093">
        <ele>1027</ele>
        <time>2018-06-23T18:13:38Z</time>
      </trkpt>
      <trkpt lat="44.49239" lon="6.24093">
        <ele>1028</ele>
        <time>2018-06-23T18:13:43Z</time>
      </trkpt>
      <trkpt lat="44.49244" lon="6.24094">
        <ele>1029</ele>
        <time>2018-06-23T18:13:48Z</time>
      </trkpt>
      <trkpt lat="44.49249" lon="6.24095">
        <ele>1030</ele>
        <time>2018-06-23T18:13:53Z</time>
      </trkpt>
      <trkpt lat="44.49252" lon="6.24098">
        <ele>1031</ele>
        <time>2018-06-23T18:13:58Z</time>
      </trkpt>
      <trkpt lat="44.49254" lon="6.24101">
        <ele>1031</ele>
        <time>2018-06-23T18:14:03Z</time>
      </trkpt>
      <trkpt lat="44.49258" lon="6.24107">
        <ele>1031</ele>
        <time>2018-06-23T18:14:08Z</time>
      </trkpt>
      <trkpt lat="44.49262" lon="6.24112">
        <ele>1031</ele>
        <time>2018-06-23T18:14:13Z</time>
      </trkpt>
      <trkpt lat="44.49265" lon="6.24116">
        <ele>1031</ele>
        <time>2018-06-23T18:14:18Z</time>
      </trkpt>
      <trkpt lat="44.49269" lon="6.24119">
        <ele>1032</ele>
        <time>2018-06-23T18:14:23Z</time>
      </trkpt>
      <trkpt lat="44.49274" lon="6.24121">
        <ele>1033</ele>
        <time>2018-06-23T18:14:28Z</time>
      </trkpt>
      <trkpt lat="44.4928" lon="6.24122">
        <ele>1034</ele>
        <time>2018-06-23T18:14:33Z</time>
      </trkpt>
      <trkpt lat="44.49284" lon="6.24124">
        <ele>1035</ele>
        <time>2018-06-23T18:14:38Z</time>
      </trkpt>
      <trkpt lat="44.49287" lon="6.24125">
        <ele>1036</ele>
        <time>2018-06-23T18:14:43Z</time>
      </trkpt>
      <trkpt lat="44.49291" lon="6.24126">
        <ele>1036</ele>
        <time>2018-06-23T18:14:48Z</time>
      </trkpt>
      <trkpt lat="44.49293" lon="6.2413">
        <ele>1035</ele>
        <time>2018-06-23T18:14:53Z</time>
      </trkpt>
      <trkpt lat="44.49296" lon="6.24135">
        <ele>1035</ele>
        <time>2018-06-23T18:14:58Z</time>
      </trkpt>
      <trkpt lat="44.493" lon="6.24141">
        <ele>1035</ele>
        <time>2018-06-23T18:15:03Z</time>
      </trkpt>
      <trkpt lat="44.49305" lon="6.24147">
        <ele>1034</ele>
        <time>2018-06-23T18:15:08Z</time>
      </trkpt>
      <trkpt lat="44.4931" lon="6.24154">
        <ele>1034</ele>
        <time>2018-06-23T18:15:13Z</time>
      </trkpt>
      <trkpt lat="44.49315" lon="6.24159">
        <ele>1033</ele>
        <time>2018-06-23T18:15:18Z</time>
      </trkpt>
      <trkpt lat="44.49321" lon="6.24164">
        <ele>1034</ele>
        <time>2018-06-23T18:15:23Z</time>
      </trkpt>
      <trkpt lat="44.49327" lon="6.24167">
        <ele>1035</ele>
        <time>2018-06-23T18:15:28Z</time>
      </trkpt>
      <trkpt lat="44.49331" lon="6.2417">
        <ele>1035</ele>
        <time>2018-06-23T18:15:33Z</time>
      </trkpt>
      <trkpt lat="44.49336" lon="6.24174">
        <ele>1035</ele>
        <time>2018-06-23T18:15:38Z</time>
      </trkpt>
      <trkpt lat="44.49341" lon="6.24178">
        <ele>1035</ele>
        <time>2018-06-23T18:15:43Z</time>
      </trkpt>
      <trkpt lat="44.49347" lon="6.24181">
        <ele>1036</ele>
        <time>2018-06-23T18:15:48Z</time>
      </trkpt>
      <trkpt lat="44.49352" lon="6.24181">
        <ele>1037</ele>
        <time>2018-06-23T18:15:53Z</time>
      </trkpt>
      <trkpt lat="44.49357" lon="6.2418">
        <ele>1038</ele>
        <time>2018-06-23T18:15:58Z</time>
      </trkpt>
      <trkpt lat="44.49362" lon="6.24179">
        <ele>1038</ele>
        <time>2018-06-23T18:16:03Z</time>
      </trkpt>
      <trkpt lat="44.49367" lon="6.24181">
        <ele>1039</ele>
        <time>2018-06-23T18:16:08Z</time>
      </trkpt>
      <trkpt lat="44.49373" lon="6.24183">
        <ele>1040</ele>
        <time>2018-06-23T18:16:13Z</time>
      </trkpt>
      <trkpt lat="44.49378" lon="6.24184">
        <ele>1040</ele>
        <time>2018-06-23T18:16:18Z</time>
      </trkpt>
      <trkpt lat="44.49383" lon="6.24183">
        <ele>1041</ele>
        <time>2018-06-23T18:16:23Z</time>
      </trkpt>
      <trkpt lat="44.49388" lon="6.24184">
        <ele>1042</ele>
        <time>2018-06-23T18:16:28Z</time>
      </trkpt>
      <trkpt lat="44.49394" lon="6.24186">
        <ele>1042</ele>
        <time>2018-06-23T18:16:33Z</time>
      </trkpt>
      <trkpt lat="44.49399" lon="6.24186">
        <ele>1042</ele>
        <time>2018-06-23T18:16:38Z</time>
      </trkpt>
      <trkpt lat="44.49402" lon="6.24187">
        <ele>1042</ele>
        <time>2018-06-23T18:16:43Z</time>
      </trkpt>
      <trkpt lat="44.49405" lon="6.24188">
        <ele>1042</ele>
        <time>2018-06-23T18:16:48Z</time>
      </trkpt>
      <trkpt lat="44.49412" lon="6.24186">
        <ele>1043</ele>
        <time>2018-06-23T18:16:53Z</time>
      </trkpt>
      <trkpt lat="44.49418" lon="6.24186">
        <ele>1043</ele>
        <time>2018-06-23T18:16:58Z</time>
      </trkpt>
      <trkpt lat="44.49423" lon="6.24182">
        <ele>1043</ele>
        <time>2018-06-23T18:17:03Z</time>
      </trkpt>
      <trkpt lat="44.49426" lon="6.2418">
        <ele>1044</ele>
        <time>2018-06-23T18:17:08Z</time>
      </trkpt>
      <trkpt lat="44.49429" lon="6.24177">
        <ele>1044</ele>
        <time>2018-06-23T18:17:13Z</time>
      </trkpt>
      <trkpt lat="44.4943" lon="6.24171">
        <ele>1045</ele>
        <time>2018-06-23T18:17:18Z</time>
      </trkpt>
      <trkpt lat="44.49434" lon="6.24167">
        <ele>1045</ele>
        <time>2018-06-23T18:17:23Z</time>
      </trkpt>
      <trkpt lat="44.49439" lon="6.24166">
        <ele>1045</ele>
        <time>2018-06-23T18:17:28Z</time>
      </trkpt>
      <trkpt lat="44.49443" lon="6.24163">
        <ele>1046</ele>
        <time>2018-06-23T18:17:33Z</time>
      </trkpt>
      <trkpt lat="44.49447" lon="6.24161">
        <ele>1046</ele>
        <time>2018-06-23T18:17:38Z</time>
      </trkpt>
      <trkpt lat="44.4945" lon="6.24158">
        <ele>1047</ele>
        <time>2018-06-23T18:17:43Z</time>
      </trkpt>
      <trkpt lat="44.49453" lon="6.24153">
        <ele>1048</ele>
        <time>2018-06-23T18:17:48Z</time>
      </trkpt>
      <trkpt lat="44.49457" lon="6.24148">
        <ele>1049</ele>
        <time>2018-06-23T18:17:53Z</time>
      </trkpt>
      <trkpt lat="44.49461" lon="6.24143">
        <ele>1050</ele>
        <time>2018-06-23T18:17:58Z</time>
      </trkpt>
      <trkpt lat="44.49465" lon="6.24137">
        <ele>1052</ele>
        <time>2018-06-23T18:18:03Z</time>
      </trkpt>
      <trkpt lat="44.49468" lon="6.24132">
        <ele>1053</ele>
        <time>2018-06-23T18:18:08Z</time>
      </trkpt>
      <trkpt lat="44.49473" lon="6.24129">
        <ele>1054</ele>
        <time>2018-06-23T18:18:13Z</time>
      </trkpt>
      <trkpt lat="44.49477" lon="6.24125">
        <ele>1055</ele>
        <time>2018-06-23T18:18:18Z</time>
      </trkpt>
      <trkpt lat="44.49481" lon="6.2412">
        <ele>1055</ele>
        <time>2018-06-23T18:18:23Z</time>
      </trkpt>
      <trkpt lat="44.49485" lon="6.24114">
        <ele>1057</ele>
        <time>2018-06-23T18:18:28Z</time>
      </trkpt>
      <trkpt lat="44.49489" lon="6.24108">
        <ele>1058</ele>
        <time>2018-06-23T18:18:33Z</time>
      </trkpt>
      <trkpt lat="44.49493" lon="6.24104">
        <ele>1058</ele>
        <time>2018-06-23T18:18:38Z</time>
      </trkpt>
      <trkpt lat="44.49498" lon="6.24102">
        <ele>1058</ele>
        <time>2018-06-23T18:18:43Z</time>
      </trkpt>
      <trkpt lat="44.49503" lon="6.24099">
        <ele>1058</ele>
        <time>2018-06-23T18:18:48Z</time>
      </trkpt>
      <trkpt lat="44.49508" lon="6.24095">
        <ele>1059</ele>
        <time>2018-06-23T18:18:53Z</time>
      </trkpt>
      <trkpt lat="44.49515" lon="6.24092">
        <ele>1058</ele>
        <time>2018-06-23T18:18:58Z</time>
      </trkpt>
      <trkpt lat="44.49521" lon="6.24088">
        <ele>1059</ele>
        <time>2018-06-23T18:19:03Z</time>
      </trkpt>
      <trkpt lat="44.49527" lon="6.24087">
        <ele>1059</ele>
        <time>2018-06-23T18:19:08Z</time>
      </trkpt>
      <trkpt lat="44.49531" lon="6.24083">
        <ele>1059</ele>
        <time>2018-06-23T18:19:13Z</time>
      </trkpt>
      <trkpt lat="44.49536" lon="6.24081">
        <ele>1059</ele>
        <time>2018-06-23T18:19:18Z</time>
      </trkpt>
      <trkpt lat="44.49541" lon="6.2408">
        <ele>1060</ele>
        <time>2018-06-23T18:19:23Z</time>
      </trkpt>
      <trkpt lat="44.49546" lon="6.2408">
        <ele>1059</ele>
        <time>2018-06-23T18:19:28Z</time>
      </trkpt>
      <trkpt lat="44.49553" lon="6.24081">
        <ele>1059</ele>
        <time>2018-06-23T18:19:33Z</time>
      </trkpt>
      <trkpt lat="44.4956" lon="6.24082">
        <ele>1059</ele>
        <time>2018-06-23T18:19:38Z</time>
      </trkpt>
      <trkpt lat="44.49565" lon="6.24079">
        <ele>1060</ele>
        <time>2018-06-23T18:19:43Z</time>
      </trkpt>
      <trkpt lat="44.49571" lon="6.24078">
        <ele>1060</ele>
        <time>2018-06-23T18:19:48Z</time>
      </trkpt>
      <trkpt lat="44.49576" lon="6.24075">
        <ele>1061</ele>
        <time>2018-06-23T18:19:53Z</time>
      </trkpt>
      <trkpt lat="44.49583" lon="6.24073">
        <ele>1061</ele>
        <time>2018-06-23T18:19:58Z</time>
      </trkpt>
      <trkpt lat="44.49589" lon="6.24071">
        <ele>1061</ele>
        <time>2018-06-23T18:20:03Z</time>
      </trkpt>
      <trkpt lat="44.49594" lon="6.24067">
        <ele>1062</ele>
        <time>2018-06-23T18:20:08Z</time>
      </trkpt>
      <trkpt lat="44.49599" lon="6.24062">
        <ele>1062</ele>
        <time>2018-06-23T18:20:13Z</time>
      </trkpt>
      <trkpt lat="44.49604" lon="6.24057">
        <ele>1063</ele>
        <time>2018-06-23T18:20:18Z</time>
      </trkpt>
      <trkpt lat="44.49607" lon="6.24051">
        <ele>1064</ele>
        <time>2018-06-23T18:20:23Z</time>
      </trkpt>
      <trkpt lat="44.4961" lon="6.24047">
        <ele>1065</ele>
        <time>2018-06-23T18:20:28Z</time>
      </trkpt>
      <trkpt lat="44.49614" lon="6.24047">
        <ele>1066</ele>
        <time>2018-06-23T18:20:33Z</time>
      </trkpt>
      <trkpt lat="44.49619" lon="6.2405">
        <ele>1065</ele>
        <time>2018-06-23T18:20:38Z</time>
      </trkpt>
      <trkpt lat="44.49623" lon="6.24055">
        <ele>1065</ele>
        <time>2018-06-23T18:20:43Z</time>
      </trkpt>
      <trkpt lat="44.49624" lon="6.24057">
        <ele>1065</ele>
        <time>2018-06-23T18:20:48Z</time>
      </trkpt>
      <trkpt lat="44.49623" lon="6.24055">
        <ele>1065</ele>
        <time>2018-06-23T18:20:53Z</time>
      </trkpt>
      <trkpt lat="44.4962" lon="6.24047">
        <ele>1066</ele>
        <time>2018-06-23T18:20:58Z</time>
      </trkpt>
      <trkpt lat="44.49621" lon="6.24051">
        <ele>1065</ele>
        <time>2018-06-23T18:21:03Z</time>
      </trkpt>
      <trkpt lat="44.49624" lon="6.24057">
        <ele>1065</ele>
        <time>2018-06-23T18:21:08Z</time>
      </trkpt>
      <trkpt lat="44.49627" lon="6.24061">
        <ele>1064</ele>
        <time>2018-06-23T18:21:13Z</time>
      </trkpt>
      <trkpt lat="44.49633" lon="6.24064">
        <ele>1064</ele>
        <time>2018-06-23T18:21:18Z</time>
      </trkpt>
      <trkpt lat="44.49638" lon="6.24068">
        <ele>1064</ele>
        <time>2018-06-23T18:21:23Z</time>
      </trkpt>
      <trkpt lat="44.49646" lon="6.24069">
        <ele>1064</ele>
        <time>2018-06-23T18:21:28Z</time>
      </trkpt>
      <trkpt lat="44.49652" lon="6.24071">
        <ele>1064</ele>
        <time>2018-06-23T18:21:33Z</time>
      </trkpt>
      <trkpt lat="44.49657" lon="6.24071">
        <ele>1065</ele>
        <time>2018-06-23T18:21:38Z</time>
      </trkpt>
      <trkpt lat="44.49662" lon="6.24069">
        <ele>1065</ele>
        <time>2018-06-23T18:21:43Z</time>
      </trkpt>
      <trkpt lat="44.49666" lon="6.24067">
        <ele>1066</ele>
        <time>2018-06-23T18:21:48Z</time>
      </trkpt>
      <trkpt lat="44.49671" lon="6.24067">
        <ele>1066</ele>
        <time>2018-06-23T18:21:53Z</time>
      </trkpt>
      <trkpt lat="44.49675" lon="6.24069">
        <ele>1067</ele>
        <time>2018-06-23T18:21:58Z</time>
      </trkpt>
      <trkpt lat="44.49678" lon="6.24073">
        <ele>1066</ele>
        <time>2018-06-23T18:22:03Z</time>
      </trkpt>
      <trkpt lat="44.4968" lon="6.24077">
        <ele>1066</ele>
        <time>2018-06-23T18:22:08Z</time>
      </trkpt>
      <trkpt lat="44.49684" lon="6.24083">
        <ele>1065</ele>
        <time>2018-06-23T18:22:13Z</time>
      </trkpt>
      <trkpt lat="44.4969" lon="6.24086">
        <ele>1066</ele>
        <time>2018-06-23T18:22:18Z</time>
      </trkpt>
      <trkpt lat="44.49695" lon="6.24088">
        <ele>1066</ele>
        <time>2018-06-23T18:22:23Z</time>
      </trkpt>
      <trkpt lat="44.497" lon="6.24091">
        <ele>1066</ele>
        <time>2018-06-23T18:22:28Z</time>
      </trkpt>
      <trkpt lat="44.49705" lon="6.24094">
        <ele>1067</ele>
        <time>2018-06-23T18:22:33Z</time>
      </trkpt>
      <trkpt lat="44.4971" lon="6.24098">
        <ele>1068</ele>
        <time>2018-06-23T18:22:38Z</time>
      </trkpt>
      <trkpt lat="44.49713" lon="6.24099">
        <ele>1068</ele>
        <time>2018-06-23T18:22:43Z</time>
      </trkpt>
      <trkpt lat="44.49716" lon="6.24101">
        <ele>1069</ele>
        <time>2018-06-23T18:22:48Z</time>
      </trkpt>
      <trkpt lat="44.49717" lon="6.24102">
        <ele>1069</ele>
        <time>2018-06-23T18:22:53Z</time>
      </trkpt>
      <trkpt lat="44.4972" lon="6.24105">
        <ele>1070</ele>
        <time>2018-06-23T18:22:58Z</time>
      </trkpt>
      <trkpt lat="44.49721" lon="6.24107">
        <ele>1070</ele>
        <time>2018-06-23T18:23:03Z</time>
      </trkpt>
      <trkpt lat="44.49723" lon="6.24109">
        <ele>1070</ele>
        <time>2018-06-23T18:23:08Z</time>
      </trkpt>
      <trkpt lat="44.49726" lon="6.24111">
        <ele>1071</ele>
        <time>2018-06-23T18:23:13Z</time>
      </trkpt>
      <trkpt lat="44.49731" lon="6.24112">
        <ele>1071</ele>
        <time>2018-06-23T18:23:18Z</time>
      </trkpt>
      <trkpt lat="44.49734" lon="6.24114">
        <ele>1072</ele>
        <time>2018-06-23T18:23:23Z</time>
      </trkpt>
      <trkpt lat="44.49737" lon="6.24115">
        <ele>1072</ele>
        <time>2018-06-23T18:23:28Z</time>
      </trkpt>
      <trkpt lat="44.49739" lon="6.24116">
        <ele>1073</ele>
        <time>2018-06-23T18:23:33Z</time>
      </trkpt>
      <trkpt lat="44.49742" lon="6.24117">
        <ele>1073</ele>
        <time>2018-06-23T18:23:38Z</time>
      </trkpt>
      <trkpt lat="44.49745" lon="6.24121">
        <ele>1073</ele>
        <time>2018-06-23T18:23:43Z</time>
      </trkpt>
      <trkpt lat="44.49749" lon="6.24126">
        <ele>1074</ele>
        <time>2018-06-23T18:23:48Z</time>
      </trkpt>
      <trkpt lat="44.49752" lon="6.24128">
        <ele>1075</ele>
        <time>2018-06-23T18:23:53Z</time>
      </trkpt>
      <trkpt lat="44.49756" lon="6.2413">
        <ele>1075</ele>
        <time>2018-06-23T18:23:58Z</time>
      </trkpt>
      <trkpt lat="44.49761" lon="6.24131">
        <ele>1076</ele>
        <time>2018-06-23T18:24:03Z</time>
      </trkpt>
      <trkpt lat="44.49766" lon="6.24132">
        <ele>1076</ele>
        <time>2018-06-23T18:24:08Z</time>
      </trkpt>
      <trkpt lat="44.49771" lon="6.24136">
        <ele>1077</ele>
        <time>2018-06-23T18:24:13Z</time>
      </trkpt>
      <trkpt lat="44.49777" lon="6.24142">
        <ele>1077</ele>
        <time>2018-06-23T18:24:18Z</time>
      </trkpt>
      <trkpt lat="44.4978" lon="6.24146">
        <ele>1077</ele>
        <time>2018-06-23T18:24:23Z</time>
      </trkpt>
      <trkpt lat="44.49783" lon="6.24151">
        <ele>1078</ele>
        <time>2018-06-23T18:24:28Z</time>
      </trkpt>
      <trkpt lat="44.49787" lon="6.24157">
        <ele>1078</ele>
        <time>2018-06-23T18:24:33Z</time>
      </trkpt>
      <trkpt lat="44.4979" lon="6.2416">
        <ele>1078</ele>
        <time>2018-06-23T18:24:38Z</time>
      </trkpt>
      <trkpt lat="44.49793" lon="6.24165">
        <ele>1079</ele>
        <time>2018-06-23T18:24:43Z</time>
      </trkpt>
      <trkpt lat="44.49795" lon="6.24172">
        <ele>1080</ele>
        <time>2018-06-23T18:24:48Z</time>
      </trkpt>
      <trkpt lat="44.49799" lon="6.24176">
        <ele>1081</ele>
        <time>2018-06-23T18:24:53Z</time>
      </trkpt>
      <trkpt lat="44.49801" lon="6.24181">
        <ele>1082</ele>
        <time>2018-06-23T18:24:58Z</time>
      </trkpt>
      <trkpt lat="44.49803" lon="6.24189">
        <ele>1083</ele>
        <time>2018-06-23T18:25:03Z</time>
      </trkpt>
      <trkpt lat="44.49805" lon="6.24196">
        <ele>1084</ele>
        <time>2018-06-23T18:25:08Z</time>
      </trkpt>
      <trkpt lat="44.49807" lon="6.24202">
        <ele>1085</ele>
        <time>2018-06-23T18:25:13Z</time>
      </trkpt>
      <trkpt lat="44.49809" lon="6.24207">
        <ele>1086</ele>
        <time>2018-06-23T18:25:18Z</time>
      </trkpt>
      <trkpt lat="44.49811" lon="6.24211">
        <ele>1087</ele>
        <time>2018-06-23T18:25:23Z</time>
      </trkpt>
      <trkpt lat="44.49815" lon="6.24214">
        <ele>1088</ele>
        <time>2018-06-23T18:25:28Z</time>
      </trkpt>
      <trkpt lat="44.4982" lon="6.24217">
        <ele>1089</ele>
        <time>2018-06-23T18:25:33Z</time>
      </trkpt>
      <trkpt lat="44.49825" lon="6.2422">
        <ele>1090</ele>
        <time>2018-06-23T18:25:38Z</time>
      </trkpt>
      <trkpt lat="44.4983" lon="6.24221">
        <ele>1091</ele>
        <time>2018-06-23T18:25:43Z</time>
      </trkpt>
      <trkpt lat="44.49834" lon="6.24225">
        <ele>1092</ele>
        <time>2018-06-23T18:25:48Z</time>
      </trkpt>
      <trkpt lat="44.49838" lon="6.24232">
        <ele>1094</ele>
        <time>2018-06-23T18:25:53Z</time>
      </trkpt>
      <trkpt lat="44.49842" lon="6.24237">
        <ele>1095</ele>
        <time>2018-06-23T18:25:58Z</time>
      </trkpt>
      <trkpt lat="44.49846" lon="6.24243">
        <ele>1097</ele>
        <time>2018-06-23T18:26:03Z</time>
      </trkpt>
      <trkpt lat="44.49849" lon="6.2425">
        <ele>1098</ele>
        <time>2018-06-23T18:26:08Z</time>
      </trkpt>
      <trkpt lat="44.49856" lon="6.24254">
        <ele>1099</ele>
        <time>2018-06-23T18:26:13Z</time>
      </trkpt>
      <trkpt lat="44.49863" lon="6.24257">
        <ele>1100</ele>
        <time>2018-06-23T18:26:18Z</time>
      </trkpt>
      <trkpt lat="44.49869" lon="6.24261">
        <ele>1101</ele>
        <time>2018-06-23T18:26:23Z</time>
      </trkpt>
      <trkpt lat="44.49874" lon="6.24266">
        <ele>1102</ele>
        <time>2018-06-23T18:26:28Z</time>
      </trkpt>
      <trkpt lat="44.49878" lon="6.24271">
        <ele>1103</ele>
        <time>2018-06-23T18:26:33Z</time>
      </trkpt>
      <trkpt lat="44.49883" lon="6.24277">
        <ele>1105</ele>
        <time>2018-06-23T18:26:38Z</time>
      </trkpt>
      <trkpt lat="44.49887" lon="6.24284">
        <ele>1106</ele>
        <time>2018-06-23T18:26:43Z</time>
      </trkpt>
      <trkpt lat="44.4989" lon="6.24289">
        <ele>1107</ele>
        <time>2018-06-23T18:26:48Z</time>
      </trkpt>
      <trkpt lat="44.49894" lon="6.24292">
        <ele>1107</ele>
        <time>2018-06-23T18:26:53Z</time>
      </trkpt>
      <trkpt lat="44.49898" lon="6.24298">
        <ele>1108</ele>
        <time>2018-06-23T18:26:58Z</time>
      </trkpt>
      <trkpt lat="44.49902" lon="6.24301">
        <ele>1109</ele>
        <time>2018-06-23T18:27:03Z</time>
      </trkpt>
      <trkpt lat="44.49905" lon="6.24306">
        <ele>1110</ele>
        <time>2018-06-23T18:27:08Z</time>
      </trkpt>
      <trkpt lat="44.49909" lon="6.24309">
        <ele>1110</ele>
        <time>2018-06-23T18:27:13Z</time>
      </trkpt>
      <trkpt lat="44.49914" lon="6.24311">
        <ele>1111</ele>
        <time>2018-06-23T18:27:18Z</time>
      </trkpt>
      <trkpt lat="44.49917" lon="6.24314">
        <ele>1112</ele>
        <time>2018-06-23T18:27:23Z</time>
      </trkpt>
      <trkpt lat="44.4992" lon="6.24314">
        <ele>1112</ele>
        <time>2018-06-23T18:27:28Z</time>
      </trkpt>
      <trkpt lat="44.49922" lon="6.24315">
        <ele>1112</ele>
        <time>2018-06-23T18:27:33Z</time>
      </trkpt>
      <trkpt lat="44.49925" lon="6.24316">
        <ele>1113</ele>
        <time>2018-06-23T18:27:38Z</time>
      </trkpt>
      <trkpt lat="44.49929" lon="6.24318">
        <ele>1113</ele>
        <time>2018-06-23T18:27:43Z</time>
      </trkpt>
      <trkpt lat="44.49933" lon="6.2432">
        <ele>1113</ele>
        <time>2018-06-23T18:27:48Z</time>
      </trkpt>
      <trkpt lat="44.49938" lon="6.24324">
        <ele>1114</ele>
        <time>2018-06-23T18:27:53Z</time>
      </trkpt>
      <trkpt lat="44.49942" lon="6.24327">
        <ele>1114</ele>
        <time>2018-06-23T18:27:58Z</time>
      </trkpt>
      <trkpt lat="44.49945" lon="6.24329">
        <ele>1115</ele>
        <time>2018-06-23T18:28:03Z</time>
      </trkpt>
      <trkpt lat="44.49949" lon="6.2433">
        <ele>1116</ele>
        <time>2018-06-23T18:28:08Z</time>
      </trkpt>
      <trkpt lat="44.49952" lon="6.2433">
        <ele>1116</ele>
        <time>2018-06-23T18:28:13Z</time>
      </trkpt>
      <trkpt lat="44.49956" lon="6.24329">
        <ele>1117</ele>
        <time>2018-06-23T18:28:18Z</time>
      </trkpt>
      <trkpt lat="44.49959" lon="6.2433">
        <ele>1118</ele>
        <time>2018-06-23T18:28:23Z</time>
      </trkpt>
      <trkpt lat="44.4996" lon="6.24331">
        <ele>1118</ele>
        <time>2018-06-23T18:28:28Z</time>
      </trkpt>
      <trkpt lat="44.49961" lon="6.24331">
        <ele>1119</ele>
        <time>2018-06-23T18:28:33Z</time>
      </trkpt>
      <trkpt lat="44.49964" lon="6.24332">
        <ele>1119</ele>
        <time>2018-06-23T18:28:38Z</time>
      </trkpt>
      <trkpt lat="44.49969" lon="6.24333">
        <ele>1120</ele>
        <time>2018-06-23T18:28:43Z</time>
      </trkpt>
      <trkpt lat="44.49972" lon="6.24332">
        <ele>1121</ele>
        <time>2018-06-23T18:28:48Z</time>
      </trkpt>
      <trkpt lat="44.49974" lon="6.24335">
        <ele>1121</ele>
        <time>2018-06-23T18:28:53Z</time>
      </trkpt>
      <trkpt lat="44.49977" lon="6.24337">
        <ele>1122</ele>
        <time>2018-06-23T18:28:58Z</time>
      </trkpt>
      <trkpt lat="44.49981" lon="6.24338">
        <ele>1123</ele>
        <time>2018-06-23T18:29:03Z</time>
      </trkpt>
      <trkpt lat="44.49984" lon="6.24341">
        <ele>1123</ele>
        <time>2018-06-23T18:29:08Z</time>
      </trkpt>
      <trkpt lat="44.49986" lon="6.24343">
        <ele>1124</ele>
        <time>2018-06-23T18:29:13Z</time>
      </trkpt>
      <trkpt lat="44.49989" lon="6.24347">
        <ele>1124</ele>
        <time>2018-06-23T18:29:18Z</time>
      </trkpt>
      <trkpt lat="44.4999" lon="6.24354">
        <ele>1125</ele>
        <time>2018-06-23T18:29:23Z</time>
      </trkpt>
      <trkpt lat="44.49992" lon="6.24361">
        <ele>1125</ele>
        <time>2018-06-23T18:29:28Z</time>
      </trkpt>
      <trkpt lat="44.49993" lon="6.24367">
        <ele>1126</ele>
        <time>2018-06-23T18:29:33Z</time>
      </trkpt>
      <trkpt lat="44.49995" lon="6.24371">
        <ele>1126</ele>
        <time>2018-06-23T18:29:38Z</time>
      </trkpt>
      <trkpt lat="44.49998" lon="6.24377">
        <ele>1127</ele>
        <time>2018-06-23T18:29:43Z</time>
      </trkpt>
      <trkpt lat="44.5" lon="6.24382">
        <ele>1127</ele>
        <time>2018-06-23T18:29:48Z</time>
      </trkpt>
      <trkpt lat="44.50002" lon="6.24386">
        <ele>1128</ele>
        <time>2018-06-23T18:29:53Z</time>
      </trkpt>
      <trkpt lat="44.50004" lon="6.2439">
        <ele>1128</ele>
        <time>2018-06-23T18:29:58Z</time>
      </trkpt>
      <trkpt lat="44.50006" lon="6.24394">
        <ele>1128</ele>
        <time>2018-06-23T18:30:03Z</time>
      </trkpt>
      <trkpt lat="44.50008" lon="6.24397">
        <ele>1129</ele>
        <time>2018-06-23T18:30:08Z</time>
      </trkpt>
      <trkpt lat="44.5001" lon="6.24399">
        <ele>1129</ele>
        <time>2018-06-23T18:30:13Z</time>
      </trkpt>
      <trkpt lat="44.50012" lon="6.24402">
        <ele>1129</ele>
        <time>2018-06-23T18:30:18Z</time>
      </trkpt>
      <trkpt lat="44.50017" lon="6.24407">
        <ele>1131</ele>
        <time>2018-06-23T18:30:23Z</time>
      </trkpt>
      <trkpt lat="44.50019" lon="6.2441">
        <ele>1131</ele>
        <time>2018-06-23T18:30:28Z</time>
      </trkpt>
      <trkpt lat="44.50022" lon="6.24412">
        <ele>1132</ele>
        <time>2018-06-23T18:30:33Z</time>
      </trkpt>
      <trkpt lat="44.50026" lon="6.24417">
        <ele>1133</ele>
        <time>2018-06-23T18:30:38Z</time>
      </trkpt>
      <trkpt lat="44.50029" lon="6.2442">
        <ele>1134</ele>
        <time>2018-06-23T18:30:43Z</time>
      </trkpt>
      <trkpt lat="44.50032" lon="6.24425">
        <ele>1134</ele>
        <time>2018-06-23T18:30:48Z</time>
      </trkpt>
      <trkpt lat="44.50036" lon="6.24432">
        <ele>1135</ele>
        <time>2018-06-23T18:30:53Z</time>
      </trkpt>
      <trkpt lat="44.5004" lon="6.24437">
        <ele>1136</ele>
        <time>2018-06-23T18:30:58Z</time>
      </trkpt>
      <trkpt lat="44.50043" lon="6.2444">
        <ele>1137</ele>
        <time>2018-06-23T18:31:03Z</time>
      </trkpt>
      <trkpt lat="44.50046" lon="6.24444">
        <ele>1138</ele>
        <time>2018-06-23T18:31:08Z</time>
      </trkpt>
      <trkpt lat="44.50049" lon="6.24449">
        <ele>1139</ele>
        <time>2018-06-23T18:31:13Z</time>
      </trkpt>
      <trkpt lat="44.50052" lon="6.24453">
        <ele>1139</ele>
        <time>2018-06-23T18:31:18Z</time>
      </trkpt>
      <trkpt lat="44.50054" lon="6.24456">
        <ele>1140</ele>
        <time>2018-06-23T18:31:23Z</time>
      </trkpt>
      <trkpt lat="44.50056" lon="6.24458">
        <ele>1140</ele>
        <time>2018-06-23T18:31:28Z</time>
      </trkpt>
      <trkpt lat="44.50059" lon="6.24462">
        <ele>1141</ele>
        <time>2018-06-23T18:31:33Z</time>
      </trkpt>
      <trkpt lat="44.50062" lon="6.24465">
        <ele>1142</ele>
        <time>2018-06-23T18:31:38Z</time>
      </trkpt>
      <trkpt lat="44.50068" lon="6.24465">
        <ele>1143</ele>
        <time>2018-06-23T18:31:43Z</time>
      </trkpt>
      <trkpt lat="44.50073" lon="6.24467">
        <ele>1144</ele>
        <time>2018-06-23T18:31:48Z</time>
      </trkpt>
      <trkpt lat="44.50075" lon="6.24469">
        <ele>1144</ele>
        <time>2018-06-23T18:31:53Z</time>
      </trkpt>
      <trkpt lat="44.50079" lon="6.24472">
        <ele>1145</ele>
        <time>2018-06-23T18:31:58Z</time>
      </trkpt>
      <trkpt lat="44.50082" lon="6.24476">
        <ele>1145</ele>
        <time>2018-06-23T18:32:03Z</time>
      </trkpt>
      <trkpt lat="44.50086" lon="6.2448">
        <ele>1146</ele>
        <time>2018-06-23T18:32:08Z</time>
      </trkpt>
      <trkpt lat="44.50089" lon="6.24484">
        <ele>1146</ele>
        <time>2018-06-23T18:32:13Z</time>
      </trkpt>
      <trkpt lat="44.50091" lon="6.24487">
        <ele>1147</ele>
        <time>2018-06-23T18:32:18Z</time>
      </trkpt>
      <trkpt lat="44.50095" lon="6.24491">
        <ele>1147</ele>
        <time>2018-06-23T18:32:23Z</time>
      </trkpt>
      <trkpt lat="44.50096" lon="6.24497">
        <ele>1147</ele>
        <time>2018-06-23T18:32:28Z</time>
      </trkpt>
      <trkpt lat="44.50097" lon="6.24499">
        <ele>1147</ele>
        <time>2018-06-23T18:32:33Z</time>
      </trkpt>
      <trkpt lat="44.50097" lon="6.24501">
        <ele>1147</ele>
        <time>2018-06-23T18:32:38Z</time>
      </trkpt>
      <trkpt lat="44.50099" lon="6.24504">
        <ele>1148</ele>
        <time>2018-06-23T18:32:43Z</time>
      </trkpt>
      <trkpt lat="44.50102" lon="6.24507">
        <ele>1149</ele>
        <time>2018-06-23T18:32:48Z</time>
      </trkpt>
      <trkpt lat="44.50106" lon="6.24512">
        <ele>1150</ele>
        <time>2018-06-23T18:32:53Z</time>
      </trkpt>
      <trkpt lat="44.50112" lon="6.24517">
        <ele>1151</ele>
        <time>2018-06-23T18:32:58Z</time>
      </trkpt>
      <trkpt lat="44.50116" lon="6.2452">
        <ele>1152</ele>
        <time>2018-06-23T18:33:03Z</time>
      </trkpt>
      <trkpt lat="44.5012" lon="6.24522">
        <ele>1153</ele>
        <time>2018-06-23T18:33:08Z</time>
      </trkpt>
      <trkpt lat="44.50123" lon="6.24525">
        <ele>1154</ele>
        <time>2018-06-23T18:33:13Z</time>
      </trkpt>
      <trkpt lat="44.50125" lon="6.24529">
        <ele>1155</ele>
        <time>2018-06-23T18:33:18Z</time>
      </trkpt>
      <trkpt lat="44.50128" lon="6.24533">
        <ele>1155</ele>
        <time>2018-06-23T18:33:23Z</time>
      </trkpt>
      <trkpt lat="44.50133" lon="6.24536">
        <ele>1156</ele>
        <time>2018-06-23T18:33:28Z</time>
      </trkpt>
      <trkpt lat="44.50138" lon="6.24539">
        <ele>1157</ele>
        <time>2018-06-23T18:33:33Z</time>
      </trkpt>
      <trkpt lat="44.50143" lon="6.24542">
        <ele>1158</ele>
        <time>2018-06-23T18:33:38Z</time>
      </trkpt>
      <trkpt lat="44.50147" lon="6.24545">
        <ele>1159</ele>
        <time>2018-06-23T18:33:43Z</time>
      </trkpt>
      <trkpt lat="44.5015" lon="6.24548">
        <ele>1159</ele>
        <time>2018-06-23T18:33:48Z</time>
      </trkpt>
      <trkpt lat="44.50152" lon="6.24551">
        <ele>1160</ele>
        <time>2018-06-23T18:33:53Z</time>
      </trkpt>
      <trkpt lat="44.50155" lon="6.24556">
        <ele>1160</ele>
        <time>2018-06-23T18:33:58Z</time>
      </trkpt>
      <trkpt lat="44.50157" lon="6.24558">
        <ele>1161</ele>
        <time>2018-06-23T18:34:03Z</time>
      </trkpt>
      <trkpt lat="44.5016" lon="6.24561">
        <ele>1162</ele>
        <time>2018-06-23T18:34:08Z</time>
      </trkpt>
      <trkpt lat="44.50162" lon="6.24564">
        <ele>1162</ele>
        <time>2018-06-23T18:34:13Z</time>
      </trkpt>
      <trkpt lat="44.50167" lon="6.24566">
        <ele>1163</ele>
        <time>2018-06-23T18:34:18Z</time>
      </trkpt>
      <trkpt lat="44.5017" lon="6.24566">
        <ele>1164</ele>
        <time>2018-06-23T18:34:23Z</time>
      </trkpt>
      <trkpt lat="44.50173" lon="6.24565">
        <ele>1164</ele>
        <time>2018-06-23T18:34:28Z</time>
      </trkpt>
      <trkpt lat="44.50175" lon="6.24565">
        <ele>1164</ele>
        <time>2018-06-23T18:34:33Z</time>
      </trkpt>
      <trkpt lat="44.5018" lon="6.24567">
        <ele>1166</ele>
        <time>2018-06-23T18:34:38Z</time>
      </trkpt>
      <trkpt lat="44.50183" lon="6.24569">
        <ele>1166</ele>
        <time>2018-06-23T18:34:43Z</time>
      </trkpt>
      <trkpt lat="44.50187" lon="6.24569">
        <ele>1167</ele>
        <time>2018-06-23T18:34:48Z</time>
      </trkpt>
      <trkpt lat="44.50189" lon="6.24569">
        <ele>1167</ele>
        <time>2018-06-23T18:34:53Z</time>
      </trkpt>
      <trkpt lat="44.50191" lon="6.24567">
        <ele>1168</ele>
        <time>2018-06-23T18:34:58Z</time>
      </trkpt>
      <trkpt lat="44.50194" lon="6.24564">
        <ele>1168</ele>
        <time>2018-06-23T18:35:03Z</time>
      </trkpt>
      <trkpt lat="44.50194" lon="6.24563">
        <ele>1168</ele>
        <time>2018-06-23T18:35:08Z</time>
      </trkpt>
      <trkpt lat="44.50194" lon="6.24562">
        <ele>1168</ele>
        <time>2018-06-23T18:35:13Z</time>
      </trkpt>
      <trkpt lat="44.50194" lon="6.24561">
        <ele>1168</ele>
        <time>2018-06-23T18:35:18Z</time>
      </trkpt>
      <trkpt lat="44.50194" lon="6.24561">
        <ele>1168</ele>
        <time>2018-06-23T18:35:23Z</time>
      </trkpt>
      <trkpt lat="44.50193" lon="6.24561">
        <ele>1168</ele>
        <time>2018-06-23T18:35:28Z</time>
      </trkpt>
      <trkpt lat="44.50193" lon="6.24562">
        <ele>1168</ele>
        <time>2018-06-23T18:35:33Z</time>
      </trkpt>
      <trkpt lat="44.50194" lon="6.24562">
        <ele>1168</ele>
        <time>2018-06-23T18:35:38Z</time>
      </trkpt>
      <trkpt lat="44.50194" lon="6.24562">
        <ele>1168</ele>
        <time>2018-06-23T18:35:43Z</time>
      </trkpt>
      <trkpt lat="44.50194" lon="6.24562">
        <ele>1168</ele>
        <time>2018-06-23T18:35:48Z</time>
      </trkpt>
      <trkpt lat="44.50194" lon="6.24563">
        <ele>1168</ele>
        <time>2018-06-23T18:35:53Z</time>
      </trkpt>
      <trkpt lat="44.50194" lon="6.24563">
        <ele>1168</ele>
        <time>2018-06-23T18:35:58Z</time>
      </trkpt>
      <trkpt lat="44.50194" lon="6.24563">
        <ele>1168</ele>
        <time>2018-06-23T18:36:03Z</time>
      </trkpt>
      <trkpt lat="44.50194" lon="6.24563">
        <ele>1168</ele>
        <time>2018-06-23T18:36:08Z</time>
      </trkpt>
      <trkpt lat="44.50194" lon="6.24564">
        <ele>1168</ele>
        <time>2018-06-23T18:36:13Z</time>
      </trkpt>
      <trkpt lat="44.50194" lon="6.24564">
        <ele>1168</ele>
        <time>2018-06-23T18:36:18Z</time>
      </trkpt>
      <trkpt lat="44.50194" lon="6.24564">
        <ele>1168</ele>
        <time>2018-06-23T18:36:23Z</time>
      </trkpt>
      <trkpt lat="44.50194" lon="6.24564">
        <ele>1168</ele>
        <time>2018-06-23T18:36:28Z</time>
      </trkpt>
      <trkpt lat="44.50194" lon="6.24563">
        <ele>1168</ele>
        <time>2018-06-23T18:36:33Z</time>
      </trkpt>
      <trkpt lat="44.50195" lon="6.24564">
        <ele>1168</ele>
        <time>2018-06-23T18:36:38Z</time>
      </trkpt>
      <trkpt lat="44.50195" lon="6.24564">
        <ele>1168</ele>
        <time>2018-06-23T18:36:43Z</time>
      </trkpt>
      <trkpt lat="44.50195" lon="6.24564">
        <ele>1168</ele>
        <time>2018-06-23T18:36:48Z</time>
      </trkpt>
      <trkpt lat="44.50196" lon="6.24564">
        <ele>1168</ele>
        <time>2018-06-23T18:36:53Z</time>
      </trkpt>
      <trkpt lat="44.50195" lon="6.24562">
        <ele>1168</ele>
        <time>2018-06-23T18:36:58Z</time>
      </trkpt>
      <trkpt lat="44.50193" lon="6.24562">
        <ele>1168</ele>
        <time>2018-06-23T18:37:03Z</time>
      </trkpt>
      <trkpt lat="44.50193" lon="6.24561">
        <ele>1168</ele>
        <time>2018-06-23T18:37:08Z</time>
      </trkpt>
      <trkpt lat="44.50194" lon="6.24561">
        <ele>1168</ele>
        <time>2018-06-23T18:37:13Z</time>
      </trkpt>
      <trkpt lat="44.50197" lon="6.24563">
        <ele>1168</ele>
        <time>2018-06-23T18:37:18Z</time>
      </trkpt>
      <trkpt lat="44.50202" lon="6.24562">
        <ele>1169</ele>
        <time>2018-06-23T18:37:23Z</time>
      </trkpt>
      <trkpt lat="44.50207" lon="6.24562">
        <ele>1170</ele>
        <time>2018-06-23T18:37:28Z</time>
      </trkpt>
      <trkpt lat="44.5021" lon="6.24561">
        <ele>1171</ele>
        <time>2018-06-23T18:37:33Z</time>
      </trkpt>
      <trkpt lat="44.50213" lon="6.24562">
        <ele>1171</ele>
        <time>2018-06-23T18:37:38Z</time>
      </trkpt>
      <trkpt lat="44.50214" lon="6.24564">
        <ele>1172</ele>
        <time>2018-06-23T18:37:43Z</time>
      </trkpt>
      <trkpt lat="44.50214" lon="6.24563">
        <ele>1172</ele>
        <time>2018-06-23T18:37:48Z</time>
      </trkpt>
      <trkpt lat="44.50216" lon="6.24566">
        <ele>1172</ele>
        <time>2018-06-23T18:37:53Z</time>
      </trkpt>
      <trkpt lat="44.50224" lon="6.24566">
        <ele>1173</ele>
        <time>2018-06-23T18:37:58Z</time>
      </trkpt>
      <trkpt lat="44.50232" lon="6.24564">
        <ele>1174</ele>
        <time>2018-06-23T18:38:03Z</time>
      </trkpt>
      <trkpt lat="44.50233" lon="6.24563">
        <ele>1174</ele>
        <time>2018-06-23T18:38:08Z</time>
      </trkpt>
      <trkpt lat="44.50233" lon="6.24562">
        <ele>1174</ele>
        <time>2018-06-23T18:38:13Z</time>
      </trkpt>
      <trkpt lat="44.50232" lon="6.2456">
        <ele>1174</ele>
        <time>2018-06-23T18:38:18Z</time>
      </trkpt>
      <trkpt lat="44.50231" lon="6.24557">
        <ele>1174</ele>
        <time>2018-06-23T18:38:23Z</time>
      </trkpt>
      <trkpt lat="44.50229" lon="6.24553">
        <ele>1173</ele>
        <time>2018-06-23T18:38:28Z</time>
      </trkpt>
      <trkpt lat="44.50228" lon="6.24551">
        <ele>1173</ele>
        <time>2018-06-23T18:38:33Z</time>
      </trkpt>
      <trkpt lat="44.50229" lon="6.24548">
        <ele>1173</ele>
        <time>2018-06-23T18:38:38Z</time>
      </trkpt>
      <trkpt lat="44.50231" lon="6.24544">
        <ele>1173</ele>
        <time>2018-06-23T18:38:43Z</time>
      </trkpt>
      <trkpt lat="44.50233" lon="6.2454">
        <ele>1173</ele>
        <time>2018-06-23T18:38:48Z</time>
      </trkpt>
      <trkpt lat="44.50233" lon="6.24537">
        <ele>1173</ele>
        <time>2018-06-23T18:38:53Z</time>
      </trkpt>
      <trkpt lat="44.50233" lon="6.24538">
        <ele>1173</ele>
        <time>2018-06-23T18:38:58Z</time>
      </trkpt>
      <trkpt lat="44.50233" lon="6.24537">
        <ele>1173</ele>
        <time>2018-06-23T18:39:03Z</time>
      </trkpt>
      <trkpt lat="44.50236" lon="6.2453">
        <ele>1172</ele>
        <time>2018-06-23T18:39:08Z</time>
      </trkpt>
      <trkpt lat="44.50239" lon="6.24525">
        <ele>1173</ele>
        <time>2018-06-23T18:39:13Z</time>
      </trkpt>
      <trkpt lat="44.50241" lon="6.24521">
        <ele>1173</ele>
        <time>2018-06-23T18:39:18Z</time>
      </trkpt>
      <trkpt lat="44.50244" lon="6.24516">
        <ele>1173</ele>
        <time>2018-06-23T18:39:23Z</time>
      </trkpt>
      <trkpt lat="44.50246" lon="6.2451">
        <ele>1172</ele>
        <time>2018-06-23T18:39:28Z</time>
      </trkpt>
      <trkpt lat="44.50249" lon="6.24507">
        <ele>1173</ele>
        <time>2018-06-23T18:39:33Z</time>
      </trkpt>
      <trkpt lat="44.5025" lon="6.24504">
        <ele>1173</ele>
        <time>2018-06-23T18:39:38Z</time>
      </trkpt>
      <trkpt lat="44.50252" lon="6.24503">
        <ele>1173</ele>
        <time>2018-06-23T18:39:43Z</time>
      </trkpt>
      <trkpt lat="44.50255" lon="6.24504">
        <ele>1173</ele>
        <time>2018-06-23T18:39:48Z</time>
      </trkpt>
      <trkpt lat="44.50257" lon="6.24506">
        <ele>1174</ele>
        <time>2018-06-23T18:39:53Z</time>
      </trkpt>
      <trkpt lat="44.50257" lon="6.24512">
        <ele>1174</ele>
        <time>2018-06-23T18:39:58Z</time>
      </trkpt>
      <trkpt lat="44.5026" lon="6.24517">
        <ele>1175</ele>
        <time>2018-06-23T18:40:03Z</time>
      </trkpt>
      <trkpt lat="44.50262" lon="6.24523">
        <ele>1176</ele>
        <time>2018-06-23T18:40:08Z</time>
      </trkpt>
      <trkpt lat="44.50265" lon="6.24527">
        <ele>1176</ele>
        <time>2018-06-23T18:40:13Z</time>
      </trkpt>
      <trkpt lat="44.50269" lon="6.24531">
        <ele>1177</ele>
        <time>2018-06-23T18:40:18Z</time>
      </trkpt>
      <trkpt lat="44.50272" lon="6.24536">
        <ele>1178</ele>
        <time>2018-06-23T18:40:23Z</time>
      </trkpt>
      <trkpt lat="44.50275" lon="6.24541">
        <ele>1179</ele>
        <time>2018-06-23T18:40:28Z</time>
      </trkpt>
      <trkpt lat="44.50278" lon="6.24546">
        <ele>1180</ele>
        <time>2018-06-23T18:40:33Z</time>
      </trkpt>
      <trkpt lat="44.50281" lon="6.24551">
        <ele>1181</ele>
        <time>2018-06-23T18:40:38Z</time>
      </trkpt>
      <trkpt lat="44.50283" lon="6.24556">
        <ele>1181</ele>
        <time>2018-06-23T18:40:43Z</time>
      </trkpt>
      <trkpt lat="44.50284" lon="6.24561">
        <ele>1182</ele>
        <time>2018-06-23T18:40:48Z</time>
      </trkpt>
      <trkpt lat="44.50287" lon="6.24565">
        <ele>1182</ele>
        <time>2018-06-23T18:40:53Z</time>
      </trkpt>
      <trkpt lat="44.50292" lon="6.24568">
        <ele>1184</ele>
        <time>2018-06-23T18:40:58Z</time>
      </trkpt>
      <trkpt lat="44.50296" lon="6.24571">
        <ele>1185</ele>
        <time>2018-06-23T18:41:03Z</time>
      </trkpt>
      <trkpt lat="44.503" lon="6.24575">
        <ele>1186</ele>
        <time>2018-06-23T18:41:08Z</time>
      </trkpt>
      <trkpt lat="44.50303" lon="6.24576">
        <ele>1187</ele>
        <time>2018-06-23T18:41:13Z</time>
      </trkpt>
      <trkpt lat="44.50303" lon="6.24578">
        <ele>1187</ele>
        <time>2018-06-23T18:41:18Z</time>
      </trkpt>
      <trkpt lat="44.50302" lon="6.24584">
        <ele>1187</ele>
        <time>2018-06-23T18:41:23Z</time>
      </trkpt>
      <trkpt lat="44.50301" lon="6.24588">
        <ele>1187</ele>
        <time>2018-06-23T18:41:28Z</time>
      </trkpt>
      <trkpt lat="44.50301" lon="6.24593">
        <ele>1188</ele>
        <time>2018-06-23T18:41:33Z</time>
      </trkpt>
      <trkpt lat="44.50301" lon="6.24599">
        <ele>1188</ele>
        <time>2018-06-23T18:41:38Z</time>
      </trkpt>
      <trkpt lat="44.50301" lon="6.24606">
        <ele>1189</ele>
        <time>2018-06-23T18:41:43Z</time>
      </trkpt>
      <trkpt lat="44.503" lon="6.24612">
        <ele>1189</ele>
        <time>2018-06-23T18:41:48Z</time>
      </trkpt>
      <trkpt lat="44.50298" lon="6.24617">
        <ele>1189</ele>
        <time>2018-06-23T18:41:53Z</time>
      </trkpt>
      <trkpt lat="44.50298" lon="6.24619">
        <ele>1189</ele>
        <time>2018-06-23T18:41:58Z</time>
      </trkpt>
      <trkpt lat="44.50298" lon="6.2462">
        <ele>1189</ele>
        <time>2018-06-23T18:42:03Z</time>
      </trkpt>
      <trkpt lat="44.50298" lon="6.24621">
        <ele>1189</ele>
        <time>2018-06-23T18:42:08Z</time>
      </trkpt>
      <trkpt lat="44.50297" lon="6.24621">
        <ele>1189</ele>
        <time>2018-06-23T18:42:13Z</time>
      </trkpt>
      <trkpt lat="44.50297" lon="6.24622">
        <ele>1189</ele>
        <time>2018-06-23T18:42:18Z</time>
      </trkpt>
      <trkpt lat="44.50297" lon="6.24622">
        <ele>1189</ele>
        <time>2018-06-23T18:42:23Z</time>
      </trkpt>
      <trkpt lat="44.50297" lon="6.24622">
        <ele>1189</ele>
        <time>2018-06-23T18:42:28Z</time>
      </trkpt>
      <trkpt lat="44.50297" lon="6.24623">
        <ele>1189</ele>
        <time>2018-06-23T18:42:33Z</time>
      </trkpt>
      <trkpt lat="44.50297" lon="6.24622">
        <ele>1189</ele>
        <time>2018-06-23T18:42:38Z</time>
      </trkpt>
      <trkpt lat="44.50297" lon="6.24622">
        <ele>1189</ele>
        <time>2018-06-23T18:42:43Z</time>
      </trkpt>
      <trkpt lat="44.50296" lon="6.24622">
        <ele>1189</ele>
        <time>2018-06-23T18:42:48Z</time>
      </trkpt>
      <trkpt lat="44.50296" lon="6.24623">
        <ele>1189</ele>
        <time>2018-06-23T18:42:53Z</time>
      </trkpt>
      <trkpt lat="44.50297" lon="6.24622">
        <ele>1189</ele>
        <time>2018-06-23T18:42:58Z</time>
      </trkpt>
      <trkpt lat="44.50297" lon="6.24622">
        <ele>1189</ele>
        <time>2018-06-23T18:43:03Z</time>
      </trkpt>
      <trkpt lat="44.50297" lon="6.24623">
        <ele>1189</ele>
        <time>2018-06-23T18:43:08Z</time>
      </trkpt>
      <trkpt lat="44.50297" lon="6.24623">
        <ele>1189</ele>
        <time>2018-06-23T18:43:13Z</time>
      </trkpt>
      <trkpt lat="44.50297" lon="6.24623">
        <ele>1189</ele>
        <time>2018-06-23T18:43:18Z</time>
      </trkpt>
      <trkpt lat="44.50297" lon="6.24623">
        <ele>1189</ele>
        <time>2018-06-23T18:43:23Z</time>
      </trkpt>
      <trkpt lat="44.50297" lon="6.24623">
        <ele>1189</ele>
        <time>2018-06-23T18:43:28Z</time>
      </trkpt>
      <trkpt lat="44.50297" lon="6.24623">
        <ele>1189</ele>
        <time>2018-06-23T18:43:33Z</time>
      </trkpt>
      <trkpt lat="44.50297" lon="6.24623">
        <ele>1189</ele>
        <time>2018-06-23T18:43:38Z</time>
      </trkpt>
      <trkpt lat="44.50297" lon="6.24624">
        <ele>1190</ele>
        <time>2018-06-23T18:43:43Z</time>
      </trkpt>
      <trkpt lat="44.50297" lon="6.24623">
        <ele>1189</ele>
        <time>2018-06-23T18:43:48Z</time>
      </trkpt>
      <trkpt lat="44.50298" lon="6.24624">
        <ele>1190</ele>
        <time>2018-06-23T18:43:53Z</time>
      </trkpt>
      <trkpt lat="44.50297" lon="6.24628">
        <ele>1190</ele>
        <time>2018-06-23T18:43:58Z</time>
      </trkpt>
      <trkpt lat="44.50297" lon="6.24633">
        <ele>1190</ele>
        <time>2018-06-23T18:44:03Z</time>
      </trkpt>
      <trkpt lat="44.50297" lon="6.24639">
        <ele>1191</ele>
        <time>2018-06-23T18:44:08Z</time>
      </trkpt>
      <trkpt lat="44.50297" lon="6.24644">
        <ele>1191</ele>
        <time>2018-06-23T18:44:13Z</time>
      </trkpt>
      <trkpt lat="44.50296" lon="6.2465">
        <ele>1192</ele>
        <time>2018-06-23T18:44:18Z</time>
      </trkpt>
      <trkpt lat="44.50295" lon="6.24657">
        <ele>1193</ele>
        <time>2018-06-23T18:44:23Z</time>
      </trkpt>
      <trkpt lat="44.50294" lon="6.24666">
        <ele>1194</ele>
        <time>2018-06-23T18:44:28Z</time>
      </trkpt>
      <trkpt lat="44.50294" lon="6.24668">
        <ele>1194</ele>
        <time>2018-06-23T18:44:33Z</time>
      </trkpt>
      <trkpt lat="44.50293" lon="6.24672">
        <ele>1194</ele>
        <time>2018-06-23T18:44:38Z</time>
      </trkpt>
      <trkpt lat="44.50292" lon="6.24679">
        <ele>1195</ele>
        <time>2018-06-23T18:44:43Z</time>
      </trkpt>
      <trkpt lat="44.50292" lon="6.24686">
        <ele>1196</ele>
        <time>2018-06-23T18:44:48Z</time>
      </trkpt>
      <trkpt lat="44.50292" lon="6.24693">
        <ele>1197</ele>
        <time>2018-06-23T18:44:53Z</time>
      </trkpt>
      <trkpt lat="44.50292" lon="6.247">
        <ele>1198</ele>
        <time>2018-06-23T18:44:58Z</time>
      </trkpt>
      <trkpt lat="44.50291" lon="6.24707">
        <ele>1198</ele>
        <time>2018-06-23T18:45:03Z</time>
      </trkpt>
      <trkpt lat="44.50293" lon="6.24712">
        <ele>1199</ele>
        <time>2018-06-23T18:45:08Z</time>
      </trkpt>
      <trkpt lat="44.50295" lon="6.24715">
        <ele>1200</ele>
        <time>2018-06-23T18:45:13Z</time>
      </trkpt>
      <trkpt lat="44.50297" lon="6.24721">
        <ele>1202</ele>
        <time>2018-06-23T18:45:18Z</time>
      </trkpt>
      <trkpt lat="44.50299" lon="6.24728">
        <ele>1204</ele>
        <time>2018-06-23T18:45:23Z</time>
      </trkpt>
      <trkpt lat="44.50302" lon="6.24734">
        <ele>1205</ele>
        <time>2018-06-23T18:45:28Z</time>
      </trkpt>
      <trkpt lat="44.50305" lon="6.24739">
        <ele>1207</ele>
        <time>2018-06-23T18:45:33Z</time>
      </trkpt>
      <trkpt lat="44.50308" lon="6.24746">
        <ele>1208</ele>
        <time>2018-06-23T18:45:38Z</time>
      </trkpt>
      <trkpt lat="44.50311" lon="6.24749">
        <ele>1210</ele>
        <time>2018-06-23T18:45:43Z</time>
      </trkpt>
      <trkpt lat="44.50312" lon="6.24753">
        <ele>1211</ele>
        <time>2018-06-23T18:45:48Z</time>
      </trkpt>
      <trkpt lat="44.50314" lon="6.24756">
        <ele>1211</ele>
        <time>2018-06-23T18:45:53Z</time>
      </trkpt>
      <trkpt lat="44.50315" lon="6.24763">
        <ele>1213</ele>
        <time>2018-06-23T18:45:58Z</time>
      </trkpt>
      <trkpt lat="44.50315" lon="6.24769">
        <ele>1214</ele>
        <time>2018-06-23T18:46:03Z</time>
      </trkpt>
      <trkpt lat="44.50312" lon="6.24772">
        <ele>1214</ele>
        <time>2018-06-23T18:46:08Z</time>
      </trkpt>
      <trkpt lat="44.50307" lon="6.24773">
        <ele>1213</ele>
        <time>2018-06-23T18:46:13Z</time>
      </trkpt>
      <trkpt lat="44.50302" lon="6.24774">
        <ele>1213</ele>
        <time>2018-06-23T18:46:18Z</time>
      </trkpt>
      <trkpt lat="44.50297" lon="6.24777">
        <ele>1212</ele>
        <time>2018-06-23T18:46:23Z</time>
      </trkpt>
      <trkpt lat="44.50292" lon="6.2478">
        <ele>1212</ele>
        <time>2018-06-23T18:46:28Z</time>
      </trkpt>
      <trkpt lat="44.50288" lon="6.24781">
        <ele>1212</ele>
        <time>2018-06-23T18:46:33Z</time>
      </trkpt>
      <trkpt lat="44.50282" lon="6.24782">
        <ele>1211</ele>
        <time>2018-06-23T18:46:38Z</time>
      </trkpt>
      <trkpt lat="44.50276" lon="6.24781">
        <ele>1210</ele>
        <time>2018-06-23T18:46:43Z</time>
      </trkpt>
      <trkpt lat="44.50271" lon="6.2478">
        <ele>1209</ele>
        <time>2018-06-23T18:46:48Z</time>
      </trkpt>
      <trkpt lat="44.50265" lon="6.24778">
        <ele>1208</ele>
        <time>2018-06-23T18:46:53Z</time>
      </trkpt>
      <trkpt lat="44.50259" lon="6.24776">
        <ele>1206</ele>
        <time>2018-06-23T18:46:58Z</time>
      </trkpt>
      <trkpt lat="44.50253" lon="6.24773">
        <ele>1205</ele>
        <time>2018-06-23T18:47:03Z</time>
      </trkpt>
      <trkpt lat="44.50247" lon="6.2477">
        <ele>1204</ele>
        <time>2018-06-23T18:47:08Z</time>
      </trkpt>
      <trkpt lat="44.50243" lon="6.24765">
        <ele>1202</ele>
        <time>2018-06-23T18:47:13Z</time>
      </trkpt>
      <trkpt lat="44.50239" lon="6.24759">
        <ele>1201</ele>
        <time>2018-06-23T18:47:18Z</time>
      </trkpt>
      <trkpt lat="44.50238" lon="6.24751">
        <ele>1199</ele>
        <time>2018-06-23T18:47:23Z</time>
      </trkpt>
      <trkpt lat="44.50236" lon="6.24743">
        <ele>1198</ele>
        <time>2018-06-23T18:47:28Z</time>
      </trkpt>
      <trkpt lat="44.50232" lon="6.24737">
        <ele>1196</ele>
        <time>2018-06-23T18:47:33Z</time>
      </trkpt>
      <trkpt lat="44.50227" lon="6.24738">
        <ele>1196</ele>
        <time>2018-06-23T18:47:38Z</time>
      </trkpt>
      <trkpt lat="44.50224" lon="6.24741">
        <ele>1196</ele>
        <time>2018-06-23T18:47:43Z</time>
      </trkpt>
      <trkpt lat="44.50223" lon="6.24743">
        <ele>1196</ele>
        <time>2018-06-23T18:47:48Z</time>
      </trkpt>
      <trkpt lat="44.5022" lon="6.24749">
        <ele>1196</ele>
        <time>2018-06-23T18:47:53Z</time>
      </trkpt>
      <trkpt lat="44.50217" lon="6.24756">
        <ele>1197</ele>
        <time>2018-06-23T18:47:58Z</time>
      </trkpt>
      <trkpt lat="44.50214" lon="6.24763">
        <ele>1198</ele>
        <time>2018-06-23T18:48:03Z</time>
      </trkpt>
      <trkpt lat="44.5021" lon="6.2477">
        <ele>1199</ele>
        <time>2018-06-23T18:48:08Z</time>
      </trkpt>
      <trkpt lat="44.50207" lon="6.24777">
        <ele>1199</ele>
        <time>2018-06-23T18:48:13Z</time>
      </trkpt>
      <trkpt lat="44.50204" lon="6.24784">
        <ele>1200</ele>
        <time>2018-06-23T18:48:18Z</time>
      </trkpt>
      <trkpt lat="44.50201" lon="6.24791">
        <ele>1202</ele>
        <time>2018-06-23T18:48:23Z</time>
      </trkpt>
      <trkpt lat="44.50197" lon="6.24796">
        <ele>1202</ele>
        <time>2018-06-23T18:48:28Z</time>
      </trkpt>
      <trkpt lat="44.50192" lon="6.24802">
        <ele>1203</ele>
        <time>2018-06-23T18:48:33Z</time>
      </trkpt>
      <trkpt lat="44.50187" lon="6.24807">
        <ele>1203</ele>
        <time>2018-06-23T18:48:38Z</time>
      </trkpt>
      <trkpt lat="44.50183" lon="6.24813">
        <ele>1204</ele>
        <time>2018-06-23T18:48:43Z</time>
      </trkpt>
      <trkpt lat="44.50179" lon="6.24819">
        <ele>1204</ele>
        <time>2018-06-23T18:48:48Z</time>
      </trkpt>
      <trkpt lat="44.50175" lon="6.24826">
        <ele>1205</ele>
        <time>2018-06-23T18:48:53Z</time>
      </trkpt>
      <trkpt lat="44.50172" lon="6.24831">
        <ele>1205</ele>
        <time>2018-06-23T18:48:58Z</time>
      </trkpt>
      <trkpt lat="44.50168" lon="6.24837">
        <ele>1206</ele>
        <time>2018-06-23T18:49:03Z</time>
      </trkpt>
      <trkpt lat="44.50164" lon="6.24843">
        <ele>1206</ele>
        <time>2018-06-23T18:49:08Z</time>
      </trkpt>
      <trkpt lat="44.50161" lon="6.2485">
        <ele>1207</ele>
        <time>2018-06-23T18:49:13Z</time>
      </trkpt>
      <trkpt lat="44.5016" lon="6.24857">
        <ele>1208</ele>
        <time>2018-06-23T18:49:18Z</time>
      </trkpt>
      <trkpt lat="44.50164" lon="6.24862">
        <ele>1210</ele>
        <time>2018-06-23T18:49:23Z</time>
      </trkpt>
      <trkpt lat="44.50167" lon="6.24862">
        <ele>1211</ele>
        <time>2018-06-23T18:49:28Z</time>
      </trkpt>
      <trkpt lat="44.50172" lon="6.24858">
        <ele>1211</ele>
        <time>2018-06-23T18:49:33Z</time>
      </trkpt>
      <trkpt lat="44.50174" lon="6.24852">
        <ele>1210</ele>
        <time>2018-06-23T18:49:38Z</time>
      </trkpt>
      <trkpt lat="44.50178" lon="6.24846">
        <ele>1209</ele>
        <time>2018-06-23T18:49:43Z</time>
      </trkpt>
      <trkpt lat="44.50182" lon="6.24841">
        <ele>1209</ele>
        <time>2018-06-23T18:49:48Z</time>
      </trkpt>
      <trkpt lat="44.50186" lon="6.24836">
        <ele>1209</ele>
        <time>2018-06-23T18:49:53Z</time>
      </trkpt>
      <trkpt lat="44.50191" lon="6.24833">
        <ele>1209</ele>
        <time>2018-06-23T18:49:58Z</time>
      </trkpt>
      <trkpt lat="44.50196" lon="6.24829">
        <ele>1209</ele>
        <time>2018-06-23T18:50:03Z</time>
      </trkpt>
      <trkpt lat="44.50202" lon="6.24827">
        <ele>1210</ele>
        <time>2018-06-23T18:50:08Z</time>
      </trkpt>
      <trkpt lat="44.50207" lon="6.24825">
        <ele>1210</ele>
        <time>2018-06-23T18:50:13Z</time>
      </trkpt>
      <trkpt lat="44.50212" lon="6.24824">
        <ele>1211</ele>
        <time>2018-06-23T18:50:18Z</time>
      </trkpt>
      <trkpt lat="44.50217" lon="6.24822">
        <ele>1211</ele>
        <time>2018-06-23T18:50:23Z</time>
      </trkpt>
      <trkpt lat="44.50222" lon="6.2482">
        <ele>1211</ele>
        <time>2018-06-23T18:50:28Z</time>
      </trkpt>
      <trkpt lat="44.50227" lon="6.24818">
        <ele>1212</ele>
        <time>2018-06-23T18:50:33Z</time>
      </trkpt>
      <trkpt lat="44.50231" lon="6.24815">
        <ele>1211</ele>
        <time>2018-06-23T18:50:38Z</time>
      </trkpt>
      <trkpt lat="44.50236" lon="6.24812">
        <ele>1211</ele>
        <time>2018-06-23T18:50:43Z</time>
      </trkpt>
      <trkpt lat="44.50241" lon="6.24808">
        <ele>1211</ele>
        <time>2018-06-23T18:50:48Z</time>
      </trkpt>
      <trkpt lat="44.50247" lon="6.24806">
        <ele>1212</ele>
        <time>2018-06-23T18:50:53Z</time>
      </trkpt>
      <trkpt lat="44.50252" lon="6.24806">
        <ele>1212</ele>
        <time>2018-06-23T18:50:58Z</time>
      </trkpt>
      <trkpt lat="44.50258" lon="6.24807">
        <ele>1214</ele>
        <time>2018-06-23T18:51:03Z</time>
      </trkpt>
      <trkpt lat="44.50263" lon="6.2481">
        <ele>1215</ele>
        <time>2018-06-23T18:51:08Z</time>
      </trkpt>
      <trkpt lat="44.50264" lon="6.24816">
        <ele>1217</ele>
        <time>2018-06-23T18:51:13Z</time>
      </trkpt>
      <trkpt lat="44.50262" lon="6.24821">
        <ele>1218</ele>
        <time>2018-06-23T18:51:18Z</time>
      </trkpt>
      <trkpt lat="44.50258" lon="6.24824">
        <ele>1218</ele>
        <time>2018-06-23T18:51:23Z</time>
      </trkpt>
      <trkpt lat="44.50253" lon="6.24824">
        <ele>1217</ele>
        <time>2018-06-23T18:51:28Z</time>
      </trkpt>
      <trkpt lat="44.50249" lon="6.24826">
        <ele>1217</ele>
        <time>2018-06-23T18:51:33Z</time>
      </trkpt>
      <trkpt lat="44.50245" lon="6.24831">
        <ele>1217</ele>
        <time>2018-06-23T18:51:38Z</time>
      </trkpt>
      <trkpt lat="44.50243" lon="6.24838">
        <ele>1219</ele>
        <time>2018-06-23T18:51:43Z</time>
      </trkpt>
      <trkpt lat="44.5024" lon="6.24844">
        <ele>1220</ele>
        <time>2018-06-23T18:51:48Z</time>
      </trkpt>
      <trkpt lat="44.50235" lon="6.24848">
        <ele>1220</ele>
        <time>2018-06-23T18:51:53Z</time>
      </trkpt>
      <trkpt lat="44.50231" lon="6.2485">
        <ele>1220</ele>
        <time>2018-06-23T18:51:58Z</time>
      </trkpt>
      <trkpt lat="44.50227" lon="6.24851">
        <ele>1219</ele>
        <time>2018-06-23T18:52:03Z</time>
      </trkpt>
      <trkpt lat="44.50223" lon="6.24855">
        <ele>1220</ele>
        <time>2018-06-23T18:52:08Z</time>
      </trkpt>
      <trkpt lat="44.50219" lon="6.2486">
        <ele>1221</ele>
        <time>2018-06-23T18:52:13Z</time>
      </trkpt>
      <trkpt lat="44.50215" lon="6.24865">
        <ele>1221</ele>
        <time>2018-06-23T18:52:18Z</time>
      </trkpt>
      <trkpt lat="44.50212" lon="6.24869">
        <ele>1222</ele>
        <time>2018-06-23T18:52:23Z</time>
      </trkpt>
      <trkpt lat="44.50208" lon="6.24875">
        <ele>1223</ele>
        <time>2018-06-23T18:52:28Z</time>
      </trkpt>
      <trkpt lat="44.50206" lon="6.24881">
        <ele>1224</ele>
        <time>2018-06-23T18:52:33Z</time>
      </trkpt>
      <trkpt lat="44.50203" lon="6.24887">
        <ele>1225</ele>
        <time>2018-06-23T18:52:38Z</time>
      </trkpt>
      <trkpt lat="44.502" lon="6.24894">
        <ele>1226</ele>
        <time>2018-06-23T18:52:43Z</time>
      </trkpt>
      <trkpt lat="44.50198" lon="6.249">
        <ele>1227</ele>
        <time>2018-06-23T18:52:48Z</time>
      </trkpt>
      <trkpt lat="44.50196" lon="6.24908">
        <ele>1228</ele>
        <time>2018-06-23T18:52:53Z</time>
      </trkpt>
      <trkpt lat="44.50196" lon="6.24915">
        <ele>1230</ele>
        <time>2018-06-23T18:52:58Z</time>
      </trkpt>
      <trkpt lat="44.50195" lon="6.24923">
        <ele>1232</ele>
        <time>2018-06-23T18:53:03Z</time>
      </trkpt>
      <trkpt lat="44.50195" lon="6.2493">
        <ele>1233</ele>
        <time>2018-06-23T18:53:08Z</time>
      </trkpt>
      <trkpt lat="44.50196" lon="6.24937">
        <ele>1235</ele>
        <time>2018-06-23T18:53:13Z</time>
      </trkpt>
      <trkpt lat="44.50198" lon="6.24943">
        <ele>1236</ele>
        <time>2018-06-23T18:53:18Z</time>
      </trkpt>
      <trkpt lat="44.502" lon="6.24949">
        <ele>1238</ele>
        <time>2018-06-23T18:53:23Z</time>
      </trkpt>
      <trkpt lat="44.50203" lon="6.24956">
        <ele>1241</ele>
        <time>2018-06-23T18:53:28Z</time>
      </trkpt>
      <trkpt lat="44.50206" lon="6.24963">
        <ele>1243</ele>
        <time>2018-06-23T18:53:33Z</time>
      </trkpt>
      <trkpt lat="44.50209" lon="6.2497">
        <ele>1245</ele>
        <time>2018-06-23T18:53:38Z</time>
      </trkpt>
      <trkpt lat="44.50212" lon="6.24976">
        <ele>1247</ele>
        <time>2018-06-23T18:53:43Z</time>
      </trkpt>
      <trkpt lat="44.50215" lon="6.24982">
        <ele>1249</ele>
        <time>2018-06-23T18:53:48Z</time>
      </trkpt>
      <trkpt lat="44.50218" lon="6.24989">
        <ele>1251</ele>
        <time>2018-06-23T18:53:53Z</time>
      </trkpt>
      <trkpt lat="44.50221" lon="6.24995">
        <ele>1253</ele>
        <time>2018-06-23T18:53:58Z</time>
      </trkpt>
      <trkpt lat="44.50223" lon="6.25002">
        <ele>1254</ele>
        <time>2018-06-23T18:54:03Z</time>
      </trkpt>
      <trkpt lat="44.50225" lon="6.25011">
        <ele>1255</ele>
        <time>2018-06-23T18:54:08Z</time>
      </trkpt>
      <trkpt lat="44.50226" lon="6.25019">
        <ele>1256</ele>
        <time>2018-06-23T18:54:13Z</time>
      </trkpt>
      <trkpt lat="44.50223" lon="6.25024">
        <ele>1255</ele>
        <time>2018-06-23T18:54:18Z</time>
      </trkpt>
      <trkpt lat="44.50219" lon="6.25025">
        <ele>1254</ele>
        <time>2018-06-23T18:54:23Z</time>
      </trkpt>
      <trkpt lat="44.50214" lon="6.25025">
        <ele>1253</ele>
        <time>2018-06-23T18:54:28Z</time>
      </trkpt>
      <trkpt lat="44.50209" lon="6.25023">
        <ele>1251</ele>
        <time>2018-06-23T18:54:33Z</time>
      </trkpt>
      <trkpt lat="44.50203" lon="6.25021">
        <ele>1249</ele>
        <time>2018-06-23T18:54:38Z</time>
      </trkpt>
      <trkpt lat="44.50197" lon="6.25019">
        <ele>1247</ele>
        <time>2018-06-23T18:54:43Z</time>
      </trkpt>
      <trkpt lat="44.50192" lon="6.25021">
        <ele>1246</ele>
        <time>2018-06-23T18:54:48Z</time>
      </trkpt>
      <trkpt lat="44.50186" lon="6.2502">
        <ele>1244</ele>
        <time>2018-06-23T18:54:53Z</time>
      </trkpt>
      <trkpt lat="44.5018" lon="6.25019">
        <ele>1242</ele>
        <time>2018-06-23T18:54:58Z</time>
      </trkpt>
      <trkpt lat="44.50175" lon="6.25016">
        <ele>1240</ele>
        <time>2018-06-23T18:55:03Z</time>
      </trkpt>
      <trkpt lat="44.50169" lon="6.25013">
        <ele>1238</ele>
        <time>2018-06-23T18:55:08Z</time>
      </trkpt>
      <trkpt lat="44.50164" lon="6.25015">
        <ele>1237</ele>
        <time>2018-06-23T18:55:13Z</time>
      </trkpt>
      <trkpt lat="44.5016" lon="6.25022">
        <ele>1237</ele>
        <time>2018-06-23T18:55:18Z</time>
      </trkpt>
      <trkpt lat="44.50158" lon="6.2503">
        <ele>1237</ele>
        <time>2018-06-23T18:55:23Z</time>
      </trkpt>
      <trkpt lat="44.50158" lon="6.25037">
        <ele>1238</ele>
        <time>2018-06-23T18:55:28Z</time>
      </trkpt>
      <trkpt lat="44.50159" lon="6.25044">
        <ele>1239</ele>
        <time>2018-06-23T18:55:33Z</time>
      </trkpt>
      <trkpt lat="44.50159" lon="6.25052">
        <ele>1240</ele>
        <time>2018-06-23T18:55:38Z</time>
      </trkpt>
      <trkpt lat="44.50159" lon="6.25059">
        <ele>1241</ele>
        <time>2018-06-23T18:55:43Z</time>
      </trkpt>
      <trkpt lat="44.50159" lon="6.25067">
        <ele>1243</ele>
        <time>2018-06-23T18:55:48Z</time>
      </trkpt>
      <trkpt lat="44.50159" lon="6.25075">
        <ele>1244</ele>
        <time>2018-06-23T18:55:53Z</time>
      </trkpt>
      <trkpt lat="44.50161" lon="6.25082">
        <ele>1246</ele>
        <time>2018-06-23T18:55:58Z</time>
      </trkpt>
      <trkpt lat="44.50162" lon="6.25089">
        <ele>1247</ele>
        <time>2018-06-23T18:56:03Z</time>
      </trkpt>
      <trkpt lat="44.50164" lon="6.25096">
        <ele>1249</ele>
        <time>2018-06-23T18:56:08Z</time>
      </trkpt>
      <trkpt lat="44.50168" lon="6.25101">
        <ele>1251</ele>
        <time>2018-06-23T18:56:13Z</time>
      </trkpt>
      <trkpt lat="44.50171" lon="6.25108">
        <ele>1252</ele>
        <time>2018-06-23T18:56:18Z</time>
      </trkpt>
      <trkpt lat="44.50173" lon="6.25115">
        <ele>1254</ele>
        <time>2018-06-23T18:56:23Z</time>
      </trkpt>
      <trkpt lat="44.50174" lon="6.25124">
        <ele>1256</ele>
        <time>2018-06-23T18:56:28Z</time>
      </trkpt>
      <trkpt lat="44.50171" lon="6.25131">
        <ele>1257</ele>
        <time>2018-06-23T18:56:33Z</time>
      </trkpt>
      <trkpt lat="44.50168" lon="6.25138">
        <ele>1257</ele>
        <time>2018-06-23T18:56:38Z</time>
      </trkpt>
      <trkpt lat="44.50165" lon="6.25143">
        <ele>1257</ele>
        <time>2018-06-23T18:56:43Z</time>
      </trkpt>
      <trkpt lat="44.50161" lon="6.25148">
        <ele>1257</ele>
        <time>2018-06-23T18:56:48Z</time>
      </trkpt>
      <trkpt lat="44.50159" lon="6.25154">
        <ele>1258</ele>
        <time>2018-06-23T18:56:53Z</time>
      </trkpt>
      <trkpt lat="44.50155" lon="6.2516">
        <ele>1258</ele>
        <time>2018-06-23T18:56:58Z</time>
      </trkpt>
      <trkpt lat="44.50152" lon="6.25164">
        <ele>1258</ele>
        <time>2018-06-23T18:57:03Z</time>
      </trkpt>
      <trkpt lat="44.50148" lon="6.25168">
        <ele>1258</ele>
        <time>2018-06-23T18:57:08Z</time>
      </trkpt>
      <trkpt lat="44.50143" lon="6.25171">
        <ele>1257</ele>
        <time>2018-06-23T18:57:13Z</time>
      </trkpt>
      <trkpt lat="44.50138" lon="6.25174">
        <ele>1256</ele>
        <time>2018-06-23T18:57:18Z</time>
      </trkpt>
      <trkpt lat="44.50133" lon="6.25177">
        <ele>1256</ele>
        <time>2018-06-23T18:57:23Z</time>
      </trkpt>
      <trkpt lat="44.5013" lon="6.25184">
        <ele>1256</ele>
        <time>2018-06-23T18:57:28Z</time>
      </trkpt>
      <trkpt lat="44.50129" lon="6.25191">
        <ele>1257</ele>
        <time>2018-06-23T18:57:33Z</time>
      </trkpt>
      <trkpt lat="44.50131" lon="6.25198">
        <ele>1259</ele>
        <time>2018-06-23T18:57:38Z</time>
      </trkpt>
      <trkpt lat="44.50134" lon="6.25203">
        <ele>1261</ele>
        <time>2018-06-23T18:57:43Z</time>
      </trkpt>
      <trkpt lat="44.50138" lon="6.25209">
        <ele>1263</ele>
        <time>2018-06-23T18:57:48Z</time>
      </trkpt>
      <trkpt lat="44.5014" lon="6.25213">
        <ele>1264</ele>
        <time>2018-06-23T18:57:53Z</time>
      </trkpt>
      <trkpt lat="44.50142" lon="6.25217">
        <ele>1265</ele>
        <time>2018-06-23T18:57:58Z</time>
      </trkpt>
      <trkpt lat="44.50144" lon="6.25222">
        <ele>1267</ele>
        <time>2018-06-23T18:58:03Z</time>
      </trkpt>
      <trkpt lat="44.50147" lon="6.25227">
        <ele>1268</ele>
        <time>2018-06-23T18:58:08Z</time>
      </trkpt>
      <trkpt lat="44.50149" lon="6.25232">
        <ele>1270</ele>
        <time>2018-06-23T18:58:13Z</time>
      </trkpt>
      <trkpt lat="44.50151" lon="6.25237">
        <ele>1271</ele>
        <time>2018-06-23T18:58:18Z</time>
      </trkpt>
      <trkpt lat="44.50153" lon="6.25242">
        <ele>1273</ele>
        <time>2018-06-23T18:58:23Z</time>
      </trkpt>
      <trkpt lat="44.50155" lon="6.25248">
        <ele>1274</ele>
        <time>2018-06-23T18:58:28Z</time>
      </trkpt>
      <trkpt lat="44.50158" lon="6.25253">
        <ele>1276</ele>
        <time>2018-06-23T18:58:33Z</time>
      </trkpt>
      <trkpt lat="44.5016" lon="6.2526">
        <ele>1278</ele>
        <time>2018-06-23T18:58:38Z</time>
      </trkpt>
      <trkpt lat="44.50158" lon="6.25265">
        <ele>1278</ele>
        <time>2018-06-23T18:58:43Z</time>
      </trkpt>
      <trkpt lat="44.50157" lon="6.25272">
        <ele>1278</ele>
        <time>2018-06-23T18:58:48Z</time>
      </trkpt>
      <trkpt lat="44.50155" lon="6.25274">
        <ele>1278</ele>
        <time>2018-06-23T18:58:53Z</time>
      </trkpt>
      <trkpt lat="44.50151" lon="6.25276">
        <ele>1277</ele>
        <time>2018-06-23T18:58:58Z</time>
      </trkpt>
      <trkpt lat="44.50147" lon="6.25278">
        <ele>1277</ele>
        <time>2018-06-23T18:59:03Z</time>
      </trkpt>
      <trkpt lat="44.50142" lon="6.25276">
        <ele>1275</ele>
        <time>2018-06-23T18:59:08Z</time>
      </trkpt>
      <trkpt lat="44.50138" lon="6.25274">
        <ele>1274</ele>
        <time>2018-06-23T18:59:13Z</time>
      </trkpt>
      <trkpt lat="44.50134" lon="6.25272">
        <ele>1273</ele>
        <time>2018-06-23T18:59:18Z</time>
      </trkpt>
      <trkpt lat="44.5013" lon="6.2527">
        <ele>1272</ele>
        <time>2018-06-23T18:59:23Z</time>
      </trkpt>
      <trkpt lat="44.50125" lon="6.25272">
        <ele>1271</ele>
        <time>2018-06-23T18:59:28Z</time>
      </trkpt>
      <trkpt lat="44.50122" lon="6.25277">
        <ele>1271</ele>
        <time>2018-06-23T18:59:33Z</time>
      </trkpt>
      <trkpt lat="44.5012" lon="6.25284">
        <ele>1271</ele>
        <time>2018-06-23T18:59:38Z</time>
      </trkpt>
      <trkpt lat="44.50118" lon="6.25292">
        <ele>1272</ele>
        <time>2018-06-23T18:59:43Z</time>
      </trkpt>
      <trkpt lat="44.50117" lon="6.253">
        <ele>1273</ele>
        <time>2018-06-23T18:59:48Z</time>
      </trkpt>
      <trkpt lat="44.50114" lon="6.25307">
        <ele>1274</ele>
        <time>2018-06-23T18:59:53Z</time>
      </trkpt>
      <trkpt lat="44.5011" lon="6.25314">
        <ele>1274</ele>
        <time>2018-06-23T18:59:58Z</time>
      </trkpt>
      <trkpt lat="44.50106" lon="6.2532">
        <ele>1274</ele>
        <time>2018-06-23T19:00:03Z</time>
      </trkpt>
      <trkpt lat="44.50104" lon="6.25327">
        <ele>1275</ele>
        <time>2018-06-23T19:00:08Z</time>
      </trkpt>
      <trkpt lat="44.501" lon="6.25334">
        <ele>1275</ele>
        <time>2018-06-23T19:00:13Z</time>
      </trkpt>
      <trkpt lat="44.50098" lon="6.25342">
        <ele>1275</ele>
        <time>2018-06-23T19:00:18Z</time>
      </trkpt>
      <trkpt lat="44.50095" lon="6.25349">
        <ele>1275</ele>
        <time>2018-06-23T19:00:23Z</time>
      </trkpt>
      <trkpt lat="44.50092" lon="6.25356">
        <ele>1274</ele>
        <time>2018-06-23T19:00:28Z</time>
      </trkpt>
      <trkpt lat="44.50088" lon="6.25362">
        <ele>1274</ele>
        <time>2018-06-23T19:00:33Z</time>
      </trkpt>
      <trkpt lat="44.50086" lon="6.25369">
        <ele>1274</ele>
        <time>2018-06-23T19:00:38Z</time>
      </trkpt>
      <trkpt lat="44.50084" lon="6.25376">
        <ele>1274</ele>
        <time>2018-06-23T19:00:43Z</time>
      </trkpt>
      <trkpt lat="44.50083" lon="6.25383">
        <ele>1274</ele>
        <time>2018-06-23T19:00:48Z</time>
      </trkpt>
      <trkpt lat="44.50083" lon="6.25391">
        <ele>1274</ele>
        <time>2018-06-23T19:00:53Z</time>
      </trkpt>
      <trkpt lat="44.50085" lon="6.25398">
        <ele>1275</ele>
        <time>2018-06-23T19:00:58Z</time>
      </trkpt>
      <trkpt lat="44.50088" lon="6.25406">
        <ele>1274</ele>
        <time>2018-06-23T19:01:03Z</time>
      </trkpt>
      <trkpt lat="44.50091" lon="6.25412">
        <ele>1274</ele>
        <time>2018-06-23T19:01:08Z</time>
      </trkpt>
      <trkpt lat="44.50093" lon="6.25418">
        <ele>1274</ele>
        <time>2018-06-23T19:01:13Z</time>
      </trkpt>
      <trkpt lat="44.50095" lon="6.25423">
        <ele>1273</ele>
        <time>2018-06-23T19:01:18Z</time>
      </trkpt>
      <trkpt lat="44.50097" lon="6.25426">
        <ele>1273</ele>
        <time>2018-06-23T19:01:23Z</time>
      </trkpt>
      <trkpt lat="44.50099" lon="6.25431">
        <ele>1273</ele>
        <time>2018-06-23T19:01:28Z</time>
      </trkpt>
      <trkpt lat="44.50101" lon="6.25435">
        <ele>1273</ele>
        <time>2018-06-23T19:01:33Z</time>
      </trkpt>
      <trkpt lat="44.50103" lon="6.25436">
        <ele>1274</ele>
        <time>2018-06-23T19:01:38Z</time>
      </trkpt>
      <trkpt lat="44.50106" lon="6.25442">
        <ele>1274</ele>
        <time>2018-06-23T19:01:43Z</time>
      </trkpt>
      <trkpt lat="44.50109" lon="6.25448">
        <ele>1274</ele>
        <time>2018-06-23T19:01:48Z</time>
      </trkpt>
      <trkpt lat="44.50112" lon="6.25455">
        <ele>1273</ele>
        <time>2018-06-23T19:01:53Z</time>
      </trkpt>
      <trkpt lat="44.50117" lon="6.25459">
        <ele>1274</ele>
        <time>2018-06-23T19:01:58Z</time>
      </trkpt>
      <trkpt lat="44.50119" lon="6.25466">
        <ele>1274</ele>
        <time>2018-06-23T19:02:03Z</time>
      </trkpt>
      <trkpt lat="44.50122" lon="6.25472">
        <ele>1273</ele>
        <time>2018-06-23T19:02:08Z</time>
      </trkpt>
      <trkpt lat="44.50126" lon="6.25478">
        <ele>1273</ele>
        <time>2018-06-23T19:02:13Z</time>
      </trkpt>
      <trkpt lat="44.50131" lon="6.25483">
        <ele>1273</ele>
        <time>2018-06-23T19:02:18Z</time>
      </trkpt>
      <trkpt lat="44.50133" lon="6.25491">
        <ele>1272</ele>
        <time>2018-06-23T19:02:23Z</time>
      </trkpt>
      <trkpt lat="44.50136" lon="6.25498">
        <ele>1271</ele>
        <time>2018-06-23T19:02:28Z</time>
      </trkpt>
      <trkpt lat="44.5014" lon="6.25503">
        <ele>1271</ele>
        <time>2018-06-23T19:02:33Z</time>
      </trkpt>
      <trkpt lat="44.50146" lon="6.25509">
        <ele>1271</ele>
        <time>2018-06-23T19:02:38Z</time>
      </trkpt>
      <trkpt lat="44.5015" lon="6.25512">
        <ele>1272</ele>
        <time>2018-06-23T19:02:43Z</time>
      </trkpt>
      <trkpt lat="44.50154" lon="6.25518">
        <ele>1271</ele>
        <time>2018-06-23T19:02:48Z</time>
      </trkpt>
      <trkpt lat="44.5016" lon="6.25521">
        <ele>1272</ele>
        <time>2018-06-23T19:02:53Z</time>
      </trkpt>
      <trkpt lat="44.50166" lon="6.25524">
        <ele>1273</ele>
        <time>2018-06-23T19:02:58Z</time>
      </trkpt>
      <trkpt lat="44.50171" lon="6.25527">
        <ele>1274</ele>
        <time>2018-06-23T19:03:03Z</time>
      </trkpt>
      <trkpt lat="44.50174" lon="6.2553">
        <ele>1274</ele>
        <time>2018-06-23T19:03:08Z</time>
      </trkpt>
      <trkpt lat="44.50174" lon="6.25535">
        <ele>1273</ele>
        <time>2018-06-23T19:03:13Z</time>
      </trkpt>
      <trkpt lat="44.50175" lon="6.25543">
        <ele>1271</ele>
        <time>2018-06-23T19:03:18Z</time>
      </trkpt>
      <trkpt lat="44.50176" lon="6.25549">
        <ele>1271</ele>
        <time>2018-06-23T19:03:23Z</time>
      </trkpt>
      <trkpt lat="44.50181" lon="6.25551">
        <ele>1272</ele>
        <time>2018-06-23T19:03:28Z</time>
      </trkpt>
      <trkpt lat="44.50186" lon="6.25551">
        <ele>1273</ele>
        <time>2018-06-23T19:03:33Z</time>
      </trkpt>
      <trkpt lat="44.5019" lon="6.25555">
        <ele>1274</ele>
        <time>2018-06-23T19:03:38Z</time>
      </trkpt>
      <trkpt lat="44.50188" lon="6.25561">
        <ele>1272</ele>
        <time>2018-06-23T19:03:43Z</time>
      </trkpt>
      <trkpt lat="44.50185" lon="6.25568">
        <ele>1270</ele>
        <time>2018-06-23T19:03:48Z</time>
      </trkpt>
      <trkpt lat="44.50182" lon="6.25575">
        <ele>1268</ele>
        <time>2018-06-23T19:03:53Z</time>
      </trkpt>
      <trkpt lat="44.50179" lon="6.25581">
        <ele>1266</ele>
        <time>2018-06-23T19:03:58Z</time>
      </trkpt>
      <trkpt lat="44.50175" lon="6.25584">
        <ele>1264</ele>
        <time>2018-06-23T19:04:03Z</time>
      </trkpt>
      <trkpt lat="44.5017" lon="6.25587">
        <ele>1262</ele>
        <time>2018-06-23T19:04:08Z</time>
      </trkpt>
      <trkpt lat="44.50166" lon="6.25592">
        <ele>1260</ele>
        <time>2018-06-23T19:04:13Z</time>
      </trkpt>
      <trkpt lat="44.50162" lon="6.25596">
        <ele>1257</ele>
        <time>2018-06-23T19:04:18Z</time>
      </trkpt>
      <trkpt lat="44.50158" lon="6.25603">
        <ele>1255</ele>
        <time>2018-06-23T19:04:23Z</time>
      </trkpt>
      <trkpt lat="44.50158" lon="6.25611">
        <ele>1255</ele>
        <time>2018-06-23T19:04:28Z</time>
      </trkpt>
      <trkpt lat="44.50159" lon="6.25616">
        <ele>1256</ele>
        <time>2018-06-23T19:04:33Z</time>
      </trkpt>
      <trkpt lat="44.50158" lon="6.25622">
        <ele>1256</ele>
        <time>2018-06-23T19:04:38Z</time>
      </trkpt>
      <trkpt lat="44.50155" lon="6.25626">
        <ele>1256</ele>
        <time>2018-06-23T19:04:43Z</time>
      </trkpt>
      <trkpt lat="44.5015" lon="6.25629">
        <ele>1254</ele>
        <time>2018-06-23T19:04:48Z</time>
      </trkpt>
      <trkpt lat="44.50148" lon="6.25635">
        <ele>1254</ele>
        <time>2018-06-23T19:04:53Z</time>
      </trkpt>
      <trkpt lat="44.50147" lon="6.25642">
        <ele>1254</ele>
        <time>2018-06-23T19:04:58Z</time>
      </trkpt>
      <trkpt lat="44.50144" lon="6.25648">
        <ele>1254</ele>
        <time>2018-06-23T19:05:03Z</time>
      </trkpt>
      <trkpt lat="44.50142" lon="6.25656">
        <ele>1254</ele>
        <time>2018-06-23T19:05:08Z</time>
      </trkpt>
      <trkpt lat="44.50139" lon="6.25663">
        <ele>1254</ele>
        <time>2018-06-23T19:05:13Z</time>
      </trkpt>
      <trkpt lat="44.50137" lon="6.2567">
        <ele>1254</ele>
        <time>2018-06-23T19:05:18Z</time>
      </trkpt>
      <trkpt lat="44.50137" lon="6.25677">
        <ele>1255</ele>
        <time>2018-06-23T19:05:23Z</time>
      </trkpt>
      <trkpt lat="44.50138" lon="6.25683">
        <ele>1256</ele>
        <time>2018-06-23T19:05:28Z</time>
      </trkpt>
      <trkpt lat="44.50138" lon="6.25691">
        <ele>1257</ele>
        <time>2018-06-23T19:05:33Z</time>
      </trkpt>
      <trkpt lat="44.50136" lon="6.25695">
        <ele>1258</ele>
        <time>2018-06-23T19:05:38Z</time>
      </trkpt>
      <trkpt lat="44.50133" lon="6.25699">
        <ele>1258</ele>
        <time>2018-06-23T19:05:43Z</time>
      </trkpt>
      <trkpt lat="44.50132" lon="6.25704">
        <ele>1258</ele>
        <time>2018-06-23T19:05:48Z</time>
      </trkpt>
      <trkpt lat="44.50133" lon="6.25706">
        <ele>1259</ele>
        <time>2018-06-23T19:05:53Z</time>
      </trkpt>
      <trkpt lat="44.50129" lon="6.25711">
        <ele>1259</ele>
        <time>2018-06-23T19:05:58Z</time>
      </trkpt>
      <trkpt lat="44.50125" lon="6.25711">
        <ele>1258</ele>
        <time>2018-06-23T19:06:03Z</time>
      </trkpt>
      <trkpt lat="44.5012" lon="6.25708">
        <ele>1257</ele>
        <time>2018-06-23T19:06:08Z</time>
      </trkpt>
      <trkpt lat="44.50116" lon="6.25707">
        <ele>1256</ele>
        <time>2018-06-23T19:06:13Z</time>
      </trkpt>
      <trkpt lat="44.50112" lon="6.25706">
        <ele>1255</ele>
        <time>2018-06-23T19:06:18Z</time>
      </trkpt>
      <trkpt lat="44.50107" lon="6.25704">
        <ele>1254</ele>
        <time>2018-06-23T19:06:23Z</time>
      </trkpt>
      <trkpt lat="44.50103" lon="6.25699">
        <ele>1252</ele>
        <time>2018-06-23T19:06:28Z</time>
      </trkpt>
      <trkpt lat="44.50099" lon="6.25695">
        <ele>1250</ele>
        <time>2018-06-23T19:06:33Z</time>
      </trkpt>
      <trkpt lat="44.50095" lon="6.25692">
        <ele>1249</ele>
        <time>2018-06-23T19:06:38Z</time>
      </trkpt>
      <trkpt lat="44.5009" lon="6.25687">
        <ele>1247</ele>
        <time>2018-06-23T19:06:43Z</time>
      </trkpt>
      <trkpt lat="44.50086" lon="6.25682">
        <ele>1245</ele>
        <time>2018-06-23T19:06:48Z</time>
      </trkpt>
      <trkpt lat="44.5008" lon="6.25679">
        <ele>1243</ele>
        <time>2018-06-23T19:06:53Z</time>
      </trkpt>
      <trkpt lat="44.50077" lon="6.25673">
        <ele>1241</ele>
        <time>2018-06-23T19:06:58Z</time>
      </trkpt>
      <trkpt lat="44.50072" lon="6.25668">
        <ele>1240</ele>
        <time>2018-06-23T19:07:03Z</time>
      </trkpt>
      <trkpt lat="44.50068" lon="6.25664">
        <ele>1240</ele>
        <time>2018-06-23T19:07:08Z</time>
      </trkpt>
      <trkpt lat="44.50064" lon="6.25657">
        <ele>1239</ele>
        <time>2018-06-23T19:07:13Z</time>
      </trkpt>
      <trkpt lat="44.50061" lon="6.25651">
        <ele>1238</ele>
        <time>2018-06-23T19:07:18Z</time>
      </trkpt>
      <trkpt lat="44.50056" lon="6.25646">
        <ele>1237</ele>
        <time>2018-06-23T19:07:23Z</time>
      </trkpt>
      <trkpt lat="44.50051" lon="6.25641">
        <ele>1236</ele>
        <time>2018-06-23T19:07:28Z</time>
      </trkpt>
      <trkpt lat="44.50046" lon="6.25637">
        <ele>1235</ele>
        <time>2018-06-23T19:07:33Z</time>
      </trkpt>
      <trkpt lat="44.50041" lon="6.25633">
        <ele>1234</ele>
        <time>2018-06-23T19:07:38Z</time>
      </trkpt>
      <trkpt lat="44.50037" lon="6.2563">
        <ele>1233</ele>
        <time>2018-06-23T19:07:43Z</time>
      </trkpt>
      <trkpt lat="44.50032" lon="6.25632">
        <ele>1233</ele>
        <time>2018-06-23T19:07:48Z</time>
      </trkpt>
      <trkpt lat="44.50028" lon="6.25634">
        <ele>1233</ele>
        <time>2018-06-23T19:07:53Z</time>
      </trkpt>
      <trkpt lat="44.50023" lon="6.25633">
        <ele>1233</ele>
        <time>2018-06-23T19:07:58Z</time>
      </trkpt>
      <trkpt lat="44.50018" lon="6.25636">
        <ele>1233</ele>
        <time>2018-06-23T19:08:03Z</time>
      </trkpt>
      <trkpt lat="44.50013" lon="6.2564">
        <ele>1234</ele>
        <time>2018-06-23T19:08:08Z</time>
      </trkpt>
      <trkpt lat="44.50008" lon="6.25643">
        <ele>1233</ele>
        <time>2018-06-23T19:08:13Z</time>
      </trkpt>
      <trkpt lat="44.50003" lon="6.25645">
        <ele>1233</ele>
        <time>2018-06-23T19:08:18Z</time>
      </trkpt>
      <trkpt lat="44.49999" lon="6.25648">
        <ele>1233</ele>
        <time>2018-06-23T19:08:23Z</time>
      </trkpt>
      <trkpt lat="44.49997" lon="6.25654">
        <ele>1234</ele>
        <time>2018-06-23T19:08:28Z</time>
      </trkpt>
      <trkpt lat="44.49993" lon="6.25657">
        <ele>1234</ele>
        <time>2018-06-23T19:08:33Z</time>
      </trkpt>
      <trkpt lat="44.4999" lon="6.25655">
        <ele>1233</ele>
        <time>2018-06-23T19:08:38Z</time>
      </trkpt>
      <trkpt lat="44.49985" lon="6.25654">
        <ele>1232</ele>
        <time>2018-06-23T19:08:43Z</time>
      </trkpt>
      <trkpt lat="44.4998" lon="6.25654">
        <ele>1231</ele>
        <time>2018-06-23T19:08:48Z</time>
      </trkpt>
      <trkpt lat="44.49976" lon="6.25655">
        <ele>1231</ele>
        <time>2018-06-23T19:08:53Z</time>
      </trkpt>
      <trkpt lat="44.49974" lon="6.25657">
        <ele>1231</ele>
        <time>2018-06-23T19:08:58Z</time>
      </trkpt>
      <trkpt lat="44.49968" lon="6.25659">
        <ele>1231</ele>
        <time>2018-06-23T19:09:03Z</time>
      </trkpt>
      <trkpt lat="44.49962" lon="6.25659">
        <ele>1230</ele>
        <time>2018-06-23T19:09:08Z</time>
      </trkpt>
      <trkpt lat="44.49956" lon="6.25659">
        <ele>1229</ele>
        <time>2018-06-23T19:09:13Z</time>
      </trkpt>
      <trkpt lat="44.4995" lon="6.25659">
        <ele>1228</ele>
        <time>2018-06-23T19:09:18Z</time>
      </trkpt>
      <trkpt lat="44.49944" lon="6.25659">
        <ele>1227</ele>
        <time>2018-06-23T19:09:23Z</time>
      </trkpt>
      <trkpt lat="44.49938" lon="6.25663">
        <ele>1227</ele>
        <time>2018-06-23T19:09:28Z</time>
      </trkpt>
      <trkpt lat="44.49932" lon="6.25666">
        <ele>1228</ele>
        <time>2018-06-23T19:09:33Z</time>
      </trkpt>
      <trkpt lat="44.49926" lon="6.25671">
        <ele>1228</ele>
        <time>2018-06-23T19:09:38Z</time>
      </trkpt>
      <trkpt lat="44.49921" lon="6.25677">
        <ele>1229</ele>
        <time>2018-06-23T19:09:43Z</time>
      </trkpt>
      <trkpt lat="44.49917" lon="6.25684">
        <ele>1229</ele>
        <time>2018-06-23T19:09:48Z</time>
      </trkpt>
      <trkpt lat="44.49914" lon="6.25692">
        <ele>1230</ele>
        <time>2018-06-23T19:09:53Z</time>
      </trkpt>
      <trkpt lat="44.49911" lon="6.25697">
        <ele>1231</ele>
        <time>2018-06-23T19:09:58Z</time>
      </trkpt>
      <trkpt lat="44.49906" lon="6.25694">
        <ele>1230</ele>
        <time>2018-06-23T19:10:03Z</time>
      </trkpt>
      <trkpt lat="44.49903" lon="6.25689">
        <ele>1229</ele>
        <time>2018-06-23T19:10:08Z</time>
      </trkpt>
      <trkpt lat="44.49898" lon="6.25685">
        <ele>1228</ele>
        <time>2018-06-23T19:10:13Z</time>
      </trkpt>
      <trkpt lat="44.49894" lon="6.25679">
        <ele>1227</ele>
        <time>2018-06-23T19:10:18Z</time>
      </trkpt>
      <trkpt lat="44.49889" lon="6.25673">
        <ele>1226</ele>
        <time>2018-06-23T19:10:23Z</time>
      </trkpt>
      <trkpt lat="44.49885" lon="6.25667">
        <ele>1225</ele>
        <time>2018-06-23T19:10:28Z</time>
      </trkpt>
      <trkpt lat="44.49882" lon="6.25662">
        <ele>1224</ele>
        <time>2018-06-23T19:10:33Z</time>
      </trkpt>
      <trkpt lat="44.49878" lon="6.25657">
        <ele>1223</ele>
        <time>2018-06-23T19:10:38Z</time>
      </trkpt>
      <trkpt lat="44.49874" lon="6.25653">
        <ele>1222</ele>
        <time>2018-06-23T19:10:43Z</time>
      </trkpt>
      <trkpt lat="44.49869" lon="6.25649">
        <ele>1222</ele>
        <time>2018-06-23T19:10:48Z</time>
      </trkpt>
      <trkpt lat="44.49864" lon="6.25645">
        <ele>1222</ele>
        <time>2018-06-23T19:10:53Z</time>
      </trkpt>
      <trkpt lat="44.4986" lon="6.25643">
        <ele>1222</ele>
        <time>2018-06-23T19:10:58Z</time>
      </trkpt>
      <trkpt lat="44.49855" lon="6.25639">
        <ele>1222</ele>
        <time>2018-06-23T19:11:03Z</time>
      </trkpt>
      <trkpt lat="44.4985" lon="6.25634">
        <ele>1221</ele>
        <time>2018-06-23T19:11:08Z</time>
      </trkpt>
      <trkpt lat="44.49846" lon="6.25629">
        <ele>1221</ele>
        <time>2018-06-23T19:11:13Z</time>
      </trkpt>
      <trkpt lat="44.49842" lon="6.25622">
        <ele>1220</ele>
        <time>2018-06-23T19:11:18Z</time>
      </trkpt>
      <trkpt lat="44.49836" lon="6.25617">
        <ele>1220</ele>
        <time>2018-06-23T19:11:23Z</time>
      </trkpt>
      <trkpt lat="44.49831" lon="6.25612">
        <ele>1219</ele>
        <time>2018-06-23T19:11:28Z</time>
      </trkpt>
      <trkpt lat="44.49827" lon="6.25606">
        <ele>1219</ele>
        <time>2018-06-23T19:11:33Z</time>
      </trkpt>
      <trkpt lat="44.4982" lon="6.25601">
        <ele>1218</ele>
        <time>2018-06-23T19:11:38Z</time>
      </trkpt>
      <trkpt lat="44.49815" lon="6.25594">
        <ele>1218</ele>
        <time>2018-06-23T19:11:43Z</time>
      </trkpt>
      <trkpt lat="44.49809" lon="6.25588">
        <ele>1217</ele>
        <time>2018-06-23T19:11:48Z</time>
      </trkpt>
      <trkpt lat="44.49805" lon="6.25582">
        <ele>1216</ele>
        <time>2018-06-23T19:11:53Z</time>
      </trkpt>
      <trkpt lat="44.498" lon="6.25575">
        <ele>1216</ele>
        <time>2018-06-23T19:11:58Z</time>
      </trkpt>
      <trkpt lat="44.49796" lon="6.2557">
        <ele>1216</ele>
        <time>2018-06-23T19:12:03Z</time>
      </trkpt>
      <trkpt lat="44.49792" lon="6.25564">
        <ele>1215</ele>
        <time>2018-06-23T19:12:08Z</time>
      </trkpt>
      <trkpt lat="44.49789" lon="6.25557">
        <ele>1214</ele>
        <time>2018-06-23T19:12:13Z</time>
      </trkpt>
      <trkpt lat="44.49784" lon="6.25551">
        <ele>1214</ele>
        <time>2018-06-23T19:12:18Z</time>
      </trkpt>
      <trkpt lat="44.4978" lon="6.25544">
        <ele>1213</ele>
        <time>2018-06-23T19:12:23Z</time>
      </trkpt>
      <trkpt lat="44.49776" lon="6.2554">
        <ele>1213</ele>
        <time>2018-06-23T19:12:28Z</time>
      </trkpt>
      <trkpt lat="44.49772" lon="6.25535">
        <ele>1213</ele>
        <time>2018-06-23T19:12:33Z</time>
      </trkpt>
      <trkpt lat="44.49764" lon="6.25526">
        <ele>1213</ele>
        <time>2018-06-23T19:12:38Z</time>
      </trkpt>
      <trkpt lat="44.49759" lon="6.25521">
        <ele>1213</ele>
        <time>2018-06-23T19:12:43Z</time>
      </trkpt>
      <trkpt lat="44.49754" lon="6.25514">
        <ele>1212</ele>
        <time>2018-06-23T19:12:48Z</time>
      </trkpt>
      <trkpt lat="44.49751" lon="6.25509">
        <ele>1211</ele>
        <time>2018-06-23T19:12:53Z</time>
      </trkpt>
      <trkpt lat="44.49746" lon="6.25504">
        <ele>1211</ele>
        <time>2018-06-23T19:12:58Z</time>
      </trkpt>
      <trkpt lat="44.49742" lon="6.25498">
        <ele>1210</ele>
        <time>2018-06-23T19:13:03Z</time>
      </trkpt>
      <trkpt lat="44.49738" lon="6.25491">
        <ele>1209</ele>
        <time>2018-06-23T19:13:08Z</time>
      </trkpt>
      <trkpt lat="44.49736" lon="6.25486">
        <ele>1209</ele>
        <time>2018-06-23T19:13:13Z</time>
      </trkpt>
      <trkpt lat="44.49732" lon="6.25479">
        <ele>1208</ele>
        <time>2018-06-23T19:13:18Z</time>
      </trkpt>
      <trkpt lat="44.49729" lon="6.25474">
        <ele>1207</ele>
        <time>2018-06-23T19:13:23Z</time>
      </trkpt>
      <trkpt lat="44.49724" lon="6.25468">
        <ele>1207</ele>
        <time>2018-06-23T19:13:28Z</time>
      </trkpt>
      <trkpt lat="44.49719" lon="6.25464">
        <ele>1207</ele>
        <time>2018-06-23T19:13:33Z</time>
      </trkpt>
      <trkpt lat="44.49713" lon="6.25458">
        <ele>1207</ele>
        <time>2018-06-23T19:13:38Z</time>
      </trkpt>
      <trkpt lat="44.49707" lon="6.25453">
        <ele>1208</ele>
        <time>2018-06-23T19:13:43Z</time>
      </trkpt>
      <trkpt lat="44.49699" lon="6.25447">
        <ele>1208</ele>
        <time>2018-06-23T19:13:48Z</time>
      </trkpt>
      <trkpt lat="44.49693" lon="6.25443">
        <ele>1209</ele>
        <time>2018-06-23T19:13:53Z</time>
      </trkpt>
      <trkpt lat="44.49689" lon="6.2544">
        <ele>1209</ele>
        <time>2018-06-23T19:13:58Z</time>
      </trkpt>
      <trkpt lat="44.49685" lon="6.25432">
        <ele>1208</ele>
        <time>2018-06-23T19:14:03Z</time>
      </trkpt>
      <trkpt lat="44.4968" lon="6.25428">
        <ele>1209</ele>
        <time>2018-06-23T19:14:08Z</time>
      </trkpt>
      <trkpt lat="44.49674" lon="6.25422">
        <ele>1209</ele>
        <time>2018-06-23T19:14:13Z</time>
      </trkpt>
      <trkpt lat="44.49668" lon="6.25419">
        <ele>1210</ele>
        <time>2018-06-23T19:14:18Z</time>
      </trkpt>
      <trkpt lat="44.49661" lon="6.25415">
        <ele>1211</ele>
        <time>2018-06-23T19:14:23Z</time>
      </trkpt>
      <trkpt lat="44.49656" lon="6.25412">
        <ele>1211</ele>
        <time>2018-06-23T19:14:28Z</time>
      </trkpt>
      <trkpt lat="44.49652" lon="6.2541">
        <ele>1212</ele>
        <time>2018-06-23T19:14:33Z</time>
      </trkpt>
      <trkpt lat="44.49648" lon="6.25406">
        <ele>1212</ele>
        <time>2018-06-23T19:14:38Z</time>
      </trkpt>
      <trkpt lat="44.49644" lon="6.25401">
        <ele>1212</ele>
        <time>2018-06-23T19:14:43Z</time>
      </trkpt>
      <trkpt lat="44.49641" lon="6.25397">
        <ele>1212</ele>
        <time>2018-06-23T19:14:48Z</time>
      </trkpt>
      <trkpt lat="44.49636" lon="6.25393">
        <ele>1212</ele>
        <time>2018-06-23T19:14:53Z</time>
      </trkpt>
      <trkpt lat="44.49629" lon="6.25387">
        <ele>1213</ele>
        <time>2018-06-23T19:14:58Z</time>
      </trkpt>
      <trkpt lat="44.49624" lon="6.25385">
        <ele>1215</ele>
        <time>2018-06-23T19:15:03Z</time>
      </trkpt>
      <trkpt lat="44.49623" lon="6.25383">
        <ele>1215</ele>
        <time>2018-06-23T19:15:08Z</time>
      </trkpt>
      <trkpt lat="44.49619" lon="6.25382">
        <ele>1216</ele>
        <time>2018-06-23T19:15:13Z</time>
      </trkpt>
      <trkpt lat="44.49616" lon="6.25379">
        <ele>1216</ele>
        <time>2018-06-23T19:15:18Z</time>
      </trkpt>
      <trkpt lat="44.4961" lon="6.25374">
        <ele>1217</ele>
        <time>2018-06-23T19:15:23Z</time>
      </trkpt>
      <trkpt lat="44.49604" lon="6.25371">
        <ele>1219</ele>
        <time>2018-06-23T19:15:28Z</time>
      </trkpt>
      <trkpt lat="44.49598" lon="6.25371">
        <ele>1221</ele>
        <time>2018-06-23T19:15:33Z</time>
      </trkpt>
      <trkpt lat="44.49593" lon="6.25373">
        <ele>1223</ele>
        <time>2018-06-23T19:15:38Z</time>
      </trkpt>
      <trkpt lat="44.49588" lon="6.25376">
        <ele>1225</ele>
        <time>2018-06-23T19:15:43Z</time>
      </trkpt>
      <trkpt lat="44.49582" lon="6.25375">
        <ele>1227</ele>
        <time>2018-06-23T19:15:48Z</time>
      </trkpt>
      <trkpt lat="44.49579" lon="6.25376">
        <ele>1228</ele>
        <time>2018-06-23T19:15:53Z</time>
      </trkpt>
      <trkpt lat="44.49579" lon="6.25377">
        <ele>1228</ele>
        <time>2018-06-23T19:15:58Z</time>
      </trkpt>
      <trkpt lat="44.49575" lon="6.25373">
        <ele>1229</ele>
        <time>2018-06-23T19:16:03Z</time>
      </trkpt>
      <trkpt lat="44.49571" lon="6.25368">
        <ele>1230</ele>
        <time>2018-06-23T19:16:08Z</time>
      </trkpt>
      <trkpt lat="44.49568" lon="6.25363">
        <ele>1231</ele>
        <time>2018-06-23T19:16:13Z</time>
      </trkpt>
      <trkpt lat="44.49567" lon="6.25357">
        <ele>1231</ele>
        <time>2018-06-23T19:16:18Z</time>
      </trkpt>
      <trkpt lat="44.49568" lon="6.25351">
        <ele>1230</ele>
        <time>2018-06-23T19:16:23Z</time>
      </trkpt>
      <trkpt lat="44.49569" lon="6.25345">
        <ele>1229</ele>
        <time>2018-06-23T19:16:28Z</time>
      </trkpt>
      <trkpt lat="44.49568" lon="6.2534">
        <ele>1229</ele>
        <time>2018-06-23T19:16:33Z</time>
      </trkpt>
      <trkpt lat="44.49568" lon="6.25333">
        <ele>1229</ele>
        <time>2018-06-23T19:16:38Z</time>
      </trkpt>
      <trkpt lat="44.49568" lon="6.25328">
        <ele>1228</ele>
        <time>2018-06-23T19:16:43Z</time>
      </trkpt>
      <trkpt lat="44.49569" lon="6.25324">
        <ele>1227</ele>
        <time>2018-06-23T19:16:48Z</time>
      </trkpt>
      <trkpt lat="44.49569" lon="6.25318">
        <ele>1226</ele>
        <time>2018-06-23T19:16:53Z</time>
      </trkpt>
      <trkpt lat="44.49567" lon="6.25313">
        <ele>1227</ele>
        <time>2018-06-23T19:16:58Z</time>
      </trkpt>
      <trkpt lat="44.49565" lon="6.25307">
        <ele>1227</ele>
        <time>2018-06-23T19:17:03Z</time>
      </trkpt>
      <trkpt lat="44.49563" lon="6.25301">
        <ele>1227</ele>
        <time>2018-06-23T19:17:08Z</time>
      </trkpt>
      <trkpt lat="44.4956" lon="6.25294">
        <ele>1227</ele>
        <time>2018-06-23T19:17:13Z</time>
      </trkpt>
      <trkpt lat="44.49558" lon="6.25288">
        <ele>1227</ele>
        <time>2018-06-23T19:17:18Z</time>
      </trkpt>
      <trkpt lat="44.49557" lon="6.25283">
        <ele>1227</ele>
        <time>2018-06-23T19:17:23Z</time>
      </trkpt>
      <trkpt lat="44.49556" lon="6.25276">
        <ele>1227</ele>
        <time>2018-06-23T19:17:28Z</time>
      </trkpt>
      <trkpt lat="44.49554" lon="6.25272">
        <ele>1227</ele>
        <time>2018-06-23T19:17:33Z</time>
      </trkpt>
      <trkpt lat="44.49552" lon="6.25266">
        <ele>1228</ele>
        <time>2018-06-23T19:17:38Z</time>
      </trkpt>
      <trkpt lat="44.4955" lon="6.25258">
        <ele>1228</ele>
        <time>2018-06-23T19:17:43Z</time>
      </trkpt>
      <trkpt lat="44.49549" lon="6.25251">
        <ele>1227</ele>
        <time>2018-06-23T19:17:48Z</time>
      </trkpt>
      <trkpt lat="44.49547" lon="6.25244">
        <ele>1228</ele>
        <time>2018-06-23T19:17:53Z</time>
      </trkpt>
      <trkpt lat="44.49545" lon="6.25237">
        <ele>1228</ele>
        <time>2018-06-23T19:17:58Z</time>
      </trkpt>
      <trkpt lat="44.49543" lon="6.25229">
        <ele>1228</ele>
        <time>2018-06-23T19:18:03Z</time>
      </trkpt>
      <trkpt lat="44.49541" lon="6.25223">
        <ele>1228</ele>
        <time>2018-06-23T19:18:08Z</time>
      </trkpt>
      <trkpt lat="44.49539" lon="6.25216">
        <ele>1229</ele>
        <time>2018-06-23T19:18:13Z</time>
      </trkpt>
      <trkpt lat="44.49536" lon="6.2521">
        <ele>1230</ele>
        <time>2018-06-23T19:18:18Z</time>
      </trkpt>
      <trkpt lat="44.49533" lon="6.25203">
        <ele>1230</ele>
        <time>2018-06-23T19:18:23Z</time>
      </trkpt>
      <trkpt lat="44.49531" lon="6.252">
        <ele>1231</ele>
        <time>2018-06-23T19:18:28Z</time>
      </trkpt>
      <trkpt lat="44.49527" lon="6.25195">
        <ele>1232</ele>
        <time>2018-06-23T19:18:33Z</time>
      </trkpt>
      <trkpt lat="44.49525" lon="6.25188">
        <ele>1232</ele>
        <time>2018-06-23T19:18:38Z</time>
      </trkpt>
      <trkpt lat="44.49524" lon="6.25181">
        <ele>1231</ele>
        <time>2018-06-23T19:18:43Z</time>
      </trkpt>
      <trkpt lat="44.49521" lon="6.25175">
        <ele>1231</ele>
        <time>2018-06-23T19:18:48Z</time>
      </trkpt>
      <trkpt lat="44.49517" lon="6.2517">
        <ele>1232</ele>
        <time>2018-06-23T19:18:53Z</time>
      </trkpt>
      <trkpt lat="44.49513" lon="6.25164">
        <ele>1232</ele>
        <time>2018-06-23T19:18:58Z</time>
      </trkpt>
      <trkpt lat="44.49509" lon="6.2516">
        <ele>1233</ele>
        <time>2018-06-23T19:19:03Z</time>
      </trkpt>
      <trkpt lat="44.49505" lon="6.25155">
        <ele>1233</ele>
        <time>2018-06-23T19:19:08Z</time>
      </trkpt>
      <trkpt lat="44.495" lon="6.25151">
        <ele>1234</ele>
        <time>2018-06-23T19:19:13Z</time>
      </trkpt>
      <trkpt lat="44.49495" lon="6.25148">
        <ele>1235</ele>
        <time>2018-06-23T19:19:18Z</time>
      </trkpt>
      <trkpt lat="44.4949" lon="6.25147">
        <ele>1236</ele>
        <time>2018-06-23T19:19:23Z</time>
      </trkpt>
      <trkpt lat="44.49485" lon="6.25148">
        <ele>1237</ele>
        <time>2018-06-23T19:19:28Z</time>
      </trkpt>
      <trkpt lat="44.4948" lon="6.25148">
        <ele>1238</ele>
        <time>2018-06-23T19:19:33Z</time>
      </trkpt>
      <trkpt lat="44.49475" lon="6.25146">
        <ele>1239</ele>
        <time>2018-06-23T19:19:38Z</time>
      </trkpt>
      <trkpt lat="44.49469" lon="6.25147">
        <ele>1240</ele>
        <time>2018-06-23T19:19:43Z</time>
      </trkpt>
      <trkpt lat="44.49464" lon="6.25145">
        <ele>1241</ele>
        <time>2018-06-23T19:19:48Z</time>
      </trkpt>
      <trkpt lat="44.49458" lon="6.25145">
        <ele>1241</ele>
        <time>2018-06-23T19:19:53Z</time>
      </trkpt>
      <trkpt lat="44.49452" lon="6.25144">
        <ele>1241</ele>
        <time>2018-06-23T19:19:58Z</time>
      </trkpt>
      <trkpt lat="44.49446" lon="6.25145">
        <ele>1240</ele>
        <time>2018-06-23T19:20:03Z</time>
      </trkpt>
      <trkpt lat="44.4944" lon="6.25145">
        <ele>1240</ele>
        <time>2018-06-23T19:20:08Z</time>
      </trkpt>
      <trkpt lat="44.49434" lon="6.25145">
        <ele>1240</ele>
        <time>2018-06-23T19:20:13Z</time>
      </trkpt>
      <trkpt lat="44.49428" lon="6.25144">
        <ele>1239</ele>
        <time>2018-06-23T19:20:18Z</time>
      </trkpt>
      <trkpt lat="44.49422" lon="6.25141">
        <ele>1239</ele>
        <time>2018-06-23T19:20:23Z</time>
      </trkpt>
      <trkpt lat="44.49416" lon="6.25139">
        <ele>1238</ele>
        <time>2018-06-23T19:20:28Z</time>
      </trkpt>
      <trkpt lat="44.4941" lon="6.25137">
        <ele>1237</ele>
        <time>2018-06-23T19:20:33Z</time>
      </trkpt>
      <trkpt lat="44.49404" lon="6.25134">
        <ele>1236</ele>
        <time>2018-06-23T19:20:38Z</time>
      </trkpt>
      <trkpt lat="44.49397" lon="6.25134">
        <ele>1236</ele>
        <time>2018-06-23T19:20:43Z</time>
      </trkpt>
      <trkpt lat="44.49392" lon="6.25135">
        <ele>1236</ele>
        <time>2018-06-23T19:20:48Z</time>
      </trkpt>
      <trkpt lat="44.49387" lon="6.2514">
        <ele>1235</ele>
        <time>2018-06-23T19:20:53Z</time>
      </trkpt>
      <trkpt lat="44.49384" lon="6.25145">
        <ele>1235</ele>
        <time>2018-06-23T19:20:58Z</time>
      </trkpt>
      <trkpt lat="44.49382" lon="6.25146">
        <ele>1235</ele>
        <time>2018-06-23T19:21:03Z</time>
      </trkpt>
      <trkpt lat="44.49379" lon="6.25152">
        <ele>1235</ele>
        <time>2018-06-23T19:21:08Z</time>
      </trkpt>
      <trkpt lat="44.49375" lon="6.25157">
        <ele>1235</ele>
        <time>2018-06-23T19:21:13Z</time>
      </trkpt>
      <trkpt lat="44.49371" lon="6.25163">
        <ele>1235</ele>
        <time>2018-06-23T19:21:18Z</time>
      </trkpt>
      <trkpt lat="44.49367" lon="6.25168">
        <ele>1234</ele>
        <time>2018-06-23T19:21:23Z</time>
      </trkpt>
      <trkpt lat="44.49363" lon="6.25174">
        <ele>1234</ele>
        <time>2018-06-23T19:21:28Z</time>
      </trkpt>
      <trkpt lat="44.4936" lon="6.2518">
        <ele>1234</ele>
        <time>2018-06-23T19:21:33Z</time>
      </trkpt>
      <trkpt lat="44.49356" lon="6.25187">
        <ele>1234</ele>
        <time>2018-06-23T19:21:38Z</time>
      </trkpt>
      <trkpt lat="44.49353" lon="6.25195">
        <ele>1235</ele>
        <time>2018-06-23T19:21:43Z</time>
      </trkpt>
      <trkpt lat="44.49349" lon="6.25202">
        <ele>1235</ele>
        <time>2018-06-23T19:21:48Z</time>
      </trkpt>
      <trkpt lat="44.49345" lon="6.25208">
        <ele>1235</ele>
        <time>2018-06-23T19:21:53Z</time>
      </trkpt>
      <trkpt lat="44.49341" lon="6.25214">
        <ele>1234</ele>
        <time>2018-06-23T19:21:58Z</time>
      </trkpt>
      <trkpt lat="44.49336" lon="6.2522">
        <ele>1234</ele>
        <time>2018-06-23T19:22:03Z</time>
      </trkpt>
      <trkpt lat="44.49331" lon="6.25227">
        <ele>1234</ele>
        <time>2018-06-23T19:22:08Z</time>
      </trkpt>
      <trkpt lat="44.49326" lon="6.25234">
        <ele>1233</ele>
        <time>2018-06-23T19:22:13Z</time>
      </trkpt>
      <trkpt lat="44.49323" lon="6.25241">
        <ele>1234</ele>
        <time>2018-06-23T19:22:18Z</time>
      </trkpt>
      <trkpt lat="44.49318" lon="6.25247">
        <ele>1233</ele>
        <time>2018-06-23T19:22:23Z</time>
      </trkpt>
      <trkpt lat="44.49314" lon="6.25253">
        <ele>1233</ele>
        <time>2018-06-23T19:22:28Z</time>
      </trkpt>
      <trkpt lat="44.49309" lon="6.25259">
        <ele>1232</ele>
        <time>2018-06-23T19:22:33Z</time>
      </trkpt>
      <trkpt lat="44.49304" lon="6.25264">
        <ele>1232</ele>
        <time>2018-06-23T19:22:38Z</time>
      </trkpt>
      <trkpt lat="44.49299" lon="6.2527">
        <ele>1231</ele>
        <time>2018-06-23T19:22:43Z</time>
      </trkpt>
      <trkpt lat="44.49294" lon="6.25275">
        <ele>1231</ele>
        <time>2018-06-23T19:22:48Z</time>
      </trkpt>
      <trkpt lat="44.49289" lon="6.25282">
        <ele>1230</ele>
        <time>2018-06-23T19:22:53Z</time>
      </trkpt>
      <trkpt lat="44.49285" lon="6.25288">
        <ele>1230</ele>
        <time>2018-06-23T19:22:58Z</time>
      </trkpt>
      <trkpt lat="44.49281" lon="6.25295">
        <ele>1230</ele>
        <time>2018-06-23T19:23:03Z</time>
      </trkpt>
      <trkpt lat="44.49278" lon="6.25303">
        <ele>1230</ele>
        <time>2018-06-23T19:23:08Z</time>
      </trkpt>
      <trkpt lat="44.49275" lon="6.2531">
        <ele>1230</ele>
        <time>2018-06-23T19:23:13Z</time>
      </trkpt>
      <trkpt lat="44.49271" lon="6.25318">
        <ele>1230</ele>
        <time>2018-06-23T19:23:18Z</time>
      </trkpt>
      <trkpt lat="44.49269" lon="6.25326">
        <ele>1231</ele>
        <time>2018-06-23T19:23:23Z</time>
      </trkpt>
      <trkpt lat="44.49266" lon="6.25333">
        <ele>1231</ele>
        <time>2018-06-23T19:23:28Z</time>
      </trkpt>
      <trkpt lat="44.49263" lon="6.2534">
        <ele>1231</ele>
        <time>2018-06-23T19:23:33Z</time>
      </trkpt>
      <trkpt lat="44.4926" lon="6.25347">
        <ele>1231</ele>
        <time>2018-06-23T19:23:38Z</time>
      </trkpt>
      <trkpt lat="44.49255" lon="6.25353">
        <ele>1231</ele>
        <time>2018-06-23T19:23:43Z</time>
      </trkpt>
      <trkpt lat="44.49249" lon="6.25359">
        <ele>1231</ele>
        <time>2018-06-23T19:23:48Z</time>
      </trkpt>
      <trkpt lat="44.49244" lon="6.25364">
        <ele>1231</ele>
        <time>2018-06-23T19:23:53Z</time>
      </trkpt>
      <trkpt lat="44.49237" lon="6.25369">
        <ele>1230</ele>
        <time>2018-06-23T19:23:58Z</time>
      </trkpt>
      <trkpt lat="44.49231" lon="6.25371">
        <ele>1230</ele>
        <time>2018-06-23T19:24:03Z</time>
      </trkpt>
      <trkpt lat="44.49225" lon="6.25373">
        <ele>1229</ele>
        <time>2018-06-23T19:24:08Z</time>
      </trkpt>
      <trkpt lat="44.49219" lon="6.25376">
        <ele>1228</ele>
        <time>2018-06-23T19:24:13Z</time>
      </trkpt>
      <trkpt lat="44.49213" lon="6.2538">
        <ele>1228</ele>
        <time>2018-06-23T19:24:18Z</time>
      </trkpt>
      <trkpt lat="44.49209" lon="6.25386">
        <ele>1228</ele>
        <time>2018-06-23T19:24:23Z</time>
      </trkpt>
      <trkpt lat="44.49204" lon="6.2539">
        <ele>1228</ele>
        <time>2018-06-23T19:24:28Z</time>
      </trkpt>
      <trkpt lat="44.49199" lon="6.25396">
        <ele>1228</ele>
        <time>2018-06-23T19:24:33Z</time>
      </trkpt>
      <trkpt lat="44.49195" lon="6.25401">
        <ele>1228</ele>
        <time>2018-06-23T19:24:38Z</time>
      </trkpt>
      <trkpt lat="44.49191" lon="6.25407">
        <ele>1228</ele>
        <time>2018-06-23T19:24:43Z</time>
      </trkpt>
      <trkpt lat="44.49186" lon="6.25412">
        <ele>1229</ele>
        <time>2018-06-23T19:24:48Z</time>
      </trkpt>
      <trkpt lat="44.4918" lon="6.25415">
        <ele>1229</ele>
        <time>2018-06-23T19:24:53Z</time>
      </trkpt>
      <trkpt lat="44.49174" lon="6.25417">
        <ele>1230</ele>
        <time>2018-06-23T19:24:58Z</time>
      </trkpt>
      <trkpt lat="44.49168" lon="6.25419">
        <ele>1230</ele>
        <time>2018-06-23T19:25:03Z</time>
      </trkpt>
      <trkpt lat="44.49161" lon="6.2542">
        <ele>1230</ele>
        <time>2018-06-23T19:25:08Z</time>
      </trkpt>
      <trkpt lat="44.49155" lon="6.2542">
        <ele>1230</ele>
        <time>2018-06-23T19:25:13Z</time>
      </trkpt>
      <trkpt lat="44.49148" lon="6.2542">
        <ele>1230</ele>
        <time>2018-06-23T19:25:18Z</time>
      </trkpt>
      <trkpt lat="44.49141" lon="6.25418">
        <ele>1230</ele>
        <time>2018-06-23T19:25:23Z</time>
      </trkpt>
      <trkpt lat="44.49134" lon="6.25416">
        <ele>1229</ele>
        <time>2018-06-23T19:25:28Z</time>
      </trkpt>
      <trkpt lat="44.49128" lon="6.25414">
        <ele>1229</ele>
        <time>2018-06-23T19:25:33Z</time>
      </trkpt>
      <trkpt lat="44.49122" lon="6.25412">
        <ele>1228</ele>
        <time>2018-06-23T19:25:38Z</time>
      </trkpt>
      <trkpt lat="44.49116" lon="6.25408">
        <ele>1228</ele>
        <time>2018-06-23T19:25:43Z</time>
      </trkpt>
      <trkpt lat="44.4911" lon="6.25405">
        <ele>1228</ele>
        <time>2018-06-23T19:25:48Z</time>
      </trkpt>
      <trkpt lat="44.49104" lon="6.25403">
        <ele>1229</ele>
        <time>2018-06-23T19:25:53Z</time>
      </trkpt>
      <trkpt lat="44.49098" lon="6.25404">
        <ele>1230</ele>
        <time>2018-06-23T19:25:58Z</time>
      </trkpt>
      <trkpt lat="44.49094" lon="6.25406">
        <ele>1231</ele>
        <time>2018-06-23T19:26:03Z</time>
      </trkpt>
      <trkpt lat="44.49091" lon="6.25408">
        <ele>1232</ele>
        <time>2018-06-23T19:26:08Z</time>
      </trkpt>
      <trkpt lat="44.4909" lon="6.25413">
        <ele>1233</ele>
        <time>2018-06-23T19:26:13Z</time>
      </trkpt>
      <trkpt lat="44.49088" lon="6.25417">
        <ele>1234</ele>
        <time>2018-06-23T19:26:18Z</time>
      </trkpt>
      <trkpt lat="44.49086" lon="6.25421">
        <ele>1235</ele>
        <time>2018-06-23T19:26:23Z</time>
      </trkpt>
      <trkpt lat="44.49085" lon="6.25427">
        <ele>1237</ele>
        <time>2018-06-23T19:26:28Z</time>
      </trkpt>
      <trkpt lat="44.49084" lon="6.25431">
        <ele>1238</ele>
        <time>2018-06-23T19:26:33Z</time>
      </trkpt>
      <trkpt lat="44.49083" lon="6.25435">
        <ele>1239</ele>
        <time>2018-06-23T19:26:38Z</time>
      </trkpt>
      <trkpt lat="44.49082" lon="6.25439">
        <ele>1240</ele>
        <time>2018-06-23T19:26:43Z</time>
      </trkpt>
      <trkpt lat="44.49081" lon="6.25442">
        <ele>1240</ele>
        <time>2018-06-23T19:26:48Z</time>
      </trkpt>
      <trkpt lat="44.49079" lon="6.25446">
        <ele>1241</ele>
        <time>2018-06-23T19:26:53Z</time>
      </trkpt>
      <trkpt lat="44.49076" lon="6.25447">
        <ele>1242</ele>
        <time>2018-06-23T19:26:58Z</time>
      </trkpt>
      <trkpt lat="44.49077" lon="6.2545">
        <ele>1242</ele>
        <time>2018-06-23T19:27:03Z</time>
      </trkpt>
      <trkpt lat="44.49077" lon="6.2545">
        <ele>1242</ele>
        <time>2018-06-23T19:27:08Z</time>
      </trkpt>
      <trkpt lat="44.49077" lon="6.2545">
        <ele>1242</ele>
        <time>2018-06-23T19:27:13Z</time>
      </trkpt>
      <trkpt lat="44.49077" lon="6.2545">
        <ele>1242</ele>
        <time>2018-06-23T19:27:18Z</time>
      </trkpt>
      <trkpt lat="44.49072" lon="6.25452">
        <ele>1243</ele>
        <time>2018-06-23T19:27:23Z</time>
      </trkpt>
      <trkpt lat="44.49071" lon="6.25456">
        <ele>1244</ele>
        <time>2018-06-23T19:27:28Z</time>
      </trkpt>
      <trkpt lat="44.4907" lon="6.25461">
        <ele>1245</ele>
        <time>2018-06-23T19:27:33Z</time>
      </trkpt>
      <trkpt lat="44.49068" lon="6.25464">
        <ele>1246</ele>
        <time>2018-06-23T19:27:38Z</time>
      </trkpt>
      <trkpt lat="44.49065" lon="6.25467">
        <ele>1247</ele>
        <time>2018-06-23T19:27:43Z</time>
      </trkpt>
      <trkpt lat="44.49063" lon="6.25468">
        <ele>1248</ele>
        <time>2018-06-23T19:27:48Z</time>
      </trkpt>
      <trkpt lat="44.4906" lon="6.25469">
        <ele>1249</ele>
        <time>2018-06-23T19:27:53Z</time>
      </trkpt>
      <trkpt lat="44.49061" lon="6.25473">
        <ele>1250</ele>
        <time>2018-06-23T19:27:58Z</time>
      </trkpt>
      <trkpt lat="44.49061" lon="6.25476">
        <ele>1250</ele>
        <time>2018-06-23T19:28:03Z</time>
      </trkpt>
      <trkpt lat="44.49059" lon="6.25479">
        <ele>1251</ele>
        <time>2018-06-23T19:28:08Z</time>
      </trkpt>
      <trkpt lat="44.49057" lon="6.2548">
        <ele>1252</ele>
        <time>2018-06-23T19:28:13Z</time>
      </trkpt>
      <trkpt lat="44.49056" lon="6.2548">
        <ele>1252</ele>
        <time>2018-06-23T19:28:18Z</time>
      </trkpt>
      <trkpt lat="44.49053" lon="6.25479">
        <ele>1252</ele>
        <time>2018-06-23T19:28:23Z</time>
      </trkpt>
      <trkpt lat="44.49052" lon="6.25478">
        <ele>1252</ele>
        <time>2018-06-23T19:28:28Z</time>
      </trkpt>
      <trkpt lat="44.4905" lon="6.25483">
        <ele>1254</ele>
        <time>2018-06-23T19:28:33Z</time>
      </trkpt>
      <trkpt lat="44.49049" lon="6.25483">
        <ele>1254</ele>
        <time>2018-06-23T19:28:38Z</time>
      </trkpt>
      <trkpt lat="44.49048" lon="6.25483">
        <ele>1255</ele>
        <time>2018-06-23T19:28:43Z</time>
      </trkpt>
      <trkpt lat="44.49048" lon="6.25484">
        <ele>1255</ele>
        <time>2018-06-23T19:28:48Z</time>
      </trkpt>
      <trkpt lat="44.49047" lon="6.25483">
        <ele>1255</ele>
        <time>2018-06-23T19:28:53Z</time>
      </trkpt>
      <trkpt lat="44.49045" lon="6.25482">
        <ele>1255</ele>
        <time>2018-06-23T19:28:58Z</time>
      </trkpt>
      <trkpt lat="44.49042" lon="6.25483">
        <ele>1257</ele>
        <time>2018-06-23T19:29:03Z</time>
      </trkpt>
      <trkpt lat="44.49041" lon="6.25484">
        <ele>1257</ele>
        <time>2018-06-23T19:29:08Z</time>
      </trkpt>
      <trkpt lat="44.4904" lon="6.25485">
        <ele>1258</ele>
        <time>2018-06-23T19:29:13Z</time>
      </trkpt>
      <trkpt lat="44.49038" lon="6.25483">
        <ele>1258</ele>
        <time>2018-06-23T19:29:18Z</time>
      </trkpt>
      <trkpt lat="44.49035" lon="6.25483">
        <ele>1259</ele>
        <time>2018-06-23T19:29:23Z</time>
      </trkpt>
      <trkpt lat="44.49032" lon="6.25483">
        <ele>1260</ele>
        <time>2018-06-23T19:29:28Z</time>
      </trkpt>
      <trkpt lat="44.4903" lon="6.25481">
        <ele>1260</ele>
        <time>2018-06-23T19:29:33Z</time>
      </trkpt>
      <trkpt lat="44.49027" lon="6.25479">
        <ele>1260</ele>
        <time>2018-06-23T19:29:38Z</time>
      </trkpt>
      <trkpt lat="44.49023" lon="6.25481">
        <ele>1262</ele>
        <time>2018-06-23T19:29:43Z</time>
      </trkpt>
      <trkpt lat="44.49021" lon="6.25479">
        <ele>1262</ele>
        <time>2018-06-23T19:29:48Z</time>
      </trkpt>
      <trkpt lat="44.49019" lon="6.25479">
        <ele>1263</ele>
        <time>2018-06-23T19:29:53Z</time>
      </trkpt>
      <trkpt lat="44.49017" lon="6.25479">
        <ele>1264</ele>
        <time>2018-06-23T19:29:58Z</time>
      </trkpt>
      <trkpt lat="44.49014" lon="6.25479">
        <ele>1265</ele>
        <time>2018-06-23T19:30:03Z</time>
      </trkpt>
      <trkpt lat="44.49012" lon="6.25479">
        <ele>1266</ele>
        <time>2018-06-23T19:30:08Z</time>
      </trkpt>
      <trkpt lat="44.49009" lon="6.25479">
        <ele>1266</ele>
        <time>2018-06-23T19:30:13Z</time>
      </trkpt>
      <trkpt lat="44.49009" lon="6.25478">
        <ele>1266</ele>
        <time>2018-06-23T19:30:18Z</time>
      </trkpt>
      <trkpt lat="44.49007" lon="6.25476">
        <ele>1267</ele>
        <time>2018-06-23T19:30:23Z</time>
      </trkpt>
      <trkpt lat="44.49005" lon="6.25477">
        <ele>1267</ele>
        <time>2018-06-23T19:30:28Z</time>
      </trkpt>
      <trkpt lat="44.49003" lon="6.25476">
        <ele>1267</ele>
        <time>2018-06-23T19:30:33Z</time>
      </trkpt>
      <trkpt lat="44.49002" lon="6.25476">
        <ele>1268</ele>
        <time>2018-06-23T19:30:38Z</time>
      </trkpt>
      <trkpt lat="44.49" lon="6.25474">
        <ele>1268</ele>
        <time>2018-06-23T19:30:43Z</time>
      </trkpt>
      <trkpt lat="44.48999" lon="6.25474">
        <ele>1268</ele>
        <time>2018-06-23T19:30:48Z</time>
      </trkpt>
      <trkpt lat="44.48998" lon="6.25473">
        <ele>1269</ele>
        <time>2018-06-23T19:30:53Z</time>
      </trkpt>
      <trkpt lat="44.48996" lon="6.25473">
        <ele>1269</ele>
        <time>2018-06-23T19:30:58Z</time>
      </trkpt>
      <trkpt lat="44.48994" lon="6.25472">
        <ele>1270</ele>
        <time>2018-06-23T19:31:03Z</time>
      </trkpt>
      <trkpt lat="44.48991" lon="6.25474">
        <ele>1271</ele>
        <time>2018-06-23T19:31:08Z</time>
      </trkpt>
      <trkpt lat="44.48989" lon="6.25475">
        <ele>1272</ele>
        <time>2018-06-23T19:31:13Z</time>
      </trkpt>
      <trkpt lat="44.48986" lon="6.25474">
        <ele>1273</ele>
        <time>2018-06-23T19:31:18Z</time>
      </trkpt>
      <trkpt lat="44.48984" lon="6.25474">
        <ele>1273</ele>
        <time>2018-06-23T19:31:23Z</time>
      </trkpt>
      <trkpt lat="44.48982" lon="6.25472">
        <ele>1274</ele>
        <time>2018-06-23T19:31:28Z</time>
      </trkpt>
      <trkpt lat="44.48981" lon="6.25471">
        <ele>1274</ele>
        <time>2018-06-23T19:31:33Z</time>
      </trkpt>
      <trkpt lat="44.4898" lon="6.2547">
        <ele>1274</ele>
        <time>2018-06-23T19:31:38Z</time>
      </trkpt>
      <trkpt lat="44.48979" lon="6.25471">
        <ele>1275</ele>
        <time>2018-06-23T19:31:43Z</time>
      </trkpt>
      <trkpt lat="44.48976" lon="6.25469">
        <ele>1275</ele>
        <time>2018-06-23T19:31:48Z</time>
      </trkpt>
      <trkpt lat="44.48974" lon="6.25471">
        <ele>1277</ele>
        <time>2018-06-23T19:31:53Z</time>
      </trkpt>
      <trkpt lat="44.48972" lon="6.25469">
        <ele>1278</ele>
        <time>2018-06-23T19:31:58Z</time>
      </trkpt>
      <trkpt lat="44.48971" lon="6.25467">
        <ele>1278</ele>
        <time>2018-06-23T19:32:03Z</time>
      </trkpt>
      <trkpt lat="44.48969" lon="6.25466">
        <ele>1278</ele>
        <time>2018-06-23T19:32:08Z</time>
      </trkpt>
      <trkpt lat="44.48966" lon="6.25465">
        <ele>1279</ele>
        <time>2018-06-23T19:32:13Z</time>
      </trkpt>
      <trkpt lat="44.48964" lon="6.25464">
        <ele>1280</ele>
        <time>2018-06-23T19:32:18Z</time>
      </trkpt>
      <trkpt lat="44.48962" lon="6.25463">
        <ele>1281</ele>
        <time>2018-06-23T19:32:23Z</time>
      </trkpt>
      <trkpt lat="44.4896" lon="6.25462">
        <ele>1282</ele>
        <time>2018-06-23T19:32:28Z</time>
      </trkpt>
      <trkpt lat="44.48959" lon="6.2546">
        <ele>1282</ele>
        <time>2018-06-23T19:32:33Z</time>
      </trkpt>
      <trkpt lat="44.48957" lon="6.25459">
        <ele>1283</ele>
        <time>2018-06-23T19:32:38Z</time>
      </trkpt>
      <trkpt lat="44.48956" lon="6.25457">
        <ele>1283</ele>
        <time>2018-06-23T19:32:43Z</time>
      </trkpt>
      <trkpt lat="44.48955" lon="6.25455">
        <ele>1283</ele>
        <time>2018-06-23T19:32:48Z</time>
      </trkpt>
      <trkpt lat="44.48951" lon="6.25453">
        <ele>1285</ele>
        <time>2018-06-23T19:32:53Z</time>
      </trkpt>
      <trkpt lat="44.48949" lon="6.25451">
        <ele>1286</ele>
        <time>2018-06-23T19:32:58Z</time>
      </trkpt>
      <trkpt lat="44.48947" lon="6.25449">
        <ele>1286</ele>
        <time>2018-06-23T19:33:03Z</time>
      </trkpt>
      <trkpt lat="44.48946" lon="6.25447">
        <ele>1287</ele>
        <time>2018-06-23T19:33:08Z</time>
      </trkpt>
      <trkpt lat="44.48945" lon="6.25447">
        <ele>1287</ele>
        <time>2018-06-23T19:33:13Z</time>
      </trkpt>
      <trkpt lat="44.48944" lon="6.25446">
        <ele>1288</ele>
        <time>2018-06-23T19:33:18Z</time>
      </trkpt>
      <trkpt lat="44.48942" lon="6.25446">
        <ele>1288</ele>
        <time>2018-06-23T19:33:23Z</time>
      </trkpt>
      <trkpt lat="44.4894" lon="6.25444">
        <ele>1289</ele>
        <time>2018-06-23T19:33:28Z</time>
      </trkpt>
      <trkpt lat="44.48938" lon="6.25444">
        <ele>1290</ele>
        <time>2018-06-23T19:33:33Z</time>
      </trkpt>
      <trkpt lat="44.48937" lon="6.25444">
        <ele>1291</ele>
        <time>2018-06-23T19:33:38Z</time>
      </trkpt>
      <trkpt lat="44.48936" lon="6.25444">
        <ele>1291</ele>
        <time>2018-06-23T19:33:43Z</time>
      </trkpt>
      <trkpt lat="44.48934" lon="6.25444">
        <ele>1292</ele>
        <time>2018-06-23T19:33:48Z</time>
      </trkpt>
      <trkpt lat="44.48931" lon="6.25443">
        <ele>1293</ele>
        <time>2018-06-23T19:33:53Z</time>
      </trkpt>
      <trkpt lat="44.48929" lon="6.25442">
        <ele>1294</ele>
        <time>2018-06-23T19:33:58Z</time>
      </trkpt>
      <trkpt lat="44.48927" lon="6.25441">
        <ele>1295</ele>
        <time>2018-06-23T19:34:03Z</time>
      </trkpt>
      <trkpt lat="44.48924" lon="6.25443">
        <ele>1297</ele>
        <time>2018-06-23T19:34:08Z</time>
      </trkpt>
      <trkpt lat="44.48922" lon="6.25443">
        <ele>1298</ele>
        <time>2018-06-23T19:34:13Z</time>
      </trkpt>
      <trkpt lat="44.48918" lon="6.25443">
        <ele>1300</ele>
        <time>2018-06-23T19:34:18Z</time>
      </trkpt>
      <trkpt lat="44.48916" lon="6.25442">
        <ele>1300</ele>
        <time>2018-06-23T19:34:23Z</time>
      </trkpt>
      <trkpt lat="44.48917" lon="6.25441">
        <ele>1300</ele>
        <time>2018-06-23T19:34:28Z</time>
      </trkpt>
      <trkpt lat="44.48916" lon="6.2544">
        <ele>1300</ele>
        <time>2018-06-23T19:34:33Z</time>
      </trkpt>
      <trkpt lat="44.48913" lon="6.25438">
        <ele>1302</ele>
        <time>2018-06-23T19:34:38Z</time>
      </trkpt>
      <trkpt lat="44.48911" lon="6.25434">
        <ele>1302</ele>
        <time>2018-06-23T19:34:43Z</time>
      </trkpt>
      <trkpt lat="44.48909" lon="6.25431">
        <ele>1303</ele>
        <time>2018-06-23T19:34:48Z</time>
      </trkpt>
      <trkpt lat="44.48908" lon="6.25429">
        <ele>1303</ele>
        <time>2018-06-23T19:34:53Z</time>
      </trkpt>
      <trkpt lat="44.48907" lon="6.25429">
        <ele>1304</ele>
        <time>2018-06-23T19:34:58Z</time>
      </trkpt>
      <trkpt lat="44.48906" lon="6.25428">
        <ele>1304</ele>
        <time>2018-06-23T19:35:03Z</time>
      </trkpt>
      <trkpt lat="44.48906" lon="6.25427">
        <ele>1304</ele>
        <time>2018-06-23T19:35:08Z</time>
      </trkpt>
      <trkpt lat="44.48906" lon="6.25427">
        <ele>1304</ele>
        <time>2018-06-23T19:35:13Z</time>
      </trkpt>
      <trkpt lat="44.48906" lon="6.25427">
        <ele>1304</ele>
        <time>2018-06-23T19:35:18Z</time>
      </trkpt>
      <trkpt lat="44.48906" lon="6.25427">
        <ele>1304</ele>
        <time>2018-06-23T19:35:23Z</time>
      </trkpt>
      <trkpt lat="44.48907" lon="6.25426">
        <ele>1304</ele>
        <time>2018-06-23T19:35:28Z</time>
      </trkpt>
      <trkpt lat="44.48907" lon="6.25424">
        <ele>1304</ele>
        <time>2018-06-23T19:35:33Z</time>
      </trkpt>
      <trkpt lat="44.48907" lon="6.25424">
        <ele>1303</ele>
        <time>2018-06-23T19:35:38Z</time>
      </trkpt>
      <trkpt lat="44.48907" lon="6.25424">
        <ele>1303</ele>
        <time>2018-06-23T19:35:43Z</time>
      </trkpt>
      <trkpt lat="44.48908" lon="6.25423">
        <ele>1303</ele>
        <time>2018-06-23T19:35:48Z</time>
      </trkpt>
      <trkpt lat="44.48908" lon="6.25422">
        <ele>1303</ele>
        <time>2018-06-23T19:35:53Z</time>
      </trkpt>
      <trkpt lat="44.48908" lon="6.25421">
        <ele>1303</ele>
        <time>2018-06-23T19:35:58Z</time>
      </trkpt>
      <trkpt lat="44.48909" lon="6.2542">
        <ele>1303</ele>
        <time>2018-06-23T19:36:03Z</time>
      </trkpt>
      <trkpt lat="44.48909" lon="6.2542">
        <ele>1302</ele>
        <time>2018-06-23T19:36:08Z</time>
      </trkpt>
      <trkpt lat="44.48909" lon="6.2542">
        <ele>1302</ele>
        <time>2018-06-23T19:36:13Z</time>
      </trkpt>
      <trkpt lat="44.48909" lon="6.25419">
        <ele>1302</ele>
        <time>2018-06-23T19:36:18Z</time>
      </trkpt>
      <trkpt lat="44.48908" lon="6.25419">
        <ele>1303</ele>
        <time>2018-06-23T19:36:23Z</time>
      </trkpt>
      <trkpt lat="44.48908" lon="6.25419">
        <ele>1303</ele>
        <time>2018-06-23T19:36:28Z</time>
      </trkpt>
      <trkpt lat="44.48907" lon="6.25419">
        <ele>1303</ele>
        <time>2018-06-23T19:36:33Z</time>
      </trkpt>
      <trkpt lat="44.48907" lon="6.2542">
        <ele>1303</ele>
        <time>2018-06-23T19:36:38Z</time>
      </trkpt>
      <trkpt lat="44.48907" lon="6.2542">
        <ele>1303</ele>
        <time>2018-06-23T19:36:43Z</time>
      </trkpt>
      <trkpt lat="44.48907" lon="6.2542">
        <ele>1303</ele>
        <time>2018-06-23T19:36:48Z</time>
      </trkpt>
      <trkpt lat="44.48907" lon="6.2542">
        <ele>1303</ele>
        <time>2018-06-23T19:36:53Z</time>
      </trkpt>
      <trkpt lat="44.48907" lon="6.25421">
        <ele>1303</ele>
        <time>2018-06-23T19:36:58Z</time>
      </trkpt>
      <trkpt lat="44.48907" lon="6.25424">
        <ele>1303</ele>
        <time>2018-06-23T19:37:03Z</time>
      </trkpt>
      <trkpt lat="44.48908" lon="6.25424">
        <ele>1303</ele>
        <time>2018-06-23T19:37:08Z</time>
      </trkpt>
      <trkpt lat="44.48907" lon="6.25425">
        <ele>1303</ele>
        <time>2018-06-23T19:37:13Z</time>
      </trkpt>
      <trkpt lat="44.48907" lon="6.25424">
        <ele>1304</ele>
        <time>2018-06-23T19:37:18Z</time>
      </trkpt>
      <trkpt lat="44.48907" lon="6.25425">
        <ele>1304</ele>
        <time>2018-06-23T19:37:23Z</time>
      </trkpt>
      <trkpt lat="44.48907" lon="6.25425">
        <ele>1304</ele>
        <time>2018-06-23T19:37:28Z</time>
      </trkpt>
      <trkpt lat="44.48907" lon="6.25425">
        <ele>1304</ele>
        <time>2018-06-23T19:37:33Z</time>
      </trkpt>
      <trkpt lat="44.48907" lon="6.25425">
        <ele>1304</ele>
        <time>2018-06-23T19:37:38Z</time>
      </trkpt>
      <trkpt lat="44.48907" lon="6.25425">
        <ele>1304</ele>
        <time>2018-06-23T19:37:43Z</time>
      </trkpt>
      <trkpt lat="44.48906" lon="6.25425">
        <ele>1304</ele>
        <time>2018-06-23T19:37:48Z</time>
      </trkpt>
      <trkpt lat="44.48906" lon="6.25425">
        <ele>1304</ele>
        <time>2018-06-23T19:37:53Z</time>
      </trkpt>
      <trkpt lat="44.48907" lon="6.25425">
        <ele>1304</ele>
        <time>2018-06-23T19:37:58Z</time>
      </trkpt>
      <trkpt lat="44.48907" lon="6.25425">
        <ele>1304</ele>
        <time>2018-06-23T19:38:03Z</time>
      </trkpt>
      <trkpt lat="44.48907" lon="6.25425">
        <ele>1304</ele>
        <time>2018-06-23T19:38:08Z</time>
      </trkpt>
      <trkpt lat="44.48908" lon="6.25424">
        <ele>1303</ele>
        <time>2018-06-23T19:38:13Z</time>
      </trkpt>
      <trkpt lat="44.48908" lon="6.25424">
        <ele>1303</ele>
        <time>2018-06-23T19:38:18Z</time>
      </trkpt>
      <trkpt lat="44.48907" lon="6.25423">
        <ele>1304</ele>
        <time>2018-06-23T19:38:23Z</time>
      </trkpt>
      <trkpt lat="44.48907" lon="6.25423">
        <ele>1304</ele>
        <time>2018-06-23T19:38:28Z</time>
      </trkpt>
      <trkpt lat="44.48907" lon="6.25422">
        <ele>1303</ele>
        <time>2018-06-23T19:38:33Z</time>
      </trkpt>
      <trkpt lat="44.48908" lon="6.2542">
        <ele>1303</ele>
        <time>2018-06-23T19:38:38Z</time>
      </trkpt>
      <trkpt lat="44.48908" lon="6.25419">
        <ele>1303</ele>
        <time>2018-06-23T19:38:43Z</time>
      </trkpt>
      <trkpt lat="44.48908" lon="6.25419">
        <ele>1303</ele>
        <time>2018-06-23T19:38:48Z</time>
      </trkpt>
      <trkpt lat="44.48908" lon="6.25418">
        <ele>1303</ele>
        <time>2018-06-23T19:38:53Z</time>
      </trkpt>
      <trkpt lat="44.48908" lon="6.25418">
        <ele>1303</ele>
        <time>2018-06-23T19:38:58Z</time>
      </trkpt>
      <trkpt lat="44.48908" lon="6.25418">
        <ele>1303</ele>
        <time>2018-06-23T19:39:03Z</time>
      </trkpt>
      <trkpt lat="44.48907" lon="6.25418">
        <ele>1303</ele>
        <time>2018-06-23T19:39:08Z</time>
      </trkpt>
      <trkpt lat="44.48907" lon="6.25417">
        <ele>1303</ele>
        <time>2018-06-23T19:39:13Z</time>
      </trkpt>
      <trkpt lat="44.48907" lon="6.25418">
        <ele>1303</ele>
        <time>2018-06-23T19:39:18Z</time>
      </trkpt>
      <trkpt lat="44.48909" lon="6.25419">
        <ele>1302</ele>
        <time>2018-06-23T19:39:23Z</time>
      </trkpt>
      <trkpt lat="44.48908" lon="6.25418">
        <ele>1303</ele>
        <time>2018-06-23T19:39:28Z</time>
      </trkpt>
      <trkpt lat="44.48907" lon="6.2542">
        <ele>1303</ele>
        <time>2018-06-23T19:39:33Z</time>
      </trkpt>
      <trkpt lat="44.48902" lon="6.2542">
        <ele>1306</ele>
        <time>2018-06-23T19:39:38Z</time>
      </trkpt>
      <trkpt lat="44.48899" lon="6.2542">
        <ele>1307</ele>
        <time>2018-06-23T19:39:43Z</time>
      </trkpt>
      <trkpt lat="44.48895" lon="6.2542">
        <ele>1309</ele>
        <time>2018-06-23T19:39:48Z</time>
      </trkpt>
      <trkpt lat="44.48893" lon="6.25418">
        <ele>1310</ele>
        <time>2018-06-23T19:39:53Z</time>
      </trkpt>
      <trkpt lat="44.48891" lon="6.25417">
        <ele>1311</ele>
        <time>2018-06-23T19:39:58Z</time>
      </trkpt>
      <trkpt lat="44.48888" lon="6.25415">
        <ele>1312</ele>
        <time>2018-06-23T19:40:03Z</time>
      </trkpt>
      <trkpt lat="44.48885" lon="6.25413">
        <ele>1313</ele>
        <time>2018-06-23T19:40:08Z</time>
      </trkpt>
      <trkpt lat="44.48882" lon="6.25409">
        <ele>1315</ele>
        <time>2018-06-23T19:40:13Z</time>
      </trkpt>
      <trkpt lat="44.48879" lon="6.25408">
        <ele>1316</ele>
        <time>2018-06-23T19:40:18Z</time>
      </trkpt>
      <trkpt lat="44.48876" lon="6.2541">
        <ele>1318</ele>
        <time>2018-06-23T19:40:23Z</time>
      </trkpt>
      <trkpt lat="44.48874" lon="6.25412">
        <ele>1319</ele>
        <time>2018-06-23T19:40:28Z</time>
      </trkpt>
      <trkpt lat="44.48873" lon="6.25412">
        <ele>1319</ele>
        <time>2018-06-23T19:40:33Z</time>
      </trkpt>
      <trkpt lat="44.4887" lon="6.2541">
        <ele>1320</ele>
        <time>2018-06-23T19:40:38Z</time>
      </trkpt>
      <trkpt lat="44.48868" lon="6.25411">
        <ele>1321</ele>
        <time>2018-06-23T19:40:43Z</time>
      </trkpt>
      <trkpt lat="44.48866" lon="6.2541">
        <ele>1322</ele>
        <time>2018-06-23T19:40:48Z</time>
      </trkpt>
      <trkpt lat="44.48862" lon="6.2541">
        <ele>1324</ele>
        <time>2018-06-23T19:40:53Z</time>
      </trkpt>
      <trkpt lat="44.4886" lon="6.25409">
        <ele>1325</ele>
        <time>2018-06-23T19:40:58Z</time>
      </trkpt>
      <trkpt lat="44.48858" lon="6.25409">
        <ele>1326</ele>
        <time>2018-06-23T19:41:03Z</time>
      </trkpt>
      <trkpt lat="44.48854" lon="6.25411">
        <ele>1328</ele>
        <time>2018-06-23T19:41:08Z</time>
      </trkpt>
      <trkpt lat="44.48852" lon="6.25413">
        <ele>1329</ele>
        <time>2018-06-23T19:41:13Z</time>
      </trkpt>
      <trkpt lat="44.4885" lon="6.25415">
        <ele>1330</ele>
        <time>2018-06-23T19:41:18Z</time>
      </trkpt>
      <trkpt lat="44.48848" lon="6.25418">
        <ele>1330</ele>
        <time>2018-06-23T19:41:23Z</time>
      </trkpt>
      <trkpt lat="44.48847" lon="6.25417">
        <ele>1331</ele>
        <time>2018-06-23T19:41:28Z</time>
      </trkpt>
      <trkpt lat="44.48846" lon="6.25417">
        <ele>1332</ele>
        <time>2018-06-23T19:41:33Z</time>
      </trkpt>
      <trkpt lat="44.48845" lon="6.2542">
        <ele>1332</ele>
        <time>2018-06-23T19:41:38Z</time>
      </trkpt>
      <trkpt lat="44.48844" lon="6.25422">
        <ele>1332</ele>
        <time>2018-06-23T19:41:43Z</time>
      </trkpt>
      <trkpt lat="44.48841" lon="6.25419">
        <ele>1332</ele>
        <time>2018-06-23T19:41:48Z</time>
      </trkpt>
      <trkpt lat="44.48837" lon="6.25418">
        <ele>1332</ele>
        <time>2018-06-23T19:41:53Z</time>
      </trkpt>
      <trkpt lat="44.48835" lon="6.25417">
        <ele>1332</ele>
        <time>2018-06-23T19:41:58Z</time>
      </trkpt>
      <trkpt lat="44.48833" lon="6.25418">
        <ele>1331</ele>
        <time>2018-06-23T19:42:03Z</time>
      </trkpt>
      <trkpt lat="44.4883" lon="6.25417">
        <ele>1331</ele>
        <time>2018-06-23T19:42:08Z</time>
      </trkpt>
      <trkpt lat="44.4883" lon="6.25417">
        <ele>1331</ele>
        <time>2018-06-23T19:42:13Z</time>
      </trkpt>
      <trkpt lat="44.48829" lon="6.25414">
        <ele>1331</ele>
        <time>2018-06-23T19:42:18Z</time>
      </trkpt>
      <trkpt lat="44.48827" lon="6.25409">
        <ele>1332</ele>
        <time>2018-06-23T19:42:23Z</time>
      </trkpt>
      <trkpt lat="44.48823" lon="6.25404">
        <ele>1333</ele>
        <time>2018-06-23T19:42:28Z</time>
      </trkpt>
      <trkpt lat="44.48821" lon="6.254">
        <ele>1333</ele>
        <time>2018-06-23T19:42:33Z</time>
      </trkpt>
      <trkpt lat="44.48819" lon="6.25394">
        <ele>1334</ele>
        <time>2018-06-23T19:42:38Z</time>
      </trkpt>
      <trkpt lat="44.48816" lon="6.25391">
        <ele>1335</ele>
        <time>2018-06-23T19:42:43Z</time>
      </trkpt>
      <trkpt lat="44.48814" lon="6.25387">
        <ele>1336</ele>
        <time>2018-06-23T19:42:48Z</time>
      </trkpt>
      <trkpt lat="44.48813" lon="6.25382">
        <ele>1337</ele>
        <time>2018-06-23T19:42:53Z</time>
      </trkpt>
      <trkpt lat="44.48812" lon="6.25376">
        <ele>1338</ele>
        <time>2018-06-23T19:42:58Z</time>
      </trkpt>
      <trkpt lat="44.48811" lon="6.25371">
        <ele>1339</ele>
        <time>2018-06-23T19:43:03Z</time>
      </trkpt>
      <trkpt lat="44.48811" lon="6.25369">
        <ele>1339</ele>
        <time>2018-06-23T19:43:08Z</time>
      </trkpt>
      <trkpt lat="44.48812" lon="6.25366">
        <ele>1339</ele>
        <time>2018-06-23T19:43:13Z</time>
      </trkpt>
      <trkpt lat="44.48812" lon="6.25361">
        <ele>1340</ele>
        <time>2018-06-23T19:43:18Z</time>
      </trkpt>
      <trkpt lat="44.48811" lon="6.25356">
        <ele>1341</ele>
        <time>2018-06-23T19:43:23Z</time>
      </trkpt>
      <trkpt lat="44.4881" lon="6.25351">
        <ele>1342</ele>
        <time>2018-06-23T19:43:28Z</time>
      </trkpt>
      <trkpt lat="44.48809" lon="6.25348">
        <ele>1343</ele>
        <time>2018-06-23T19:43:33Z</time>
      </trkpt>
      <trkpt lat="44.48809" lon="6.25344">
        <ele>1344</ele>
        <time>2018-06-23T19:43:38Z</time>
      </trkpt>
      <trkpt lat="44.48808" lon="6.25341">
        <ele>1344</ele>
        <time>2018-06-23T19:43:43Z</time>
      </trkpt>
      <trkpt lat="44.48809" lon="6.25336">
        <ele>1345</ele>
        <time>2018-06-23T19:43:48Z</time>
      </trkpt>
      <trkpt lat="44.4881" lon="6.25333">
        <ele>1345</ele>
        <time>2018-06-23T19:43:53Z</time>
      </trkpt>
      <trkpt lat="44.48812" lon="6.25329">
        <ele>1345</ele>
        <time>2018-06-23T19:43:58Z</time>
      </trkpt>
      <trkpt lat="44.48813" lon="6.25326">
        <ele>1346</ele>
        <time>2018-06-23T19:44:03Z</time>
      </trkpt>
      <trkpt lat="44.48813" lon="6.25321">
        <ele>1347</ele>
        <time>2018-06-23T19:44:08Z</time>
      </trkpt>
      <trkpt lat="44.48812" lon="6.25319">
        <ele>1348</ele>
        <time>2018-06-23T19:44:13Z</time>
      </trkpt>
      <trkpt lat="44.48812" lon="6.25315">
        <ele>1348</ele>
        <time>2018-06-23T19:44:18Z</time>
      </trkpt>
      <trkpt lat="44.48811" lon="6.2531">
        <ele>1349</ele>
        <time>2018-06-23T19:44:23Z</time>
      </trkpt>
      <trkpt lat="44.48811" lon="6.25306">
        <ele>1351</ele>
        <time>2018-06-23T19:44:28Z</time>
      </trkpt>
      <trkpt lat="44.48811" lon="6.25301">
        <ele>1352</ele>
        <time>2018-06-23T19:44:33Z</time>
      </trkpt>
      <trkpt lat="44.4881" lon="6.25297">
        <ele>1353</ele>
        <time>2018-06-23T19:44:38Z</time>
      </trkpt>
      <trkpt lat="44.48809" lon="6.25293">
        <ele>1354</ele>
        <time>2018-06-23T19:44:43Z</time>
      </trkpt>
      <trkpt lat="44.48809" lon="6.2529">
        <ele>1355</ele>
        <time>2018-06-23T19:44:48Z</time>
      </trkpt>
      <trkpt lat="44.48809" lon="6.25289">
        <ele>1355</ele>
        <time>2018-06-23T19:44:53Z</time>
      </trkpt>
      <trkpt lat="44.48809" lon="6.25288">
        <ele>1355</ele>
        <time>2018-06-23T19:44:58Z</time>
      </trkpt>
      <trkpt lat="44.48809" lon="6.25285">
        <ele>1356</ele>
        <time>2018-06-23T19:45:03Z</time>
      </trkpt>
      <trkpt lat="44.48808" lon="6.25284">
        <ele>1356</ele>
        <time>2018-06-23T19:45:08Z</time>
      </trkpt>
      <trkpt lat="44.48808" lon="6.25284">
        <ele>1356</ele>
        <time>2018-06-23T19:45:13Z</time>
      </trkpt>
      <trkpt lat="44.48808" lon="6.25283">
        <ele>1356</ele>
        <time>2018-06-23T19:45:18Z</time>
      </trkpt>
      <trkpt lat="44.48807" lon="6.25284">
        <ele>1357</ele>
        <time>2018-06-23T19:45:23Z</time>
      </trkpt>
      <trkpt lat="44.48807" lon="6.25284">
        <ele>1357</ele>
        <time>2018-06-23T19:45:28Z</time>
      </trkpt>
      <trkpt lat="44.48806" lon="6.25284">
        <ele>1357</ele>
        <time>2018-06-23T19:45:33Z</time>
      </trkpt>
      <trkpt lat="44.48806" lon="6.25283">
        <ele>1357</ele>
        <time>2018-06-23T19:45:38Z</time>
      </trkpt>
      <trkpt lat="44.48809" lon="6.25279">
        <ele>1357</ele>
        <time>2018-06-23T19:45:43Z</time>
      </trkpt>
      <trkpt lat="44.4881" lon="6.25275">
        <ele>1357</ele>
        <time>2018-06-23T19:45:48Z</time>
      </trkpt>
      <trkpt lat="44.4881" lon="6.25271">
        <ele>1358</ele>
        <time>2018-06-23T19:45:53Z</time>
      </trkpt>
      <trkpt lat="44.48809" lon="6.25267">
        <ele>1359</ele>
        <time>2018-06-23T19:45:58Z</time>
      </trkpt>
      <trkpt lat="44.48809" lon="6.25263">
        <ele>1360</ele>
        <time>2018-06-23T19:46:03Z</time>
      </trkpt>
      <trkpt lat="44.48807" lon="6.25257">
        <ele>1362</ele>
        <time>2018-06-23T19:46:08Z</time>
      </trkpt>
      <trkpt lat="44.48806" lon="6.25253">
        <ele>1363</ele>
        <time>2018-06-23T19:46:13Z</time>
      </trkpt>
      <trkpt lat="44.48807" lon="6.25249">
        <ele>1364</ele>
        <time>2018-06-23T19:46:18Z</time>
      </trkpt>
      <trkpt lat="44.48809" lon="6.25246">
        <ele>1363</ele>
        <time>2018-06-23T19:46:23Z</time>
      </trkpt>
      <trkpt lat="44.4881" lon="6.25242">
        <ele>1363</ele>
        <time>2018-06-23T19:46:28Z</time>
      </trkpt>
      <trkpt lat="44.48808" lon="6.25237">
        <ele>1365</ele>
        <time>2018-06-23T19:46:33Z</time>
      </trkpt>
      <trkpt lat="44.48807" lon="6.25232">
        <ele>1366</ele>
        <time>2018-06-23T19:46:38Z</time>
      </trkpt>
      <trkpt lat="44.48808" lon="6.25229">
        <ele>1366</ele>
        <time>2018-06-23T19:46:43Z</time>
      </trkpt>
      <trkpt lat="44.48807" lon="6.25225">
        <ele>1367</ele>
        <time>2018-06-23T19:46:48Z</time>
      </trkpt>
      <trkpt lat="44.48806" lon="6.25222">
        <ele>1368</ele>
        <time>2018-06-23T19:46:53Z</time>
      </trkpt>
      <trkpt lat="44.48806" lon="6.25218">
        <ele>1369</ele>
        <time>2018-06-23T19:46:58Z</time>
      </trkpt>
      <trkpt lat="44.48805" lon="6.25215">
        <ele>1370</ele>
        <time>2018-06-23T19:47:03Z</time>
      </trkpt>
      <trkpt lat="44.48804" lon="6.25213">
        <ele>1371</ele>
        <time>2018-06-23T19:47:08Z</time>
      </trkpt>
      <trkpt lat="44.48804" lon="6.25211">
        <ele>1371</ele>
        <time>2018-06-23T19:47:13Z</time>
      </trkpt>
      <trkpt lat="44.48805" lon="6.25206">
        <ele>1371</ele>
        <time>2018-06-23T19:47:18Z</time>
      </trkpt>
      <trkpt lat="44.48806" lon="6.25202">
        <ele>1371</ele>
        <time>2018-06-23T19:47:23Z</time>
      </trkpt>
      <trkpt lat="44.48804" lon="6.25199">
        <ele>1373</ele>
        <time>2018-06-23T19:47:28Z</time>
      </trkpt>
      <trkpt lat="44.48803" lon="6.25196">
        <ele>1374</ele>
        <time>2018-06-23T19:47:33Z</time>
      </trkpt>
      <trkpt lat="44.48802" lon="6.25191">
        <ele>1375</ele>
        <time>2018-06-23T19:47:38Z</time>
      </trkpt>
      <trkpt lat="44.48801" lon="6.25187">
        <ele>1376</ele>
        <time>2018-06-23T19:47:43Z</time>
      </trkpt>
      <trkpt lat="44.48801" lon="6.25184">
        <ele>1376</ele>
        <time>2018-06-23T19:47:48Z</time>
      </trkpt>
      <trkpt lat="44.48802" lon="6.2518">
        <ele>1376</ele>
        <time>2018-06-23T19:47:53Z</time>
      </trkpt>
      <trkpt lat="44.48802" lon="6.25176">
        <ele>1376</ele>
        <time>2018-06-23T19:47:58Z</time>
      </trkpt>
      <trkpt lat="44.48802" lon="6.25171">
        <ele>1377</ele>
        <time>2018-06-23T19:48:03Z</time>
      </trkpt>
      <trkpt lat="44.48802" lon="6.25169">
        <ele>1377</ele>
        <time>2018-06-23T19:48:08Z</time>
      </trkpt>
      <trkpt lat="44.48801" lon="6.25167">
        <ele>1378</ele>
        <time>2018-06-23T19:48:13Z</time>
      </trkpt>
      <trkpt lat="44.48801" lon="6.25165">
        <ele>1378</ele>
        <time>2018-06-23T19:48:18Z</time>
      </trkpt>
      <trkpt lat="44.48801" lon="6.25162">
        <ele>1378</ele>
        <time>2018-06-23T19:48:23Z</time>
      </trkpt>
      <trkpt lat="44.48801" lon="6.25158">
        <ele>1378</ele>
        <time>2018-06-23T19:48:28Z</time>
      </trkpt>
      <trkpt lat="44.488" lon="6.25154">
        <ele>1379</ele>
        <time>2018-06-23T19:48:33Z</time>
      </trkpt>
      <trkpt lat="44.48799" lon="6.2515">
        <ele>1380</ele>
        <time>2018-06-23T19:48:38Z</time>
      </trkpt>
      <trkpt lat="44.48798" lon="6.25147">
        <ele>1381</ele>
        <time>2018-06-23T19:48:43Z</time>
      </trkpt>
      <trkpt lat="44.48797" lon="6.25142">
        <ele>1381</ele>
        <time>2018-06-23T19:48:48Z</time>
      </trkpt>
      <trkpt lat="44.48797" lon="6.25138">
        <ele>1382</ele>
        <time>2018-06-23T19:48:53Z</time>
      </trkpt>
      <trkpt lat="44.48796" lon="6.25135">
        <ele>1383</ele>
        <time>2018-06-23T19:48:58Z</time>
      </trkpt>
      <trkpt lat="44.48792" lon="6.25129">
        <ele>1385</ele>
        <time>2018-06-23T19:49:03Z</time>
      </trkpt>
      <trkpt lat="44.4879" lon="6.25127">
        <ele>1387</ele>
        <time>2018-06-23T19:49:08Z</time>
      </trkpt>
      <trkpt lat="44.48791" lon="6.25123">
        <ele>1387</ele>
        <time>2018-06-23T19:49:13Z</time>
      </trkpt>
      <trkpt lat="44.48792" lon="6.2512">
        <ele>1386</ele>
        <time>2018-06-23T19:49:18Z</time>
      </trkpt>
      <trkpt lat="44.48791" lon="6.25118">
        <ele>1387</ele>
        <time>2018-06-23T19:49:23Z</time>
      </trkpt>
      <trkpt lat="44.48791" lon="6.25115">
        <ele>1386</ele>
        <time>2018-06-23T19:49:28Z</time>
      </trkpt>
      <trkpt lat="44.48786" lon="6.25112">
        <ele>1389</ele>
        <time>2018-06-23T19:49:33Z</time>
      </trkpt>
      <trkpt lat="44.48785" lon="6.25109">
        <ele>1389</ele>
        <time>2018-06-23T19:49:38Z</time>
      </trkpt>
      <trkpt lat="44.48783" lon="6.25105">
        <ele>1390</ele>
        <time>2018-06-23T19:49:43Z</time>
      </trkpt>
      <trkpt lat="44.48784" lon="6.25101">
        <ele>1389</ele>
        <time>2018-06-23T19:49:48Z</time>
      </trkpt>
      <trkpt lat="44.48782" lon="6.25098">
        <ele>1390</ele>
        <time>2018-06-23T19:49:53Z</time>
      </trkpt>
      <trkpt lat="44.4878" lon="6.25093">
        <ele>1391</ele>
        <time>2018-06-23T19:49:58Z</time>
      </trkpt>
      <trkpt lat="44.48779" lon="6.25091">
        <ele>1391</ele>
        <time>2018-06-23T19:50:03Z</time>
      </trkpt>
      <trkpt lat="44.48778" lon="6.25087">
        <ele>1392</ele>
        <time>2018-06-23T19:50:08Z</time>
      </trkpt>
      <trkpt lat="44.48779" lon="6.25087">
        <ele>1391</ele>
        <time>2018-06-23T19:50:13Z</time>
      </trkpt>
      <trkpt lat="44.48778" lon="6.25085">
        <ele>1392</ele>
        <time>2018-06-23T19:50:18Z</time>
      </trkpt>
      <trkpt lat="44.48776" lon="6.25082">
        <ele>1392</ele>
        <time>2018-06-23T19:50:23Z</time>
      </trkpt>
      <trkpt lat="44.48775" lon="6.2508">
        <ele>1392</ele>
        <time>2018-06-23T19:50:28Z</time>
      </trkpt>
      <trkpt lat="44.48772" lon="6.25078">
        <ele>1391</ele>
        <time>2018-06-23T19:50:33Z</time>
      </trkpt>
      <trkpt lat="44.4877" lon="6.25074">
        <ele>1391</ele>
        <time>2018-06-23T19:50:38Z</time>
      </trkpt>
      <trkpt lat="44.48767" lon="6.25069">
        <ele>1390</ele>
        <time>2018-06-23T19:50:43Z</time>
      </trkpt>
      <trkpt lat="44.48765" lon="6.25063">
        <ele>1390</ele>
        <time>2018-06-23T19:50:48Z</time>
      </trkpt>
      <trkpt lat="44.48764" lon="6.25055">
        <ele>1390</ele>
        <time>2018-06-23T19:50:53Z</time>
      </trkpt>
      <trkpt lat="44.48762" lon="6.25048">
        <ele>1389</ele>
        <time>2018-06-23T19:50:58Z</time>
      </trkpt>
      <trkpt lat="44.4876" lon="6.25042">
        <ele>1388</ele>
        <time>2018-06-23T19:51:03Z</time>
      </trkpt>
      <trkpt lat="44.48758" lon="6.25039">
        <ele>1388</ele>
        <time>2018-06-23T19:51:08Z</time>
      </trkpt>
      <trkpt lat="44.48756" lon="6.25036">
        <ele>1388</ele>
        <time>2018-06-23T19:51:13Z</time>
      </trkpt>
      <trkpt lat="44.48753" lon="6.25033">
        <ele>1387</ele>
        <time>2018-06-23T19:51:18Z</time>
      </trkpt>
      <trkpt lat="44.4875" lon="6.2503">
        <ele>1387</ele>
        <time>2018-06-23T19:51:23Z</time>
      </trkpt>
      <trkpt lat="44.48749" lon="6.25027">
        <ele>1387</ele>
        <time>2018-06-23T19:51:28Z</time>
      </trkpt>
      <trkpt lat="44.48749" lon="6.25026">
        <ele>1387</ele>
        <time>2018-06-23T19:51:33Z</time>
      </trkpt>
      <trkpt lat="44.48749" lon="6.25026">
        <ele>1387</ele>
        <time>2018-06-23T19:51:38Z</time>
      </trkpt>
      <trkpt lat="44.48748" lon="6.25026">
        <ele>1387</ele>
        <time>2018-06-23T19:51:43Z</time>
      </trkpt>
      <trkpt lat="44.48745" lon="6.25023">
        <ele>1387</ele>
        <time>2018-06-23T19:51:48Z</time>
      </trkpt>
      <trkpt lat="44.48742" lon="6.25021">
        <ele>1387</ele>
        <time>2018-06-23T19:51:53Z</time>
      </trkpt>
      <trkpt lat="44.48739" lon="6.25019">
        <ele>1387</ele>
        <time>2018-06-23T19:51:58Z</time>
      </trkpt>
      <trkpt lat="44.48736" lon="6.2502">
        <ele>1387</ele>
        <time>2018-06-23T19:52:03Z</time>
      </trkpt>
      <trkpt lat="44.48733" lon="6.25021">
        <ele>1387</ele>
        <time>2018-06-23T19:52:08Z</time>
      </trkpt>
      <trkpt lat="44.48731" lon="6.25021">
        <ele>1388</ele>
        <time>2018-06-23T19:52:13Z</time>
      </trkpt>
      <trkpt lat="44.48729" lon="6.25021">
        <ele>1388</ele>
        <time>2018-06-23T19:52:18Z</time>
      </trkpt>
      <trkpt lat="44.48727" lon="6.25022">
        <ele>1388</ele>
        <time>2018-06-23T19:52:23Z</time>
      </trkpt>
      <trkpt lat="44.48723" lon="6.25026">
        <ele>1388</ele>
        <time>2018-06-23T19:52:28Z</time>
      </trkpt>
      <trkpt lat="44.48719" lon="6.2503">
        <ele>1388</ele>
        <time>2018-06-23T19:52:33Z</time>
      </trkpt>
      <trkpt lat="44.48717" lon="6.25031">
        <ele>1388</ele>
        <time>2018-06-23T19:52:38Z</time>
      </trkpt>
      <trkpt lat="44.48717" lon="6.25029">
        <ele>1388</ele>
        <time>2018-06-23T19:52:43Z</time>
      </trkpt>
      <trkpt lat="44.48714" lon="6.25029">
        <ele>1388</ele>
        <time>2018-06-23T19:52:48Z</time>
      </trkpt>
      <trkpt lat="44.48711" lon="6.25027">
        <ele>1388</ele>
        <time>2018-06-23T19:52:53Z</time>
      </trkpt>
      <trkpt lat="44.48707" lon="6.25026">
        <ele>1388</ele>
        <time>2018-06-23T19:52:58Z</time>
      </trkpt>
      <trkpt lat="44.48705" lon="6.25025">
        <ele>1387</ele>
        <time>2018-06-23T19:53:03Z</time>
      </trkpt>
      <trkpt lat="44.48701" lon="6.25024">
        <ele>1386</ele>
        <time>2018-06-23T19:53:08Z</time>
      </trkpt>
      <trkpt lat="44.48696" lon="6.2502">
        <ele>1385</ele>
        <time>2018-06-23T19:53:13Z</time>
      </trkpt>
      <trkpt lat="44.48694" lon="6.25017">
        <ele>1385</ele>
        <time>2018-06-23T19:53:18Z</time>
      </trkpt>
      <trkpt lat="44.48692" lon="6.25016">
        <ele>1384</ele>
        <time>2018-06-23T19:53:23Z</time>
      </trkpt>
      <trkpt lat="44.48692" lon="6.25018">
        <ele>1384</ele>
        <time>2018-06-23T19:53:28Z</time>
      </trkpt>
      <trkpt lat="44.48692" lon="6.25019">
        <ele>1384</ele>
        <time>2018-06-23T19:53:33Z</time>
      </trkpt>
      <trkpt lat="44.48693" lon="6.25018">
        <ele>1384</ele>
        <time>2018-06-23T19:53:38Z</time>
      </trkpt>
      <trkpt lat="44.48693" lon="6.25018">
        <ele>1384</ele>
        <time>2018-06-23T19:53:43Z</time>
      </trkpt>
      <trkpt lat="44.48694" lon="6.25018">
        <ele>1385</ele>
        <time>2018-06-23T19:53:48Z</time>
      </trkpt>
      <trkpt lat="44.48694" lon="6.25018">
        <ele>1385</ele>
        <time>2018-06-23T19:53:53Z</time>
      </trkpt>
      <trkpt lat="44.48694" lon="6.25019">
        <ele>1384</ele>
        <time>2018-06-23T19:53:58Z</time>
      </trkpt>
      <trkpt lat="44.48694" lon="6.25019">
        <ele>1384</ele>
        <time>2018-06-23T19:54:03Z</time>
      </trkpt>
      <trkpt lat="44.48694" lon="6.25019">
        <ele>1384</ele>
        <time>2018-06-23T19:54:08Z</time>
      </trkpt>
      <trkpt lat="44.48694" lon="6.25019">
        <ele>1384</ele>
        <time>2018-06-23T19:54:13Z</time>
      </trkpt>
      <trkpt lat="44.48694" lon="6.25019">
        <ele>1384</ele>
        <time>2018-06-23T19:54:18Z</time>
      </trkpt>
      <trkpt lat="44.48694" lon="6.25018">
        <ele>1385</ele>
        <time>2018-06-23T19:54:23Z</time>
      </trkpt>
      <trkpt lat="44.48694" lon="6.25018">
        <ele>1385</ele>
        <time>2018-06-23T19:54:28Z</time>
      </trkpt>
      <trkpt lat="44.48694" lon="6.25018">
        <ele>1385</ele>
        <time>2018-06-23T19:54:33Z</time>
      </trkpt>
      <trkpt lat="44.48694" lon="6.25018">
        <ele>1385</ele>
        <time>2018-06-23T19:54:38Z</time>
      </trkpt>
      <trkpt lat="44.48694" lon="6.25018">
        <ele>1385</ele>
        <time>2018-06-23T19:54:43Z</time>
      </trkpt>
      <trkpt lat="44.48694" lon="6.25018">
        <ele>1385</ele>
        <time>2018-06-23T19:54:48Z</time>
      </trkpt>
      <trkpt lat="44.48694" lon="6.25018">
        <ele>1385</ele>
        <time>2018-06-23T19:54:53Z</time>
      </trkpt>
      <trkpt lat="44.48694" lon="6.25018">
        <ele>1385</ele>
        <time>2018-06-23T19:54:58Z</time>
      </trkpt>
      <trkpt lat="44.48694" lon="6.25018">
        <ele>1385</ele>
        <time>2018-06-23T19:55:03Z</time>
      </trkpt>
      <trkpt lat="44.48694" lon="6.25018">
        <ele>1385</ele>
        <time>2018-06-23T19:55:08Z</time>
      </trkpt>
      <trkpt lat="44.48694" lon="6.25018">
        <ele>1385</ele>
        <time>2018-06-23T19:55:13Z</time>
      </trkpt>
      <trkpt lat="44.48694" lon="6.25018">
        <ele>1385</ele>
        <time>2018-06-23T19:55:18Z</time>
      </trkpt>
      <trkpt lat="44.48694" lon="6.25018">
        <ele>1385</ele>
        <time>2018-06-23T19:55:23Z</time>
      </trkpt>
      <trkpt lat="44.48694" lon="6.25018">
        <ele>1385</ele>
        <time>2018-06-23T19:55:28Z</time>
      </trkpt>
      <trkpt lat="44.48694" lon="6.25018">
        <ele>1385</ele>
        <time>2018-06-23T19:55:33Z</time>
      </trkpt>
      <trkpt lat="44.48694" lon="6.25018">
        <ele>1385</ele>
        <time>2018-06-23T19:55:38Z</time>
      </trkpt>
      <trkpt lat="44.48694" lon="6.25018">
        <ele>1385</ele>
        <time>2018-06-23T19:55:43Z</time>
      </trkpt>
      <trkpt lat="44.48694" lon="6.25018">
        <ele>1385</ele>
        <time>2018-06-23T19:55:48Z</time>
      </trkpt>
      <trkpt lat="44.48694" lon="6.25018">
        <ele>1385</ele>
        <time>2018-06-23T19:55:53Z</time>
      </trkpt>
      <trkpt lat="44.48695" lon="6.25017">
        <ele>1385</ele>
        <time>2018-06-23T19:55:58Z</time>
      </trkpt>
      <trkpt lat="44.48695" lon="6.25016">
        <ele>1385</ele>
        <time>2018-06-23T19:56:03Z</time>
      </trkpt>
      <trkpt lat="44.48696" lon="6.25016">
        <ele>1386</ele>
        <time>2018-06-23T19:56:08Z</time>
      </trkpt>
      <trkpt lat="44.48696" lon="6.25016">
        <ele>1386</ele>
        <time>2018-06-23T19:56:13Z</time>
      </trkpt>
      <trkpt lat="44.48696" lon="6.25016">
        <ele>1386</ele>
        <time>2018-06-23T19:56:18Z</time>
      </trkpt>
      <trkpt lat="44.48695" lon="6.25016">
        <ele>1385</ele>
        <time>2018-06-23T19:56:23Z</time>
      </trkpt>
      <trkpt lat="44.48696" lon="6.25014">
        <ele>1386</ele>
        <time>2018-06-23T19:56:28Z</time>
      </trkpt>
      <trkpt lat="44.48696" lon="6.25013">
        <ele>1386</ele>
        <time>2018-06-23T19:56:33Z</time>
      </trkpt>
      <trkpt lat="44.48696" lon="6.25014">
        <ele>1386</ele>
        <time>2018-06-23T19:56:38Z</time>
      </trkpt>
      <trkpt lat="44.48696" lon="6.25014">
        <ele>1386</ele>
        <time>2018-06-23T19:56:43Z</time>
      </trkpt>
      <trkpt lat="44.48696" lon="6.25014">
        <ele>1386</ele>
        <time>2018-06-23T19:56:48Z</time>
      </trkpt>
      <trkpt lat="44.48697" lon="6.25013">
        <ele>1387</ele>
        <time>2018-06-23T19:56:53Z</time>
      </trkpt>
      <trkpt lat="44.48697" lon="6.25014">
        <ele>1386</ele>
        <time>2018-06-23T19:56:58Z</time>
      </trkpt>
      <trkpt lat="44.48697" lon="6.25012">
        <ele>1387</ele>
        <time>2018-06-23T19:57:03Z</time>
      </trkpt>
      <trkpt lat="44.48697" lon="6.25012">
        <ele>1387</ele>
        <time>2018-06-23T19:57:08Z</time>
      </trkpt>
      <trkpt lat="44.48697" lon="6.25012">
        <ele>1387</ele>
        <time>2018-06-23T19:57:13Z</time>
      </trkpt>
      <trkpt lat="44.48697" lon="6.25012">
        <ele>1387</ele>
        <time>2018-06-23T19:57:18Z</time>
      </trkpt>
      <trkpt lat="44.48697" lon="6.25012">
        <ele>1387</ele>
        <time>2018-06-23T19:57:23Z</time>
      </trkpt>
      <trkpt lat="44.48697" lon="6.25012">
        <ele>1387</ele>
        <time>2018-06-23T19:57:28Z</time>
      </trkpt>
      <trkpt lat="44.48697" lon="6.25011">
        <ele>1387</ele>
        <time>2018-06-23T19:57:33Z</time>
      </trkpt>
      <trkpt lat="44.48697" lon="6.25011">
        <ele>1387</ele>
        <time>2018-06-23T19:57:38Z</time>
      </trkpt>
      <trkpt lat="44.48697" lon="6.25011">
        <ele>1387</ele>
        <time>2018-06-23T19:57:43Z</time>
      </trkpt>
      <trkpt lat="44.48697" lon="6.25011">
        <ele>1387</ele>
        <time>2018-06-23T19:57:48Z</time>
      </trkpt>
      <trkpt lat="44.48697" lon="6.25011">
        <ele>1387</ele>
        <time>2018-06-23T19:57:53Z</time>
      </trkpt>
      <trkpt lat="44.48697" lon="6.25011">
        <ele>1387</ele>
        <time>2018-06-23T19:57:58Z</time>
      </trkpt>
      <trkpt lat="44.48698" lon="6.25011">
        <ele>1387</ele>
        <time>2018-06-23T19:58:03Z</time>
      </trkpt>
      <trkpt lat="44.48698" lon="6.25011">
        <ele>1387</ele>
        <time>2018-06-23T19:58:08Z</time>
      </trkpt>
      <trkpt lat="44.48698" lon="6.25012">
        <ele>1387</ele>
        <time>2018-06-23T19:58:13Z</time>
      </trkpt>
      <trkpt lat="44.48698" lon="6.25012">
        <ele>1387</ele>
        <time>2018-06-23T19:58:18Z</time>
      </trkpt>
      <trkpt lat="44.48698" lon="6.25013">
        <ele>1387</ele>
        <time>2018-06-23T19:58:23Z</time>
      </trkpt>
      <trkpt lat="44.48698" lon="6.25013">
        <ele>1387</ele>
        <time>2018-06-23T19:58:28Z</time>
      </trkpt>
      <trkpt lat="44.48698" lon="6.25014">
        <ele>1387</ele>
        <time>2018-06-23T19:58:33Z</time>
      </trkpt>
      <trkpt lat="44.48698" lon="6.25013">
        <ele>1387</ele>
        <time>2018-06-23T19:58:38Z</time>
      </trkpt>
      <trkpt lat="44.48699" lon="6.25014">
        <ele>1387</ele>
        <time>2018-06-23T19:58:43Z</time>
      </trkpt>
      <trkpt lat="44.48699" lon="6.25014">
        <ele>1387</ele>
        <time>2018-06-23T19:58:48Z</time>
      </trkpt>
      <trkpt lat="44.48699" lon="6.25015">
        <ele>1387</ele>
        <time>2018-06-23T19:58:53Z</time>
      </trkpt>
      <trkpt lat="44.48699" lon="6.25015">
        <ele>1387</ele>
        <time>2018-06-23T19:58:58Z</time>
      </trkpt>
      <trkpt lat="44.48699" lon="6.25014">
        <ele>1387</ele>
        <time>2018-06-23T19:59:03Z</time>
      </trkpt>
      <trkpt lat="44.48699" lon="6.25014">
        <ele>1387</ele>
        <time>2018-06-23T19:59:08Z</time>
      </trkpt>
      <trkpt lat="44.48699" lon="6.25014">
        <ele>1387</ele>
        <time>2018-06-23T19:59:13Z</time>
      </trkpt>
      <trkpt lat="44.48699" lon="6.25014">
        <ele>1387</ele>
        <time>2018-06-23T19:59:18Z</time>
      </trkpt>
      <trkpt lat="44.48699" lon="6.25014">
        <ele>1387</ele>
        <time>2018-06-23T19:59:23Z</time>
      </trkpt>
      <trkpt lat="44.48699" lon="6.25014">
        <ele>1387</ele>
        <time>2018-06-23T19:59:28Z</time>
      </trkpt>
      <trkpt lat="44.48699" lon="6.25014">
        <ele>1387</ele>
        <time>2018-06-23T19:59:33Z</time>
      </trkpt>
      <trkpt lat="44.48699" lon="6.25014">
        <ele>1387</ele>
        <time>2018-06-23T19:59:38Z</time>
      </trkpt>
      <trkpt lat="44.48699" lon="6.25014">
        <ele>1387</ele>
        <time>2018-06-23T19:59:43Z</time>
      </trkpt>
      <trkpt lat="44.48699" lon="6.25014">
        <ele>1387</ele>
        <time>2018-06-23T19:59:48Z</time>
      </trkpt>
      <trkpt lat="44.48699" lon="6.25014">
        <ele>1387</ele>
        <time>2018-06-23T19:59:53Z</time>
      </trkpt>
      <trkpt lat="44.48699" lon="6.25014">
        <ele>1387</ele>
        <time>2018-06-23T19:59:58Z</time>
      </trkpt>
      <trkpt lat="44.48699" lon="6.25014">
        <ele>1387</ele>
        <time>2018-06-23T20:00:03Z</time>
      </trkpt>
      <trkpt lat="44.48699" lon="6.25014">
        <ele>1387</ele>
        <time>2018-06-23T20:00:08Z</time>
      </trkpt>
      <trkpt lat="44.48699" lon="6.25014">
        <ele>1387</ele>
        <time>2018-06-23T20:00:13Z</time>
      </trkpt>
      <trkpt lat="44.48699" lon="6.25014">
        <ele>1387</ele>
        <time>2018-06-23T20:00:18Z</time>
      </trkpt>
      <trkpt lat="44.48699" lon="6.25014">
        <ele>1387</ele>
        <time>2018-06-23T20:00:23Z</time>
      </trkpt>
      <trkpt lat="44.48699" lon="6.25014">
        <ele>1387</ele>
        <time>2018-06-23T20:00:28Z</time>
      </trkpt>
      <trkpt lat="44.48699" lon="6.25014">
        <ele>1387</ele>
        <time>2018-06-23T20:00:33Z</time>
      </trkpt>
      <trkpt lat="44.48699" lon="6.25014">
        <ele>1387</ele>
        <time>2018-06-23T20:00:38Z</time>
      </trkpt>
      <trkpt lat="44.48699" lon="6.25014">
        <ele>1387</ele>
        <time>2018-06-23T20:00:43Z</time>
      </trkpt>
      <trkpt lat="44.48699" lon="6.25014">
        <ele>1387</ele>
        <time>2018-06-23T20:00:48Z</time>
      </trkpt>
      <trkpt lat="44.48699" lon="6.25014">
        <ele>1387</ele>
        <time>2018-06-23T20:00:53Z</time>
      </trkpt>
      <trkpt lat="44.48699" lon="6.25014">
        <ele>1387</ele>
        <time>2018-06-23T20:00:58Z</time>
      </trkpt>
      <trkpt lat="44.48699" lon="6.25014">
        <ele>1387</ele>
        <time>2018-06-23T20:01:03Z</time>
      </trkpt>
      <trkpt lat="44.48699" lon="6.25015">
        <ele>1387</ele>
        <time>2018-06-23T20:01:08Z</time>
      </trkpt>
      <trkpt lat="44.48699" lon="6.25015">
        <ele>1387</ele>
        <time>2018-06-23T20:01:13Z</time>
      </trkpt>
      <trkpt lat="44.48699" lon="6.25015">
        <ele>1387</ele>
        <time>2018-06-23T20:01:18Z</time>
      </trkpt>
      <trkpt lat="44.48699" lon="6.25015">
        <ele>1387</ele>
        <time>2018-06-23T20:01:23Z</time>
      </trkpt>
      <trkpt lat="44.48699" lon="6.25015">
        <ele>1387</ele>
        <time>2018-06-23T20:01:28Z</time>
      </trkpt>
      <trkpt lat="44.48699" lon="6.25015">
        <ele>1387</ele>
        <time>2018-06-23T20:01:33Z</time>
      </trkpt>
      <trkpt lat="44.48699" lon="6.25015">
        <ele>1387</ele>
        <time>2018-06-23T20:01:38Z</time>
      </trkpt>
      <trkpt lat="44.48699" lon="6.25015">
        <ele>1387</ele>
        <time>2018-06-23T20:01:43Z</time>
      </trkpt>
      <trkpt lat="44.48699" lon="6.25015">
        <ele>1387</ele>
        <time>2018-06-23T20:01:48Z</time>
      </trkpt>
      <trkpt lat="44.48699" lon="6.25015">
        <ele>1387</ele>
        <time>2018-06-23T20:01:53Z</time>
      </trkpt>
      <trkpt lat="44.48699" lon="6.25015">
        <ele>1387</ele>
        <time>2018-06-23T20:01:58Z</time>
      </trkpt>
      <trkpt lat="44.48699" lon="6.25015">
        <ele>1387</ele>
        <time>2018-06-23T20:02:03Z</time>
      </trkpt>
      <trkpt lat="44.48699" lon="6.25015">
        <ele>1387</ele>
        <time>2018-06-23T20:02:08Z</time>
      </trkpt>
      <trkpt lat="44.48698" lon="6.25013">
        <ele>1387</ele>
        <time>2018-06-23T20:02:13Z</time>
      </trkpt>
      <trkpt lat="44.48697" lon="6.2501">
        <ele>1387</ele>
        <time>2018-06-23T20:02:18Z</time>
      </trkpt>
      <trkpt lat="44.48697" lon="6.2501">
        <ele>1387</ele>
        <time>2018-06-23T20:02:23Z</time>
      </trkpt>
      <trkpt lat="44.48696" lon="6.25003">
        <ele>1388</ele>
        <time>2018-06-23T20:02:28Z</time>
      </trkpt>
      <trkpt lat="44.48693" lon="6.24998">
        <ele>1388</ele>
        <time>2018-06-23T20:02:33Z</time>
      </trkpt>
      <trkpt lat="44.48692" lon="6.24995">
        <ele>1389</ele>
        <time>2018-06-23T20:02:38Z</time>
      </trkpt>
      <trkpt lat="44.48693" lon="6.24995">
        <ele>1389</ele>
        <time>2018-06-23T20:02:43Z</time>
      </trkpt>
      <trkpt lat="44.48692" lon="6.24995">
        <ele>1389</ele>
        <time>2018-06-23T20:02:48Z</time>
      </trkpt>
      <trkpt lat="44.48692" lon="6.24995">
        <ele>1389</ele>
        <time>2018-06-23T20:02:53Z</time>
      </trkpt>
      <trkpt lat="44.48692" lon="6.24995">
        <ele>1389</ele>
        <time>2018-06-23T20:02:58Z</time>
      </trkpt>
      <trkpt lat="44.48692" lon="6.24995">
        <ele>1389</ele>
        <time>2018-06-23T20:03:03Z</time>
      </trkpt>
      <trkpt lat="44.48692" lon="6.24995">
        <ele>1389</ele>
        <time>2018-06-23T20:03:08Z</time>
      </trkpt>
      <trkpt lat="44.48693" lon="6.24995">
        <ele>1389</ele>
        <time>2018-06-23T20:03:13Z</time>
      </trkpt>
      <trkpt lat="44.48692" lon="6.24995">
        <ele>1389</ele>
        <time>2018-06-23T20:03:18Z</time>
      </trkpt>
      <trkpt lat="44.48692" lon="6.24995">
        <ele>1389</ele>
        <time>2018-06-23T20:03:23Z</time>
      </trkpt>
      <trkpt lat="44.48692" lon="6.24995">
        <ele>1389</ele>
        <time>2018-06-23T20:03:28Z</time>
      </trkpt>
      <trkpt lat="44.48692" lon="6.24995">
        <ele>1389</ele>
        <time>2018-06-23T20:03:33Z</time>
      </trkpt>
      <trkpt lat="44.48692" lon="6.24995">
        <ele>1389</ele>
        <time>2018-06-23T20:03:38Z</time>
      </trkpt>
      <trkpt lat="44.48692" lon="6.24994">
        <ele>1389</ele>
        <time>2018-06-23T20:03:43Z</time>
      </trkpt>
      <trkpt lat="44.48691" lon="6.24989">
        <ele>1390</ele>
        <time>2018-06-23T20:03:48Z</time>
      </trkpt>
      <trkpt lat="44.4869" lon="6.24984">
        <ele>1391</ele>
        <time>2018-06-23T20:03:53Z</time>
      </trkpt>
      <trkpt lat="44.4869" lon="6.24979">
        <ele>1391</ele>
        <time>2018-06-23T20:03:58Z</time>
      </trkpt>
      <trkpt lat="44.48689" lon="6.24977">
        <ele>1391</ele>
        <time>2018-06-23T20:04:03Z</time>
      </trkpt>
      <trkpt lat="44.48689" lon="6.24981">
        <ele>1391</ele>
        <time>2018-06-23T20:04:08Z</time>
      </trkpt>
      <trkpt lat="44.48689" lon="6.24983">
        <ele>1391</ele>
        <time>2018-06-23T20:04:13Z</time>
      </trkpt>
      <trkpt lat="44.48689" lon="6.24987">
        <ele>1390</ele>
        <time>2018-06-23T20:04:18Z</time>
      </trkpt>
      <trkpt lat="44.48691" lon="6.2499">
        <ele>1390</ele>
        <time>2018-06-23T20:04:23Z</time>
      </trkpt>
      <trkpt lat="44.48691" lon="6.24995">
        <ele>1389</ele>
        <time>2018-06-23T20:04:28Z</time>
      </trkpt>
      <trkpt lat="44.4869" lon="6.24996">
        <ele>1388</ele>
        <time>2018-06-23T20:04:33Z</time>
      </trkpt>
      <trkpt lat="44.4869" lon="6.24996">
        <ele>1388</ele>
        <time>2018-06-23T20:04:38Z</time>
      </trkpt>
      <trkpt lat="44.48691" lon="6.24996">
        <ele>1388</ele>
        <time>2018-06-23T20:04:43Z</time>
      </trkpt>
      <trkpt lat="44.48691" lon="6.24996">
        <ele>1388</ele>
        <time>2018-06-23T20:04:48Z</time>
      </trkpt>
      <trkpt lat="44.48692" lon="6.24996">
        <ele>1389</ele>
        <time>2018-06-23T20:04:53Z</time>
      </trkpt>
      <trkpt lat="44.48692" lon="6.24996">
        <ele>1389</ele>
        <time>2018-06-23T20:04:58Z</time>
      </trkpt>
      <trkpt lat="44.48692" lon="6.24996">
        <ele>1389</ele>
        <time>2018-06-23T20:05:03Z</time>
      </trkpt>
      <trkpt lat="44.48692" lon="6.24996">
        <ele>1389</ele>
        <time>2018-06-23T20:05:08Z</time>
      </trkpt>
      <trkpt lat="44.48691" lon="6.24996">
        <ele>1388</ele>
        <time>2018-06-23T20:05:13Z</time>
      </trkpt>
      <trkpt lat="44.48691" lon="6.24997">
        <ele>1388</ele>
        <time>2018-06-23T20:05:18Z</time>
      </trkpt>
      <trkpt lat="44.48691" lon="6.24997">
        <ele>1388</ele>
        <time>2018-06-23T20:05:23Z</time>
      </trkpt>
      <trkpt lat="44.48691" lon="6.24999">
        <ele>1388</ele>
        <time>2018-06-23T20:05:28Z</time>
      </trkpt>
      <trkpt lat="44.48691" lon="6.24999">
        <ele>1388</ele>
        <time>2018-06-23T20:05:33Z</time>
      </trkpt>
      <trkpt lat="44.48691" lon="6.25">
        <ele>1388</ele>
        <time>2018-06-23T20:05:38Z</time>
      </trkpt>
      <trkpt lat="44.48691" lon="6.25">
        <ele>1388</ele>
        <time>2018-06-23T20:05:43Z</time>
      </trkpt>
      <trkpt lat="44.48691" lon="6.25">
        <ele>1388</ele>
        <time>2018-06-23T20:05:48Z</time>
      </trkpt>
      <trkpt lat="44.48691" lon="6.25">
        <ele>1388</ele>
        <time>2018-06-23T20:05:53Z</time>
      </trkpt>
      <trkpt lat="44.48689" lon="6.24997">
        <ele>1388</ele>
        <time>2018-06-23T20:05:58Z</time>
      </trkpt>
      <trkpt lat="44.48688" lon="6.24991">
        <ele>1389</ele>
        <time>2018-06-23T20:06:03Z</time>
      </trkpt>
      <trkpt lat="44.48688" lon="6.24987">
        <ele>1390</ele>
        <time>2018-06-23T20:06:08Z</time>
      </trkpt>
      <trkpt lat="44.48689" lon="6.24981">
        <ele>1391</ele>
        <time>2018-06-23T20:06:13Z</time>
      </trkpt>
      <trkpt lat="44.48688" lon="6.24977">
        <ele>1391</ele>
        <time>2018-06-23T20:06:18Z</time>
      </trkpt>
      <trkpt lat="44.48688" lon="6.24977">
        <ele>1391</ele>
        <time>2018-06-23T20:06:23Z</time>
      </trkpt>
      <trkpt lat="44.48688" lon="6.24977">
        <ele>1391</ele>
        <time>2018-06-23T20:06:28Z</time>
      </trkpt>
      <trkpt lat="44.48687" lon="6.24977">
        <ele>1391</ele>
        <time>2018-06-23T20:06:33Z</time>
      </trkpt>
      <trkpt lat="44.48688" lon="6.24977">
        <ele>1391</ele>
        <time>2018-06-23T20:06:38Z</time>
      </trkpt>
      <trkpt lat="44.48689" lon="6.24976">
        <ele>1391</ele>
        <time>2018-06-23T20:06:43Z</time>
      </trkpt>
      <trkpt lat="44.48688" lon="6.24972">
        <ele>1391</ele>
        <time>2018-06-23T20:06:48Z</time>
      </trkpt>
      <trkpt lat="44.48688" lon="6.24965">
        <ele>1391</ele>
        <time>2018-06-23T20:06:53Z</time>
      </trkpt>
      <trkpt lat="44.48689" lon="6.24958">
        <ele>1391</ele>
        <time>2018-06-23T20:06:58Z</time>
      </trkpt>
      <trkpt lat="44.4869" lon="6.24953">
        <ele>1391</ele>
        <time>2018-06-23T20:07:03Z</time>
      </trkpt>
      <trkpt lat="44.48689" lon="6.24946">
        <ele>1391</ele>
        <time>2018-06-23T20:07:08Z</time>
      </trkpt>
      <trkpt lat="44.48687" lon="6.24941">
        <ele>1391</ele>
        <time>2018-06-23T20:07:13Z</time>
      </trkpt>
      <trkpt lat="44.48687" lon="6.24939">
        <ele>1391</ele>
        <time>2018-06-23T20:07:18Z</time>
      </trkpt>
      <trkpt lat="44.48686" lon="6.24939">
        <ele>1392</ele>
        <time>2018-06-23T20:07:23Z</time>
      </trkpt>
      <trkpt lat="44.48686" lon="6.24939">
        <ele>1392</ele>
        <time>2018-06-23T20:07:28Z</time>
      </trkpt>
      <trkpt lat="44.48687" lon="6.24939">
        <ele>1391</ele>
        <time>2018-06-23T20:07:33Z</time>
      </trkpt>
      <trkpt lat="44.48687" lon="6.24939">
        <ele>1391</ele>
        <time>2018-06-23T20:07:38Z</time>
      </trkpt>
      <trkpt lat="44.48687" lon="6.2494">
        <ele>1391</ele>
        <time>2018-06-23T20:07:43Z</time>
      </trkpt>
      <trkpt lat="44.48688" lon="6.2494">
        <ele>1391</ele>
        <time>2018-06-23T20:07:48Z</time>
      </trkpt>
      <trkpt lat="44.48688" lon="6.2494">
        <ele>1391</ele>
        <time>2018-06-23T20:07:53Z</time>
      </trkpt>
      <trkpt lat="44.48687" lon="6.24939">
        <ele>1391</ele>
        <time>2018-06-23T20:07:58Z</time>
      </trkpt>
      <trkpt lat="44.48687" lon="6.24936">
        <ele>1391</ele>
        <time>2018-06-23T20:08:03Z</time>
      </trkpt>
      <trkpt lat="44.48688" lon="6.24932">
        <ele>1391</ele>
        <time>2018-06-23T20:08:08Z</time>
      </trkpt>
      <trkpt lat="44.48689" lon="6.24928">
        <ele>1391</ele>
        <time>2018-06-23T20:08:13Z</time>
      </trkpt>
      <trkpt lat="44.48689" lon="6.24921">
        <ele>1391</ele>
        <time>2018-06-23T20:08:18Z</time>
      </trkpt>
      <trkpt lat="44.48688" lon="6.24912">
        <ele>1390</ele>
        <time>2018-06-23T20:08:23Z</time>
      </trkpt>
      <trkpt lat="44.48685" lon="6.24907">
        <ele>1390</ele>
        <time>2018-06-23T20:08:28Z</time>
      </trkpt>
      <trkpt lat="44.48684" lon="6.24901">
        <ele>1389</ele>
        <time>2018-06-23T20:08:33Z</time>
      </trkpt>
      <trkpt lat="44.48682" lon="6.24895">
        <ele>1388</ele>
        <time>2018-06-23T20:08:38Z</time>
      </trkpt>
      <trkpt lat="44.4868" lon="6.24892">
        <ele>1388</ele>
        <time>2018-06-23T20:08:43Z</time>
      </trkpt>
      <trkpt lat="44.4868" lon="6.24892">
        <ele>1388</ele>
        <time>2018-06-23T20:08:48Z</time>
      </trkpt>
      <trkpt lat="44.48678" lon="6.24885">
        <ele>1388</ele>
        <time>2018-06-23T20:08:53Z</time>
      </trkpt>
      <trkpt lat="44.48672" lon="6.2488">
        <ele>1388</ele>
        <time>2018-06-23T20:08:58Z</time>
      </trkpt>
      <trkpt lat="44.48665" lon="6.24875">
        <ele>1391</ele>
        <time>2018-06-23T20:09:03Z</time>
      </trkpt>
      <trkpt lat="44.48659" lon="6.24873">
        <ele>1393</ele>
        <time>2018-06-23T20:09:08Z</time>
      </trkpt>
      <trkpt lat="44.48657" lon="6.24872">
        <ele>1393</ele>
        <time>2018-06-23T20:09:13Z</time>
      </trkpt>
      <trkpt lat="44.48655" lon="6.24867">
        <ele>1393</ele>
        <time>2018-06-23T20:09:18Z</time>
      </trkpt>
      <trkpt lat="44.48653" lon="6.24864">
        <ele>1394</ele>
        <time>2018-06-23T20:09:23Z</time>
      </trkpt>
      <trkpt lat="44.48651" lon="6.2486">
        <ele>1394</ele>
        <time>2018-06-23T20:09:28Z</time>
      </trkpt>
      <trkpt lat="44.48644" lon="6.24855">
        <ele>1396</ele>
        <time>2018-06-23T20:09:33Z</time>
      </trkpt>
      <trkpt lat="44.4864" lon="6.24851">
        <ele>1397</ele>
        <time>2018-06-23T20:09:38Z</time>
      </trkpt>
      <trkpt lat="44.48634" lon="6.2485">
        <ele>1399</ele>
        <time>2018-06-23T20:09:43Z</time>
      </trkpt>
      <trkpt lat="44.48629" lon="6.24848">
        <ele>1400</ele>
        <time>2018-06-23T20:09:48Z</time>
      </trkpt>
      <trkpt lat="44.48625" lon="6.24846">
        <ele>1400</ele>
        <time>2018-06-23T20:09:53Z</time>
      </trkpt>
      <trkpt lat="44.4862" lon="6.24849">
        <ele>1402</ele>
        <time>2018-06-23T20:09:58Z</time>
      </trkpt>
      <trkpt lat="44.48618" lon="6.24849">
        <ele>1403</ele>
        <time>2018-06-23T20:10:03Z</time>
      </trkpt>
      <trkpt lat="44.48614" lon="6.24851">
        <ele>1404</ele>
        <time>2018-06-23T20:10:08Z</time>
      </trkpt>
      <trkpt lat="44.48611" lon="6.24853">
        <ele>1405</ele>
        <time>2018-06-23T20:10:13Z</time>
      </trkpt>
      <trkpt lat="44.48609" lon="6.24854">
        <ele>1406</ele>
        <time>2018-06-23T20:10:18Z</time>
      </trkpt>
      <trkpt lat="44.48607" lon="6.24853">
        <ele>1406</ele>
        <time>2018-06-23T20:10:23Z</time>
      </trkpt>
      <trkpt lat="44.48605" lon="6.2485">
        <ele>1406</ele>
        <time>2018-06-23T20:10:28Z</time>
      </trkpt>
      <trkpt lat="44.48603" lon="6.24848">
        <ele>1406</ele>
        <time>2018-06-23T20:10:33Z</time>
      </trkpt>
      <trkpt lat="44.486" lon="6.24848">
        <ele>1407</ele>
        <time>2018-06-23T20:10:38Z</time>
      </trkpt>
      <trkpt lat="44.48596" lon="6.24849">
        <ele>1408</ele>
        <time>2018-06-23T20:10:43Z</time>
      </trkpt>
      <trkpt lat="44.48592" lon="6.2485">
        <ele>1410</ele>
        <time>2018-06-23T20:10:48Z</time>
      </trkpt>
      <trkpt lat="44.48587" lon="6.24853">
        <ele>1411</ele>
        <time>2018-06-23T20:10:53Z</time>
      </trkpt>
      <trkpt lat="44.48581" lon="6.24852">
        <ele>1413</ele>
        <time>2018-06-23T20:10:58Z</time>
      </trkpt>
      <trkpt lat="44.48576" lon="6.24852">
        <ele>1414</ele>
        <time>2018-06-23T20:11:03Z</time>
      </trkpt>
      <trkpt lat="44.48571" lon="6.24853">
        <ele>1415</ele>
        <time>2018-06-23T20:11:08Z</time>
      </trkpt>
      <trkpt lat="44.48566" lon="6.24858">
        <ele>1414</ele>
        <time>2018-06-23T20:11:13Z</time>
      </trkpt>
      <trkpt lat="44.48563" lon="6.24866">
        <ele>1414</ele>
        <time>2018-06-23T20:11:18Z</time>
      </trkpt>
      <trkpt lat="44.48561" lon="6.24873">
        <ele>1413</ele>
        <time>2018-06-23T20:11:23Z</time>
      </trkpt>
      <trkpt lat="44.4856" lon="6.2488">
        <ele>1413</ele>
        <time>2018-06-23T20:11:28Z</time>
      </trkpt>
      <trkpt lat="44.48561" lon="6.24887">
        <ele>1414</ele>
        <time>2018-06-23T20:11:33Z</time>
      </trkpt>
      <trkpt lat="44.4856" lon="6.24891">
        <ele>1414</ele>
        <time>2018-06-23T20:11:38Z</time>
      </trkpt>
      <trkpt lat="44.48563" lon="6.24896">
        <ele>1415</ele>
        <time>2018-06-23T20:11:43Z</time>
      </trkpt>
      <trkpt lat="44.48563" lon="6.24898">
        <ele>1415</ele>
        <time>2018-06-23T20:11:48Z</time>
      </trkpt>
      <trkpt lat="44.48562" lon="6.24894">
        <ele>1415</ele>
        <time>2018-06-23T20:11:53Z</time>
      </trkpt>
      <trkpt lat="44.4856" lon="6.24892">
        <ele>1413</ele>
        <time>2018-06-23T20:11:58Z</time>
      </trkpt>
      <trkpt lat="44.48559" lon="6.24885">
        <ele>1413</ele>
        <time>2018-06-23T20:12:03Z</time>
      </trkpt>
      <trkpt lat="44.4856" lon="6.24876">
        <ele>1413</ele>
        <time>2018-06-23T20:12:08Z</time>
      </trkpt>
      <trkpt lat="44.48563" lon="6.24868">
        <ele>1414</ele>
        <time>2018-06-23T20:12:13Z</time>
      </trkpt>
      <trkpt lat="44.48563" lon="6.2486">
        <ele>1413</ele>
        <time>2018-06-23T20:12:18Z</time>
      </trkpt>
      <trkpt lat="44.48566" lon="6.24854">
        <ele>1414</ele>
        <time>2018-06-23T20:12:23Z</time>
      </trkpt>
      <trkpt lat="44.48568" lon="6.24855">
        <ele>1415</ele>
        <time>2018-06-23T20:12:28Z</time>
      </trkpt>
      <trkpt lat="44.48574" lon="6.24853">
        <ele>1414</ele>
        <time>2018-06-23T20:12:33Z</time>
      </trkpt>
      <trkpt lat="44.48578" lon="6.24851">
        <ele>1413</ele>
        <time>2018-06-23T20:12:38Z</time>
      </trkpt>
      <trkpt lat="44.48583" lon="6.24848">
        <ele>1412</ele>
        <time>2018-06-23T20:12:43Z</time>
      </trkpt>
      <trkpt lat="44.48588" lon="6.24845">
        <ele>1409</ele>
        <time>2018-06-23T20:12:48Z</time>
      </trkpt>
      <trkpt lat="44.48593" lon="6.24842">
        <ele>1407</ele>
        <time>2018-06-23T20:12:53Z</time>
      </trkpt>
      <trkpt lat="44.48598" lon="6.24841">
        <ele>1405</ele>
        <time>2018-06-23T20:12:58Z</time>
      </trkpt>
      <trkpt lat="44.48601" lon="6.24845">
        <ele>1406</ele>
        <time>2018-06-23T20:13:03Z</time>
      </trkpt>
      <trkpt lat="44.48604" lon="6.24848">
        <ele>1406</ele>
        <time>2018-06-23T20:13:08Z</time>
      </trkpt>
      <trkpt lat="44.48609" lon="6.24848">
        <ele>1405</ele>
        <time>2018-06-23T20:13:13Z</time>
      </trkpt>
      <trkpt lat="44.48615" lon="6.24844">
        <ele>1402</ele>
        <time>2018-06-23T20:13:18Z</time>
      </trkpt>
      <trkpt lat="44.48622" lon="6.24846">
        <ele>1401</ele>
        <time>2018-06-23T20:13:23Z</time>
      </trkpt>
      <trkpt lat="44.48628" lon="6.24847">
        <ele>1400</ele>
        <time>2018-06-23T20:13:28Z</time>
      </trkpt>
      <trkpt lat="44.48631" lon="6.24848">
        <ele>1399</ele>
        <time>2018-06-23T20:13:33Z</time>
      </trkpt>
      <trkpt lat="44.48634" lon="6.24854">
        <ele>1399</ele>
        <time>2018-06-23T20:13:38Z</time>
      </trkpt>
      <trkpt lat="44.48636" lon="6.24857">
        <ele>1400</ele>
        <time>2018-06-23T20:13:43Z</time>
      </trkpt>
      <trkpt lat="44.48636" lon="6.24857">
        <ele>1399</ele>
        <time>2018-06-23T20:13:48Z</time>
      </trkpt>
      <trkpt lat="44.48637" lon="6.24857">
        <ele>1399</ele>
        <time>2018-06-23T20:13:53Z</time>
      </trkpt>
      <trkpt lat="44.48637" lon="6.24855">
        <ele>1399</ele>
        <time>2018-06-23T20:13:58Z</time>
      </trkpt>
      <trkpt lat="44.48637" lon="6.24849">
        <ele>1398</ele>
        <time>2018-06-23T20:14:03Z</time>
      </trkpt>
      <trkpt lat="44.48637" lon="6.24847">
        <ele>1397</ele>
        <time>2018-06-23T20:14:08Z</time>
      </trkpt>
      <trkpt lat="44.48635" lon="6.24847">
        <ele>1398</ele>
        <time>2018-06-23T20:14:13Z</time>
      </trkpt>
      <trkpt lat="44.48631" lon="6.24846">
        <ele>1398</ele>
        <time>2018-06-23T20:14:18Z</time>
      </trkpt>
      <trkpt lat="44.48628" lon="6.24844">
        <ele>1398</ele>
        <time>2018-06-23T20:14:23Z</time>
      </trkpt>
      <trkpt lat="44.48624" lon="6.24846">
        <ele>1400</ele>
        <time>2018-06-23T20:14:28Z</time>
      </trkpt>
      <trkpt lat="44.48622" lon="6.24847">
        <ele>1401</ele>
        <time>2018-06-23T20:14:33Z</time>
      </trkpt>
      <trkpt lat="44.48622" lon="6.24847">
        <ele>1401</ele>
        <time>2018-06-23T20:14:38Z</time>
      </trkpt>
      <trkpt lat="44.4862" lon="6.24848">
        <ele>1402</ele>
        <time>2018-06-23T20:14:43Z</time>
      </trkpt>
      <trkpt lat="44.48618" lon="6.24849">
        <ele>1402</ele>
        <time>2018-06-23T20:14:48Z</time>
      </trkpt>
      <trkpt lat="44.48617" lon="6.2485">
        <ele>1403</ele>
        <time>2018-06-23T20:14:53Z</time>
      </trkpt>
      <trkpt lat="44.48615" lon="6.24849">
        <ele>1404</ele>
        <time>2018-06-23T20:14:58Z</time>
      </trkpt>
      <trkpt lat="44.4861" lon="6.24848">
        <ele>1405</ele>
        <time>2018-06-23T20:15:03Z</time>
      </trkpt>
      <trkpt lat="44.48605" lon="6.24847">
        <ele>1406</ele>
        <time>2018-06-23T20:15:08Z</time>
      </trkpt>
      <trkpt lat="44.48601" lon="6.24847">
        <ele>1407</ele>
        <time>2018-06-23T20:15:13Z</time>
      </trkpt>
      <trkpt lat="44.48598" lon="6.2485">
        <ele>1408</ele>
        <time>2018-06-23T20:15:18Z</time>
      </trkpt>
      <trkpt lat="44.48597" lon="6.2485">
        <ele>1408</ele>
        <time>2018-06-23T20:15:23Z</time>
      </trkpt>
      <trkpt lat="44.48597" lon="6.2485">
        <ele>1408</ele>
        <time>2018-06-23T20:15:28Z</time>
      </trkpt>
      <trkpt lat="44.48597" lon="6.2485">
        <ele>1408</ele>
        <time>2018-06-23T20:15:33Z</time>
      </trkpt>
      <trkpt lat="44.48597" lon="6.24851">
        <ele>1408</ele>
        <time>2018-06-23T20:15:38Z</time>
      </trkpt>
      <trkpt lat="44.48597" lon="6.24851">
        <ele>1408</ele>
        <time>2018-06-23T20:15:43Z</time>
      </trkpt>
      <trkpt lat="44.48596" lon="6.2485">
        <ele>1409</ele>
        <time>2018-06-23T20:15:48Z</time>
      </trkpt>
      <trkpt lat="44.48595" lon="6.2485">
        <ele>1409</ele>
        <time>2018-06-23T20:15:53Z</time>
      </trkpt>
      <trkpt lat="44.48593" lon="6.2485">
        <ele>1409</ele>
        <time>2018-06-23T20:15:58Z</time>
      </trkpt>
      <trkpt lat="44.48591" lon="6.24852">
        <ele>1410</ele>
        <time>2018-06-23T20:16:03Z</time>
      </trkpt>
      <trkpt lat="44.48577" lon="6.24852">
        <ele>1414</ele>
        <time>2018-06-23T20:16:13Z</time>
      </trkpt>
      <trkpt lat="44.48573" lon="6.24852">
        <ele>1415</ele>
        <time>2018-06-23T20:16:18Z</time>
      </trkpt>
      <trkpt lat="44.48569" lon="6.24852">
        <ele>1415</ele>
        <time>2018-06-23T20:16:23Z</time>
      </trkpt>
      <trkpt lat="44.48566" lon="6.24853">
        <ele>1414</ele>
        <time>2018-06-23T20:16:28Z</time>
      </trkpt>
      <trkpt lat="44.48564" lon="6.24856">
        <ele>1413</ele>
        <time>2018-06-23T20:16:33Z</time>
      </trkpt>
      <trkpt lat="44.48563" lon="6.24861">
        <ele>1413</ele>
        <time>2018-06-23T20:16:38Z</time>
      </trkpt>
      <trkpt lat="44.48563" lon="6.24866">
        <ele>1414</ele>
        <time>2018-06-23T20:16:43Z</time>
      </trkpt>
      <trkpt lat="44.48562" lon="6.24871">
        <ele>1413</ele>
        <time>2018-06-23T20:16:48Z</time>
      </trkpt>
      <trkpt lat="44.48561" lon="6.24877">
        <ele>1413</ele>
        <time>2018-06-23T20:16:53Z</time>
      </trkpt>
      <trkpt lat="44.48561" lon="6.24885">
        <ele>1414</ele>
        <time>2018-06-23T20:16:58Z</time>
      </trkpt>
      <trkpt lat="44.48562" lon="6.2489">
        <ele>1414</ele>
        <time>2018-06-23T20:17:03Z</time>
      </trkpt>
      <trkpt lat="44.48564" lon="6.24894">
        <ele>1416</ele>
        <time>2018-06-23T20:17:08Z</time>
      </trkpt>
      <trkpt lat="44.48565" lon="6.24899">
        <ele>1416</ele>
        <time>2018-06-23T20:17:13Z</time>
      </trkpt>
      <trkpt lat="44.48565" lon="6.24899">
        <ele>1416</ele>
        <time>2018-06-23T20:17:18Z</time>
      </trkpt>
      <trkpt lat="44.48564" lon="6.24899">
        <ele>1416</ele>
        <time>2018-06-23T20:17:23Z</time>
      </trkpt>
      <trkpt lat="44.48565" lon="6.24899">
        <ele>1416</ele>
        <time>2018-06-23T20:17:28Z</time>
      </trkpt>
      <trkpt lat="44.48565" lon="6.24899">
        <ele>1416</ele>
        <time>2018-06-23T20:17:33Z</time>
      </trkpt>
      <trkpt lat="44.48565" lon="6.24899">
        <ele>1416</ele>
        <time>2018-06-23T20:17:38Z</time>
      </trkpt>
      <trkpt lat="44.48565" lon="6.24898">
        <ele>1416</ele>
        <time>2018-06-23T20:17:43Z</time>
      </trkpt>
      <trkpt lat="44.48565" lon="6.24899">
        <ele>1416</ele>
        <time>2018-06-23T20:17:48Z</time>
      </trkpt>
      <trkpt lat="44.48566" lon="6.24899">
        <ele>1417</ele>
        <time>2018-06-23T20:17:53Z</time>
      </trkpt>
      <trkpt lat="44.48566" lon="6.24898">
        <ele>1417</ele>
        <time>2018-06-23T20:17:58Z</time>
      </trkpt>
      <trkpt lat="44.48566" lon="6.24898">
        <ele>1417</ele>
        <time>2018-06-23T20:18:03Z</time>
      </trkpt>
      <trkpt lat="44.48565" lon="6.24898">
        <ele>1416</ele>
        <time>2018-06-23T20:18:08Z</time>
      </trkpt>
      <trkpt lat="44.48565" lon="6.24898">
        <ele>1416</ele>
        <time>2018-06-23T20:18:13Z</time>
      </trkpt>
      <trkpt lat="44.48565" lon="6.24896">
        <ele>1416</ele>
        <time>2018-06-23T20:18:18Z</time>
      </trkpt>
      <trkpt lat="44.48563" lon="6.24893">
        <ele>1415</ele>
        <time>2018-06-23T20:18:23Z</time>
      </trkpt>
      <trkpt lat="44.48563" lon="6.24892">
        <ele>1415</ele>
        <time>2018-06-23T20:18:28Z</time>
      </trkpt>
      <trkpt lat="44.48564" lon="6.24891">
        <ele>1415</ele>
        <time>2018-06-23T20:18:33Z</time>
      </trkpt>
      <trkpt lat="44.48562" lon="6.24888">
        <ele>1414</ele>
        <time>2018-06-23T20:18:38Z</time>
      </trkpt>
      <trkpt lat="44.48561" lon="6.24886">
        <ele>1414</ele>
        <time>2018-06-23T20:18:43Z</time>
      </trkpt>
      <trkpt lat="44.4856" lon="6.24886">
        <ele>1414</ele>
        <time>2018-06-23T20:18:48Z</time>
      </trkpt>
      <trkpt lat="44.4856" lon="6.24887">
        <ele>1414</ele>
        <time>2018-06-23T20:18:53Z</time>
      </trkpt>
      <trkpt lat="44.4856" lon="6.24887">
        <ele>1414</ele>
        <time>2018-06-23T20:18:58Z</time>
      </trkpt>
      <trkpt lat="44.4856" lon="6.24883">
        <ele>1413</ele>
        <time>2018-06-23T20:19:03Z</time>
      </trkpt>
      <trkpt lat="44.48561" lon="6.24882">
        <ele>1413</ele>
        <time>2018-06-23T20:19:08Z</time>
      </trkpt>
      <trkpt lat="44.48561" lon="6.24885">
        <ele>1414</ele>
        <time>2018-06-23T20:19:13Z</time>
      </trkpt>
      <trkpt lat="44.48561" lon="6.24888">
        <ele>1414</ele>
        <time>2018-06-23T20:19:18Z</time>
      </trkpt>
      <trkpt lat="44.48562" lon="6.24892">
        <ele>1414</ele>
        <time>2018-06-23T20:19:23Z</time>
      </trkpt>
      <trkpt lat="44.48564" lon="6.24895">
        <ele>1415</ele>
        <time>2018-06-23T20:19:28Z</time>
      </trkpt>
      <trkpt lat="44.48565" lon="6.24895">
        <ele>1416</ele>
        <time>2018-06-23T20:19:33Z</time>
      </trkpt>
      <trkpt lat="44.48565" lon="6.24896">
        <ele>1416</ele>
        <time>2018-06-23T20:19:38Z</time>
      </trkpt>
      <trkpt lat="44.48565" lon="6.24896">
        <ele>1416</ele>
        <time>2018-06-23T20:19:43Z</time>
      </trkpt>
      <trkpt lat="44.48565" lon="6.24896">
        <ele>1416</ele>
        <time>2018-06-23T20:19:48Z</time>
      </trkpt>
      <trkpt lat="44.48565" lon="6.24896">
        <ele>1416</ele>
        <time>2018-06-23T20:19:53Z</time>
      </trkpt>
      <trkpt lat="44.48566" lon="6.24896">
        <ele>1416</ele>
        <time>2018-06-23T20:19:58Z</time>
      </trkpt>
      <trkpt lat="44.48565" lon="6.24896">
        <ele>1416</ele>
        <time>2018-06-23T20:20:03Z</time>
      </trkpt>
      <trkpt lat="44.48565" lon="6.24896">
        <ele>1416</ele>
        <time>2018-06-23T20:20:08Z</time>
      </trkpt>
      <trkpt lat="44.48565" lon="6.24896">
        <ele>1416</ele>
        <time>2018-06-23T20:20:13Z</time>
      </trkpt>
      <trkpt lat="44.48565" lon="6.24896">
        <ele>1416</ele>
        <time>2018-06-23T20:20:18Z</time>
      </trkpt>
      <trkpt lat="44.48565" lon="6.24896">
        <ele>1416</ele>
        <time>2018-06-23T20:20:23Z</time>
      </trkpt>
      <trkpt lat="44.48565" lon="6.24896">
        <ele>1416</ele>
        <time>2018-06-23T20:20:28Z</time>
      </trkpt>
      <trkpt lat="44.48565" lon="6.24896">
        <ele>1416</ele>
        <time>2018-06-23T20:20:33Z</time>
      </trkpt>
      <trkpt lat="44.48565" lon="6.24896">
        <ele>1416</ele>
        <time>2018-06-23T20:20:38Z</time>
      </trkpt>
      <trkpt lat="44.48565" lon="6.24896">
        <ele>1416</ele>
        <time>2018-06-23T20:20:43Z</time>
      </trkpt>
      <trkpt lat="44.48565" lon="6.24896">
        <ele>1416</ele>
        <time>2018-06-23T20:20:48Z</time>
      </trkpt>
      <trkpt lat="44.48565" lon="6.24896">
        <ele>1416</ele>
        <time>2018-06-23T20:20:53Z</time>
      </trkpt>
      <trkpt lat="44.48565" lon="6.24896">
        <ele>1416</ele>
        <time>2018-06-23T20:20:58Z</time>
      </trkpt>
      <trkpt lat="44.48565" lon="6.24896">
        <ele>1416</ele>
        <time>2018-06-23T20:21:03Z</time>
      </trkpt>
      <trkpt lat="44.48565" lon="6.24896">
        <ele>1416</ele>
        <time>2018-06-23T20:21:08Z</time>
      </trkpt>
      <trkpt lat="44.48565" lon="6.24896">
        <ele>1416</ele>
        <time>2018-06-23T20:21:13Z</time>
      </trkpt>
      <trkpt lat="44.48563" lon="6.24893">
        <ele>1415</ele>
        <time>2018-06-23T20:21:18Z</time>
      </trkpt>
      <trkpt lat="44.48561" lon="6.2489">
        <ele>1414</ele>
        <time>2018-06-23T20:21:23Z</time>
      </trkpt>
      <trkpt lat="44.4856" lon="6.24886">
        <ele>1413</ele>
        <time>2018-06-23T20:21:28Z</time>
      </trkpt>
      <trkpt lat="44.48559" lon="6.24883">
        <ele>1413</ele>
        <time>2018-06-23T20:21:33Z</time>
      </trkpt>
      <trkpt lat="44.48558" lon="6.24882">
        <ele>1412</ele>
        <time>2018-06-23T20:21:38Z</time>
      </trkpt>
      <trkpt lat="44.48558" lon="6.24881">
        <ele>1412</ele>
        <time>2018-06-23T20:21:43Z</time>
      </trkpt>
      <trkpt lat="44.48559" lon="6.2488">
        <ele>1412</ele>
        <time>2018-06-23T20:21:48Z</time>
      </trkpt>
      <trkpt lat="44.48558" lon="6.2488">
        <ele>1412</ele>
        <time>2018-06-23T20:21:53Z</time>
      </trkpt>
      <trkpt lat="44.48558" lon="6.2488">
        <ele>1412</ele>
        <time>2018-06-23T20:21:58Z</time>
      </trkpt>
      <trkpt lat="44.48558" lon="6.24881">
        <ele>1412</ele>
        <time>2018-06-23T20:22:03Z</time>
      </trkpt>
      <trkpt lat="44.48558" lon="6.2488">
        <ele>1412</ele>
        <time>2018-06-23T20:22:08Z</time>
      </trkpt>
      <trkpt lat="44.48558" lon="6.2488">
        <ele>1412</ele>
        <time>2018-06-23T20:22:13Z</time>
      </trkpt>
      <trkpt lat="44.48558" lon="6.2488">
        <ele>1412</ele>
        <time>2018-06-23T20:22:18Z</time>
      </trkpt>
      <trkpt lat="44.48559" lon="6.24879">
        <ele>1412</ele>
        <time>2018-06-23T20:22:23Z</time>
      </trkpt>
      <trkpt lat="44.4856" lon="6.24875">
        <ele>1413</ele>
        <time>2018-06-23T20:22:28Z</time>
      </trkpt>
      <trkpt lat="44.48561" lon="6.24869">
        <ele>1413</ele>
        <time>2018-06-23T20:22:33Z</time>
      </trkpt>
      <trkpt lat="44.48561" lon="6.24861">
        <ele>1413</ele>
        <time>2018-06-23T20:22:38Z</time>
      </trkpt>
      <trkpt lat="44.48565" lon="6.24855">
        <ele>1414</ele>
        <time>2018-06-23T20:22:43Z</time>
      </trkpt>
      <trkpt lat="44.48569" lon="6.24856">
        <ele>1415</ele>
        <time>2018-06-23T20:22:48Z</time>
      </trkpt>
      <trkpt lat="44.48571" lon="6.24856">
        <ele>1415</ele>
        <time>2018-06-23T20:22:53Z</time>
      </trkpt>
      <trkpt lat="44.48571" lon="6.24854">
        <ele>1415</ele>
        <time>2018-06-23T20:22:58Z</time>
      </trkpt>
      <trkpt lat="44.48571" lon="6.24855">
        <ele>1415</ele>
        <time>2018-06-23T20:23:03Z</time>
      </trkpt>
      <trkpt lat="44.48572" lon="6.24855">
        <ele>1415</ele>
        <time>2018-06-23T20:23:08Z</time>
      </trkpt>
      <trkpt lat="44.48576" lon="6.24854">
        <ele>1414</ele>
        <time>2018-06-23T20:23:13Z</time>
      </trkpt>
      <trkpt lat="44.4858" lon="6.24852">
        <ele>1413</ele>
        <time>2018-06-23T20:23:18Z</time>
      </trkpt>
      <trkpt lat="44.48584" lon="6.2485">
        <ele>1411</ele>
        <time>2018-06-23T20:23:23Z</time>
      </trkpt>
      <trkpt lat="44.48588" lon="6.24847">
        <ele>1410</ele>
        <time>2018-06-23T20:23:28Z</time>
      </trkpt>
      <trkpt lat="44.48591" lon="6.24845">
        <ele>1409</ele>
        <time>2018-06-23T20:23:33Z</time>
      </trkpt>
      <trkpt lat="44.48594" lon="6.24845">
        <ele>1408</ele>
        <time>2018-06-23T20:23:38Z</time>
      </trkpt>
      <trkpt lat="44.48595" lon="6.24846">
        <ele>1408</ele>
        <time>2018-06-23T20:23:43Z</time>
      </trkpt>
      <trkpt lat="44.48597" lon="6.24846">
        <ele>1407</ele>
        <time>2018-06-23T20:23:48Z</time>
      </trkpt>
      <trkpt lat="44.486" lon="6.24849">
        <ele>1407</ele>
        <time>2018-06-23T20:23:53Z</time>
      </trkpt>
      <trkpt lat="44.48604" lon="6.24849">
        <ele>1406</ele>
        <time>2018-06-23T20:23:58Z</time>
      </trkpt>
      <trkpt lat="44.48607" lon="6.2485">
        <ele>1405</ele>
        <time>2018-06-23T20:24:03Z</time>
      </trkpt>
      <trkpt lat="44.48612" lon="6.24848">
        <ele>1404</ele>
        <time>2018-06-23T20:24:08Z</time>
      </trkpt>
      <trkpt lat="44.48616" lon="6.24846">
        <ele>1402</ele>
        <time>2018-06-23T20:24:13Z</time>
      </trkpt>
      <trkpt lat="44.48618" lon="6.24845">
        <ele>1401</ele>
        <time>2018-06-23T20:24:18Z</time>
      </trkpt>
      <trkpt lat="44.48622" lon="6.24846">
        <ele>1401</ele>
        <time>2018-06-23T20:24:23Z</time>
      </trkpt>
      <trkpt lat="44.48624" lon="6.24848">
        <ele>1401</ele>
        <time>2018-06-23T20:24:28Z</time>
      </trkpt>
      <trkpt lat="44.48629" lon="6.24849">
        <ele>1400</ele>
        <time>2018-06-23T20:24:33Z</time>
      </trkpt>
      <trkpt lat="44.4863" lon="6.24849">
        <ele>1400</ele>
        <time>2018-06-23T20:24:38Z</time>
      </trkpt>
      <trkpt lat="44.4863" lon="6.2485">
        <ele>1400</ele>
        <time>2018-06-23T20:24:43Z</time>
      </trkpt>
      <trkpt lat="44.48633" lon="6.24852">
        <ele>1399</ele>
        <time>2018-06-23T20:24:48Z</time>
      </trkpt>
      <trkpt lat="44.48636" lon="6.24852">
        <ele>1399</ele>
        <time>2018-06-23T20:24:53Z</time>
      </trkpt>
      <trkpt lat="44.48639" lon="6.24856">
        <ele>1399</ele>
        <time>2018-06-23T20:24:58Z</time>
      </trkpt>
      <trkpt lat="44.48643" lon="6.2486">
        <ele>1397</ele>
        <time>2018-06-23T20:25:03Z</time>
      </trkpt>
      <trkpt lat="44.48648" lon="6.24863">
        <ele>1396</ele>
        <time>2018-06-23T20:25:08Z</time>
      </trkpt>
      <trkpt lat="44.48651" lon="6.24866">
        <ele>1395</ele>
        <time>2018-06-23T20:25:13Z</time>
      </trkpt>
      <trkpt lat="44.48655" lon="6.24869">
        <ele>1394</ele>
        <time>2018-06-23T20:25:18Z</time>
      </trkpt>
      <trkpt lat="44.48658" lon="6.24873">
        <ele>1393</ele>
        <time>2018-06-23T20:25:23Z</time>
      </trkpt>
      <trkpt lat="44.48662" lon="6.24875">
        <ele>1392</ele>
        <time>2018-06-23T20:25:28Z</time>
      </trkpt>
      <trkpt lat="44.48665" lon="6.24875">
        <ele>1391</ele>
        <time>2018-06-23T20:25:33Z</time>
      </trkpt>
      <trkpt lat="44.48668" lon="6.24876">
        <ele>1389</ele>
        <time>2018-06-23T20:25:38Z</time>
      </trkpt>
      <trkpt lat="44.48671" lon="6.2488">
        <ele>1389</ele>
        <time>2018-06-23T20:25:43Z</time>
      </trkpt>
      <trkpt lat="44.48672" lon="6.24881">
        <ele>1388</ele>
        <time>2018-06-23T20:25:48Z</time>
      </trkpt>
      <trkpt lat="44.48675" lon="6.2488">
        <ele>1387</ele>
        <time>2018-06-23T20:25:53Z</time>
      </trkpt>
      <trkpt lat="44.48677" lon="6.24885">
        <ele>1388</ele>
        <time>2018-06-23T20:25:58Z</time>
      </trkpt>
      <trkpt lat="44.4868" lon="6.24889">
        <ele>1387</ele>
        <time>2018-06-23T20:26:03Z</time>
      </trkpt>
      <trkpt lat="44.48681" lon="6.24892">
        <ele>1388</ele>
        <time>2018-06-23T20:26:08Z</time>
      </trkpt>
      <trkpt lat="44.48682" lon="6.24892">
        <ele>1387</ele>
        <time>2018-06-23T20:26:13Z</time>
      </trkpt>
      <trkpt lat="44.48682" lon="6.24891">
        <ele>1387</ele>
        <time>2018-06-23T20:26:18Z</time>
      </trkpt>
      <trkpt lat="44.48682" lon="6.24892">
        <ele>1387</ele>
        <time>2018-06-23T20:26:23Z</time>
      </trkpt>
      <trkpt lat="44.48682" lon="6.24893">
        <ele>1388</ele>
        <time>2018-06-23T20:26:28Z</time>
      </trkpt>
      <trkpt lat="44.48683" lon="6.24898">
        <ele>1389</ele>
        <time>2018-06-23T20:26:33Z</time>
      </trkpt>
      <trkpt lat="44.48684" lon="6.24902">
        <ele>1389</ele>
        <time>2018-06-23T20:26:38Z</time>
      </trkpt>
      <trkpt lat="44.48686" lon="6.24906">
        <ele>1389</ele>
        <time>2018-06-23T20:26:43Z</time>
      </trkpt>
      <trkpt lat="44.48687" lon="6.24912">
        <ele>1391</ele>
        <time>2018-06-23T20:26:48Z</time>
      </trkpt>
      <trkpt lat="44.48687" lon="6.24918">
        <ele>1391</ele>
        <time>2018-06-23T20:26:53Z</time>
      </trkpt>
      <trkpt lat="44.48686" lon="6.24923">
        <ele>1392</ele>
        <time>2018-06-23T20:26:58Z</time>
      </trkpt>
      <trkpt lat="44.48686" lon="6.24928">
        <ele>1392</ele>
        <time>2018-06-23T20:27:03Z</time>
      </trkpt>
      <trkpt lat="44.48683" lon="6.24933">
        <ele>1392</ele>
        <time>2018-06-23T20:27:08Z</time>
      </trkpt>
      <trkpt lat="44.48681" lon="6.24937">
        <ele>1392</ele>
        <time>2018-06-23T20:27:13Z</time>
      </trkpt>
      <trkpt lat="44.48681" lon="6.2494">
        <ele>1392</ele>
        <time>2018-06-23T20:27:18Z</time>
      </trkpt>
      <trkpt lat="44.48681" lon="6.24945">
        <ele>1392</ele>
        <time>2018-06-23T20:27:23Z</time>
      </trkpt>
      <trkpt lat="44.48683" lon="6.24951">
        <ele>1392</ele>
        <time>2018-06-23T20:27:28Z</time>
      </trkpt>
      <trkpt lat="44.48682" lon="6.24954">
        <ele>1391</ele>
        <time>2018-06-23T20:27:33Z</time>
      </trkpt>
      <trkpt lat="44.48683" lon="6.24956">
        <ele>1391</ele>
        <time>2018-06-23T20:27:38Z</time>
      </trkpt>
      <trkpt lat="44.48682" lon="6.24959">
        <ele>1391</ele>
        <time>2018-06-23T20:27:43Z</time>
      </trkpt>
      <trkpt lat="44.48681" lon="6.24962">
        <ele>1391</ele>
        <time>2018-06-23T20:27:48Z</time>
      </trkpt>
      <trkpt lat="44.4868" lon="6.24966">
        <ele>1391</ele>
        <time>2018-06-23T20:27:53Z</time>
      </trkpt>
      <trkpt lat="44.48679" lon="6.24969">
        <ele>1391</ele>
        <time>2018-06-23T20:27:58Z</time>
      </trkpt>
      <trkpt lat="44.4868" lon="6.24974">
        <ele>1390</ele>
        <time>2018-06-23T20:28:03Z</time>
      </trkpt>
      <trkpt lat="44.4868" lon="6.24977">
        <ele>1390</ele>
        <time>2018-06-23T20:28:08Z</time>
      </trkpt>
      <trkpt lat="44.48684" lon="6.24979">
        <ele>1390</ele>
        <time>2018-06-23T20:28:13Z</time>
      </trkpt>
      <trkpt lat="44.48685" lon="6.24982">
        <ele>1390</ele>
        <time>2018-06-23T20:28:18Z</time>
      </trkpt>
      <trkpt lat="44.48688" lon="6.24983">
        <ele>1390</ele>
        <time>2018-06-23T20:28:23Z</time>
      </trkpt>
      <trkpt lat="44.4869" lon="6.24984">
        <ele>1391</ele>
        <time>2018-06-23T20:28:28Z</time>
      </trkpt>
      <trkpt lat="44.4869" lon="6.24985">
        <ele>1391</ele>
        <time>2018-06-23T20:28:33Z</time>
      </trkpt>
      <trkpt lat="44.4869" lon="6.24984">
        <ele>1391</ele>
        <time>2018-06-23T20:28:38Z</time>
      </trkpt>
      <trkpt lat="44.4869" lon="6.24985">
        <ele>1391</ele>
        <time>2018-06-23T20:28:43Z</time>
      </trkpt>
      <trkpt lat="44.4869" lon="6.24984">
        <ele>1391</ele>
        <time>2018-06-23T20:28:48Z</time>
      </trkpt>
      <trkpt lat="44.4869" lon="6.24986">
        <ele>1390</ele>
        <time>2018-06-23T20:28:53Z</time>
      </trkpt>
      <trkpt lat="44.48691" lon="6.24986">
        <ele>1390</ele>
        <time>2018-06-23T20:28:58Z</time>
      </trkpt>
      <trkpt lat="44.48691" lon="6.24989">
        <ele>1390</ele>
        <time>2018-06-23T20:29:03Z</time>
      </trkpt>
      <trkpt lat="44.48691" lon="6.24991">
        <ele>1389</ele>
        <time>2018-06-23T20:29:08Z</time>
      </trkpt>
      <trkpt lat="44.48692" lon="6.24991">
        <ele>1390</ele>
        <time>2018-06-23T20:29:13Z</time>
      </trkpt>
      <trkpt lat="44.48692" lon="6.2499">
        <ele>1390</ele>
        <time>2018-06-23T20:29:18Z</time>
      </trkpt>
      <trkpt lat="44.48694" lon="6.24993">
        <ele>1390</ele>
        <time>2018-06-23T20:29:23Z</time>
      </trkpt>
      <trkpt lat="44.48696" lon="6.24996">
        <ele>1389</ele>
        <time>2018-06-23T20:29:28Z</time>
      </trkpt>
      <trkpt lat="44.48697" lon="6.24999">
        <ele>1389</ele>
        <time>2018-06-23T20:29:33Z</time>
      </trkpt>
      <trkpt lat="44.48698" lon="6.25003">
        <ele>1389</ele>
        <time>2018-06-23T20:29:38Z</time>
      </trkpt>
      <trkpt lat="44.487" lon="6.25009">
        <ele>1388</ele>
        <time>2018-06-23T20:29:43Z</time>
      </trkpt>
      <trkpt lat="44.487" lon="6.25011">
        <ele>1388</ele>
        <time>2018-06-23T20:29:48Z</time>
      </trkpt>
      <trkpt lat="44.48701" lon="6.25014">
        <ele>1388</ele>
        <time>2018-06-23T20:29:53Z</time>
      </trkpt>
      <trkpt lat="44.48703" lon="6.25017">
        <ele>1388</ele>
        <time>2018-06-23T20:29:58Z</time>
      </trkpt>
      <trkpt lat="44.48705" lon="6.25022">
        <ele>1388</ele>
        <time>2018-06-23T20:30:03Z</time>
      </trkpt>
      <trkpt lat="44.48707" lon="6.25022">
        <ele>1388</ele>
        <time>2018-06-23T20:30:08Z</time>
      </trkpt>
      <trkpt lat="44.48709" lon="6.25023">
        <ele>1388</ele>
        <time>2018-06-23T20:30:13Z</time>
      </trkpt>
      <trkpt lat="44.48712" lon="6.25026">
        <ele>1388</ele>
        <time>2018-06-23T20:30:18Z</time>
      </trkpt>
      <trkpt lat="44.48714" lon="6.25023">
        <ele>1388</ele>
        <time>2018-06-23T20:30:23Z</time>
      </trkpt>
      <trkpt lat="44.48717" lon="6.25021">
        <ele>1388</ele>
        <time>2018-06-23T20:30:28Z</time>
      </trkpt>
      <trkpt lat="44.48719" lon="6.2502">
        <ele>1388</ele>
        <time>2018-06-23T20:30:33Z</time>
      </trkpt>
      <trkpt lat="44.48719" lon="6.25021">
        <ele>1388</ele>
        <time>2018-06-23T20:30:38Z</time>
      </trkpt>
      <trkpt lat="44.48723" lon="6.25019">
        <ele>1388</ele>
        <time>2018-06-23T20:30:43Z</time>
      </trkpt>
      <trkpt lat="44.48727" lon="6.25019">
        <ele>1388</ele>
        <time>2018-06-23T20:30:48Z</time>
      </trkpt>
      <trkpt lat="44.48732" lon="6.25018">
        <ele>1388</ele>
        <time>2018-06-23T20:30:53Z</time>
      </trkpt>
      <trkpt lat="44.48736" lon="6.25016">
        <ele>1387</ele>
        <time>2018-06-23T20:30:58Z</time>
      </trkpt>
      <trkpt lat="44.4874" lon="6.25018">
        <ele>1387</ele>
        <time>2018-06-23T20:31:03Z</time>
      </trkpt>
      <trkpt lat="44.48747" lon="6.25022">
        <ele>1387</ele>
        <time>2018-06-23T20:31:08Z</time>
      </trkpt>
      <trkpt lat="44.4875" lon="6.25023">
        <ele>1387</ele>
        <time>2018-06-23T20:31:13Z</time>
      </trkpt>
      <trkpt lat="44.48753" lon="6.25022">
        <ele>1387</ele>
        <time>2018-06-23T20:31:18Z</time>
      </trkpt>
      <trkpt lat="44.48753" lon="6.2502">
        <ele>1386</ele>
        <time>2018-06-23T20:31:23Z</time>
      </trkpt>
      <trkpt lat="44.48754" lon="6.25017">
        <ele>1386</ele>
        <time>2018-06-23T20:31:28Z</time>
      </trkpt>
      <trkpt lat="44.48754" lon="6.25015">
        <ele>1386</ele>
        <time>2018-06-23T20:31:33Z</time>
      </trkpt>
      <trkpt lat="44.48754" lon="6.25012">
        <ele>1386</ele>
        <time>2018-06-23T20:31:38Z</time>
      </trkpt>
      <trkpt lat="44.48756" lon="6.25008">
        <ele>1385</ele>
        <time>2018-06-23T20:31:43Z</time>
      </trkpt>
      <trkpt lat="44.48759" lon="6.25005">
        <ele>1385</ele>
        <time>2018-06-23T20:31:48Z</time>
      </trkpt>
      <trkpt lat="44.48759" lon="6.25001">
        <ele>1384</ele>
        <time>2018-06-23T20:31:53Z</time>
      </trkpt>
      <trkpt lat="44.4876" lon="6.24995">
        <ele>1384</ele>
        <time>2018-06-23T20:31:58Z</time>
      </trkpt>
      <trkpt lat="44.48761" lon="6.24991">
        <ele>1383</ele>
        <time>2018-06-23T20:32:03Z</time>
      </trkpt>
      <trkpt lat="44.48761" lon="6.24988">
        <ele>1382</ele>
        <time>2018-06-23T20:32:08Z</time>
      </trkpt>
      <trkpt lat="44.48762" lon="6.24986">
        <ele>1382</ele>
        <time>2018-06-23T20:32:13Z</time>
      </trkpt>
      <trkpt lat="44.48763" lon="6.24985">
        <ele>1382</ele>
        <time>2018-06-23T20:32:18Z</time>
      </trkpt>
      <trkpt lat="44.48765" lon="6.24984">
        <ele>1381</ele>
        <time>2018-06-23T20:32:23Z</time>
      </trkpt>
      <trkpt lat="44.48765" lon="6.24983">
        <ele>1381</ele>
        <time>2018-06-23T20:32:28Z</time>
      </trkpt>
      <trkpt lat="44.48763" lon="6.24979">
        <ele>1380</ele>
        <time>2018-06-23T20:32:33Z</time>
      </trkpt>
      <trkpt lat="44.48763" lon="6.24976">
        <ele>1379</ele>
        <time>2018-06-23T20:32:38Z</time>
      </trkpt>
      <trkpt lat="44.48763" lon="6.24976">
        <ele>1379</ele>
        <time>2018-06-23T20:32:43Z</time>
      </trkpt>
      <trkpt lat="44.48763" lon="6.24976">
        <ele>1379</ele>
        <time>2018-06-23T20:32:48Z</time>
      </trkpt>
      <trkpt lat="44.48764" lon="6.24975">
        <ele>1379</ele>
        <time>2018-06-23T20:32:53Z</time>
      </trkpt>
      <trkpt lat="44.48764" lon="6.24973">
        <ele>1378</ele>
        <time>2018-06-23T20:32:58Z</time>
      </trkpt>
      <trkpt lat="44.48764" lon="6.24972">
        <ele>1378</ele>
        <time>2018-06-23T20:33:03Z</time>
      </trkpt>
      <trkpt lat="44.48765" lon="6.24969">
        <ele>1377</ele>
        <time>2018-06-23T20:33:08Z</time>
      </trkpt>
      <trkpt lat="44.48766" lon="6.24967">
        <ele>1376</ele>
        <time>2018-06-23T20:33:13Z</time>
      </trkpt>
      <trkpt lat="44.48768" lon="6.24967">
        <ele>1375</ele>
        <time>2018-06-23T20:33:18Z</time>
      </trkpt>
      <trkpt lat="44.4877" lon="6.24967">
        <ele>1375</ele>
        <time>2018-06-23T20:33:23Z</time>
      </trkpt>
      <trkpt lat="44.48773" lon="6.24967">
        <ele>1374</ele>
        <time>2018-06-23T20:33:28Z</time>
      </trkpt>
      <trkpt lat="44.48776" lon="6.24966">
        <ele>1373</ele>
        <time>2018-06-23T20:33:33Z</time>
      </trkpt>
      <trkpt lat="44.48778" lon="6.24965">
        <ele>1372</ele>
        <time>2018-06-23T20:33:38Z</time>
      </trkpt>
      <trkpt lat="44.48781" lon="6.24964">
        <ele>1370</ele>
        <time>2018-06-23T20:33:43Z</time>
      </trkpt>
      <trkpt lat="44.48784" lon="6.24963">
        <ele>1369</ele>
        <time>2018-06-23T20:33:48Z</time>
      </trkpt>
      <trkpt lat="44.48787" lon="6.24961">
        <ele>1367</ele>
        <time>2018-06-23T20:33:53Z</time>
      </trkpt>
      <trkpt lat="44.48789" lon="6.24958">
        <ele>1366</ele>
        <time>2018-06-23T20:33:58Z</time>
      </trkpt>
      <trkpt lat="44.48792" lon="6.24956">
        <ele>1364</ele>
        <time>2018-06-23T20:34:03Z</time>
      </trkpt>
      <trkpt lat="44.48794" lon="6.24957">
        <ele>1363</ele>
        <time>2018-06-23T20:34:08Z</time>
      </trkpt>
      <trkpt lat="44.48794" lon="6.24958">
        <ele>1364</ele>
        <time>2018-06-23T20:34:13Z</time>
      </trkpt>
      <trkpt lat="44.48795" lon="6.24957">
        <ele>1363</ele>
        <time>2018-06-23T20:34:18Z</time>
      </trkpt>
      <trkpt lat="44.48798" lon="6.24957">
        <ele>1362</ele>
        <time>2018-06-23T20:34:23Z</time>
      </trkpt>
      <trkpt lat="44.48801" lon="6.24955">
        <ele>1360</ele>
        <time>2018-06-23T20:34:28Z</time>
      </trkpt>
      <trkpt lat="44.48802" lon="6.24953">
        <ele>1359</ele>
        <time>2018-06-23T20:34:33Z</time>
      </trkpt>
      <trkpt lat="44.48804" lon="6.24952">
        <ele>1358</ele>
        <time>2018-06-23T20:34:38Z</time>
      </trkpt>
      <trkpt lat="44.48805" lon="6.2495">
        <ele>1357</ele>
        <time>2018-06-23T20:34:43Z</time>
      </trkpt>
      <trkpt lat="44.48808" lon="6.24948">
        <ele>1355</ele>
        <time>2018-06-23T20:34:48Z</time>
      </trkpt>
      <trkpt lat="44.48809" lon="6.24948">
        <ele>1355</ele>
        <time>2018-06-23T20:34:53Z</time>
      </trkpt>
      <trkpt lat="44.48808" lon="6.24947">
        <ele>1355</ele>
        <time>2018-06-23T20:34:58Z</time>
      </trkpt>
      <trkpt lat="44.48812" lon="6.24943">
        <ele>1352</ele>
        <time>2018-06-23T20:35:03Z</time>
      </trkpt>
      <trkpt lat="44.48815" lon="6.24941">
        <ele>1351</ele>
        <time>2018-06-23T20:35:08Z</time>
      </trkpt>
      <trkpt lat="44.4882" lon="6.2494">
        <ele>1348</ele>
        <time>2018-06-23T20:35:13Z</time>
      </trkpt>
      <trkpt lat="44.48822" lon="6.24939">
        <ele>1347</ele>
        <time>2018-06-23T20:35:18Z</time>
      </trkpt>
      <trkpt lat="44.48825" lon="6.24937">
        <ele>1346</ele>
        <time>2018-06-23T20:35:23Z</time>
      </trkpt>
      <trkpt lat="44.48827" lon="6.24935">
        <ele>1345</ele>
        <time>2018-06-23T20:35:28Z</time>
      </trkpt>
      <trkpt lat="44.4883" lon="6.24932">
        <ele>1343</ele>
        <time>2018-06-23T20:35:33Z</time>
      </trkpt>
      <trkpt lat="44.48831" lon="6.24928">
        <ele>1341</ele>
        <time>2018-06-23T20:35:38Z</time>
      </trkpt>
      <trkpt lat="44.48834" lon="6.24925">
        <ele>1339</ele>
        <time>2018-06-23T20:35:43Z</time>
      </trkpt>
      <trkpt lat="44.48835" lon="6.24922">
        <ele>1338</ele>
        <time>2018-06-23T20:35:48Z</time>
      </trkpt>
      <trkpt lat="44.48835" lon="6.24922">
        <ele>1338</ele>
        <time>2018-06-23T20:35:53Z</time>
      </trkpt>
      <trkpt lat="44.48835" lon="6.24922">
        <ele>1338</ele>
        <time>2018-06-23T20:35:58Z</time>
      </trkpt>
      <trkpt lat="44.48836" lon="6.24918">
        <ele>1337</ele>
        <time>2018-06-23T20:36:03Z</time>
      </trkpt>
      <trkpt lat="44.48838" lon="6.24913">
        <ele>1335</ele>
        <time>2018-06-23T20:36:08Z</time>
      </trkpt>
      <trkpt lat="44.48842" lon="6.24911">
        <ele>1332</ele>
        <time>2018-06-23T20:36:13Z</time>
      </trkpt>
      <trkpt lat="44.48843" lon="6.2491">
        <ele>1331</ele>
        <time>2018-06-23T20:36:18Z</time>
      </trkpt>
      <trkpt lat="44.48844" lon="6.2491">
        <ele>1331</ele>
        <time>2018-06-23T20:36:23Z</time>
      </trkpt>
      <trkpt lat="44.48844" lon="6.2491">
        <ele>1331</ele>
        <time>2018-06-23T20:36:28Z</time>
      </trkpt>
      <trkpt lat="44.48844" lon="6.2491">
        <ele>1331</ele>
        <time>2018-06-23T20:36:33Z</time>
      </trkpt>
      <trkpt lat="44.48844" lon="6.2491">
        <ele>1331</ele>
        <time>2018-06-23T20:36:38Z</time>
      </trkpt>
      <trkpt lat="44.48844" lon="6.2491">
        <ele>1331</ele>
        <time>2018-06-23T20:36:43Z</time>
      </trkpt>
      <trkpt lat="44.48845" lon="6.2491">
        <ele>1331</ele>
        <time>2018-06-23T20:36:48Z</time>
      </trkpt>
      <trkpt lat="44.48845" lon="6.2491">
        <ele>1331</ele>
        <time>2018-06-23T20:36:53Z</time>
      </trkpt>
      <trkpt lat="44.48845" lon="6.2491">
        <ele>1331</ele>
        <time>2018-06-23T20:36:58Z</time>
      </trkpt>
      <trkpt lat="44.48846" lon="6.2491">
        <ele>1330</ele>
        <time>2018-06-23T20:37:03Z</time>
      </trkpt>
      <trkpt lat="44.48846" lon="6.24911">
        <ele>1331</ele>
        <time>2018-06-23T20:37:08Z</time>
      </trkpt>
      <trkpt lat="44.48846" lon="6.24911">
        <ele>1331</ele>
        <time>2018-06-23T20:37:13Z</time>
      </trkpt>
      <trkpt lat="44.48846" lon="6.24911">
        <ele>1331</ele>
        <time>2018-06-23T20:37:18Z</time>
      </trkpt>
      <trkpt lat="44.48847" lon="6.24911">
        <ele>1330</ele>
        <time>2018-06-23T20:37:23Z</time>
      </trkpt>
      <trkpt lat="44.48848" lon="6.24911">
        <ele>1330</ele>
        <time>2018-06-23T20:37:28Z</time>
      </trkpt>
      <trkpt lat="44.48848" lon="6.24912">
        <ele>1330</ele>
        <time>2018-06-23T20:37:33Z</time>
      </trkpt>
      <trkpt lat="44.48848" lon="6.24912">
        <ele>1330</ele>
        <time>2018-06-23T20:37:38Z</time>
      </trkpt>
      <trkpt lat="44.48848" lon="6.24912">
        <ele>1330</ele>
        <time>2018-06-23T20:37:43Z</time>
      </trkpt>
      <trkpt lat="44.48849" lon="6.24912">
        <ele>1330</ele>
        <time>2018-06-23T20:37:48Z</time>
      </trkpt>
      <trkpt lat="44.48849" lon="6.24912">
        <ele>1330</ele>
        <time>2018-06-23T20:37:53Z</time>
      </trkpt>
      <trkpt lat="44.48848" lon="6.24913">
        <ele>1330</ele>
        <time>2018-06-23T20:37:58Z</time>
      </trkpt>
      <trkpt lat="44.48848" lon="6.24913">
        <ele>1330</ele>
        <time>2018-06-23T20:38:03Z</time>
      </trkpt>
      <trkpt lat="44.48848" lon="6.24914">
        <ele>1331</ele>
        <time>2018-06-23T20:38:08Z</time>
      </trkpt>
      <trkpt lat="44.48848" lon="6.24914">
        <ele>1331</ele>
        <time>2018-06-23T20:38:13Z</time>
      </trkpt>
      <trkpt lat="44.48847" lon="6.24914">
        <ele>1331</ele>
        <time>2018-06-23T20:38:18Z</time>
      </trkpt>
      <trkpt lat="44.48847" lon="6.24915">
        <ele>1332</ele>
        <time>2018-06-23T20:38:23Z</time>
      </trkpt>
      <trkpt lat="44.48844" lon="6.24913">
        <ele>1332</ele>
        <time>2018-06-23T20:38:28Z</time>
      </trkpt>
      <trkpt lat="44.48845" lon="6.24909">
        <ele>1330</ele>
        <time>2018-06-23T20:38:33Z</time>
      </trkpt>
      <trkpt lat="44.48849" lon="6.24904">
        <ele>1327</ele>
        <time>2018-06-23T20:38:38Z</time>
      </trkpt>
      <trkpt lat="44.48852" lon="6.249">
        <ele>1324</ele>
        <time>2018-06-23T20:38:43Z</time>
      </trkpt>
      <trkpt lat="44.48856" lon="6.24898">
        <ele>1321</ele>
        <time>2018-06-23T20:38:48Z</time>
      </trkpt>
      <trkpt lat="44.48859" lon="6.24897">
        <ele>1319</ele>
        <time>2018-06-23T20:38:53Z</time>
      </trkpt>
      <trkpt lat="44.48862" lon="6.24895">
        <ele>1317</ele>
        <time>2018-06-23T20:38:58Z</time>
      </trkpt>
      <trkpt lat="44.48867" lon="6.24893">
        <ele>1314</ele>
        <time>2018-06-23T20:39:03Z</time>
      </trkpt>
      <trkpt lat="44.48871" lon="6.24892">
        <ele>1312</ele>
        <time>2018-06-23T20:39:08Z</time>
      </trkpt>
      <trkpt lat="44.48877" lon="6.24891">
        <ele>1310</ele>
        <time>2018-06-23T20:39:13Z</time>
      </trkpt>
      <trkpt lat="44.48882" lon="6.24891">
        <ele>1307</ele>
        <time>2018-06-23T20:39:18Z</time>
      </trkpt>
      <trkpt lat="44.48888" lon="6.24892">
        <ele>1305</ele>
        <time>2018-06-23T20:39:23Z</time>
      </trkpt>
      <trkpt lat="44.48894" lon="6.24892">
        <ele>1303</ele>
        <time>2018-06-23T20:39:28Z</time>
      </trkpt>
      <trkpt lat="44.48897" lon="6.24891">
        <ele>1301</ele>
        <time>2018-06-23T20:39:33Z</time>
      </trkpt>
      <trkpt lat="44.48898" lon="6.24887">
        <ele>1299</ele>
        <time>2018-06-23T20:39:38Z</time>
      </trkpt>
      <trkpt lat="44.489" lon="6.24881">
        <ele>1296</ele>
        <time>2018-06-23T20:39:43Z</time>
      </trkpt>
      <trkpt lat="44.48898" lon="6.24879">
        <ele>1297</ele>
        <time>2018-06-23T20:39:48Z</time>
      </trkpt>
      <trkpt lat="44.48897" lon="6.24879">
        <ele>1297</ele>
        <time>2018-06-23T20:39:53Z</time>
      </trkpt>
      <trkpt lat="44.48897" lon="6.24879">
        <ele>1297</ele>
        <time>2018-06-23T20:39:58Z</time>
      </trkpt>
      <trkpt lat="44.48897" lon="6.24879">
        <ele>1297</ele>
        <time>2018-06-23T20:40:03Z</time>
      </trkpt>
      <trkpt lat="44.48897" lon="6.24878">
        <ele>1297</ele>
        <time>2018-06-23T20:40:08Z</time>
      </trkpt>
      <trkpt lat="44.48896" lon="6.24877">
        <ele>1297</ele>
        <time>2018-06-23T20:40:13Z</time>
      </trkpt>
      <trkpt lat="44.48894" lon="6.24873">
        <ele>1296</ele>
        <time>2018-06-23T20:40:18Z</time>
      </trkpt>
      <trkpt lat="44.48893" lon="6.24867">
        <ele>1294</ele>
        <time>2018-06-23T20:40:23Z</time>
      </trkpt>
      <trkpt lat="44.4889" lon="6.24861">
        <ele>1294</ele>
        <time>2018-06-23T20:40:28Z</time>
      </trkpt>
      <trkpt lat="44.48887" lon="6.24855">
        <ele>1293</ele>
        <time>2018-06-23T20:40:33Z</time>
      </trkpt>
      <trkpt lat="44.48884" lon="6.24847">
        <ele>1291</ele>
        <time>2018-06-23T20:40:38Z</time>
      </trkpt>
      <trkpt lat="44.48882" lon="6.24839">
        <ele>1288</ele>
        <time>2018-06-23T20:40:43Z</time>
      </trkpt>
      <trkpt lat="44.48881" lon="6.24833">
        <ele>1286</ele>
        <time>2018-06-23T20:40:48Z</time>
      </trkpt>
      <trkpt lat="44.48879" lon="6.24827">
        <ele>1284</ele>
        <time>2018-06-23T20:40:53Z</time>
      </trkpt>
      <trkpt lat="44.4888" lon="6.24818">
        <ele>1280</ele>
        <time>2018-06-23T20:40:58Z</time>
      </trkpt>
      <trkpt lat="44.48881" lon="6.24811">
        <ele>1276</ele>
        <time>2018-06-23T20:41:03Z</time>
      </trkpt>
      <trkpt lat="44.48882" lon="6.2481">
        <ele>1275</ele>
        <time>2018-06-23T20:41:08Z</time>
      </trkpt>
      <trkpt lat="44.48886" lon="6.24808">
        <ele>1273</ele>
        <time>2018-06-23T20:41:13Z</time>
      </trkpt>
      <trkpt lat="44.48894" lon="6.24806">
        <ele>1270</ele>
        <time>2018-06-23T20:41:18Z</time>
      </trkpt>
      <trkpt lat="44.48899" lon="6.24805">
        <ele>1267</ele>
        <time>2018-06-23T20:41:23Z</time>
      </trkpt>
      <trkpt lat="44.48901" lon="6.24804">
        <ele>1266</ele>
        <time>2018-06-23T20:41:28Z</time>
      </trkpt>
      <trkpt lat="44.48905" lon="6.24804">
        <ele>1265</ele>
        <time>2018-06-23T20:41:33Z</time>
      </trkpt>
      <trkpt lat="44.48909" lon="6.24803">
        <ele>1263</ele>
        <time>2018-06-23T20:41:38Z</time>
      </trkpt>
      <trkpt lat="44.48913" lon="6.24801">
        <ele>1261</ele>
        <time>2018-06-23T20:41:43Z</time>
      </trkpt>
      <trkpt lat="44.48918" lon="6.24799">
        <ele>1258</ele>
        <time>2018-06-23T20:41:48Z</time>
      </trkpt>
      <trkpt lat="44.48923" lon="6.24797">
        <ele>1255</ele>
        <time>2018-06-23T20:41:53Z</time>
      </trkpt>
      <trkpt lat="44.48928" lon="6.24794">
        <ele>1252</ele>
        <time>2018-06-23T20:41:58Z</time>
      </trkpt>
      <trkpt lat="44.48931" lon="6.24792">
        <ele>1251</ele>
        <time>2018-06-23T20:42:03Z</time>
      </trkpt>
      <trkpt lat="44.48934" lon="6.2479">
        <ele>1249</ele>
        <time>2018-06-23T20:42:08Z</time>
      </trkpt>
      <trkpt lat="44.4894" lon="6.2479">
        <ele>1247</ele>
        <time>2018-06-23T20:42:13Z</time>
      </trkpt>
      <trkpt lat="44.48943" lon="6.24791">
        <ele>1246</ele>
        <time>2018-06-23T20:42:18Z</time>
      </trkpt>
      <trkpt lat="44.48945" lon="6.24792">
        <ele>1246</ele>
        <time>2018-06-23T20:42:23Z</time>
      </trkpt>
      <trkpt lat="44.48945" lon="6.24792">
        <ele>1246</ele>
        <time>2018-06-23T20:42:28Z</time>
      </trkpt>
      <trkpt lat="44.48945" lon="6.24793">
        <ele>1246</ele>
        <time>2018-06-23T20:42:33Z</time>
      </trkpt>
      <trkpt lat="44.48946" lon="6.24793">
        <ele>1246</ele>
        <time>2018-06-23T20:42:38Z</time>
      </trkpt>
      <trkpt lat="44.48946" lon="6.24793">
        <ele>1246</ele>
        <time>2018-06-23T20:42:43Z</time>
      </trkpt>
      <trkpt lat="44.48946" lon="6.24793">
        <ele>1246</ele>
        <time>2018-06-23T20:42:48Z</time>
      </trkpt>
      <trkpt lat="44.48945" lon="6.24791">
        <ele>1246</ele>
        <time>2018-06-23T20:42:53Z</time>
      </trkpt>
      <trkpt lat="44.48947" lon="6.24789">
        <ele>1244</ele>
        <time>2018-06-23T20:42:58Z</time>
      </trkpt>
      <trkpt lat="44.48949" lon="6.24787">
        <ele>1242</ele>
        <time>2018-06-23T20:43:03Z</time>
      </trkpt>
      <trkpt lat="44.48953" lon="6.24785">
        <ele>1241</ele>
        <time>2018-06-23T20:43:08Z</time>
      </trkpt>
      <trkpt lat="44.48957" lon="6.24783">
        <ele>1239</ele>
        <time>2018-06-23T20:43:13Z</time>
      </trkpt>
      <trkpt lat="44.48961" lon="6.2478">
        <ele>1236</ele>
        <time>2018-06-23T20:43:18Z</time>
      </trkpt>
      <trkpt lat="44.48964" lon="6.24779">
        <ele>1235</ele>
        <time>2018-06-23T20:43:23Z</time>
      </trkpt>
      <trkpt lat="44.48967" lon="6.24778">
        <ele>1234</ele>
        <time>2018-06-23T20:43:28Z</time>
      </trkpt>
      <trkpt lat="44.48971" lon="6.24777">
        <ele>1232</ele>
        <time>2018-06-23T20:43:33Z</time>
      </trkpt>
      <trkpt lat="44.48976" lon="6.24777">
        <ele>1230</ele>
        <time>2018-06-23T20:43:38Z</time>
      </trkpt>
      <trkpt lat="44.48981" lon="6.24777">
        <ele>1229</ele>
        <time>2018-06-23T20:43:43Z</time>
      </trkpt>
      <trkpt lat="44.48987" lon="6.24777">
        <ele>1227</ele>
        <time>2018-06-23T20:43:48Z</time>
      </trkpt>
      <trkpt lat="44.48991" lon="6.24777">
        <ele>1225</ele>
        <time>2018-06-23T20:43:53Z</time>
      </trkpt>
      <trkpt lat="44.48996" lon="6.24779">
        <ele>1224</ele>
        <time>2018-06-23T20:43:58Z</time>
      </trkpt>
      <trkpt lat="44.49002" lon="6.2478">
        <ele>1223</ele>
        <time>2018-06-23T20:44:03Z</time>
      </trkpt>
      <trkpt lat="44.49007" lon="6.24782">
        <ele>1222</ele>
        <time>2018-06-23T20:44:08Z</time>
      </trkpt>
      <trkpt lat="44.49013" lon="6.24784">
        <ele>1220</ele>
        <time>2018-06-23T20:44:13Z</time>
      </trkpt>
      <trkpt lat="44.49018" lon="6.2478">
        <ele>1217</ele>
        <time>2018-06-23T20:44:18Z</time>
      </trkpt>
      <trkpt lat="44.49022" lon="6.24776">
        <ele>1215</ele>
        <time>2018-06-23T20:44:23Z</time>
      </trkpt>
      <trkpt lat="44.49027" lon="6.24771">
        <ele>1211</ele>
        <time>2018-06-23T20:44:28Z</time>
      </trkpt>
      <trkpt lat="44.49032" lon="6.2477">
        <ele>1209</ele>
        <time>2018-06-23T20:44:33Z</time>
      </trkpt>
      <trkpt lat="44.49037" lon="6.24768">
        <ele>1207</ele>
        <time>2018-06-23T20:44:38Z</time>
      </trkpt>
      <trkpt lat="44.49042" lon="6.24766">
        <ele>1205</ele>
        <time>2018-06-23T20:44:43Z</time>
      </trkpt>
      <trkpt lat="44.49045" lon="6.24765">
        <ele>1204</ele>
        <time>2018-06-23T20:44:48Z</time>
      </trkpt>
      <trkpt lat="44.49047" lon="6.24766">
        <ele>1203</ele>
        <time>2018-06-23T20:44:53Z</time>
      </trkpt>
      <trkpt lat="44.49052" lon="6.24765">
        <ele>1202</ele>
        <time>2018-06-23T20:44:58Z</time>
      </trkpt>
      <trkpt lat="44.49053" lon="6.24761">
        <ele>1200</ele>
        <time>2018-06-23T20:45:03Z</time>
      </trkpt>
      <trkpt lat="44.49053" lon="6.2476">
        <ele>1200</ele>
        <time>2018-06-23T20:45:08Z</time>
      </trkpt>
      <trkpt lat="44.49053" lon="6.2476">
        <ele>1200</ele>
        <time>2018-06-23T20:45:13Z</time>
      </trkpt>
      <trkpt lat="44.49052" lon="6.2476">
        <ele>1200</ele>
        <time>2018-06-23T20:45:18Z</time>
      </trkpt>
      <trkpt lat="44.49052" lon="6.24761">
        <ele>1200</ele>
        <time>2018-06-23T20:45:23Z</time>
      </trkpt>
      <trkpt lat="44.49048" lon="6.2476">
        <ele>1201</ele>
        <time>2018-06-23T20:45:28Z</time>
      </trkpt>
      <trkpt lat="44.49043" lon="6.24758">
        <ele>1203</ele>
        <time>2018-06-23T20:45:33Z</time>
      </trkpt>
      <trkpt lat="44.49037" lon="6.24756">
        <ele>1204</ele>
        <time>2018-06-23T20:45:38Z</time>
      </trkpt>
      <trkpt lat="44.49032" lon="6.24754">
        <ele>1205</ele>
        <time>2018-06-23T20:45:43Z</time>
      </trkpt>
      <trkpt lat="44.49026" lon="6.24753">
        <ele>1206</ele>
        <time>2018-06-23T20:45:48Z</time>
      </trkpt>
      <trkpt lat="44.4902" lon="6.2475">
        <ele>1206</ele>
        <time>2018-06-23T20:45:53Z</time>
      </trkpt>
      <trkpt lat="44.49014" lon="6.24746">
        <ele>1207</ele>
        <time>2018-06-23T20:45:58Z</time>
      </trkpt>
      <trkpt lat="44.49009" lon="6.2474">
        <ele>1206</ele>
        <time>2018-06-23T20:46:03Z</time>
      </trkpt>
      <trkpt lat="44.49003" lon="6.24733">
        <ele>1205</ele>
        <time>2018-06-23T20:46:08Z</time>
      </trkpt>
      <trkpt lat="44.48998" lon="6.24728">
        <ele>1204</ele>
        <time>2018-06-23T20:46:13Z</time>
      </trkpt>
      <trkpt lat="44.48993" lon="6.24722">
        <ele>1203</ele>
        <time>2018-06-23T20:46:18Z</time>
      </trkpt>
      <trkpt lat="44.48988" lon="6.24716">
        <ele>1202</ele>
        <time>2018-06-23T20:46:23Z</time>
      </trkpt>
      <trkpt lat="44.48983" lon="6.24712">
        <ele>1201</ele>
        <time>2018-06-23T20:46:28Z</time>
      </trkpt>
      <trkpt lat="44.48978" lon="6.24707">
        <ele>1200</ele>
        <time>2018-06-23T20:46:33Z</time>
      </trkpt>
      <trkpt lat="44.48971" lon="6.24701">
        <ele>1199</ele>
        <time>2018-06-23T20:46:38Z</time>
      </trkpt>
      <trkpt lat="44.48966" lon="6.24696">
        <ele>1198</ele>
        <time>2018-06-23T20:46:43Z</time>
      </trkpt>
      <trkpt lat="44.48959" lon="6.24692">
        <ele>1198</ele>
        <time>2018-06-23T20:46:48Z</time>
      </trkpt>
      <trkpt lat="44.48951" lon="6.2469">
        <ele>1199</ele>
        <time>2018-06-23T20:46:53Z</time>
      </trkpt>
      <trkpt lat="44.48944" lon="6.24689">
        <ele>1201</ele>
        <time>2018-06-23T20:46:58Z</time>
      </trkpt>
      <trkpt lat="44.48938" lon="6.24685">
        <ele>1201</ele>
        <time>2018-06-23T20:47:03Z</time>
      </trkpt>
      <trkpt lat="44.48932" lon="6.24679">
        <ele>1200</ele>
        <time>2018-06-23T20:47:08Z</time>
      </trkpt>
      <trkpt lat="44.48927" lon="6.24673">
        <ele>1198</ele>
        <time>2018-06-23T20:47:13Z</time>
      </trkpt>
      <trkpt lat="44.48922" lon="6.24668">
        <ele>1197</ele>
        <time>2018-06-23T20:47:18Z</time>
      </trkpt>
      <trkpt lat="44.48917" lon="6.24661">
        <ele>1195</ele>
        <time>2018-06-23T20:47:23Z</time>
      </trkpt>
      <trkpt lat="44.48913" lon="6.24653">
        <ele>1193</ele>
        <time>2018-06-23T20:47:28Z</time>
      </trkpt>
      <trkpt lat="44.48908" lon="6.24646">
        <ele>1191</ele>
        <time>2018-06-23T20:47:33Z</time>
      </trkpt>
      <trkpt lat="44.48902" lon="6.2464">
        <ele>1190</ele>
        <time>2018-06-23T20:47:38Z</time>
      </trkpt>
      <trkpt lat="44.48897" lon="6.24636">
        <ele>1191</ele>
        <time>2018-06-23T20:47:43Z</time>
      </trkpt>
      <trkpt lat="44.48895" lon="6.24634">
        <ele>1191</ele>
        <time>2018-06-23T20:47:48Z</time>
      </trkpt>
      <trkpt lat="44.48895" lon="6.24634">
        <ele>1191</ele>
        <time>2018-06-23T20:47:53Z</time>
      </trkpt>
      <trkpt lat="44.48895" lon="6.24634">
        <ele>1191</ele>
        <time>2018-06-23T20:47:58Z</time>
      </trkpt>
      <trkpt lat="44.48891" lon="6.2463">
        <ele>1190</ele>
        <time>2018-06-23T20:48:03Z</time>
      </trkpt>
      <trkpt lat="44.48886" lon="6.24624">
        <ele>1190</ele>
        <time>2018-06-23T20:48:08Z</time>
      </trkpt>
      <trkpt lat="44.4888" lon="6.24618">
        <ele>1189</ele>
        <time>2018-06-23T20:48:13Z</time>
      </trkpt>
      <trkpt lat="44.48875" lon="6.24613">
        <ele>1189</ele>
        <time>2018-06-23T20:48:18Z</time>
      </trkpt>
      <trkpt lat="44.48869" lon="6.24606">
        <ele>1188</ele>
        <time>2018-06-23T20:48:23Z</time>
      </trkpt>
      <trkpt lat="44.48863" lon="6.246">
        <ele>1187</ele>
        <time>2018-06-23T20:48:28Z</time>
      </trkpt>
      <trkpt lat="44.48857" lon="6.24594">
        <ele>1187</ele>
        <time>2018-06-23T20:48:33Z</time>
      </trkpt>
      <trkpt lat="44.48853" lon="6.24587">
        <ele>1185</ele>
        <time>2018-06-23T20:48:38Z</time>
      </trkpt>
      <trkpt lat="44.48847" lon="6.24581">
        <ele>1185</ele>
        <time>2018-06-23T20:48:43Z</time>
      </trkpt>
      <trkpt lat="44.48842" lon="6.24577">
        <ele>1185</ele>
        <time>2018-06-23T20:48:48Z</time>
      </trkpt>
      <trkpt lat="44.48835" lon="6.24572">
        <ele>1186</ele>
        <time>2018-06-23T20:48:53Z</time>
      </trkpt>
      <trkpt lat="44.48831" lon="6.24565">
        <ele>1186</ele>
        <time>2018-06-23T20:48:58Z</time>
      </trkpt>
      <trkpt lat="44.48826" lon="6.24558">
        <ele>1186</ele>
        <time>2018-06-23T20:49:03Z</time>
      </trkpt>
      <trkpt lat="44.48821" lon="6.2455">
        <ele>1185</ele>
        <time>2018-06-23T20:49:08Z</time>
      </trkpt>
      <trkpt lat="44.48817" lon="6.24543">
        <ele>1184</ele>
        <time>2018-06-23T20:49:13Z</time>
      </trkpt>
      <trkpt lat="44.48812" lon="6.24535">
        <ele>1183</ele>
        <time>2018-06-23T20:49:18Z</time>
      </trkpt>
      <trkpt lat="44.48808" lon="6.24527">
        <ele>1182</ele>
        <time>2018-06-23T20:49:23Z</time>
      </trkpt>
      <trkpt lat="44.48803" lon="6.24519">
        <ele>1181</ele>
        <time>2018-06-23T20:49:28Z</time>
      </trkpt>
      <trkpt lat="44.48798" lon="6.24512">
        <ele>1181</ele>
        <time>2018-06-23T20:49:33Z</time>
      </trkpt>
      <trkpt lat="44.48793" lon="6.24505">
        <ele>1180</ele>
        <time>2018-06-23T20:49:38Z</time>
      </trkpt>
      <trkpt lat="44.48788" lon="6.24498">
        <ele>1180</ele>
        <time>2018-06-23T20:49:43Z</time>
      </trkpt>
      <trkpt lat="44.48782" lon="6.24494">
        <ele>1182</ele>
        <time>2018-06-23T20:49:48Z</time>
      </trkpt>
      <trkpt lat="44.48776" lon="6.24489">
        <ele>1183</ele>
        <time>2018-06-23T20:49:53Z</time>
      </trkpt>
      <trkpt lat="44.48771" lon="6.24482">
        <ele>1182</ele>
        <time>2018-06-23T20:49:58Z</time>
      </trkpt>
      <trkpt lat="44.48765" lon="6.24476">
        <ele>1183</ele>
        <time>2018-06-23T20:50:03Z</time>
      </trkpt>
      <trkpt lat="44.48761" lon="6.24469">
        <ele>1182</ele>
        <time>2018-06-23T20:50:08Z</time>
      </trkpt>
      <trkpt lat="44.48756" lon="6.24461">
        <ele>1181</ele>
        <time>2018-06-23T20:50:13Z</time>
      </trkpt>
      <trkpt lat="44.48753" lon="6.24452">
        <ele>1179</ele>
        <time>2018-06-23T20:50:18Z</time>
      </trkpt>
      <trkpt lat="44.48749" lon="6.24444">
        <ele>1178</ele>
        <time>2018-06-23T20:50:23Z</time>
      </trkpt>
      <trkpt lat="44.48743" lon="6.24437">
        <ele>1178</ele>
        <time>2018-06-23T20:50:28Z</time>
      </trkpt>
      <trkpt lat="44.48738" lon="6.24432">
        <ele>1178</ele>
        <time>2018-06-23T20:50:33Z</time>
      </trkpt>
      <trkpt lat="44.48732" lon="6.24427">
        <ele>1178</ele>
        <time>2018-06-23T20:50:38Z</time>
      </trkpt>
      <trkpt lat="44.48727" lon="6.24421">
        <ele>1178</ele>
        <time>2018-06-23T20:50:43Z</time>
      </trkpt>
      <trkpt lat="44.48722" lon="6.24414">
        <ele>1177</ele>
        <time>2018-06-23T20:50:48Z</time>
      </trkpt>
      <trkpt lat="44.48716" lon="6.24406">
        <ele>1177</ele>
        <time>2018-06-23T20:50:53Z</time>
      </trkpt>
      <trkpt lat="44.48712" lon="6.244">
        <ele>1176</ele>
        <time>2018-06-23T20:50:58Z</time>
      </trkpt>
      <trkpt lat="44.48707" lon="6.24393">
        <ele>1175</ele>
        <time>2018-06-23T20:51:03Z</time>
      </trkpt>
      <trkpt lat="44.48701" lon="6.24386">
        <ele>1173</ele>
        <time>2018-06-23T20:51:08Z</time>
      </trkpt>
      <trkpt lat="44.48696" lon="6.2438">
        <ele>1172</ele>
        <time>2018-06-23T20:51:13Z</time>
      </trkpt>
      <trkpt lat="44.4869" lon="6.24374">
        <ele>1172</ele>
        <time>2018-06-23T20:51:18Z</time>
      </trkpt>
      <trkpt lat="44.48684" lon="6.2437">
        <ele>1171</ele>
        <time>2018-06-23T20:51:23Z</time>
      </trkpt>
      <trkpt lat="44.48678" lon="6.24365">
        <ele>1170</ele>
        <time>2018-06-23T20:51:28Z</time>
      </trkpt>
      <trkpt lat="44.48672" lon="6.2436">
        <ele>1170</ele>
        <time>2018-06-23T20:51:33Z</time>
      </trkpt>
      <trkpt lat="44.48667" lon="6.24354">
        <ele>1169</ele>
        <time>2018-06-23T20:51:38Z</time>
      </trkpt>
      <trkpt lat="44.48661" lon="6.24349">
        <ele>1169</ele>
        <time>2018-06-23T20:51:43Z</time>
      </trkpt>
      <trkpt lat="44.48655" lon="6.24343">
        <ele>1168</ele>
        <time>2018-06-23T20:51:48Z</time>
      </trkpt>
      <trkpt lat="44.48649" lon="6.24337">
        <ele>1167</ele>
        <time>2018-06-23T20:51:53Z</time>
      </trkpt>
      <trkpt lat="44.48644" lon="6.24332">
        <ele>1166</ele>
        <time>2018-06-23T20:51:58Z</time>
      </trkpt>
      <trkpt lat="44.48638" lon="6.24326">
        <ele>1164</ele>
        <time>2018-06-23T20:52:03Z</time>
      </trkpt>
      <trkpt lat="44.48633" lon="6.2432">
        <ele>1162</ele>
        <time>2018-06-23T20:52:08Z</time>
      </trkpt>
      <trkpt lat="44.48627" lon="6.24316">
        <ele>1161</ele>
        <time>2018-06-23T20:52:13Z</time>
      </trkpt>
      <trkpt lat="44.48621" lon="6.24313">
        <ele>1159</ele>
        <time>2018-06-23T20:52:18Z</time>
      </trkpt>
      <trkpt lat="44.48615" lon="6.24315">
        <ele>1160</ele>
        <time>2018-06-23T20:52:23Z</time>
      </trkpt>
      <trkpt lat="44.4861" lon="6.2432">
        <ele>1162</ele>
        <time>2018-06-23T20:52:28Z</time>
      </trkpt>
      <trkpt lat="44.48603" lon="6.24326">
        <ele>1165</ele>
        <time>2018-06-23T20:52:33Z</time>
      </trkpt>
      <trkpt lat="44.48597" lon="6.24332">
        <ele>1168</ele>
        <time>2018-06-23T20:52:38Z</time>
      </trkpt>
      <trkpt lat="44.48591" lon="6.24338">
        <ele>1170</ele>
        <time>2018-06-23T20:52:43Z</time>
      </trkpt>
      <trkpt lat="44.48585" lon="6.24344">
        <ele>1173</ele>
        <time>2018-06-23T20:52:48Z</time>
      </trkpt>
      <trkpt lat="44.4858" lon="6.2435">
        <ele>1176</ele>
        <time>2018-06-23T20:52:53Z</time>
      </trkpt>
      <trkpt lat="44.48574" lon="6.24351">
        <ele>1176</ele>
        <time>2018-06-23T20:52:58Z</time>
      </trkpt>
      <trkpt lat="44.48568" lon="6.24347">
        <ele>1174</ele>
        <time>2018-06-23T20:53:03Z</time>
      </trkpt>
      <trkpt lat="44.48563" lon="6.24343">
        <ele>1171</ele>
        <time>2018-06-23T20:53:08Z</time>
      </trkpt>
      <trkpt lat="44.48557" lon="6.2434">
        <ele>1168</ele>
        <time>2018-06-23T20:53:13Z</time>
      </trkpt>
      <trkpt lat="44.4855" lon="6.2434">
        <ele>1167</ele>
        <time>2018-06-23T20:53:18Z</time>
      </trkpt>
      <trkpt lat="44.48544" lon="6.24346">
        <ele>1168</ele>
        <time>2018-06-23T20:53:23Z</time>
      </trkpt>
      <trkpt lat="44.48538" lon="6.24353">
        <ele>1169</ele>
        <time>2018-06-23T20:53:28Z</time>
      </trkpt>
      <trkpt lat="44.48533" lon="6.2436">
        <ele>1170</ele>
        <time>2018-06-23T20:53:33Z</time>
      </trkpt>
      <trkpt lat="44.48528" lon="6.24367">
        <ele>1172</ele>
        <time>2018-06-23T20:53:38Z</time>
      </trkpt>
      <trkpt lat="44.48518" lon="6.24366">
        <ele>1169</ele>
        <time>2018-06-23T20:53:43Z</time>
      </trkpt>
      <trkpt lat="44.48511" lon="6.24371">
        <ele>1170</ele>
        <time>2018-06-23T20:53:48Z</time>
      </trkpt>
      <trkpt lat="44.48505" lon="6.24371">
        <ele>1169</ele>
        <time>2018-06-23T20:53:53Z</time>
      </trkpt>
      <trkpt lat="44.48499" lon="6.24371">
        <ele>1168</ele>
        <time>2018-06-23T20:53:58Z</time>
      </trkpt>
      <trkpt lat="44.48493" lon="6.2437">
        <ele>1168</ele>
        <time>2018-06-23T20:54:03Z</time>
      </trkpt>
      <trkpt lat="44.48488" lon="6.24369">
        <ele>1169</ele>
        <time>2018-06-23T20:54:08Z</time>
      </trkpt>
      <trkpt lat="44.48483" lon="6.24367">
        <ele>1169</ele>
        <time>2018-06-23T20:54:13Z</time>
      </trkpt>
      <trkpt lat="44.48477" lon="6.24367">
        <ele>1170</ele>
        <time>2018-06-23T20:54:18Z</time>
      </trkpt>
      <trkpt lat="44.48471" lon="6.24367">
        <ele>1171</ele>
        <time>2018-06-23T20:54:23Z</time>
      </trkpt>
      <trkpt lat="44.48464" lon="6.24364">
        <ele>1172</ele>
        <time>2018-06-23T20:54:28Z</time>
      </trkpt>
      <trkpt lat="44.48457" lon="6.24358">
        <ele>1171</ele>
        <time>2018-06-23T20:54:33Z</time>
      </trkpt>
      <trkpt lat="44.48453" lon="6.24351">
        <ele>1170</ele>
        <time>2018-06-23T20:54:38Z</time>
      </trkpt>
      <trkpt lat="44.48448" lon="6.24343">
        <ele>1169</ele>
        <time>2018-06-23T20:54:43Z</time>
      </trkpt>
      <trkpt lat="44.48446" lon="6.24335">
        <ele>1167</ele>
        <time>2018-06-23T20:54:48Z</time>
      </trkpt>
      <trkpt lat="44.48445" lon="6.24326">
        <ele>1165</ele>
        <time>2018-06-23T20:54:53Z</time>
      </trkpt>
      <trkpt lat="44.48447" lon="6.24317">
        <ele>1162</ele>
        <time>2018-06-23T20:54:58Z</time>
      </trkpt>
      <trkpt lat="44.48449" lon="6.24306">
        <ele>1158</ele>
        <time>2018-06-23T20:55:03Z</time>
      </trkpt>
      <trkpt lat="44.4845" lon="6.24295">
        <ele>1155</ele>
        <time>2018-06-23T20:55:08Z</time>
      </trkpt>
      <trkpt lat="44.48448" lon="6.24287">
        <ele>1153</ele>
        <time>2018-06-23T20:55:13Z</time>
      </trkpt>
      <trkpt lat="44.48443" lon="6.24282">
        <ele>1154</ele>
        <time>2018-06-23T20:55:18Z</time>
      </trkpt>
      <trkpt lat="44.48438" lon="6.24277">
        <ele>1155</ele>
        <time>2018-06-23T20:55:23Z</time>
      </trkpt>
      <trkpt lat="44.48432" lon="6.24273">
        <ele>1156</ele>
        <time>2018-06-23T20:55:28Z</time>
      </trkpt>
      <trkpt lat="44.48426" lon="6.24268">
        <ele>1156</ele>
        <time>2018-06-23T20:55:33Z</time>
      </trkpt>
      <trkpt lat="44.48421" lon="6.24262">
        <ele>1155</ele>
        <time>2018-06-23T20:55:38Z</time>
      </trkpt>
      <trkpt lat="44.48416" lon="6.24256">
        <ele>1155</ele>
        <time>2018-06-23T20:55:43Z</time>
      </trkpt>
      <trkpt lat="44.4841" lon="6.2425">
        <ele>1154</ele>
        <time>2018-06-23T20:55:48Z</time>
      </trkpt>
      <trkpt lat="44.48404" lon="6.24244">
        <ele>1154</ele>
        <time>2018-06-23T20:55:53Z</time>
      </trkpt>
      <trkpt lat="44.48398" lon="6.2424">
        <ele>1155</ele>
        <time>2018-06-23T20:55:58Z</time>
      </trkpt>
      <trkpt lat="44.48394" lon="6.24237">
        <ele>1155</ele>
        <time>2018-06-23T20:56:03Z</time>
      </trkpt>
      <trkpt lat="44.48389" lon="6.24233">
        <ele>1155</ele>
        <time>2018-06-23T20:56:08Z</time>
      </trkpt>
      <trkpt lat="44.48383" lon="6.24229">
        <ele>1156</ele>
        <time>2018-06-23T20:56:13Z</time>
      </trkpt>
      <trkpt lat="44.48376" lon="6.24226">
        <ele>1157</ele>
        <time>2018-06-23T20:56:18Z</time>
      </trkpt>
      <trkpt lat="44.48369" lon="6.24224">
        <ele>1158</ele>
        <time>2018-06-23T20:56:23Z</time>
      </trkpt>
      <trkpt lat="44.48362" lon="6.24222">
        <ele>1158</ele>
        <time>2018-06-23T20:56:28Z</time>
      </trkpt>
      <trkpt lat="44.48355" lon="6.24225">
        <ele>1158</ele>
        <time>2018-06-23T20:56:33Z</time>
      </trkpt>
      <trkpt lat="44.4835" lon="6.24232">
        <ele>1158</ele>
        <time>2018-06-23T20:56:38Z</time>
      </trkpt>
      <trkpt lat="44.48347" lon="6.2424">
        <ele>1158</ele>
        <time>2018-06-23T20:56:43Z</time>
      </trkpt>
      <trkpt lat="44.48346" lon="6.2425">
        <ele>1159</ele>
        <time>2018-06-23T20:56:48Z</time>
      </trkpt>
      <trkpt lat="44.48345" lon="6.24258">
        <ele>1159</ele>
        <time>2018-06-23T20:56:53Z</time>
      </trkpt>
      <trkpt lat="44.48343" lon="6.24265">
        <ele>1159</ele>
        <time>2018-06-23T20:56:58Z</time>
      </trkpt>
      <trkpt lat="44.48343" lon="6.24266">
        <ele>1159</ele>
        <time>2018-06-23T20:57:03Z</time>
      </trkpt>
      <trkpt lat="44.48343" lon="6.24266">
        <ele>1159</ele>
        <time>2018-06-23T20:57:08Z</time>
      </trkpt>
      <trkpt lat="44.48343" lon="6.24265">
        <ele>1159</ele>
        <time>2018-06-23T20:57:13Z</time>
      </trkpt>
      <trkpt lat="44.48343" lon="6.24265">
        <ele>1159</ele>
        <time>2018-06-23T20:57:18Z</time>
      </trkpt>
      <trkpt lat="44.48344" lon="6.24265">
        <ele>1159</ele>
        <time>2018-06-23T20:57:23Z</time>
      </trkpt>
      <trkpt lat="44.48344" lon="6.24265">
        <ele>1159</ele>
        <time>2018-06-23T20:57:28Z</time>
      </trkpt>
      <trkpt lat="44.48344" lon="6.24265">
        <ele>1159</ele>
        <time>2018-06-23T20:57:33Z</time>
      </trkpt>
      <trkpt lat="44.48344" lon="6.24265">
        <ele>1159</ele>
        <time>2018-06-23T20:57:38Z</time>
      </trkpt>
      <trkpt lat="44.48345" lon="6.24265">
        <ele>1159</ele>
        <time>2018-06-23T20:57:43Z</time>
      </trkpt>
      <trkpt lat="44.48341" lon="6.24265">
        <ele>1159</ele>
        <time>2018-06-23T20:57:48Z</time>
      </trkpt>
      <trkpt lat="44.48335" lon="6.24266">
        <ele>1158</ele>
        <time>2018-06-23T20:57:53Z</time>
      </trkpt>
      <trkpt lat="44.48328" lon="6.24264">
        <ele>1157</ele>
        <time>2018-06-23T20:57:58Z</time>
      </trkpt>
      <trkpt lat="44.48322" lon="6.24261">
        <ele>1156</ele>
        <time>2018-06-23T20:58:03Z</time>
      </trkpt>
      <trkpt lat="44.48317" lon="6.24264">
        <ele>1156</ele>
        <time>2018-06-23T20:58:08Z</time>
      </trkpt>
      <trkpt lat="44.4831" lon="6.24261">
        <ele>1155</ele>
        <time>2018-06-23T20:58:13Z</time>
      </trkpt>
      <trkpt lat="44.48304" lon="6.24258">
        <ele>1154</ele>
        <time>2018-06-23T20:58:18Z</time>
      </trkpt>
      <trkpt lat="44.48297" lon="6.24256">
        <ele>1154</ele>
        <time>2018-06-23T20:58:23Z</time>
      </trkpt>
      <trkpt lat="44.48294" lon="6.24256">
        <ele>1153</ele>
        <time>2018-06-23T20:58:28Z</time>
      </trkpt>
      <trkpt lat="44.48288" lon="6.24255">
        <ele>1152</ele>
        <time>2018-06-23T20:58:33Z</time>
      </trkpt>
      <trkpt lat="44.48282" lon="6.24252">
        <ele>1150</ele>
        <time>2018-06-23T20:58:38Z</time>
      </trkpt>
      <trkpt lat="44.48275" lon="6.24249">
        <ele>1149</ele>
        <time>2018-06-23T20:58:43Z</time>
      </trkpt>
      <trkpt lat="44.48269" lon="6.24244">
        <ele>1148</ele>
        <time>2018-06-23T20:58:48Z</time>
      </trkpt>
      <trkpt lat="44.48264" lon="6.24237">
        <ele>1147</ele>
        <time>2018-06-23T20:58:53Z</time>
      </trkpt>
      <trkpt lat="44.48261" lon="6.24229">
        <ele>1147</ele>
        <time>2018-06-23T20:58:58Z</time>
      </trkpt>
      <trkpt lat="44.48255" lon="6.24224">
        <ele>1146</ele>
        <time>2018-06-23T20:59:03Z</time>
      </trkpt>
      <trkpt lat="44.48252" lon="6.24219">
        <ele>1145</ele>
        <time>2018-06-23T20:59:08Z</time>
      </trkpt>
      <trkpt lat="44.48252" lon="6.24219">
        <ele>1145</ele>
        <time>2018-06-23T20:59:13Z</time>
      </trkpt>
      <trkpt lat="44.48252" lon="6.24219">
        <ele>1145</ele>
        <time>2018-06-23T20:59:18Z</time>
      </trkpt>
      <trkpt lat="44.48252" lon="6.24219">
        <ele>1145</ele>
        <time>2018-06-23T20:59:23Z</time>
      </trkpt>
      <trkpt lat="44.48252" lon="6.24219">
        <ele>1145</ele>
        <time>2018-06-23T20:59:28Z</time>
      </trkpt>
      <trkpt lat="44.48252" lon="6.24219">
        <ele>1145</ele>
        <time>2018-06-23T20:59:33Z</time>
      </trkpt>
      <trkpt lat="44.48252" lon="6.2422">
        <ele>1145</ele>
        <time>2018-06-23T20:59:38Z</time>
      </trkpt>
      <trkpt lat="44.48252" lon="6.2422">
        <ele>1145</ele>
        <time>2018-06-23T20:59:43Z</time>
      </trkpt>
      <trkpt lat="44.48252" lon="6.2422">
        <ele>1145</ele>
        <time>2018-06-23T20:59:48Z</time>
      </trkpt>
      <trkpt lat="44.48252" lon="6.2422">
        <ele>1145</ele>
        <time>2018-06-23T20:59:53Z</time>
      </trkpt>
      <trkpt lat="44.48252" lon="6.24219">
        <ele>1145</ele>
        <time>2018-06-23T20:59:58Z</time>
      </trkpt>
      <trkpt lat="44.48252" lon="6.2422">
        <ele>1145</ele>
        <time>2018-06-23T21:00:03Z</time>
      </trkpt>
      <trkpt lat="44.48252" lon="6.2422">
        <ele>1145</ele>
        <time>2018-06-23T21:00:08Z</time>
      </trkpt>
      <trkpt lat="44.48252" lon="6.2422">
        <ele>1145</ele>
        <time>2018-06-23T21:00:13Z</time>
      </trkpt>
      <trkpt lat="44.48252" lon="6.2422">
        <ele>1145</ele>
        <time>2018-06-23T21:00:18Z</time>
      </trkpt>
      <trkpt lat="44.48252" lon="6.2422">
        <ele>1145</ele>
        <time>2018-06-23T21:00:23Z</time>
      </trkpt>
      <trkpt lat="44.48252" lon="6.2422">
        <ele>1145</ele>
        <time>2018-06-23T21:00:28Z</time>
      </trkpt>
      <trkpt lat="44.48252" lon="6.24219">
        <ele>1145</ele>
        <time>2018-06-23T21:00:33Z</time>
      </trkpt>
      <trkpt lat="44.48251" lon="6.2422">
        <ele>1145</ele>
        <time>2018-06-23T21:00:38Z</time>
      </trkpt>
      <trkpt lat="44.48251" lon="6.2422">
        <ele>1145</ele>
        <time>2018-06-23T21:00:43Z</time>
      </trkpt>
      <trkpt lat="44.48251" lon="6.2422">
        <ele>1145</ele>
        <time>2018-06-23T21:00:48Z</time>
      </trkpt>
      <trkpt lat="44.48251" lon="6.2422">
        <ele>1145</ele>
        <time>2018-06-23T21:00:53Z</time>
      </trkpt>
      <trkpt lat="44.48251" lon="6.2422">
        <ele>1145</ele>
        <time>2018-06-23T21:00:58Z</time>
      </trkpt>
      <trkpt lat="44.48251" lon="6.2422">
        <ele>1145</ele>
        <time>2018-06-23T21:01:03Z</time>
      </trkpt>
      <trkpt lat="44.48251" lon="6.2422">
        <ele>1145</ele>
        <time>2018-06-23T21:01:08Z</time>
      </trkpt>
      <trkpt lat="44.48251" lon="6.2422">
        <ele>1145</ele>
        <time>2018-06-23T21:01:13Z</time>
      </trkpt>
      <trkpt lat="44.48251" lon="6.24219">
        <ele>1145</ele>
        <time>2018-06-23T21:01:18Z</time>
      </trkpt>
      <trkpt lat="44.48247" lon="6.24216">
        <ele>1144</ele>
        <time>2018-06-23T21:01:23Z</time>
      </trkpt>
      <trkpt lat="44.48242" lon="6.24211">
        <ele>1144</ele>
        <time>2018-06-23T21:01:28Z</time>
      </trkpt>
      <trkpt lat="44.48237" lon="6.24207">
        <ele>1142</ele>
        <time>2018-06-23T21:01:33Z</time>
      </trkpt>
      <trkpt lat="44.48232" lon="6.24201">
        <ele>1142</ele>
        <time>2018-06-23T21:01:38Z</time>
      </trkpt>
      <trkpt lat="44.48228" lon="6.24194">
        <ele>1141</ele>
        <time>2018-06-23T21:01:43Z</time>
      </trkpt>
      <trkpt lat="44.48224" lon="6.24186">
        <ele>1141</ele>
        <time>2018-06-23T21:01:48Z</time>
      </trkpt>
      <trkpt lat="44.48219" lon="6.24181">
        <ele>1140</ele>
        <time>2018-06-23T21:01:53Z</time>
      </trkpt>
      <trkpt lat="44.48213" lon="6.24179">
        <ele>1138</ele>
        <time>2018-06-23T21:01:58Z</time>
      </trkpt>
      <trkpt lat="44.48208" lon="6.24184">
        <ele>1137</ele>
        <time>2018-06-23T21:02:03Z</time>
      </trkpt>
      <trkpt lat="44.48207" lon="6.24194">
        <ele>1136</ele>
        <time>2018-06-23T21:02:08Z</time>
      </trkpt>
      <trkpt lat="44.48207" lon="6.24203">
        <ele>1135</ele>
        <time>2018-06-23T21:02:13Z</time>
      </trkpt>
      <trkpt lat="44.48206" lon="6.24213">
        <ele>1134</ele>
        <time>2018-06-23T21:02:18Z</time>
      </trkpt>
      <trkpt lat="44.48207" lon="6.24222">
        <ele>1133</ele>
        <time>2018-06-23T21:02:23Z</time>
      </trkpt>
      <trkpt lat="44.48209" lon="6.24231">
        <ele>1133</ele>
        <time>2018-06-23T21:02:28Z</time>
      </trkpt>
      <trkpt lat="44.4821" lon="6.24239">
        <ele>1133</ele>
        <time>2018-06-23T21:02:33Z</time>
      </trkpt>
      <trkpt lat="44.48212" lon="6.24245">
        <ele>1132</ele>
        <time>2018-06-23T21:02:38Z</time>
      </trkpt>
      <trkpt lat="44.48213" lon="6.24252">
        <ele>1132</ele>
        <time>2018-06-23T21:02:43Z</time>
      </trkpt>
      <trkpt lat="44.48215" lon="6.2426">
        <ele>1131</ele>
        <time>2018-06-23T21:02:48Z</time>
      </trkpt>
      <trkpt lat="44.48217" lon="6.24269">
        <ele>1131</ele>
        <time>2018-06-23T21:02:53Z</time>
      </trkpt>
      <trkpt lat="44.48219" lon="6.24278">
        <ele>1130</ele>
        <time>2018-06-23T21:02:58Z</time>
      </trkpt>
      <trkpt lat="44.48222" lon="6.24287">
        <ele>1130</ele>
        <time>2018-06-23T21:03:03Z</time>
      </trkpt>
      <trkpt lat="44.48226" lon="6.24296">
        <ele>1130</ele>
        <time>2018-06-23T21:03:08Z</time>
      </trkpt>
      <trkpt lat="44.4823" lon="6.24305">
        <ele>1131</ele>
        <time>2018-06-23T21:03:13Z</time>
      </trkpt>
      <trkpt lat="44.48233" lon="6.24313">
        <ele>1131</ele>
        <time>2018-06-23T21:03:18Z</time>
      </trkpt>
      <trkpt lat="44.48234" lon="6.24321">
        <ele>1131</ele>
        <time>2018-06-23T21:03:23Z</time>
      </trkpt>
      <trkpt lat="44.48233" lon="6.24329">
        <ele>1130</ele>
        <time>2018-06-23T21:03:28Z</time>
      </trkpt>
      <trkpt lat="44.48229" lon="6.24339">
        <ele>1128</ele>
        <time>2018-06-23T21:03:33Z</time>
      </trkpt>
      <trkpt lat="44.48224" lon="6.24344">
        <ele>1126</ele>
        <time>2018-06-23T21:03:38Z</time>
      </trkpt>
      <trkpt lat="44.48219" lon="6.24348">
        <ele>1125</ele>
        <time>2018-06-23T21:03:43Z</time>
      </trkpt>
      <trkpt lat="44.48215" lon="6.24351">
        <ele>1123</ele>
        <time>2018-06-23T21:03:48Z</time>
      </trkpt>
      <trkpt lat="44.48209" lon="6.24353">
        <ele>1122</ele>
        <time>2018-06-23T21:03:53Z</time>
      </trkpt>
      <trkpt lat="44.48204" lon="6.24355">
        <ele>1120</ele>
        <time>2018-06-23T21:03:58Z</time>
      </trkpt>
      <trkpt lat="44.48199" lon="6.24357">
        <ele>1118</ele>
        <time>2018-06-23T21:04:03Z</time>
      </trkpt>
      <trkpt lat="44.48193" lon="6.24358">
        <ele>1117</ele>
        <time>2018-06-23T21:04:08Z</time>
      </trkpt>
      <trkpt lat="44.48187" lon="6.24359">
        <ele>1115</ele>
        <time>2018-06-23T21:04:13Z</time>
      </trkpt>
      <trkpt lat="44.48182" lon="6.24359">
        <ele>1113</ele>
        <time>2018-06-23T21:04:18Z</time>
      </trkpt>
      <trkpt lat="44.48175" lon="6.24357">
        <ele>1111</ele>
        <time>2018-06-23T21:04:23Z</time>
      </trkpt>
      <trkpt lat="44.48169" lon="6.24357">
        <ele>1110</ele>
        <time>2018-06-23T21:04:28Z</time>
      </trkpt>
      <trkpt lat="44.48161" lon="6.24354">
        <ele>1108</ele>
        <time>2018-06-23T21:04:33Z</time>
      </trkpt>
      <trkpt lat="44.48152" lon="6.24353">
        <ele>1106</ele>
        <time>2018-06-23T21:04:38Z</time>
      </trkpt>
      <trkpt lat="44.48144" lon="6.24352">
        <ele>1104</ele>
        <time>2018-06-23T21:04:43Z</time>
      </trkpt>
      <trkpt lat="44.48138" lon="6.24352">
        <ele>1103</ele>
        <time>2018-06-23T21:04:48Z</time>
      </trkpt>
      <trkpt lat="44.48132" lon="6.24349">
        <ele>1102</ele>
        <time>2018-06-23T21:04:53Z</time>
      </trkpt>
      <trkpt lat="44.48127" lon="6.24343">
        <ele>1101</ele>
        <time>2018-06-23T21:04:58Z</time>
      </trkpt>
      <trkpt lat="44.4812" lon="6.2434">
        <ele>1100</ele>
        <time>2018-06-23T21:05:03Z</time>
      </trkpt>
      <trkpt lat="44.48114" lon="6.24342">
        <ele>1098</ele>
        <time>2018-06-23T21:05:08Z</time>
      </trkpt>
      <trkpt lat="44.48108" lon="6.24345">
        <ele>1097</ele>
        <time>2018-06-23T21:05:13Z</time>
      </trkpt>
      <trkpt lat="44.48103" lon="6.2435">
        <ele>1096</ele>
        <time>2018-06-23T21:05:18Z</time>
      </trkpt>
      <trkpt lat="44.48097" lon="6.24353">
        <ele>1094</ele>
        <time>2018-06-23T21:05:23Z</time>
      </trkpt>
      <trkpt lat="44.48092" lon="6.24359">
        <ele>1093</ele>
        <time>2018-06-23T21:05:28Z</time>
      </trkpt>
      <trkpt lat="44.48087" lon="6.24367">
        <ele>1092</ele>
        <time>2018-06-23T21:05:33Z</time>
      </trkpt>
      <trkpt lat="44.48082" lon="6.24374">
        <ele>1091</ele>
        <time>2018-06-23T21:05:38Z</time>
      </trkpt>
      <trkpt lat="44.48077" lon="6.24377">
        <ele>1090</ele>
        <time>2018-06-23T21:05:43Z</time>
      </trkpt>
      <trkpt lat="44.48071" lon="6.24376">
        <ele>1089</ele>
        <time>2018-06-23T21:05:48Z</time>
      </trkpt>
      <trkpt lat="44.48063" lon="6.24374">
        <ele>1088</ele>
        <time>2018-06-23T21:05:53Z</time>
      </trkpt>
      <trkpt lat="44.48056" lon="6.24372">
        <ele>1087</ele>
        <time>2018-06-23T21:05:58Z</time>
      </trkpt>
      <trkpt lat="44.4805" lon="6.24371">
        <ele>1086</ele>
        <time>2018-06-23T21:06:03Z</time>
      </trkpt>
      <trkpt lat="44.48042" lon="6.2437">
        <ele>1086</ele>
        <time>2018-06-23T21:06:08Z</time>
      </trkpt>
      <trkpt lat="44.48036" lon="6.24367">
        <ele>1085</ele>
        <time>2018-06-23T21:06:13Z</time>
      </trkpt>
      <trkpt lat="44.48031" lon="6.24362">
        <ele>1084</ele>
        <time>2018-06-23T21:06:18Z</time>
      </trkpt>
      <trkpt lat="44.48028" lon="6.24354">
        <ele>1084</ele>
        <time>2018-06-23T21:06:23Z</time>
      </trkpt>
      <trkpt lat="44.48026" lon="6.24348">
        <ele>1084</ele>
        <time>2018-06-23T21:06:28Z</time>
      </trkpt>
      <trkpt lat="44.48024" lon="6.24341">
        <ele>1084</ele>
        <time>2018-06-23T21:06:33Z</time>
      </trkpt>
      <trkpt lat="44.48023" lon="6.24335">
        <ele>1084</ele>
        <time>2018-06-23T21:06:38Z</time>
      </trkpt>
      <trkpt lat="44.48022" lon="6.24329">
        <ele>1084</ele>
        <time>2018-06-23T21:06:43Z</time>
      </trkpt>
      <trkpt lat="44.48022" lon="6.24322">
        <ele>1084</ele>
        <time>2018-06-23T21:06:48Z</time>
      </trkpt>
      <trkpt lat="44.48021" lon="6.24315">
        <ele>1084</ele>
        <time>2018-06-23T21:06:53Z</time>
      </trkpt>
      <trkpt lat="44.4802" lon="6.24309">
        <ele>1085</ele>
        <time>2018-06-23T21:06:58Z</time>
      </trkpt>
      <trkpt lat="44.48019" lon="6.24301">
        <ele>1085</ele>
        <time>2018-06-23T21:07:03Z</time>
      </trkpt>
      <trkpt lat="44.48018" lon="6.24294">
        <ele>1084</ele>
        <time>2018-06-23T21:07:08Z</time>
      </trkpt>
      <trkpt lat="44.48016" lon="6.24288">
        <ele>1084</ele>
        <time>2018-06-23T21:07:13Z</time>
      </trkpt>
      <trkpt lat="44.48015" lon="6.24287">
        <ele>1084</ele>
        <time>2018-06-23T21:07:18Z</time>
      </trkpt>
      <trkpt lat="44.48015" lon="6.24281">
        <ele>1084</ele>
        <time>2018-06-23T21:07:23Z</time>
      </trkpt>
      <trkpt lat="44.48014" lon="6.24274">
        <ele>1083</ele>
        <time>2018-06-23T21:07:28Z</time>
      </trkpt>
      <trkpt lat="44.48013" lon="6.24268">
        <ele>1083</ele>
        <time>2018-06-23T21:07:33Z</time>
      </trkpt>
      <trkpt lat="44.48009" lon="6.24262">
        <ele>1082</ele>
        <time>2018-06-23T21:07:38Z</time>
      </trkpt>
      <trkpt lat="44.48009" lon="6.24259">
        <ele>1082</ele>
        <time>2018-06-23T21:07:43Z</time>
      </trkpt>
      <trkpt lat="44.48009" lon="6.24259">
        <ele>1082</ele>
        <time>2018-06-23T21:07:48Z</time>
      </trkpt>
      <trkpt lat="44.48009" lon="6.24257">
        <ele>1082</ele>
        <time>2018-06-23T21:07:53Z</time>
      </trkpt>
      <trkpt lat="44.48009" lon="6.2425">
        <ele>1081</ele>
        <time>2018-06-23T21:07:58Z</time>
      </trkpt>
      <trkpt lat="44.48009" lon="6.24244">
        <ele>1081</ele>
        <time>2018-06-23T21:08:03Z</time>
      </trkpt>
      <trkpt lat="44.48008" lon="6.24242">
        <ele>1081</ele>
        <time>2018-06-23T21:08:08Z</time>
      </trkpt>
      <trkpt lat="44.48008" lon="6.24242">
        <ele>1081</ele>
        <time>2018-06-23T21:08:13Z</time>
      </trkpt>
      <trkpt lat="44.48008" lon="6.24241">
        <ele>1081</ele>
        <time>2018-06-23T21:08:18Z</time>
      </trkpt>
      <trkpt lat="44.48008" lon="6.24241">
        <ele>1081</ele>
        <time>2018-06-23T21:08:23Z</time>
      </trkpt>
      <trkpt lat="44.48008" lon="6.24241">
        <ele>1081</ele>
        <time>2018-06-23T21:08:28Z</time>
      </trkpt>
      <trkpt lat="44.48008" lon="6.24241">
        <ele>1081</ele>
        <time>2018-06-23T21:08:33Z</time>
      </trkpt>
      <trkpt lat="44.48008" lon="6.24241">
        <ele>1081</ele>
        <time>2018-06-23T21:08:38Z</time>
      </trkpt>
      <trkpt lat="44.48008" lon="6.24241">
        <ele>1081</ele>
        <time>2018-06-23T21:08:43Z</time>
      </trkpt>
      <trkpt lat="44.48008" lon="6.24241">
        <ele>1081</ele>
        <time>2018-06-23T21:08:48Z</time>
      </trkpt>
      <trkpt lat="44.48007" lon="6.24242">
        <ele>1081</ele>
        <time>2018-06-23T21:08:53Z</time>
      </trkpt>
      <trkpt lat="44.48003" lon="6.24244">
        <ele>1080</ele>
        <time>2018-06-23T21:08:58Z</time>
      </trkpt>
      <trkpt lat="44.47998" lon="6.24243">
        <ele>1079</ele>
        <time>2018-06-23T21:09:03Z</time>
      </trkpt>
      <trkpt lat="44.47993" lon="6.24243">
        <ele>1078</ele>
        <time>2018-06-23T21:09:08Z</time>
      </trkpt>
      <trkpt lat="44.47989" lon="6.24244">
        <ele>1078</ele>
        <time>2018-06-23T21:09:13Z</time>
      </trkpt>
      <trkpt lat="44.47985" lon="6.24244">
        <ele>1077</ele>
        <time>2018-06-23T21:09:18Z</time>
      </trkpt>
      <trkpt lat="44.47981" lon="6.24244">
        <ele>1076</ele>
        <time>2018-06-23T21:09:23Z</time>
      </trkpt>
      <trkpt lat="44.47977" lon="6.24242">
        <ele>1075</ele>
        <time>2018-06-23T21:09:28Z</time>
      </trkpt>
      <trkpt lat="44.47974" lon="6.24237">
        <ele>1074</ele>
        <time>2018-06-23T21:09:33Z</time>
      </trkpt>
      <trkpt lat="44.47972" lon="6.24233">
        <ele>1074</ele>
        <time>2018-06-23T21:09:38Z</time>
      </trkpt>
      <trkpt lat="44.47967" lon="6.2423">
        <ele>1073</ele>
        <time>2018-06-23T21:09:43Z</time>
      </trkpt>
      <trkpt lat="44.47965" lon="6.2423">
        <ele>1072</ele>
        <time>2018-06-23T21:09:48Z</time>
      </trkpt>
      <trkpt lat="44.47965" lon="6.2423">
        <ele>1072</ele>
        <time>2018-06-23T21:09:53Z</time>
      </trkpt>
      <trkpt lat="44.47965" lon="6.2423">
        <ele>1072</ele>
        <time>2018-06-23T21:09:58Z</time>
      </trkpt>
      <trkpt lat="44.47965" lon="6.2423">
        <ele>1072</ele>
        <time>2018-06-23T21:10:03Z</time>
      </trkpt>
      <trkpt lat="44.47966" lon="6.2423">
        <ele>1073</ele>
        <time>2018-06-23T21:10:08Z</time>
      </trkpt>
      <trkpt lat="44.47966" lon="6.2423">
        <ele>1073</ele>
        <time>2018-06-23T21:10:13Z</time>
      </trkpt>
      <trkpt lat="44.47966" lon="6.2423">
        <ele>1073</ele>
        <time>2018-06-23T21:10:18Z</time>
      </trkpt>
      <trkpt lat="44.47963" lon="6.24228">
        <ele>1072</ele>
        <time>2018-06-23T21:10:23Z</time>
      </trkpt>
      <trkpt lat="44.47961" lon="6.24223">
        <ele>1071</ele>
        <time>2018-06-23T21:10:28Z</time>
      </trkpt>
      <trkpt lat="44.47958" lon="6.2422">
        <ele>1071</ele>
        <time>2018-06-23T21:10:33Z</time>
      </trkpt>
      <trkpt lat="44.47955" lon="6.24217">
        <ele>1070</ele>
        <time>2018-06-23T21:10:38Z</time>
      </trkpt>
      <trkpt lat="44.47952" lon="6.24214">
        <ele>1069</ele>
        <time>2018-06-23T21:10:43Z</time>
      </trkpt>
      <trkpt lat="44.4795" lon="6.24209">
        <ele>1069</ele>
        <time>2018-06-23T21:10:48Z</time>
      </trkpt>
      <trkpt lat="44.47949" lon="6.24205">
        <ele>1069</ele>
        <time>2018-06-23T21:10:53Z</time>
      </trkpt>
      <trkpt lat="44.47949" lon="6.24205">
        <ele>1069</ele>
        <time>2018-06-23T21:10:58Z</time>
      </trkpt>
      <trkpt lat="44.47948" lon="6.24205">
        <ele>1069</ele>
        <time>2018-06-23T21:11:03Z</time>
      </trkpt>
      <trkpt lat="44.47948" lon="6.24204">
        <ele>1068</ele>
        <time>2018-06-23T21:11:08Z</time>
      </trkpt>
      <trkpt lat="44.47948" lon="6.24203">
        <ele>1068</ele>
        <time>2018-06-23T21:11:13Z</time>
      </trkpt>
      <trkpt lat="44.47947" lon="6.24202">
        <ele>1068</ele>
        <time>2018-06-23T21:11:18Z</time>
      </trkpt>
      <trkpt lat="44.47946" lon="6.24202">
        <ele>1068</ele>
        <time>2018-06-23T21:11:23Z</time>
      </trkpt>
      <trkpt lat="44.47946" lon="6.24202">
        <ele>1068</ele>
        <time>2018-06-23T21:11:28Z</time>
      </trkpt>
      <trkpt lat="44.47946" lon="6.24202">
        <ele>1068</ele>
        <time>2018-06-23T21:11:33Z</time>
      </trkpt>
      <trkpt lat="44.47946" lon="6.24202">
        <ele>1068</ele>
        <time>2018-06-23T21:11:38Z</time>
      </trkpt>
      <trkpt lat="44.47946" lon="6.24202">
        <ele>1068</ele>
        <time>2018-06-23T21:11:43Z</time>
      </trkpt>
      <trkpt lat="44.47944" lon="6.242">
        <ele>1068</ele>
        <time>2018-06-23T21:11:48Z</time>
      </trkpt>
      <trkpt lat="44.47941" lon="6.24196">
        <ele>1068</ele>
        <time>2018-06-23T21:11:53Z</time>
      </trkpt>
      <trkpt lat="44.47939" lon="6.24191">
        <ele>1067</ele>
        <time>2018-06-23T21:11:58Z</time>
      </trkpt>
      <trkpt lat="44.47937" lon="6.24187">
        <ele>1067</ele>
        <time>2018-06-23T21:12:03Z</time>
      </trkpt>
      <trkpt lat="44.47934" lon="6.24181">
        <ele>1066</ele>
        <time>2018-06-23T21:12:08Z</time>
      </trkpt>
      <trkpt lat="44.47932" lon="6.24176">
        <ele>1066</ele>
        <time>2018-06-23T21:12:13Z</time>
      </trkpt>
      <trkpt lat="44.47929" lon="6.2417">
        <ele>1066</ele>
        <time>2018-06-23T21:12:18Z</time>
      </trkpt>
      <trkpt lat="44.47926" lon="6.24165">
        <ele>1065</ele>
        <time>2018-06-23T21:12:23Z</time>
      </trkpt>
      <trkpt lat="44.47924" lon="6.24161">
        <ele>1065</ele>
        <time>2018-06-23T21:12:28Z</time>
      </trkpt>
      <trkpt lat="44.47922" lon="6.24157">
        <ele>1065</ele>
        <time>2018-06-23T21:12:33Z</time>
      </trkpt>
      <trkpt lat="44.4792" lon="6.24152">
        <ele>1065</ele>
        <time>2018-06-23T21:12:38Z</time>
      </trkpt>
      <trkpt lat="44.47919" lon="6.24147">
        <ele>1064</ele>
        <time>2018-06-23T21:12:43Z</time>
      </trkpt>
      <trkpt lat="44.47916" lon="6.24144">
        <ele>1064</ele>
        <time>2018-06-23T21:12:48Z</time>
      </trkpt>
      <trkpt lat="44.47915" lon="6.24139">
        <ele>1064</ele>
        <time>2018-06-23T21:12:53Z</time>
      </trkpt>
      <trkpt lat="44.47913" lon="6.24135">
        <ele>1064</ele>
        <time>2018-06-23T21:12:58Z</time>
      </trkpt>
      <trkpt lat="44.47912" lon="6.24131">
        <ele>1064</ele>
        <time>2018-06-23T21:13:03Z</time>
      </trkpt>
      <trkpt lat="44.47911" lon="6.24129">
        <ele>1064</ele>
        <time>2018-06-23T21:13:08Z</time>
      </trkpt>
      <trkpt lat="44.4791" lon="6.24124">
        <ele>1064</ele>
        <time>2018-06-23T21:13:13Z</time>
      </trkpt>
      <trkpt lat="44.47909" lon="6.24118">
        <ele>1064</ele>
        <time>2018-06-23T21:13:18Z</time>
      </trkpt>
      <trkpt lat="44.47906" lon="6.24111">
        <ele>1063</ele>
        <time>2018-06-23T21:13:23Z</time>
      </trkpt>
      <trkpt lat="44.47902" lon="6.24106">
        <ele>1063</ele>
        <time>2018-06-23T21:13:28Z</time>
      </trkpt>
      <trkpt lat="44.47897" lon="6.24103">
        <ele>1063</ele>
        <time>2018-06-23T21:13:33Z</time>
      </trkpt>
      <trkpt lat="44.47897" lon="6.24103">
        <ele>1063</ele>
        <time>2018-06-23T21:13:38Z</time>
      </trkpt>
      <trkpt lat="44.47897" lon="6.24104">
        <ele>1063</ele>
        <time>2018-06-23T21:13:43Z</time>
      </trkpt>
      <trkpt lat="44.47897" lon="6.24103">
        <ele>1063</ele>
        <time>2018-06-23T21:13:48Z</time>
      </trkpt>
      <trkpt lat="44.47896" lon="6.24102">
        <ele>1063</ele>
        <time>2018-06-23T21:13:53Z</time>
      </trkpt>
      <trkpt lat="44.47896" lon="6.24102">
        <ele>1063</ele>
        <time>2018-06-23T21:13:58Z</time>
      </trkpt>
      <trkpt lat="44.47896" lon="6.24102">
        <ele>1063</ele>
        <time>2018-06-23T21:14:03Z</time>
      </trkpt>
      <trkpt lat="44.47897" lon="6.24103">
        <ele>1063</ele>
        <time>2018-06-23T21:14:08Z</time>
      </trkpt>
      <trkpt lat="44.47897" lon="6.24102">
        <ele>1063</ele>
        <time>2018-06-23T21:14:13Z</time>
      </trkpt>
      <trkpt lat="44.47897" lon="6.24102">
        <ele>1063</ele>
        <time>2018-06-23T21:14:18Z</time>
      </trkpt>
      <trkpt lat="44.47897" lon="6.24102">
        <ele>1063</ele>
        <time>2018-06-23T21:14:23Z</time>
      </trkpt>
      <trkpt lat="44.47897" lon="6.24102">
        <ele>1063</ele>
        <time>2018-06-23T21:14:28Z</time>
      </trkpt>
      <trkpt lat="44.47897" lon="6.24102">
        <ele>1063</ele>
        <time>2018-06-23T21:14:33Z</time>
      </trkpt>
      <trkpt lat="44.47897" lon="6.24103">
        <ele>1063</ele>
        <time>2018-06-23T21:14:38Z</time>
      </trkpt>
      <trkpt lat="44.47897" lon="6.24103">
        <ele>1063</ele>
        <time>2018-06-23T21:14:43Z</time>
      </trkpt>
      <trkpt lat="44.47897" lon="6.24103">
        <ele>1063</ele>
        <time>2018-06-23T21:14:48Z</time>
      </trkpt>
      <trkpt lat="44.47897" lon="6.24103">
        <ele>1063</ele>
        <time>2018-06-23T21:14:53Z</time>
      </trkpt>
      <trkpt lat="44.47897" lon="6.24103">
        <ele>1063</ele>
        <time>2018-06-23T21:14:58Z</time>
      </trkpt>
      <trkpt lat="44.47897" lon="6.24103">
        <ele>1063</ele>
        <time>2018-06-23T21:15:03Z</time>
      </trkpt>
      <trkpt lat="44.47897" lon="6.24103">
        <ele>1063</ele>
        <time>2018-06-23T21:15:08Z</time>
      </trkpt>
      <trkpt lat="44.47898" lon="6.24104">
        <ele>1063</ele>
        <time>2018-06-23T21:15:13Z</time>
      </trkpt>
      <trkpt lat="44.47899" lon="6.24105">
        <ele>1063</ele>
        <time>2018-06-23T21:15:18Z</time>
      </trkpt>
      <trkpt lat="44.479" lon="6.24104">
        <ele>1063</ele>
        <time>2018-06-23T21:15:23Z</time>
      </trkpt>
      <trkpt lat="44.47899" lon="6.24102">
        <ele>1063</ele>
        <time>2018-06-23T21:15:28Z</time>
      </trkpt>
      <trkpt lat="44.47899" lon="6.24101">
        <ele>1063</ele>
        <time>2018-06-23T21:15:33Z</time>
      </trkpt>
      <trkpt lat="44.47899" lon="6.24101">
        <ele>1063</ele>
        <time>2018-06-23T21:15:38Z</time>
      </trkpt>
      <trkpt lat="44.47899" lon="6.24101">
        <ele>1063</ele>
        <time>2018-06-23T21:15:43Z</time>
      </trkpt>
      <trkpt lat="44.47899" lon="6.24101">
        <ele>1063</ele>
        <time>2018-06-23T21:15:48Z</time>
      </trkpt>
      <trkpt lat="44.47899" lon="6.24101">
        <ele>1063</ele>
        <time>2018-06-23T21:15:53Z</time>
      </trkpt>
      <trkpt lat="44.47899" lon="6.24101">
        <ele>1063</ele>
        <time>2018-06-23T21:15:58Z</time>
      </trkpt>
      <trkpt lat="44.47899" lon="6.24101">
        <ele>1063</ele>
        <time>2018-06-23T21:16:03Z</time>
      </trkpt>
      <trkpt lat="44.47899" lon="6.24101">
        <ele>1063</ele>
        <time>2018-06-23T21:16:08Z</time>
      </trkpt>
      <trkpt lat="44.47899" lon="6.24101">
        <ele>1063</ele>
        <time>2018-06-23T21:16:13Z</time>
      </trkpt>
      <trkpt lat="44.47899" lon="6.24101">
        <ele>1063</ele>
        <time>2018-06-23T21:16:18Z</time>
      </trkpt>
      <trkpt lat="44.47899" lon="6.24101">
        <ele>1063</ele>
        <time>2018-06-23T21:16:23Z</time>
      </trkpt>
      <trkpt lat="44.47899" lon="6.24102">
        <ele>1063</ele>
        <time>2018-06-23T21:16:28Z</time>
      </trkpt>
      <trkpt lat="44.47899" lon="6.24102">
        <ele>1063</ele>
        <time>2018-06-23T21:16:33Z</time>
      </trkpt>
      <trkpt lat="44.47899" lon="6.24102">
        <ele>1063</ele>
        <time>2018-06-23T21:16:38Z</time>
      </trkpt>
      <trkpt lat="44.47899" lon="6.24102">
        <ele>1063</ele>
        <time>2018-06-23T21:16:43Z</time>
      </trkpt>
      <trkpt lat="44.47899" lon="6.24102">
        <ele>1063</ele>
        <time>2018-06-23T21:16:48Z</time>
      </trkpt>
      <trkpt lat="44.47899" lon="6.24102">
        <ele>1063</ele>
        <time>2018-06-23T21:16:53Z</time>
      </trkpt>
      <trkpt lat="44.47899" lon="6.24101">
        <ele>1063</ele>
        <time>2018-06-23T21:16:58Z</time>
      </trkpt>
      <trkpt lat="44.47899" lon="6.24101">
        <ele>1063</ele>
        <time>2018-06-23T21:17:03Z</time>
      </trkpt>
      <trkpt lat="44.47899" lon="6.24101">
        <ele>1063</ele>
        <time>2018-06-23T21:17:08Z</time>
      </trkpt>
      <trkpt lat="44.47899" lon="6.24101">
        <ele>1063</ele>
        <time>2018-06-23T21:17:13Z</time>
      </trkpt>
      <trkpt lat="44.47899" lon="6.24101">
        <ele>1063</ele>
        <time>2018-06-23T21:17:18Z</time>
      </trkpt>
      <trkpt lat="44.47899" lon="6.24101">
        <ele>1063</ele>
        <time>2018-06-23T21:17:23Z</time>
      </trkpt>
      <trkpt lat="44.47899" lon="6.24101">
        <ele>1063</ele>
        <time>2018-06-23T21:17:28Z</time>
      </trkpt>
      <trkpt lat="44.47895" lon="6.24099">
        <ele>1063</ele>
        <time>2018-06-23T21:17:33Z</time>
      </trkpt>
      <trkpt lat="44.47889" lon="6.24097">
        <ele>1062</ele>
        <time>2018-06-23T21:17:38Z</time>
      </trkpt>
      <trkpt lat="44.47883" lon="6.24093">
        <ele>1062</ele>
        <time>2018-06-23T21:17:43Z</time>
      </trkpt>
      <trkpt lat="44.47877" lon="6.24089">
        <ele>1063</ele>
        <time>2018-06-23T21:17:48Z</time>
      </trkpt>
      <trkpt lat="44.47872" lon="6.24085">
        <ele>1063</ele>
        <time>2018-06-23T21:17:53Z</time>
      </trkpt>
      <trkpt lat="44.47866" lon="6.24082">
        <ele>1064</ele>
        <time>2018-06-23T21:17:58Z</time>
      </trkpt>
      <trkpt lat="44.4786" lon="6.24079">
        <ele>1065</ele>
        <time>2018-06-23T21:18:03Z</time>
      </trkpt>
      <trkpt lat="44.47854" lon="6.24075">
        <ele>1065</ele>
        <time>2018-06-23T21:18:08Z</time>
      </trkpt>
      <trkpt lat="44.47849" lon="6.2407">
        <ele>1066</ele>
        <time>2018-06-23T21:18:13Z</time>
      </trkpt>
      <trkpt lat="44.47846" lon="6.24062">
        <ele>1066</ele>
        <time>2018-06-23T21:18:18Z</time>
      </trkpt>
      <trkpt lat="44.47845" lon="6.24053">
        <ele>1066</ele>
        <time>2018-06-23T21:18:23Z</time>
      </trkpt>
      <trkpt lat="44.47844" lon="6.24044">
        <ele>1066</ele>
        <time>2018-06-23T21:18:28Z</time>
      </trkpt>
      <trkpt lat="44.47843" lon="6.24035">
        <ele>1066</ele>
        <time>2018-06-23T21:18:33Z</time>
      </trkpt>
      <trkpt lat="44.47841" lon="6.24026">
        <ele>1067</ele>
        <time>2018-06-23T21:18:38Z</time>
      </trkpt>
      <trkpt lat="44.4784" lon="6.24017">
        <ele>1067</ele>
        <time>2018-06-23T21:18:43Z</time>
      </trkpt>
      <trkpt lat="44.47839" lon="6.24007">
        <ele>1066</ele>
        <time>2018-06-23T21:18:48Z</time>
      </trkpt>
      <trkpt lat="44.4784" lon="6.23998">
        <ele>1066</ele>
        <time>2018-06-23T21:18:53Z</time>
      </trkpt>
      <trkpt lat="44.4784" lon="6.23989">
        <ele>1066</ele>
        <time>2018-06-23T21:18:58Z</time>
      </trkpt>
      <trkpt lat="44.47841" lon="6.2398">
        <ele>1066</ele>
        <time>2018-06-23T21:19:03Z</time>
      </trkpt>
      <trkpt lat="44.47843" lon="6.23971">
        <ele>1065</ele>
        <time>2018-06-23T21:19:08Z</time>
      </trkpt>
      <trkpt lat="44.47843" lon="6.23963">
        <ele>1065</ele>
        <time>2018-06-23T21:19:13Z</time>
      </trkpt>
      <trkpt lat="44.47845" lon="6.23955">
        <ele>1065</ele>
        <time>2018-06-23T21:19:18Z</time>
      </trkpt>
      <trkpt lat="44.47846" lon="6.23947">
        <ele>1065</ele>
        <time>2018-06-23T21:19:23Z</time>
      </trkpt>
      <trkpt lat="44.47846" lon="6.23939">
        <ele>1064</ele>
        <time>2018-06-23T21:19:28Z</time>
      </trkpt>
      <trkpt lat="44.47845" lon="6.23931">
        <ele>1064</ele>
        <time>2018-06-23T21:19:33Z</time>
      </trkpt>
      <trkpt lat="44.47844" lon="6.23923">
        <ele>1063</ele>
        <time>2018-06-23T21:19:38Z</time>
      </trkpt>
      <trkpt lat="44.47842" lon="6.23914">
        <ele>1062</ele>
        <time>2018-06-23T21:19:43Z</time>
      </trkpt>
      <trkpt lat="44.47841" lon="6.23904">
        <ele>1062</ele>
        <time>2018-06-23T21:19:48Z</time>
      </trkpt>
      <trkpt lat="44.47841" lon="6.23895">
        <ele>1061</ele>
        <time>2018-06-23T21:19:53Z</time>
      </trkpt>
      <trkpt lat="44.47842" lon="6.23886">
        <ele>1061</ele>
        <time>2018-06-23T21:19:58Z</time>
      </trkpt>
      <trkpt lat="44.47845" lon="6.23876">
        <ele>1060</ele>
        <time>2018-06-23T21:20:03Z</time>
      </trkpt>
      <trkpt lat="44.47845" lon="6.23869">
        <ele>1059</ele>
        <time>2018-06-23T21:20:08Z</time>
      </trkpt>
      <trkpt lat="44.47839" lon="6.23868">
        <ele>1059</ele>
        <time>2018-06-23T21:20:13Z</time>
      </trkpt>
      <trkpt lat="44.47833" lon="6.23867">
        <ele>1058</ele>
        <time>2018-06-23T21:20:18Z</time>
      </trkpt>
      <trkpt lat="44.47827" lon="6.23868">
        <ele>1057</ele>
        <time>2018-06-23T21:20:23Z</time>
      </trkpt>
      <trkpt lat="44.47827" lon="6.23868">
        <ele>1057</ele>
        <time>2018-06-23T21:20:28Z</time>
      </trkpt>
      <trkpt lat="44.47822" lon="6.23868">
        <ele>1056</ele>
        <time>2018-06-23T21:20:33Z</time>
      </trkpt>
      <trkpt lat="44.47816" lon="6.23869">
        <ele>1056</ele>
        <time>2018-06-23T21:20:38Z</time>
      </trkpt>
      <trkpt lat="44.47809" lon="6.23869">
        <ele>1055</ele>
        <time>2018-06-23T21:20:43Z</time>
      </trkpt>
      <trkpt lat="44.47802" lon="6.23865">
        <ele>1055</ele>
        <time>2018-06-23T21:20:48Z</time>
      </trkpt>
      <trkpt lat="44.47795" lon="6.23862">
        <ele>1054</ele>
        <time>2018-06-23T21:20:53Z</time>
      </trkpt>
      <trkpt lat="44.47794" lon="6.23857">
        <ele>1053</ele>
        <time>2018-06-23T21:20:58Z</time>
      </trkpt>
      <trkpt lat="44.47794" lon="6.23855">
        <ele>1052</ele>
        <time>2018-06-23T21:21:03Z</time>
      </trkpt>
      <trkpt lat="44.47794" lon="6.23854">
        <ele>1052</ele>
        <time>2018-06-23T21:21:08Z</time>
      </trkpt>
      <trkpt lat="44.47794" lon="6.23851">
        <ele>1052</ele>
        <time>2018-06-23T21:21:13Z</time>
      </trkpt>
      <trkpt lat="44.47794" lon="6.23845">
        <ele>1051</ele>
        <time>2018-06-23T21:21:18Z</time>
      </trkpt>
      <trkpt lat="44.47792" lon="6.23837">
        <ele>1049</ele>
        <time>2018-06-23T21:21:23Z</time>
      </trkpt>
      <trkpt lat="44.4779" lon="6.2383">
        <ele>1048</ele>
        <time>2018-06-23T21:21:28Z</time>
      </trkpt>
      <trkpt lat="44.47787" lon="6.23825">
        <ele>1046</ele>
        <time>2018-06-23T21:21:33Z</time>
      </trkpt>
      <trkpt lat="44.47781" lon="6.2382">
        <ele>1045</ele>
        <time>2018-06-23T21:21:38Z</time>
      </trkpt>
      <trkpt lat="44.47776" lon="6.23813">
        <ele>1043</ele>
        <time>2018-06-23T21:21:43Z</time>
      </trkpt>
      <trkpt lat="44.47775" lon="6.23812">
        <ele>1042</ele>
        <time>2018-06-23T21:21:48Z</time>
      </trkpt>
      <trkpt lat="44.47772" lon="6.23808">
        <ele>1041</ele>
        <time>2018-06-23T21:21:53Z</time>
      </trkpt>
      <trkpt lat="44.47768" lon="6.23801">
        <ele>1039</ele>
        <time>2018-06-23T21:21:58Z</time>
      </trkpt>
      <trkpt lat="44.47765" lon="6.23793">
        <ele>1037</ele>
        <time>2018-06-23T21:22:03Z</time>
      </trkpt>
      <trkpt lat="44.47763" lon="6.23784">
        <ele>1035</ele>
        <time>2018-06-23T21:22:08Z</time>
      </trkpt>
      <trkpt lat="44.4776" lon="6.23776">
        <ele>1033</ele>
        <time>2018-06-23T21:22:13Z</time>
      </trkpt>
      <trkpt lat="44.47759" lon="6.23767">
        <ele>1031</ele>
        <time>2018-06-23T21:22:18Z</time>
      </trkpt>
      <trkpt lat="44.47755" lon="6.2376">
        <ele>1028</ele>
        <time>2018-06-23T21:22:23Z</time>
      </trkpt>
      <trkpt lat="44.47753" lon="6.23752">
        <ele>1026</ele>
        <time>2018-06-23T21:22:28Z</time>
      </trkpt>
      <trkpt lat="44.47751" lon="6.23744">
        <ele>1024</ele>
        <time>2018-06-23T21:22:33Z</time>
      </trkpt>
      <trkpt lat="44.47752" lon="6.23735">
        <ele>1022</ele>
        <time>2018-06-23T21:22:38Z</time>
      </trkpt>
      <trkpt lat="44.47749" lon="6.23728">
        <ele>1019</ele>
        <time>2018-06-23T21:22:43Z</time>
      </trkpt>
      <trkpt lat="44.47745" lon="6.23722">
        <ele>1016</ele>
        <time>2018-06-23T21:22:48Z</time>
      </trkpt>
      <trkpt lat="44.4774" lon="6.23717">
        <ele>1014</ele>
        <time>2018-06-23T21:22:53Z</time>
      </trkpt>
      <trkpt lat="44.47736" lon="6.23718">
        <ele>1014</ele>
        <time>2018-06-23T21:22:58Z</time>
      </trkpt>
      <trkpt lat="44.4773" lon="6.23721">
        <ele>1014</ele>
        <time>2018-06-23T21:23:03Z</time>
      </trkpt>
      <trkpt lat="44.47726" lon="6.23723">
        <ele>1014</ele>
        <time>2018-06-23T21:23:08Z</time>
      </trkpt>
      <trkpt lat="44.47727" lon="6.23721">
        <ele>1013</ele>
        <time>2018-06-23T21:23:13Z</time>
      </trkpt>
      <trkpt lat="44.4773" lon="6.23717">
        <ele>1013</ele>
        <time>2018-06-23T21:23:18Z</time>
      </trkpt>
      <trkpt lat="44.47733" lon="6.2371">
        <ele>1011</ele>
        <time>2018-06-23T21:23:23Z</time>
      </trkpt>
      <trkpt lat="44.47736" lon="6.23704">
        <ele>1010</ele>
        <time>2018-06-23T21:23:28Z</time>
      </trkpt>
      <trkpt lat="44.4774" lon="6.23698">
        <ele>1008</ele>
        <time>2018-06-23T21:23:33Z</time>
      </trkpt>
      <trkpt lat="44.47743" lon="6.23692">
        <ele>1007</ele>
        <time>2018-06-23T21:23:38Z</time>
      </trkpt>
      <trkpt lat="44.47747" lon="6.23687">
        <ele>1006</ele>
        <time>2018-06-23T21:23:43Z</time>
      </trkpt>
      <trkpt lat="44.47747" lon="6.23678">
        <ele>1004</ele>
        <time>2018-06-23T21:23:48Z</time>
      </trkpt>
      <trkpt lat="44.47741" lon="6.23676">
        <ele>1002</ele>
        <time>2018-06-23T21:23:53Z</time>
      </trkpt>
      <trkpt lat="44.47736" lon="6.23677">
        <ele>1002</ele>
        <time>2018-06-23T21:23:58Z</time>
      </trkpt>
      <trkpt lat="44.47731" lon="6.23676">
        <ele>1001</ele>
        <time>2018-06-23T21:24:03Z</time>
      </trkpt>
      <trkpt lat="44.47725" lon="6.23676">
        <ele>1000</ele>
        <time>2018-06-23T21:24:08Z</time>
      </trkpt>
      <trkpt lat="44.4772" lon="6.23677">
        <ele>999</ele>
        <time>2018-06-23T21:24:13Z</time>
      </trkpt>
      <trkpt lat="44.47713" lon="6.23679">
        <ele>999</ele>
        <time>2018-06-23T21:24:18Z</time>
      </trkpt>
      <trkpt lat="44.47706" lon="6.23679">
        <ele>998</ele>
        <time>2018-06-23T21:24:23Z</time>
      </trkpt>
      <trkpt lat="44.477" lon="6.23679">
        <ele>997</ele>
        <time>2018-06-23T21:24:28Z</time>
      </trkpt>
      <trkpt lat="44.47695" lon="6.23679">
        <ele>997</ele>
        <time>2018-06-23T21:24:33Z</time>
      </trkpt>
      <trkpt lat="44.47689" lon="6.23684">
        <ele>997</ele>
        <time>2018-06-23T21:24:38Z</time>
      </trkpt>
      <trkpt lat="44.47682" lon="6.23691">
        <ele>998</ele>
        <time>2018-06-23T21:24:43Z</time>
      </trkpt>
      <trkpt lat="44.47674" lon="6.23694">
        <ele>999</ele>
        <time>2018-06-23T21:24:48Z</time>
      </trkpt>
      <trkpt lat="44.4767" lon="6.23695">
        <ele>1000</ele>
        <time>2018-06-23T21:24:53Z</time>
      </trkpt>
      <trkpt lat="44.47665" lon="6.23693">
        <ele>1001</ele>
        <time>2018-06-23T21:24:58Z</time>
      </trkpt>
      <trkpt lat="44.47661" lon="6.2369">
        <ele>1001</ele>
        <time>2018-06-23T21:25:03Z</time>
      </trkpt>
      <trkpt lat="44.47657" lon="6.23685">
        <ele>1000</ele>
        <time>2018-06-23T21:25:08Z</time>
      </trkpt>
      <trkpt lat="44.47653" lon="6.23678">
        <ele>998</ele>
        <time>2018-06-23T21:25:13Z</time>
      </trkpt>
      <trkpt lat="44.47652" lon="6.23673">
        <ele>997</ele>
        <time>2018-06-23T21:25:18Z</time>
      </trkpt>
      <trkpt lat="44.47652" lon="6.23664">
        <ele>995</ele>
        <time>2018-06-23T21:25:23Z</time>
      </trkpt>
      <trkpt lat="44.4765" lon="6.23656">
        <ele>993</ele>
        <time>2018-06-23T21:25:28Z</time>
      </trkpt>
      <trkpt lat="44.47647" lon="6.23648">
        <ele>991</ele>
        <time>2018-06-23T21:25:33Z</time>
      </trkpt>
      <trkpt lat="44.47644" lon="6.2364">
        <ele>990</ele>
        <time>2018-06-23T21:25:38Z</time>
      </trkpt>
      <trkpt lat="44.47639" lon="6.2363">
        <ele>988</ele>
        <time>2018-06-23T21:25:43Z</time>
      </trkpt>
      <trkpt lat="44.47635" lon="6.2362">
        <ele>986</ele>
        <time>2018-06-23T21:25:48Z</time>
      </trkpt>
      <trkpt lat="44.47632" lon="6.23611">
        <ele>984</ele>
        <time>2018-06-23T21:25:53Z</time>
      </trkpt>
      <trkpt lat="44.47629" lon="6.23601">
        <ele>981</ele>
        <time>2018-06-23T21:25:58Z</time>
      </trkpt>
      <trkpt lat="44.47625" lon="6.23593">
        <ele>980</ele>
        <time>2018-06-23T21:26:03Z</time>
      </trkpt>
      <trkpt lat="44.47622" lon="6.23587">
        <ele>978</ele>
        <time>2018-06-23T21:26:08Z</time>
      </trkpt>
      <trkpt lat="44.47614" lon="6.23581">
        <ele>978</ele>
        <time>2018-06-23T21:26:13Z</time>
      </trkpt>
      <trkpt lat="44.47609" lon="6.23574">
        <ele>977</ele>
        <time>2018-06-23T21:26:18Z</time>
      </trkpt>
      <trkpt lat="44.47604" lon="6.23568">
        <ele>976</ele>
        <time>2018-06-23T21:26:23Z</time>
      </trkpt>
      <trkpt lat="44.47599" lon="6.23562">
        <ele>975</ele>
        <time>2018-06-23T21:26:28Z</time>
      </trkpt>
      <trkpt lat="44.47592" lon="6.23551">
        <ele>973</ele>
        <time>2018-06-23T21:26:33Z</time>
      </trkpt>
      <trkpt lat="44.47585" lon="6.23543">
        <ele>972</ele>
        <time>2018-06-23T21:26:38Z</time>
      </trkpt>
      <trkpt lat="44.47583" lon="6.23536">
        <ele>970</ele>
        <time>2018-06-23T21:26:43Z</time>
      </trkpt>
      <trkpt lat="44.4758" lon="6.23534">
        <ele>970</ele>
        <time>2018-06-23T21:26:48Z</time>
      </trkpt>
      <trkpt lat="44.47576" lon="6.23532">
        <ele>970</ele>
        <time>2018-06-23T21:26:53Z</time>
      </trkpt>
      <trkpt lat="44.47572" lon="6.23528">
        <ele>969</ele>
        <time>2018-06-23T21:26:58Z</time>
      </trkpt>
      <trkpt lat="44.47569" lon="6.2352">
        <ele>967</ele>
        <time>2018-06-23T21:27:03Z</time>
      </trkpt>
      <trkpt lat="44.47566" lon="6.23511">
        <ele>964</ele>
        <time>2018-06-23T21:27:08Z</time>
      </trkpt>
      <trkpt lat="44.47562" lon="6.23503">
        <ele>962</ele>
        <time>2018-06-23T21:27:13Z</time>
      </trkpt>
      <trkpt lat="44.47558" lon="6.23498">
        <ele>960</ele>
        <time>2018-06-23T21:27:18Z</time>
      </trkpt>
      <trkpt lat="44.47554" lon="6.23492">
        <ele>959</ele>
        <time>2018-06-23T21:27:23Z</time>
      </trkpt>
      <trkpt lat="44.47548" lon="6.23485">
        <ele>957</ele>
        <time>2018-06-23T21:27:28Z</time>
      </trkpt>
      <trkpt lat="44.47543" lon="6.23479">
        <ele>956</ele>
        <time>2018-06-23T21:27:33Z</time>
      </trkpt>
      <trkpt lat="44.47538" lon="6.23475">
        <ele>954</ele>
        <time>2018-06-23T21:27:38Z</time>
      </trkpt>
      <trkpt lat="44.47532" lon="6.23471">
        <ele>953</ele>
        <time>2018-06-23T21:27:43Z</time>
      </trkpt>
      <trkpt lat="44.47525" lon="6.23469">
        <ele>952</ele>
        <time>2018-06-23T21:27:48Z</time>
      </trkpt>
      <trkpt lat="44.4752" lon="6.23466">
        <ele>951</ele>
        <time>2018-06-23T21:27:53Z</time>
      </trkpt>
      <trkpt lat="44.47517" lon="6.23466">
        <ele>951</ele>
        <time>2018-06-23T21:27:58Z</time>
      </trkpt>
      <trkpt lat="44.47513" lon="6.23466">
        <ele>951</ele>
        <time>2018-06-23T21:28:03Z</time>
      </trkpt>
      <trkpt lat="44.4751" lon="6.23466">
        <ele>952</ele>
        <time>2018-06-23T21:28:08Z</time>
      </trkpt>
      <trkpt lat="44.47505" lon="6.23463">
        <ele>950</ele>
        <time>2018-06-23T21:28:13Z</time>
      </trkpt>
      <trkpt lat="44.475" lon="6.23456">
        <ele>948</ele>
        <time>2018-06-23T21:28:18Z</time>
      </trkpt>
      <trkpt lat="44.47495" lon="6.23451">
        <ele>946</ele>
        <time>2018-06-23T21:28:23Z</time>
      </trkpt>
      <trkpt lat="44.47489" lon="6.23446">
        <ele>944</ele>
        <time>2018-06-23T21:28:28Z</time>
      </trkpt>
      <trkpt lat="44.47482" lon="6.23442">
        <ele>942</ele>
        <time>2018-06-23T21:28:33Z</time>
      </trkpt>
      <trkpt lat="44.47477" lon="6.23438">
        <ele>941</ele>
        <time>2018-06-23T21:28:38Z</time>
      </trkpt>
      <trkpt lat="44.47474" lon="6.23431">
        <ele>938</ele>
        <time>2018-06-23T21:28:43Z</time>
      </trkpt>
      <trkpt lat="44.47473" lon="6.23425">
        <ele>935</ele>
        <time>2018-06-23T21:28:48Z</time>
      </trkpt>
      <trkpt lat="44.47469" lon="6.23418">
        <ele>932</ele>
        <time>2018-06-23T21:28:53Z</time>
      </trkpt>
      <trkpt lat="44.47464" lon="6.23412">
        <ele>930</ele>
        <time>2018-06-23T21:28:58Z</time>
      </trkpt>
      <trkpt lat="44.4746" lon="6.2341">
        <ele>929</ele>
        <time>2018-06-23T21:29:03Z</time>
      </trkpt>
      <trkpt lat="44.47456" lon="6.23408">
        <ele>928</ele>
        <time>2018-06-23T21:29:08Z</time>
      </trkpt>
      <trkpt lat="44.47452" lon="6.23408">
        <ele>927</ele>
        <time>2018-06-23T21:29:13Z</time>
      </trkpt>
      <trkpt lat="44.47447" lon="6.23411">
        <ele>929</ele>
        <time>2018-06-23T21:29:18Z</time>
      </trkpt>
      <trkpt lat="44.47441" lon="6.23412">
        <ele>929</ele>
        <time>2018-06-23T21:29:23Z</time>
      </trkpt>
      <trkpt lat="44.47435" lon="6.23412">
        <ele>929</ele>
        <time>2018-06-23T21:29:28Z</time>
      </trkpt>
      <trkpt lat="44.47432" lon="6.23415">
        <ele>930</ele>
        <time>2018-06-23T21:29:33Z</time>
      </trkpt>
      <trkpt lat="44.47427" lon="6.23411">
        <ele>928</ele>
        <time>2018-06-23T21:29:38Z</time>
      </trkpt>
      <trkpt lat="44.47422" lon="6.23408">
        <ele>927</ele>
        <time>2018-06-23T21:29:43Z</time>
      </trkpt>
      <trkpt lat="44.47418" lon="6.23408">
        <ele>926</ele>
        <time>2018-06-23T21:29:48Z</time>
      </trkpt>
      <trkpt lat="44.47412" lon="6.2341">
        <ele>927</ele>
        <time>2018-06-23T21:29:53Z</time>
      </trkpt>
      <trkpt lat="44.47405" lon="6.23414">
        <ele>928</ele>
        <time>2018-06-23T21:29:58Z</time>
      </trkpt>
      <trkpt lat="44.47402" lon="6.2342">
        <ele>930</ele>
        <time>2018-06-23T21:30:03Z</time>
      </trkpt>
      <trkpt lat="44.47398" lon="6.23426">
        <ele>932</ele>
        <time>2018-06-23T21:30:08Z</time>
      </trkpt>
      <trkpt lat="44.47393" lon="6.23424">
        <ele>930</ele>
        <time>2018-06-23T21:30:13Z</time>
      </trkpt>
      <trkpt lat="44.47387" lon="6.23418">
        <ele>927</ele>
        <time>2018-06-23T21:30:18Z</time>
      </trkpt>
      <trkpt lat="44.4738" lon="6.23409">
        <ele>923</ele>
        <time>2018-06-23T21:30:23Z</time>
      </trkpt>
      <trkpt lat="44.47375" lon="6.23402">
        <ele>919</ele>
        <time>2018-06-23T21:30:28Z</time>
      </trkpt>
      <trkpt lat="44.47368" lon="6.23398">
        <ele>916</ele>
        <time>2018-06-23T21:30:33Z</time>
      </trkpt>
      <trkpt lat="44.47362" lon="6.23394">
        <ele>914</ele>
        <time>2018-06-23T21:30:38Z</time>
      </trkpt>
      <trkpt lat="44.47356" lon="6.23389">
        <ele>911</ele>
        <time>2018-06-23T21:30:43Z</time>
      </trkpt>
      <trkpt lat="44.47351" lon="6.23385">
        <ele>909</ele>
        <time>2018-06-23T21:30:48Z</time>
      </trkpt>
      <trkpt lat="44.47346" lon="6.23381">
        <ele>907</ele>
        <time>2018-06-23T21:30:53Z</time>
      </trkpt>
      <trkpt lat="44.4734" lon="6.23376">
        <ele>904</ele>
        <time>2018-06-23T21:30:58Z</time>
      </trkpt>
      <trkpt lat="44.47333" lon="6.23369">
        <ele>900</ele>
        <time>2018-06-23T21:31:03Z</time>
      </trkpt>
      <trkpt lat="44.47333" lon="6.2336">
        <ele>897</ele>
        <time>2018-06-23T21:31:08Z</time>
      </trkpt>
      <trkpt lat="44.47337" lon="6.23352">
        <ele>896</ele>
        <time>2018-06-23T21:31:13Z</time>
      </trkpt>
      <trkpt lat="44.47343" lon="6.23352">
        <ele>897</ele>
        <time>2018-06-23T21:31:18Z</time>
      </trkpt>
      <trkpt lat="44.47346" lon="6.23355">
        <ele>898</ele>
        <time>2018-06-23T21:31:23Z</time>
      </trkpt>
      <trkpt lat="44.47349" lon="6.2336">
        <ele>900</ele>
        <time>2018-06-23T21:31:28Z</time>
      </trkpt>
      <trkpt lat="44.47353" lon="6.23363">
        <ele>902</ele>
        <time>2018-06-23T21:31:33Z</time>
      </trkpt>
      <trkpt lat="44.47358" lon="6.23364">
        <ele>903</ele>
        <time>2018-06-23T21:31:38Z</time>
      </trkpt>
      <trkpt lat="44.47363" lon="6.23366">
        <ele>905</ele>
        <time>2018-06-23T21:31:43Z</time>
      </trkpt>
      <trkpt lat="44.47371" lon="6.23366">
        <ele>907</ele>
        <time>2018-06-23T21:31:48Z</time>
      </trkpt>
      <trkpt lat="44.47376" lon="6.23365">
        <ele>907</ele>
        <time>2018-06-23T21:31:53Z</time>
      </trkpt>
      <trkpt lat="44.47379" lon="6.23364">
        <ele>907</ele>
        <time>2018-06-23T21:31:58Z</time>
      </trkpt>
      <trkpt lat="44.47379" lon="6.23359">
        <ele>906</ele>
        <time>2018-06-23T21:32:03Z</time>
      </trkpt>
      <trkpt lat="44.4738" lon="6.23356">
        <ele>905</ele>
        <time>2018-06-23T21:32:08Z</time>
      </trkpt>
      <trkpt lat="44.4738" lon="6.23355">
        <ele>905</ele>
        <time>2018-06-23T21:32:13Z</time>
      </trkpt>
      <trkpt lat="44.47378" lon="6.23351">
        <ele>903</ele>
        <time>2018-06-23T21:32:18Z</time>
      </trkpt>
      <trkpt lat="44.47378" lon="6.23347">
        <ele>902</ele>
        <time>2018-06-23T21:32:23Z</time>
      </trkpt>
      <trkpt lat="44.47376" lon="6.23342">
        <ele>900</ele>
        <time>2018-06-23T21:32:28Z</time>
      </trkpt>
      <trkpt lat="44.47374" lon="6.23338">
        <ele>898</ele>
        <time>2018-06-23T21:32:33Z</time>
      </trkpt>
      <trkpt lat="44.47373" lon="6.23334">
        <ele>896</ele>
        <time>2018-06-23T21:32:38Z</time>
      </trkpt>
      <trkpt lat="44.47371" lon="6.2333">
        <ele>895</ele>
        <time>2018-06-23T21:32:43Z</time>
      </trkpt>
      <trkpt lat="44.47369" lon="6.23325">
        <ele>892</ele>
        <time>2018-06-23T21:32:48Z</time>
      </trkpt>
      <trkpt lat="44.47367" lon="6.2332">
        <ele>890</ele>
        <time>2018-06-23T21:32:53Z</time>
      </trkpt>
      <trkpt lat="44.47366" lon="6.23318">
        <ele>890</ele>
        <time>2018-06-23T21:32:58Z</time>
      </trkpt>
      <trkpt lat="44.47366" lon="6.23317">
        <ele>889</ele>
        <time>2018-06-23T21:33:03Z</time>
      </trkpt>
      <trkpt lat="44.47363" lon="6.23314">
        <ele>887</ele>
        <time>2018-06-23T21:33:08Z</time>
      </trkpt>
      <trkpt lat="44.47357" lon="6.23309">
        <ele>885</ele>
        <time>2018-06-23T21:33:13Z</time>
      </trkpt>
      <trkpt lat="44.47356" lon="6.23309">
        <ele>884</ele>
        <time>2018-06-23T21:33:18Z</time>
      </trkpt>
      <trkpt lat="44.47355" lon="6.23307">
        <ele>884</ele>
        <time>2018-06-23T21:33:23Z</time>
      </trkpt>
      <trkpt lat="44.47353" lon="6.23303">
        <ele>882</ele>
        <time>2018-06-23T21:33:28Z</time>
      </trkpt>
      <trkpt lat="44.47349" lon="6.23295">
        <ele>879</ele>
        <time>2018-06-23T21:33:33Z</time>
      </trkpt>
      <trkpt lat="44.47347" lon="6.23293">
        <ele>877</ele>
        <time>2018-06-23T21:33:38Z</time>
      </trkpt>
      <trkpt lat="44.47347" lon="6.23292">
        <ele>877</ele>
        <time>2018-06-23T21:33:43Z</time>
      </trkpt>
      <trkpt lat="44.47347" lon="6.23292">
        <ele>877</ele>
        <time>2018-06-23T21:33:48Z</time>
      </trkpt>
      <trkpt lat="44.47344" lon="6.23285">
        <ele>874</ele>
        <time>2018-06-23T21:33:53Z</time>
      </trkpt>
      <trkpt lat="44.4734" lon="6.23279">
        <ele>872</ele>
        <time>2018-06-23T21:33:58Z</time>
      </trkpt>
      <trkpt lat="44.47336" lon="6.23276">
        <ele>870</ele>
        <time>2018-06-23T21:34:03Z</time>
      </trkpt>
      <trkpt lat="44.47332" lon="6.23273">
        <ele>868</ele>
        <time>2018-06-23T21:34:08Z</time>
      </trkpt>
      <trkpt lat="44.47327" lon="6.23271">
        <ele>867</ele>
        <time>2018-06-23T21:34:13Z</time>
      </trkpt>
      <trkpt lat="44.47321" lon="6.23268">
        <ele>865</ele>
        <time>2018-06-23T21:34:18Z</time>
      </trkpt>
      <trkpt lat="44.47317" lon="6.23265">
        <ele>863</ele>
        <time>2018-06-23T21:34:23Z</time>
      </trkpt>
      <trkpt lat="44.47312" lon="6.23263">
        <ele>862</ele>
        <time>2018-06-23T21:34:28Z</time>
      </trkpt>
      <trkpt lat="44.47311" lon="6.23262">
        <ele>862</ele>
        <time>2018-06-23T21:34:33Z</time>
      </trkpt>
      <trkpt lat="44.47311" lon="6.23262">
        <ele>862</ele>
        <time>2018-06-23T21:34:38Z</time>
      </trkpt>
      <trkpt lat="44.47311" lon="6.23262">
        <ele>862</ele>
        <time>2018-06-23T21:34:43Z</time>
      </trkpt>
      <trkpt lat="44.47309" lon="6.23261">
        <ele>861</ele>
        <time>2018-06-23T21:34:48Z</time>
      </trkpt>
      <trkpt lat="44.47303" lon="6.23258">
        <ele>859</ele>
        <time>2018-06-23T21:34:53Z</time>
      </trkpt>
      <trkpt lat="44.47299" lon="6.23255">
        <ele>857</ele>
        <time>2018-06-23T21:34:58Z</time>
      </trkpt>
      <trkpt lat="44.47293" lon="6.23254">
        <ele>856</ele>
        <time>2018-06-23T21:35:03Z</time>
      </trkpt>
      <trkpt lat="44.47288" lon="6.23252">
        <ele>856</ele>
        <time>2018-06-23T21:35:08Z</time>
      </trkpt>
      <trkpt lat="44.47284" lon="6.23248">
        <ele>853</ele>
        <time>2018-06-23T21:35:13Z</time>
      </trkpt>
      <trkpt lat="44.4728" lon="6.23247">
        <ele>853</ele>
        <time>2018-06-23T21:35:18Z</time>
      </trkpt>
      <trkpt lat="44.47274" lon="6.23245">
        <ele>851</ele>
        <time>2018-06-23T21:35:23Z</time>
      </trkpt>
      <trkpt lat="44.47269" lon="6.23243">
        <ele>850</ele>
        <time>2018-06-23T21:35:28Z</time>
      </trkpt>
      <trkpt lat="44.47268" lon="6.23236">
        <ele>848</ele>
        <time>2018-06-23T21:35:33Z</time>
      </trkpt>
      <trkpt lat="44.47265" lon="6.23229">
        <ele>845</ele>
        <time>2018-06-23T21:35:38Z</time>
      </trkpt>
      <trkpt lat="44.47262" lon="6.23223">
        <ele>843</ele>
        <time>2018-06-23T21:35:43Z</time>
      </trkpt>
      <trkpt lat="44.4726" lon="6.23216">
        <ele>840</ele>
        <time>2018-06-23T21:35:48Z</time>
      </trkpt>
      <trkpt lat="44.47258" lon="6.23209">
        <ele>838</ele>
        <time>2018-06-23T21:35:53Z</time>
      </trkpt>
      <trkpt lat="44.47257" lon="6.23201">
        <ele>835</ele>
        <time>2018-06-23T21:35:58Z</time>
      </trkpt>
      <trkpt lat="44.47259" lon="6.23191">
        <ele>831</ele>
        <time>2018-06-23T21:36:03Z</time>
      </trkpt>
      <trkpt lat="44.47257" lon="6.23183">
        <ele>828</ele>
        <time>2018-06-23T21:36:08Z</time>
      </trkpt>
      <trkpt lat="44.4725" lon="6.23183">
        <ele>827</ele>
        <time>2018-06-23T21:36:13Z</time>
      </trkpt>
      <trkpt lat="44.47245" lon="6.23187">
        <ele>828</ele>
        <time>2018-06-23T21:36:18Z</time>
      </trkpt>
      <trkpt lat="44.47241" lon="6.23192">
        <ele>829</ele>
        <time>2018-06-23T21:36:23Z</time>
      </trkpt>
      <trkpt lat="44.47236" lon="6.23197">
        <ele>830</ele>
        <time>2018-06-23T21:36:28Z</time>
      </trkpt>
      <trkpt lat="44.47232" lon="6.23203">
        <ele>831</ele>
        <time>2018-06-23T21:36:33Z</time>
      </trkpt>
      <trkpt lat="44.47229" lon="6.2321">
        <ele>833</ele>
        <time>2018-06-23T21:36:38Z</time>
      </trkpt>
      <trkpt lat="44.47226" lon="6.23217">
        <ele>834</ele>
        <time>2018-06-23T21:36:43Z</time>
      </trkpt>
      <trkpt lat="44.47223" lon="6.23222">
        <ele>834</ele>
        <time>2018-06-23T21:36:48Z</time>
      </trkpt>
      <trkpt lat="44.47224" lon="6.23225">
        <ele>835</ele>
        <time>2018-06-23T21:36:53Z</time>
      </trkpt>
      <trkpt lat="44.47223" lon="6.23227">
        <ele>835</ele>
        <time>2018-06-23T21:36:58Z</time>
      </trkpt>
      <trkpt lat="44.47223" lon="6.23227">
        <ele>835</ele>
        <time>2018-06-23T21:37:03Z</time>
      </trkpt>
      <trkpt lat="44.47224" lon="6.23227">
        <ele>835</ele>
        <time>2018-06-23T21:37:08Z</time>
      </trkpt>
      <trkpt lat="44.47224" lon="6.23227">
        <ele>835</ele>
        <time>2018-06-23T21:37:13Z</time>
      </trkpt>
      <trkpt lat="44.47225" lon="6.23227">
        <ele>836</ele>
        <time>2018-06-23T21:37:18Z</time>
      </trkpt>
      <trkpt lat="44.47224" lon="6.23228">
        <ele>836</ele>
        <time>2018-06-23T21:37:23Z</time>
      </trkpt>
      <trkpt lat="44.47224" lon="6.23228">
        <ele>836</ele>
        <time>2018-06-23T21:37:28Z</time>
      </trkpt>
      <trkpt lat="44.47224" lon="6.23228">
        <ele>836</ele>
        <time>2018-06-23T21:37:33Z</time>
      </trkpt>
      <trkpt lat="44.47221" lon="6.23233">
        <ele>836</ele>
        <time>2018-06-23T21:37:38Z</time>
      </trkpt>
      <trkpt lat="44.47219" lon="6.2324">
        <ele>837</ele>
        <time>2018-06-23T21:37:43Z</time>
      </trkpt>
      <trkpt lat="44.47217" lon="6.23248">
        <ele>838</ele>
        <time>2018-06-23T21:37:48Z</time>
      </trkpt>
      <trkpt lat="44.47212" lon="6.23254">
        <ele>838</ele>
        <time>2018-06-23T21:37:53Z</time>
      </trkpt>
      <trkpt lat="44.47208" lon="6.23256">
        <ele>838</ele>
        <time>2018-06-23T21:37:58Z</time>
      </trkpt>
      <trkpt lat="44.47203" lon="6.2325">
        <ele>835</ele>
        <time>2018-06-23T21:38:03Z</time>
      </trkpt>
      <trkpt lat="44.47201" lon="6.23241">
        <ele>833</ele>
        <time>2018-06-23T21:38:08Z</time>
      </trkpt>
      <trkpt lat="44.47198" lon="6.23232">
        <ele>830</ele>
        <time>2018-06-23T21:38:13Z</time>
      </trkpt>
      <trkpt lat="44.47194" lon="6.23225">
        <ele>828</ele>
        <time>2018-06-23T21:38:18Z</time>
      </trkpt>
      <trkpt lat="44.47189" lon="6.23226">
        <ele>826</ele>
        <time>2018-06-23T21:38:23Z</time>
      </trkpt>
      <trkpt lat="44.47188" lon="6.23227">
        <ele>826</ele>
        <time>2018-06-23T21:38:28Z</time>
      </trkpt>
      <trkpt lat="44.47185" lon="6.23222">
        <ele>824</ele>
        <time>2018-06-23T21:38:33Z</time>
      </trkpt>
      <trkpt lat="44.4718" lon="6.23216">
        <ele>822</ele>
        <time>2018-06-23T21:38:38Z</time>
      </trkpt>
      <trkpt lat="44.47176" lon="6.2321">
        <ele>819</ele>
        <time>2018-06-23T21:38:43Z</time>
      </trkpt>
      <trkpt lat="44.47173" lon="6.23203">
        <ele>817</ele>
        <time>2018-06-23T21:38:48Z</time>
      </trkpt>
      <trkpt lat="44.47168" lon="6.23197">
        <ele>814</ele>
        <time>2018-06-23T21:38:53Z</time>
      </trkpt>
      <trkpt lat="44.47164" lon="6.2319">
        <ele>811</ele>
        <time>2018-06-23T21:38:58Z</time>
      </trkpt>
      <trkpt lat="44.47161" lon="6.23184">
        <ele>808</ele>
        <time>2018-06-23T21:39:03Z</time>
      </trkpt>
      <trkpt lat="44.47158" lon="6.23176">
        <ele>804</ele>
        <time>2018-06-23T21:39:08Z</time>
      </trkpt>
      <trkpt lat="44.47156" lon="6.23177">
        <ele>804</ele>
        <time>2018-06-23T21:39:13Z</time>
      </trkpt>
      <trkpt lat="44.47154" lon="6.23185">
        <ele>806</ele>
        <time>2018-06-23T21:39:18Z</time>
      </trkpt>
      <trkpt lat="44.47153" lon="6.23193">
        <ele>808</ele>
        <time>2018-06-23T21:39:23Z</time>
      </trkpt>
      <trkpt lat="44.47151" lon="6.23201">
        <ele>810</ele>
        <time>2018-06-23T21:39:28Z</time>
      </trkpt>
      <trkpt lat="44.4715" lon="6.23208">
        <ele>810</ele>
        <time>2018-06-23T21:39:33Z</time>
      </trkpt>
      <trkpt lat="44.4715" lon="6.23217">
        <ele>811</ele>
        <time>2018-06-23T21:39:38Z</time>
      </trkpt>
      <trkpt lat="44.47149" lon="6.23226">
        <ele>812</ele>
        <time>2018-06-23T21:39:43Z</time>
      </trkpt>
      <trkpt lat="44.47148" lon="6.23234">
        <ele>812</ele>
        <time>2018-06-23T21:39:48Z</time>
      </trkpt>
      <trkpt lat="44.47148" lon="6.23243">
        <ele>813</ele>
        <time>2018-06-23T21:39:53Z</time>
      </trkpt>
      <trkpt lat="44.47147" lon="6.23251">
        <ele>814</ele>
        <time>2018-06-23T21:39:58Z</time>
      </trkpt>
      <trkpt lat="44.47147" lon="6.2326">
        <ele>814</ele>
        <time>2018-06-23T21:40:03Z</time>
      </trkpt>
      <trkpt lat="44.47147" lon="6.23267">
        <ele>815</ele>
        <time>2018-06-23T21:40:08Z</time>
      </trkpt>
      <trkpt lat="44.47147" lon="6.23274">
        <ele>815</ele>
        <time>2018-06-23T21:40:13Z</time>
      </trkpt>
      <trkpt lat="44.47146" lon="6.23278">
        <ele>815</ele>
        <time>2018-06-23T21:40:18Z</time>
      </trkpt>
      <trkpt lat="44.47144" lon="6.23271">
        <ele>814</ele>
        <time>2018-06-23T21:40:23Z</time>
      </trkpt>
      <trkpt lat="44.4714" lon="6.23263">
        <ele>812</ele>
        <time>2018-06-23T21:40:28Z</time>
      </trkpt>
      <trkpt lat="44.47136" lon="6.23257">
        <ele>809</ele>
        <time>2018-06-23T21:40:33Z</time>
      </trkpt>
      <trkpt lat="44.47134" lon="6.2325">
        <ele>808</ele>
        <time>2018-06-23T21:40:38Z</time>
      </trkpt>
      <trkpt lat="44.47133" lon="6.23243">
        <ele>807</ele>
        <time>2018-06-23T21:40:43Z</time>
      </trkpt>
      <trkpt lat="44.47132" lon="6.23243">
        <ele>807</ele>
        <time>2018-06-23T21:40:48Z</time>
      </trkpt>
      <trkpt lat="44.47131" lon="6.23243">
        <ele>807</ele>
        <time>2018-06-23T21:40:53Z</time>
      </trkpt>
      <trkpt lat="44.47132" lon="6.23243">
        <ele>807</ele>
        <time>2018-06-23T21:40:58Z</time>
      </trkpt>
      <trkpt lat="44.47132" lon="6.23243">
        <ele>807</ele>
        <time>2018-06-23T21:41:03Z</time>
      </trkpt>
      <trkpt lat="44.47132" lon="6.23243">
        <ele>807</ele>
        <time>2018-06-23T21:41:08Z</time>
      </trkpt>
      <trkpt lat="44.47132" lon="6.23244">
        <ele>807</ele>
        <time>2018-06-23T21:41:13Z</time>
      </trkpt>
      <trkpt lat="44.47132" lon="6.23244">
        <ele>807</ele>
        <time>2018-06-23T21:41:18Z</time>
      </trkpt>
      <trkpt lat="44.47132" lon="6.23244">
        <ele>807</ele>
        <time>2018-06-23T21:41:23Z</time>
      </trkpt>
      <trkpt lat="44.47132" lon="6.23244">
        <ele>807</ele>
        <time>2018-06-23T21:41:28Z</time>
      </trkpt>
      <trkpt lat="44.4713" lon="6.2324">
        <ele>806</ele>
        <time>2018-06-23T21:41:33Z</time>
      </trkpt>
      <trkpt lat="44.47127" lon="6.23237">
        <ele>805</ele>
        <time>2018-06-23T21:41:38Z</time>
      </trkpt>
      <trkpt lat="44.47126" lon="6.23229">
        <ele>803</ele>
        <time>2018-06-23T21:41:43Z</time>
      </trkpt>
      <trkpt lat="44.47125" lon="6.23223">
        <ele>802</ele>
        <time>2018-06-23T21:41:48Z</time>
      </trkpt>
      <trkpt lat="44.47121" lon="6.23216">
        <ele>800</ele>
        <time>2018-06-23T21:41:53Z</time>
      </trkpt>
      <trkpt lat="44.47118" lon="6.23209">
        <ele>798</ele>
        <time>2018-06-23T21:41:58Z</time>
      </trkpt>
      <trkpt lat="44.47115" lon="6.23201">
        <ele>796</ele>
        <time>2018-06-23T21:42:03Z</time>
      </trkpt>
      <trkpt lat="44.47113" lon="6.23193">
        <ele>793</ele>
        <time>2018-06-23T21:42:08Z</time>
      </trkpt>
      <trkpt lat="44.4711" lon="6.23185">
        <ele>790</ele>
        <time>2018-06-23T21:42:13Z</time>
      </trkpt>
      <trkpt lat="44.47108" lon="6.23177">
        <ele>787</ele>
        <time>2018-06-23T21:42:18Z</time>
      </trkpt>
      <trkpt lat="44.47107" lon="6.23169">
        <ele>784</ele>
        <time>2018-06-23T21:42:23Z</time>
      </trkpt>
      <trkpt lat="44.47105" lon="6.23161">
        <ele>781</ele>
        <time>2018-06-23T21:42:28Z</time>
      </trkpt>
      <trkpt lat="44.47103" lon="6.23154">
        <ele>779</ele>
        <time>2018-06-23T21:42:33Z</time>
      </trkpt>
      <trkpt lat="44.471" lon="6.23157">
        <ele>778</ele>
        <time>2018-06-23T21:42:38Z</time>
      </trkpt>
      <trkpt lat="44.47098" lon="6.23163">
        <ele>779</ele>
        <time>2018-06-23T21:42:43Z</time>
      </trkpt>
      <trkpt lat="44.47097" lon="6.2317">
        <ele>780</ele>
        <time>2018-06-23T21:42:48Z</time>
      </trkpt>
      <trkpt lat="44.47097" lon="6.23177">
        <ele>782</ele>
        <time>2018-06-23T21:42:53Z</time>
      </trkpt>
      <trkpt lat="44.47096" lon="6.23186">
        <ele>784</ele>
        <time>2018-06-23T21:42:58Z</time>
      </trkpt>
      <trkpt lat="44.47095" lon="6.23192">
        <ele>785</ele>
        <time>2018-06-23T21:43:03Z</time>
      </trkpt>
      <trkpt lat="44.47092" lon="6.23195">
        <ele>784</ele>
        <time>2018-06-23T21:43:08Z</time>
      </trkpt>
      <trkpt lat="44.47091" lon="6.23192">
        <ele>783</ele>
        <time>2018-06-23T21:43:13Z</time>
      </trkpt>
      <trkpt lat="44.47089" lon="6.23185">
        <ele>780</ele>
        <time>2018-06-23T21:43:18Z</time>
      </trkpt>
      <trkpt lat="44.47085" lon="6.23179">
        <ele>777</ele>
        <time>2018-06-23T21:43:23Z</time>
      </trkpt>
      <trkpt lat="44.47083" lon="6.23175">
        <ele>775</ele>
        <time>2018-06-23T21:43:28Z</time>
      </trkpt>
      <trkpt lat="44.4708" lon="6.23169">
        <ele>773</ele>
        <time>2018-06-23T21:43:33Z</time>
      </trkpt>
      <trkpt lat="44.47078" lon="6.23163">
        <ele>771</ele>
        <time>2018-06-23T21:43:38Z</time>
      </trkpt>
      <trkpt lat="44.47078" lon="6.23155">
        <ele>769</ele>
        <time>2018-06-23T21:43:43Z</time>
      </trkpt>
      <trkpt lat="44.47073" lon="6.23153">
        <ele>767</ele>
        <time>2018-06-23T21:43:48Z</time>
      </trkpt>
      <trkpt lat="44.4707" lon="6.23158">
        <ele>767</ele>
        <time>2018-06-23T21:43:53Z</time>
      </trkpt>
      <trkpt lat="44.47067" lon="6.23165">
        <ele>767</ele>
        <time>2018-06-23T21:43:58Z</time>
      </trkpt>
      <trkpt lat="44.47066" lon="6.23171">
        <ele>767</ele>
        <time>2018-06-23T21:44:03Z</time>
      </trkpt>
      <trkpt lat="44.47065" lon="6.23178">
        <ele>768</ele>
        <time>2018-06-23T21:44:08Z</time>
      </trkpt>
      <trkpt lat="44.47067" lon="6.23186">
        <ele>771</ele>
        <time>2018-06-23T21:44:13Z</time>
      </trkpt>
      <trkpt lat="44.47066" lon="6.23194">
        <ele>772</ele>
        <time>2018-06-23T21:44:18Z</time>
      </trkpt>
      <trkpt lat="44.47067" lon="6.23203">
        <ele>774</ele>
        <time>2018-06-23T21:44:23Z</time>
      </trkpt>
      <trkpt lat="44.47068" lon="6.2321">
        <ele>774</ele>
        <time>2018-06-23T21:44:28Z</time>
      </trkpt>
      <trkpt lat="44.47069" lon="6.23217">
        <ele>775</ele>
        <time>2018-06-23T21:44:33Z</time>
      </trkpt>
      <trkpt lat="44.47068" lon="6.23218">
        <ele>775</ele>
        <time>2018-06-23T21:44:38Z</time>
      </trkpt>
      <trkpt lat="44.47066" lon="6.23216">
        <ele>774</ele>
        <time>2018-06-23T21:44:43Z</time>
      </trkpt>
      <trkpt lat="44.47062" lon="6.23211">
        <ele>771</ele>
        <time>2018-06-23T21:44:48Z</time>
      </trkpt>
      <trkpt lat="44.47058" lon="6.23204">
        <ele>770</ele>
        <time>2018-06-23T21:44:53Z</time>
      </trkpt>
      <trkpt lat="44.47053" lon="6.23199">
        <ele>766</ele>
        <time>2018-06-23T21:44:58Z</time>
      </trkpt>
      <trkpt lat="44.47051" lon="6.23196">
        <ele>765</ele>
        <time>2018-06-23T21:45:03Z</time>
      </trkpt>
      <trkpt lat="44.47049" lon="6.23191">
        <ele>763</ele>
        <time>2018-06-23T21:45:08Z</time>
      </trkpt>
      <trkpt lat="44.47045" lon="6.23186">
        <ele>760</ele>
        <time>2018-06-23T21:45:13Z</time>
      </trkpt>
      <trkpt lat="44.4704" lon="6.2318">
        <ele>757</ele>
        <time>2018-06-23T21:45:18Z</time>
      </trkpt>
      <trkpt lat="44.47035" lon="6.23173">
        <ele>753</ele>
        <time>2018-06-23T21:45:23Z</time>
      </trkpt>
      <trkpt lat="44.47033" lon="6.23174">
        <ele>752</ele>
        <time>2018-06-23T21:45:28Z</time>
      </trkpt>
      <trkpt lat="44.4703" lon="6.23176">
        <ele>751</ele>
        <time>2018-06-23T21:45:33Z</time>
      </trkpt>
      <trkpt lat="44.47028" lon="6.23175">
        <ele>750</ele>
        <time>2018-06-23T21:45:38Z</time>
      </trkpt>
      <trkpt lat="44.47024" lon="6.23177">
        <ele>748</ele>
        <time>2018-06-23T21:45:43Z</time>
      </trkpt>
      <trkpt lat="44.47023" lon="6.23181">
        <ele>748</ele>
        <time>2018-06-23T21:45:48Z</time>
      </trkpt>
      <trkpt lat="44.47024" lon="6.23187">
        <ele>750</ele>
        <time>2018-06-23T21:45:53Z</time>
      </trkpt>
      <trkpt lat="44.47024" lon="6.23187">
        <ele>750</ele>
        <time>2018-06-23T21:45:58Z</time>
      </trkpt>
      <trkpt lat="44.47022" lon="6.23187">
        <ele>749</ele>
        <time>2018-06-23T21:46:03Z</time>
      </trkpt>
      <trkpt lat="44.47019" lon="6.23188">
        <ele>747</ele>
        <time>2018-06-23T21:46:08Z</time>
      </trkpt>
      <trkpt lat="44.47015" lon="6.23189">
        <ele>745</ele>
        <time>2018-06-23T21:46:13Z</time>
      </trkpt>
      <trkpt lat="44.47013" lon="6.23183">
        <ele>744</ele>
        <time>2018-06-23T21:46:18Z</time>
      </trkpt>
      <trkpt lat="44.47011" lon="6.23179">
        <ele>742</ele>
        <time>2018-06-23T21:46:23Z</time>
      </trkpt>
      <trkpt lat="44.47008" lon="6.23178">
        <ele>741</ele>
        <time>2018-06-23T21:46:28Z</time>
      </trkpt>
      <trkpt lat="44.47006" lon="6.23173">
        <ele>739</ele>
        <time>2018-06-23T21:46:33Z</time>
      </trkpt>
      <trkpt lat="44.47007" lon="6.23167">
        <ele>739</ele>
        <time>2018-06-23T21:46:38Z</time>
      </trkpt>
      <trkpt lat="44.47006" lon="6.23164">
        <ele>738</ele>
        <time>2018-06-23T21:46:43Z</time>
      </trkpt>
      <trkpt lat="44.47006" lon="6.23163">
        <ele>738</ele>
        <time>2018-06-23T21:46:48Z</time>
      </trkpt>
      <trkpt lat="44.47004" lon="6.23165">
        <ele>738</ele>
        <time>2018-06-23T21:46:53Z</time>
      </trkpt>
      <trkpt lat="44.47003" lon="6.23166">
        <ele>737</ele>
        <time>2018-06-23T21:46:58Z</time>
      </trkpt>
      <trkpt lat="44.47" lon="6.23171">
        <ele>736</ele>
        <time>2018-06-23T21:47:03Z</time>
      </trkpt>
      <trkpt lat="44.47" lon="6.23171">
        <ele>736</ele>
        <time>2018-06-23T21:47:08Z</time>
      </trkpt>
      <trkpt lat="44.46999" lon="6.23173">
        <ele>736</ele>
        <time>2018-06-23T21:47:13Z</time>
      </trkpt>
      <trkpt lat="44.46997" lon="6.2318">
        <ele>735</ele>
        <time>2018-06-23T21:47:18Z</time>
      </trkpt>
      <trkpt lat="44.46995" lon="6.23184">
        <ele>735</ele>
        <time>2018-06-23T21:47:23Z</time>
      </trkpt>
      <trkpt lat="44.46995" lon="6.23189">
        <ele>735</ele>
        <time>2018-06-23T21:47:28Z</time>
      </trkpt>
      <trkpt lat="44.46995" lon="6.23196">
        <ele>736</ele>
        <time>2018-06-23T21:47:33Z</time>
      </trkpt>
      <trkpt lat="44.46996" lon="6.23201">
        <ele>737</ele>
        <time>2018-06-23T21:47:38Z</time>
      </trkpt>
      <trkpt lat="44.46997" lon="6.23207">
        <ele>737</ele>
        <time>2018-06-23T21:47:43Z</time>
      </trkpt>
      <trkpt lat="44.46998" lon="6.23213">
        <ele>738</ele>
        <time>2018-06-23T21:47:48Z</time>
      </trkpt>
      <trkpt lat="44.47001" lon="6.23219">
        <ele>740</ele>
        <time>2018-06-23T21:47:53Z</time>
      </trkpt>
      <trkpt lat="44.47002" lon="6.23227">
        <ele>740</ele>
        <time>2018-06-23T21:47:58Z</time>
      </trkpt>
      <trkpt lat="44.47001" lon="6.23231">
        <ele>740</ele>
        <time>2018-06-23T21:48:03Z</time>
      </trkpt>
      <trkpt lat="44.47002" lon="6.23231">
        <ele>740</ele>
        <time>2018-06-23T21:48:08Z</time>
      </trkpt>
      <trkpt lat="44.46998" lon="6.23229">
        <ele>738</ele>
        <time>2018-06-23T21:48:13Z</time>
      </trkpt>
      <trkpt lat="44.46995" lon="6.23224">
        <ele>736</ele>
        <time>2018-06-23T21:48:18Z</time>
      </trkpt>
      <trkpt lat="44.4699" lon="6.2322">
        <ele>734</ele>
        <time>2018-06-23T21:48:23Z</time>
      </trkpt>
      <trkpt lat="44.46986" lon="6.23216">
        <ele>733</ele>
        <time>2018-06-23T21:48:28Z</time>
      </trkpt>
      <trkpt lat="44.46981" lon="6.2321">
        <ele>731</ele>
        <time>2018-06-23T21:48:33Z</time>
      </trkpt>
      <trkpt lat="44.46976" lon="6.23204">
        <ele>729</ele>
        <time>2018-06-23T21:48:38Z</time>
      </trkpt>
      <trkpt lat="44.46972" lon="6.23196">
        <ele>727</ele>
        <time>2018-06-23T21:48:43Z</time>
      </trkpt>
      <trkpt lat="44.46968" lon="6.23189">
        <ele>725</ele>
        <time>2018-06-23T21:48:48Z</time>
      </trkpt>
      <trkpt lat="44.46966" lon="6.2318">
        <ele>724</ele>
        <time>2018-06-23T21:48:53Z</time>
      </trkpt>
      <trkpt lat="44.46966" lon="6.23172">
        <ele>724</ele>
        <time>2018-06-23T21:48:58Z</time>
      </trkpt>
      <trkpt lat="44.46964" lon="6.23164">
        <ele>722</ele>
        <time>2018-06-23T21:49:03Z</time>
      </trkpt>
      <trkpt lat="44.46962" lon="6.23155">
        <ele>721</ele>
        <time>2018-06-23T21:49:08Z</time>
      </trkpt>
      <trkpt lat="44.4696" lon="6.23146">
        <ele>720</ele>
        <time>2018-06-23T21:49:13Z</time>
      </trkpt>
      <trkpt lat="44.46957" lon="6.23137">
        <ele>719</ele>
        <time>2018-06-23T21:49:18Z</time>
      </trkpt>
      <trkpt lat="44.46952" lon="6.2313">
        <ele>717</ele>
        <time>2018-06-23T21:49:23Z</time>
      </trkpt>
      <trkpt lat="44.46948" lon="6.23124">
        <ele>716</ele>
        <time>2018-06-23T21:49:28Z</time>
      </trkpt>
      <trkpt lat="44.46943" lon="6.23119">
        <ele>715</ele>
        <time>2018-06-23T21:49:33Z</time>
      </trkpt>
      <trkpt lat="44.46938" lon="6.23113">
        <ele>713</ele>
        <time>2018-06-23T21:49:38Z</time>
      </trkpt>
      <trkpt lat="44.46934" lon="6.23113">
        <ele>712</ele>
        <time>2018-06-23T21:49:43Z</time>
      </trkpt>
      <trkpt lat="44.46933" lon="6.23114">
        <ele>712</ele>
        <time>2018-06-23T21:49:48Z</time>
      </trkpt>
      <trkpt lat="44.46933" lon="6.23116">
        <ele>712</ele>
        <time>2018-06-23T21:49:53Z</time>
      </trkpt>
      <trkpt lat="44.46932" lon="6.23121">
        <ele>712</ele>
        <time>2018-06-23T21:49:58Z</time>
      </trkpt>
      <trkpt lat="44.4693" lon="6.23128">
        <ele>711</ele>
        <time>2018-06-23T21:50:03Z</time>
      </trkpt>
      <trkpt lat="44.46929" lon="6.23136">
        <ele>711</ele>
        <time>2018-06-23T21:50:08Z</time>
      </trkpt>
      <trkpt lat="44.46928" lon="6.23143">
        <ele>711</ele>
        <time>2018-06-23T21:50:13Z</time>
      </trkpt>
      <trkpt lat="44.46927" lon="6.23151">
        <ele>711</ele>
        <time>2018-06-23T21:50:18Z</time>
      </trkpt>
      <trkpt lat="44.46925" lon="6.23159">
        <ele>711</ele>
        <time>2018-06-23T21:50:23Z</time>
      </trkpt>
      <trkpt lat="44.46925" lon="6.23166">
        <ele>710</ele>
        <time>2018-06-23T21:50:28Z</time>
      </trkpt>
      <trkpt lat="44.46923" lon="6.23174">
        <ele>710</ele>
        <time>2018-06-23T21:50:33Z</time>
      </trkpt>
      <trkpt lat="44.46922" lon="6.23182">
        <ele>710</ele>
        <time>2018-06-23T21:50:38Z</time>
      </trkpt>
      <trkpt lat="44.4692" lon="6.23189">
        <ele>709</ele>
        <time>2018-06-23T21:50:43Z</time>
      </trkpt>
      <trkpt lat="44.46919" lon="6.23197">
        <ele>709</ele>
        <time>2018-06-23T21:50:48Z</time>
      </trkpt>
      <trkpt lat="44.46918" lon="6.23205">
        <ele>710</ele>
        <time>2018-06-23T21:50:53Z</time>
      </trkpt>
      <trkpt lat="44.46916" lon="6.23214">
        <ele>710</ele>
        <time>2018-06-23T21:50:58Z</time>
      </trkpt>
      <trkpt lat="44.46914" lon="6.23222">
        <ele>710</ele>
        <time>2018-06-23T21:51:03Z</time>
      </trkpt>
      <trkpt lat="44.46913" lon="6.2323">
        <ele>710</ele>
        <time>2018-06-23T21:51:08Z</time>
      </trkpt>
      <trkpt lat="44.46911" lon="6.23238">
        <ele>710</ele>
        <time>2018-06-23T21:51:13Z</time>
      </trkpt>
      <trkpt lat="44.4691" lon="6.23246">
        <ele>710</ele>
        <time>2018-06-23T21:51:18Z</time>
      </trkpt>
      <trkpt lat="44.46908" lon="6.23253">
        <ele>710</ele>
        <time>2018-06-23T21:51:23Z</time>
      </trkpt>
      <trkpt lat="44.46905" lon="6.23261">
        <ele>710</ele>
        <time>2018-06-23T21:51:28Z</time>
      </trkpt>
      <trkpt lat="44.46901" lon="6.23267">
        <ele>710</ele>
        <time>2018-06-23T21:51:33Z</time>
      </trkpt>
      <trkpt lat="44.46896" lon="6.23272">
        <ele>709</ele>
        <time>2018-06-23T21:51:38Z</time>
      </trkpt>
      <trkpt lat="44.46895" lon="6.23273">
        <ele>709</ele>
        <time>2018-06-23T21:51:43Z</time>
      </trkpt>
      <trkpt lat="44.46895" lon="6.23273">
        <ele>709</ele>
        <time>2018-06-23T21:51:48Z</time>
      </trkpt>
      <trkpt lat="44.46893" lon="6.23274">
        <ele>708</ele>
        <time>2018-06-23T21:51:53Z</time>
      </trkpt>
      <trkpt lat="44.46889" lon="6.23278">
        <ele>708</ele>
        <time>2018-06-23T21:51:58Z</time>
      </trkpt>
      <trkpt lat="44.46888" lon="6.23283">
        <ele>708</ele>
        <time>2018-06-23T21:52:03Z</time>
      </trkpt>
      <trkpt lat="44.46888" lon="6.2329">
        <ele>708</ele>
        <time>2018-06-23T21:52:08Z</time>
      </trkpt>
      <trkpt lat="44.46888" lon="6.23297">
        <ele>708</ele>
        <time>2018-06-23T21:52:13Z</time>
      </trkpt>
      <trkpt lat="44.4689" lon="6.23301">
        <ele>709</ele>
        <time>2018-06-23T21:52:18Z</time>
      </trkpt>
      <trkpt lat="44.46894" lon="6.23302">
        <ele>710</ele>
        <time>2018-06-23T21:52:23Z</time>
      </trkpt>
      <trkpt lat="44.46897" lon="6.23304">
        <ele>710</ele>
        <time>2018-06-23T21:52:28Z</time>
      </trkpt>
      <trkpt lat="44.469" lon="6.23305">
        <ele>711</ele>
        <time>2018-06-23T21:52:33Z</time>
      </trkpt>
      <trkpt lat="44.46903" lon="6.23306">
        <ele>712</ele>
        <time>2018-06-23T21:52:38Z</time>
      </trkpt>
      <trkpt lat="44.46906" lon="6.23307">
        <ele>712</ele>
        <time>2018-06-23T21:52:43Z</time>
      </trkpt>
      <trkpt lat="44.46908" lon="6.23308">
        <ele>713</ele>
        <time>2018-06-23T21:52:48Z</time>
      </trkpt>
      <trkpt lat="44.46911" lon="6.23309">
        <ele>713</ele>
        <time>2018-06-23T21:52:53Z</time>
      </trkpt>
      <trkpt lat="44.46911" lon="6.23316">
        <ele>714</ele>
        <time>2018-06-23T21:52:58Z</time>
      </trkpt>
      <trkpt lat="44.46913" lon="6.23314">
        <ele>714</ele>
        <time>2018-06-23T21:53:03Z</time>
      </trkpt>
      <trkpt lat="44.46915" lon="6.23307">
        <ele>714</ele>
        <time>2018-06-23T21:53:08Z</time>
      </trkpt>
      <trkpt lat="44.46919" lon="6.23307">
        <ele>715</ele>
        <time>2018-06-23T21:53:13Z</time>
      </trkpt>
      <trkpt lat="44.46919" lon="6.23308">
        <ele>715</ele>
        <time>2018-06-23T21:53:18Z</time>
      </trkpt>
      <trkpt lat="44.46918" lon="6.23308">
        <ele>715</ele>
        <time>2018-06-23T21:53:23Z</time>
      </trkpt>
      <trkpt lat="44.46918" lon="6.23308">
        <ele>715</ele>
        <time>2018-06-23T21:53:28Z</time>
      </trkpt>
      <trkpt lat="44.46916" lon="6.23308">
        <ele>715</ele>
        <time>2018-06-23T21:53:33Z</time>
      </trkpt>
      <trkpt lat="44.46916" lon="6.23307">
        <ele>714</ele>
        <time>2018-06-23T21:53:38Z</time>
      </trkpt>
      <trkpt lat="44.46914" lon="6.23306">
        <ele>714</ele>
        <time>2018-06-23T21:53:43Z</time>
      </trkpt>
      <trkpt lat="44.46906" lon="6.23299">
        <ele>712</ele>
        <time>2018-06-23T21:53:48Z</time>
      </trkpt>
      <trkpt lat="44.469" lon="6.23296">
        <ele>711</ele>
        <time>2018-06-23T21:53:53Z</time>
      </trkpt>
      <trkpt lat="44.46899" lon="6.23296">
        <ele>710</ele>
        <time>2018-06-23T21:53:58Z</time>
      </trkpt>
      <trkpt lat="44.46899" lon="6.23296">
        <ele>710</ele>
        <time>2018-06-23T21:54:03Z</time>
      </trkpt>
      <trkpt lat="44.46899" lon="6.23297">
        <ele>711</ele>
        <time>2018-06-23T21:54:08Z</time>
      </trkpt>
      <trkpt lat="44.469" lon="6.23297">
        <ele>711</ele>
        <time>2018-06-23T21:54:13Z</time>
      </trkpt>
      <trkpt lat="44.469" lon="6.23297">
        <ele>711</ele>
        <time>2018-06-23T21:54:18Z</time>
      </trkpt>
      <trkpt lat="44.469" lon="6.23297">
        <ele>711</ele>
        <time>2018-06-23T21:54:23Z</time>
      </trkpt>
      <trkpt lat="44.469" lon="6.23296">
        <ele>711</ele>
        <time>2018-06-23T21:54:28Z</time>
      </trkpt>
      <trkpt lat="44.46901" lon="6.23296">
        <ele>711</ele>
        <time>2018-06-23T21:54:33Z</time>
      </trkpt>
      <trkpt lat="44.46901" lon="6.23297">
        <ele>711</ele>
        <time>2018-06-23T21:54:38Z</time>
      </trkpt>
      <trkpt lat="44.46902" lon="6.23298">
        <ele>711</ele>
        <time>2018-06-23T21:54:43Z</time>
      </trkpt>
      <trkpt lat="44.46902" lon="6.23297">
        <ele>711</ele>
        <time>2018-06-23T21:54:48Z</time>
      </trkpt>
      <trkpt lat="44.46904" lon="6.23296">
        <ele>711</ele>
        <time>2018-06-23T21:54:53Z</time>
      </trkpt>
      <trkpt lat="44.46904" lon="6.23294">
        <ele>711</ele>
        <time>2018-06-23T21:54:58Z</time>
      </trkpt>
      <trkpt lat="44.46904" lon="6.23294">
        <ele>711</ele>
        <time>2018-06-23T21:55:03Z</time>
      </trkpt>
      <trkpt lat="44.46904" lon="6.23294">
        <ele>711</ele>
        <time>2018-06-23T21:55:08Z</time>
      </trkpt>
      <trkpt lat="44.46904" lon="6.23294">
        <ele>711</ele>
        <time>2018-06-23T21:55:13Z</time>
      </trkpt>
      <trkpt lat="44.46904" lon="6.23294">
        <ele>711</ele>
        <time>2018-06-23T21:55:18Z</time>
      </trkpt>
      <trkpt lat="44.46904" lon="6.23294">
        <ele>711</ele>
        <time>2018-06-23T21:55:23Z</time>
      </trkpt>
      <trkpt lat="44.46904" lon="6.23294">
        <ele>711</ele>
        <time>2018-06-23T21:55:28Z</time>
      </trkpt>
      <trkpt lat="44.46905" lon="6.23295">
        <ele>712</ele>
        <time>2018-06-23T21:55:33Z</time>
      </trkpt>
      <trkpt lat="44.46905" lon="6.23294">
        <ele>712</ele>
        <time>2018-06-23T21:55:38Z</time>
      </trkpt>
      <trkpt lat="44.46905" lon="6.23294">
        <ele>712</ele>
        <time>2018-06-23T21:55:43Z</time>
      </trkpt>
      <trkpt lat="44.46905" lon="6.23294">
        <ele>712</ele>
        <time>2018-06-23T21:55:48Z</time>
      </trkpt>
      <trkpt lat="44.46905" lon="6.23294">
        <ele>712</ele>
        <time>2018-06-23T21:55:53Z</time>
      </trkpt>
      <trkpt lat="44.46905" lon="6.23294">
        <ele>712</ele>
        <time>2018-06-23T21:55:58Z</time>
      </trkpt>
      <trkpt lat="44.46906" lon="6.23294">
        <ele>712</ele>
        <time>2018-06-23T21:56:03Z</time>
      </trkpt>
      <trkpt lat="44.46906" lon="6.23294">
        <ele>712</ele>
        <time>2018-06-23T21:56:08Z</time>
      </trkpt>
      <trkpt lat="44.46906" lon="6.23295">
        <ele>712</ele>
        <time>2018-06-23T21:56:13Z</time>
      </trkpt>
      <trkpt lat="44.46906" lon="6.23295">
        <ele>712</ele>
        <time>2018-06-23T21:56:18Z</time>
      </trkpt>
      <trkpt lat="44.46905" lon="6.23295">
        <ele>712</ele>
        <time>2018-06-23T21:56:23Z</time>
      </trkpt>
      <trkpt lat="44.46905" lon="6.23296">
        <ele>712</ele>
        <time>2018-06-23T21:56:28Z</time>
      </trkpt>
      <trkpt lat="44.46907" lon="6.23296">
        <ele>712</ele>
        <time>2018-06-23T21:56:33Z</time>
      </trkpt>
      <trkpt lat="44.46909" lon="6.233">
        <ele>713</ele>
        <time>2018-06-23T21:56:38Z</time>
      </trkpt>
      <trkpt lat="44.46906" lon="6.23297">
        <ele>712</ele>
        <time>2018-06-23T21:56:43Z</time>
      </trkpt>
      <trkpt lat="44.469" lon="6.23295">
        <ele>710</ele>
        <time>2018-06-23T21:56:48Z</time>
      </trkpt>
      <trkpt lat="44.46899" lon="6.23295">
        <ele>710</ele>
        <time>2018-06-23T21:56:53Z</time>
      </trkpt>
      <trkpt lat="44.46899" lon="6.23295">
        <ele>710</ele>
        <time>2018-06-23T21:56:58Z</time>
      </trkpt>
      <trkpt lat="44.46899" lon="6.23295">
        <ele>710</ele>
        <time>2018-06-23T21:57:03Z</time>
      </trkpt>
      <trkpt lat="44.46899" lon="6.23295">
        <ele>710</ele>
        <time>2018-06-23T21:57:08Z</time>
      </trkpt>
      <trkpt lat="44.46899" lon="6.23295">
        <ele>710</ele>
        <time>2018-06-23T21:57:13Z</time>
      </trkpt>
      <trkpt lat="44.46899" lon="6.23295">
        <ele>710</ele>
        <time>2018-06-23T21:57:18Z</time>
      </trkpt>
      <trkpt lat="44.46899" lon="6.23295">
        <ele>710</ele>
        <time>2018-06-23T21:57:23Z</time>
      </trkpt>
      <trkpt lat="44.46899" lon="6.23295">
        <ele>710</ele>
        <time>2018-06-23T21:57:28Z</time>
      </trkpt>
      <trkpt lat="44.46899" lon="6.23295">
        <ele>710</ele>
        <time>2018-06-23T21:57:33Z</time>
      </trkpt>
      <trkpt lat="44.46899" lon="6.23295">
        <ele>710</ele>
        <time>2018-06-23T21:57:38Z</time>
      </trkpt>
      <trkpt lat="44.46899" lon="6.23295">
        <ele>710</ele>
        <time>2018-06-23T21:57:43Z</time>
      </trkpt>
      <trkpt lat="44.46899" lon="6.23295">
        <ele>710</ele>
        <time>2018-06-23T21:57:48Z</time>
      </trkpt>
      <trkpt lat="44.46899" lon="6.23295">
        <ele>710</ele>
        <time>2018-06-23T21:57:53Z</time>
      </trkpt>
      <trkpt lat="44.46899" lon="6.23295">
        <ele>710</ele>
        <time>2018-06-23T21:57:58Z</time>
      </trkpt>
      <trkpt lat="44.46899" lon="6.23295">
        <ele>710</ele>
        <time>2018-06-23T21:58:03Z</time>
      </trkpt>
      <trkpt lat="44.46899" lon="6.23295">
        <ele>710</ele>
        <time>2018-06-23T21:58:08Z</time>
      </trkpt>
      <trkpt lat="44.46899" lon="6.23294">
        <ele>710</ele>
        <time>2018-06-23T21:58:13Z</time>
      </trkpt>
      <trkpt lat="44.46899" lon="6.23294">
        <ele>710</ele>
        <time>2018-06-23T21:58:18Z</time>
      </trkpt>
      <trkpt lat="44.46899" lon="6.23294">
        <ele>710</ele>
        <time>2018-06-23T21:58:23Z</time>
      </trkpt>
      <trkpt lat="44.46899" lon="6.23294">
        <ele>710</ele>
        <time>2018-06-23T21:58:28Z</time>
      </trkpt>
      <trkpt lat="44.46899" lon="6.23294">
        <ele>710</ele>
        <time>2018-06-23T21:58:33Z</time>
      </trkpt>
      <trkpt lat="44.46899" lon="6.23294">
        <ele>710</ele>
        <time>2018-06-23T21:58:38Z</time>
      </trkpt>
      <trkpt lat="44.46899" lon="6.23294">
        <ele>710</ele>
        <time>2018-06-23T21:58:43Z</time>
      </trkpt>
      <trkpt lat="44.46899" lon="6.23294">
        <ele>710</ele>
        <time>2018-06-23T21:58:48Z</time>
      </trkpt>
      <trkpt lat="44.46899" lon="6.23294">
        <ele>710</ele>
        <time>2018-06-23T21:58:53Z</time>
      </trkpt>
      <trkpt lat="44.46899" lon="6.23294">
        <ele>710</ele>
        <time>2018-06-23T21:58:58Z</time>
      </trkpt>
      <trkpt lat="44.46899" lon="6.23294">
        <ele>710</ele>
        <time>2018-06-23T21:59:03Z</time>
      </trkpt>
      <trkpt lat="44.46899" lon="6.23294">
        <ele>710</ele>
        <time>2018-06-23T21:59:08Z</time>
      </trkpt>
      <trkpt lat="44.46899" lon="6.23294">
        <ele>710</ele>
        <time>2018-06-23T21:59:13Z</time>
      </trkpt>
      <trkpt lat="44.46899" lon="6.23294">
        <ele>710</ele>
        <time>2018-06-23T21:59:18Z</time>
      </trkpt>
      <trkpt lat="44.46899" lon="6.23294">
        <ele>710</ele>
        <time>2018-06-23T21:59:23Z</time>
      </trkpt>
      <trkpt lat="44.46899" lon="6.23294">
        <ele>710</ele>
        <time>2018-06-23T21:59:28Z</time>
      </trkpt>
      <trkpt lat="44.46899" lon="6.23294">
        <ele>710</ele>
        <time>2018-06-23T21:59:33Z</time>
      </trkpt>
      <trkpt lat="44.46899" lon="6.23294">
        <ele>710</ele>
        <time>2018-06-23T21:59:38Z</time>
      </trkpt>
      <trkpt lat="44.46899" lon="6.23294">
        <ele>710</ele>
        <time>2018-06-23T21:59:43Z</time>
      </trkpt>
      <trkpt lat="44.46899" lon="6.23294">
        <ele>710</ele>
        <time>2018-06-23T21:59:48Z</time>
      </trkpt>
      <trkpt lat="44.46899" lon="6.23294">
        <ele>710</ele>
        <time>2018-06-23T21:59:53Z</time>
      </trkpt>
      <trkpt lat="44.46899" lon="6.23294">
        <ele>710</ele>
        <time>2018-06-23T21:59:58Z</time>
      </trkpt>
      <trkpt lat="44.46899" lon="6.23294">
        <ele>710</ele>
        <time>2018-06-23T22:00:03Z</time>
      </trkpt>
      <trkpt lat="44.46899" lon="6.23294">
        <ele>710</ele>
        <time>2018-06-23T22:00:08Z</time>
      </trkpt>
      <trkpt lat="44.46899" lon="6.23294">
        <ele>710</ele>
        <time>2018-06-23T22:00:13Z</time>
      </trkpt>
      <trkpt lat="44.46899" lon="6.23294">
        <ele>710</ele>
        <time>2018-06-23T22:00:18Z</time>
      </trkpt>
      <trkpt lat="44.46899" lon="6.23294">
        <ele>710</ele>
        <time>2018-06-23T22:00:23Z</time>
      </trkpt>
      <trkpt lat="44.46899" lon="6.23294">
        <ele>710</ele>
        <time>2018-06-23T22:00:28Z</time>
      </trkpt>
      <trkpt lat="44.46899" lon="6.23294">
        <ele>710</ele>
        <time>2018-06-23T22:00:33Z</time>
      </trkpt>
      <trkpt lat="44.46899" lon="6.23294">
        <ele>710</ele>
        <time>2018-06-23T22:00:38Z</time>
      </trkpt>
      <trkpt lat="44.46899" lon="6.23294">
        <ele>710</ele>
        <time>2018-06-23T22:00:43Z</time>
      </trkpt>
      <trkpt lat="44.46899" lon="6.23294">
        <ele>710</ele>
        <time>2018-06-23T22:00:48Z</time>
      </trkpt>
      <trkpt lat="44.46899" lon="6.23294">
        <ele>710</ele>
        <time>2018-06-23T22:00:53Z</time>
      </trkpt>
      <trkpt lat="44.46899" lon="6.23294">
        <ele>710</ele>
        <time>2018-06-23T22:00:58Z</time>
      </trkpt>
      <trkpt lat="44.46899" lon="6.23294">
        <ele>710</ele>
        <time>2018-06-23T22:01:03Z</time>
      </trkpt>
      <trkpt lat="44.46899" lon="6.23294">
        <ele>710</ele>
        <time>2018-06-23T22:01:08Z</time>
      </trkpt>
      <trkpt lat="44.46899" lon="6.23294">
        <ele>710</ele>
        <time>2018-06-23T22:01:13Z</time>
      </trkpt>
      <trkpt lat="44.46899" lon="6.23294">
        <ele>710</ele>
        <time>2018-06-23T22:01:18Z</time>
      </trkpt>
      <trkpt lat="44.46899" lon="6.23294">
        <ele>710</ele>
        <time>2018-06-23T22:01:23Z</time>
      </trkpt>
      <trkpt lat="44.46899" lon="6.23294">
        <ele>710</ele>
        <time>2018-06-23T22:01:28Z</time>
      </trkpt>
      <trkpt lat="44.46899" lon="6.23294">
        <ele>710</ele>
        <time>2018-06-23T22:01:33Z</time>
      </trkpt>
      <trkpt lat="44.46899" lon="6.23294">
        <ele>710</ele>
        <time>2018-06-23T22:01:38Z</time>
      </trkpt>
      <trkpt lat="44.46899" lon="6.23294">
        <ele>710</ele>
        <time>2018-06-23T22:01:43Z</time>
      </trkpt>
      <trkpt lat="44.46899" lon="6.23294">
        <ele>710</ele>
        <time>2018-06-23T22:01:48Z</time>
      </trkpt>
      <trkpt lat="44.46899" lon="6.23294">
        <ele>710</ele>
        <time>2018-06-23T22:01:53Z</time>
      </trkpt>
      <trkpt lat="44.46899" lon="6.23294">
        <ele>710</ele>
        <time>2018-06-23T22:01:58Z</time>
      </trkpt>
      <trkpt lat="44.46899" lon="6.23294">
        <ele>710</ele>
        <time>2018-06-23T22:02:02Z</time>
      </trkpt>
    </trkseg>
  </trk>
</gpx>